<?xml version="1.0" encoding="UTF-8" standalone="no" ?>
<gpx xmlns="http://www.topografix.com/GPX/1/1" xmlns:xsi="http://www.w3.org/2001/XMLSchema-instance" xsi:schemaLocation="http://www.topografix.com/GPX/1/1 http://www.topografix.com/GPX/1/1/gpx.xsd" version="1.1" creator="VisuGPX - https://www.visugpx.com">
  <metadata>
    <name>Gorges du ras de la Carança / pic du Géant</name>
    <desc><![CDATA[un premier itinéraire vous emmène de Thuès entre Valls au refuge du ras de la Carança en traversant les gorges du même nom. Le deuxième est une boucle qui part du refuge pour grimper au pic du Géant et qui suit ensuite la crête frontière jusqu'au col de la Vaca avant de redescendre au refuge. Enfin le dernier passe par le col Mitja avant de redescendre vers fontpédrouse et de revenir à Tuès. ]]></desc>
  </metadata>
  <trk>
    <name><![CDATA[Tracé actuel: 30 JUIN 2016 06:47]]></name>
    <trkseg>
      <trkpt lat="42.46392" lon="2.22435">
        <ele>1795.88</ele>
        <time>2016-06-30T04:47:47Z</time>
      </trkpt>
      <trkpt lat="42.46392" lon="2.22434">
        <ele>1795.88</ele>
        <time>2016-06-30T04:47:48Z</time>
      </trkpt>
      <trkpt lat="42.46394" lon="2.22426">
        <ele>1795.88</ele>
        <time>2016-06-30T04:48:19Z</time>
      </trkpt>
      <trkpt lat="42.46398" lon="2.22422">
        <ele>1795.88</ele>
        <time>2016-06-30T04:48:26Z</time>
      </trkpt>
      <trkpt lat="42.46404" lon="2.22406">
        <ele>1795.88</ele>
        <time>2016-06-30T04:48:34Z</time>
      </trkpt>
      <trkpt lat="42.46409" lon="2.2238">
        <ele>1795.88</ele>
        <time>2016-06-30T04:48:45Z</time>
      </trkpt>
      <trkpt lat="42.46423" lon="2.2235">
        <ele>1795.88</ele>
        <time>2016-06-30T04:48:51Z</time>
      </trkpt>
      <trkpt lat="42.46418" lon="2.22348">
        <ele>1796.84</ele>
        <time>2016-06-30T04:48:56Z</time>
      </trkpt>
      <trkpt lat="42.46414" lon="2.22346">
        <ele>1799.24</ele>
        <time>2016-06-30T04:49:01Z</time>
      </trkpt>
      <trkpt lat="42.46411" lon="2.22342">
        <ele>1804.05</ele>
        <time>2016-06-30T04:49:05Z</time>
      </trkpt>
      <trkpt lat="42.46409" lon="2.2234">
        <ele>1807.42</ele>
        <time>2016-06-30T04:49:08Z</time>
      </trkpt>
      <trkpt lat="42.46407" lon="2.22338">
        <ele>1809.34</ele>
        <time>2016-06-30T04:49:10Z</time>
      </trkpt>
      <trkpt lat="42.46404" lon="2.22335">
        <ele>1811.74</ele>
        <time>2016-06-30T04:49:13Z</time>
      </trkpt>
      <trkpt lat="42.46402" lon="2.22333">
        <ele>1815.59</ele>
        <time>2016-06-30T04:49:17Z</time>
      </trkpt>
      <trkpt lat="42.46396" lon="2.22328">
        <ele>1819.43</ele>
        <time>2016-06-30T04:49:24Z</time>
      </trkpt>
      <trkpt lat="42.46393" lon="2.22327">
        <ele>1820.87</ele>
        <time>2016-06-30T04:49:27Z</time>
      </trkpt>
      <trkpt lat="42.46386" lon="2.22331">
        <ele>1823.76</ele>
        <time>2016-06-30T04:49:34Z</time>
      </trkpt>
      <trkpt lat="42.46382" lon="2.22333">
        <ele>1825.68</ele>
        <time>2016-06-30T04:49:39Z</time>
      </trkpt>
      <trkpt lat="42.46377" lon="2.2234">
        <ele>1827.12</ele>
        <time>2016-06-30T04:49:46Z</time>
      </trkpt>
      <trkpt lat="42.46373" lon="2.22342">
        <ele>1828.08</ele>
        <time>2016-06-30T04:49:50Z</time>
      </trkpt>
      <trkpt lat="42.46364" lon="2.2234">
        <ele>1829.05</ele>
        <time>2016-06-30T04:49:58Z</time>
      </trkpt>
      <trkpt lat="42.4635" lon="2.22344">
        <ele>1830.97</ele>
        <time>2016-06-30T04:50:10Z</time>
      </trkpt>
      <trkpt lat="42.46349" lon="2.22344">
        <ele>1830.97</ele>
        <time>2016-06-30T04:50:11Z</time>
      </trkpt>
      <trkpt lat="42.46344" lon="2.22348">
        <ele>1830.97</ele>
        <time>2016-06-30T04:50:15Z</time>
      </trkpt>
      <trkpt lat="42.46333" lon="2.22359">
        <ele>1830.97</ele>
        <time>2016-06-30T04:50:27Z</time>
      </trkpt>
      <trkpt lat="42.4633" lon="2.22363">
        <ele>1830.97</ele>
        <time>2016-06-30T04:50:32Z</time>
      </trkpt>
      <trkpt lat="42.46329" lon="2.22365">
        <ele>1830.97</ele>
        <time>2016-06-30T04:50:34Z</time>
      </trkpt>
      <trkpt lat="42.46331" lon="2.2237">
        <ele>1830.97</ele>
        <time>2016-06-30T04:50:38Z</time>
      </trkpt>
      <trkpt lat="42.46331" lon="2.22377">
        <ele>1830.97</ele>
        <time>2016-06-30T04:50:42Z</time>
      </trkpt>
      <trkpt lat="42.46327" lon="2.22382">
        <ele>1830.97</ele>
        <time>2016-06-30T04:50:46Z</time>
      </trkpt>
      <trkpt lat="42.46325" lon="2.22382">
        <ele>1830.97</ele>
        <time>2016-06-30T04:50:48Z</time>
      </trkpt>
      <trkpt lat="42.46322" lon="2.22381">
        <ele>1830.97</ele>
        <time>2016-06-30T04:50:52Z</time>
      </trkpt>
      <trkpt lat="42.46312" lon="2.22386">
        <ele>1830.97</ele>
        <time>2016-06-30T04:51:05Z</time>
      </trkpt>
      <trkpt lat="42.46312" lon="2.22389">
        <ele>1831.93</ele>
        <time>2016-06-30T04:51:07Z</time>
      </trkpt>
      <trkpt lat="42.46309" lon="2.22401">
        <ele>1833.37</ele>
        <time>2016-06-30T04:51:16Z</time>
      </trkpt>
      <trkpt lat="42.46309" lon="2.22408">
        <ele>1837.22</ele>
        <time>2016-06-30T04:51:22Z</time>
      </trkpt>
      <trkpt lat="42.46309" lon="2.22418">
        <ele>1839.14</ele>
        <time>2016-06-30T04:51:34Z</time>
      </trkpt>
      <trkpt lat="42.46307" lon="2.22424">
        <ele>1839.14</ele>
        <time>2016-06-30T04:51:41Z</time>
      </trkpt>
      <trkpt lat="42.46305" lon="2.22428">
        <ele>1839.62</ele>
        <time>2016-06-30T04:51:44Z</time>
      </trkpt>
      <trkpt lat="42.463" lon="2.2244">
        <ele>1841.06</ele>
        <time>2016-06-30T04:51:55Z</time>
      </trkpt>
      <trkpt lat="42.46291" lon="2.22451">
        <ele>1842.98</ele>
        <time>2016-06-30T04:52:09Z</time>
      </trkpt>
      <trkpt lat="42.46291" lon="2.22452">
        <ele>1842.98</ele>
        <time>2016-06-30T04:52:10Z</time>
      </trkpt>
      <trkpt lat="42.46289" lon="2.22457">
        <ele>1843.47</ele>
        <time>2016-06-30T04:52:14Z</time>
      </trkpt>
      <trkpt lat="42.46285" lon="2.22465">
        <ele>1844.43</ele>
        <time>2016-06-30T04:52:22Z</time>
      </trkpt>
      <trkpt lat="42.46281" lon="2.22468">
        <ele>1845.87</ele>
        <time>2016-06-30T04:52:28Z</time>
      </trkpt>
      <trkpt lat="42.46278" lon="2.22482">
        <ele>1848.27</ele>
        <time>2016-06-30T04:52:41Z</time>
      </trkpt>
      <trkpt lat="42.46276" lon="2.2249">
        <ele>1849.71</ele>
        <time>2016-06-30T04:52:50Z</time>
      </trkpt>
      <trkpt lat="42.46275" lon="2.22496">
        <ele>1850.68</ele>
        <time>2016-06-30T04:52:56Z</time>
      </trkpt>
      <trkpt lat="42.46276" lon="2.225">
        <ele>1851.64</ele>
        <time>2016-06-30T04:53:00Z</time>
      </trkpt>
      <trkpt lat="42.46276" lon="2.22505">
        <ele>1852.12</ele>
        <time>2016-06-30T04:53:04Z</time>
      </trkpt>
      <trkpt lat="42.46278" lon="2.22514">
        <ele>1854.04</ele>
        <time>2016-06-30T04:53:15Z</time>
      </trkpt>
      <trkpt lat="42.46277" lon="2.22519">
        <ele>1855</ele>
        <time>2016-06-30T04:53:20Z</time>
      </trkpt>
      <trkpt lat="42.46277" lon="2.22524">
        <ele>1855.48</ele>
        <time>2016-06-30T04:53:25Z</time>
      </trkpt>
      <trkpt lat="42.46275" lon="2.22536">
        <ele>1857.89</ele>
        <time>2016-06-30T04:53:38Z</time>
      </trkpt>
      <trkpt lat="42.46276" lon="2.2254">
        <ele>1858.85</ele>
        <time>2016-06-30T04:53:52Z</time>
      </trkpt>
      <trkpt lat="42.46275" lon="2.22549">
        <ele>1859.33</ele>
        <time>2016-06-30T04:54:01Z</time>
      </trkpt>
      <trkpt lat="42.46273" lon="2.22557">
        <ele>1860.77</ele>
        <time>2016-06-30T04:54:11Z</time>
      </trkpt>
      <trkpt lat="42.46272" lon="2.22561">
        <ele>1861.73</ele>
        <time>2016-06-30T04:54:15Z</time>
      </trkpt>
      <trkpt lat="42.46269" lon="2.22568">
        <ele>1862.69</ele>
        <time>2016-06-30T04:54:25Z</time>
      </trkpt>
      <trkpt lat="42.46264" lon="2.22579">
        <ele>1865.09</ele>
        <time>2016-06-30T04:54:38Z</time>
      </trkpt>
      <trkpt lat="42.46265" lon="2.22581">
        <ele>1865.58</ele>
        <time>2016-06-30T04:54:40Z</time>
      </trkpt>
      <trkpt lat="42.46266" lon="2.22591">
        <ele>1867.5</ele>
        <time>2016-06-30T04:54:50Z</time>
      </trkpt>
      <trkpt lat="42.46264" lon="2.22598">
        <ele>1868.94</ele>
        <time>2016-06-30T04:55:01Z</time>
      </trkpt>
      <trkpt lat="42.46265" lon="2.22608">
        <ele>1870.86</ele>
        <time>2016-06-30T04:55:13Z</time>
      </trkpt>
      <trkpt lat="42.46263" lon="2.22616">
        <ele>1872.3</ele>
        <time>2016-06-30T04:55:25Z</time>
      </trkpt>
      <trkpt lat="42.46261" lon="2.2262">
        <ele>1872.79</ele>
        <time>2016-06-30T04:55:29Z</time>
      </trkpt>
      <trkpt lat="42.46261" lon="2.22629">
        <ele>1874.71</ele>
        <time>2016-06-30T04:55:37Z</time>
      </trkpt>
      <trkpt lat="42.46257" lon="2.22638">
        <ele>1876.63</ele>
        <time>2016-06-30T04:55:49Z</time>
      </trkpt>
      <trkpt lat="42.46254" lon="2.22645">
        <ele>1878.55</ele>
        <time>2016-06-30T04:55:59Z</time>
      </trkpt>
      <trkpt lat="42.46251" lon="2.22655">
        <ele>1880</ele>
        <time>2016-06-30T04:56:10Z</time>
      </trkpt>
      <trkpt lat="42.46249" lon="2.22666">
        <ele>1881.92</ele>
        <time>2016-06-30T04:56:22Z</time>
      </trkpt>
      <trkpt lat="42.46246" lon="2.22676">
        <ele>1883.84</ele>
        <time>2016-06-30T04:56:36Z</time>
      </trkpt>
      <trkpt lat="42.46246" lon="2.22684">
        <ele>1885.28</ele>
        <time>2016-06-30T04:56:43Z</time>
      </trkpt>
      <trkpt lat="42.46241" lon="2.22696">
        <ele>1885.76</ele>
        <time>2016-06-30T04:56:52Z</time>
      </trkpt>
      <trkpt lat="42.46242" lon="2.22699">
        <ele>1885.76</ele>
        <time>2016-06-30T04:56:55Z</time>
      </trkpt>
      <trkpt lat="42.46241" lon="2.22705">
        <ele>1886.24</ele>
        <time>2016-06-30T04:57:00Z</time>
      </trkpt>
      <trkpt lat="42.4624" lon="2.22708">
        <ele>1886.72</ele>
        <time>2016-06-30T04:57:02Z</time>
      </trkpt>
      <trkpt lat="42.46236" lon="2.22719">
        <ele>1888.17</ele>
        <time>2016-06-30T04:57:14Z</time>
      </trkpt>
      <trkpt lat="42.46235" lon="2.22729">
        <ele>1889.61</ele>
        <time>2016-06-30T04:57:25Z</time>
      </trkpt>
      <trkpt lat="42.46235" lon="2.2274">
        <ele>1891.53</ele>
        <time>2016-06-30T04:57:37Z</time>
      </trkpt>
      <trkpt lat="42.46235" lon="2.22744">
        <ele>1892.01</ele>
        <time>2016-06-30T04:57:40Z</time>
      </trkpt>
      <trkpt lat="42.46238" lon="2.2276">
        <ele>1894.42</ele>
        <time>2016-06-30T04:57:54Z</time>
      </trkpt>
      <trkpt lat="42.46242" lon="2.22771">
        <ele>1895.38</ele>
        <time>2016-06-30T04:58:06Z</time>
      </trkpt>
      <trkpt lat="42.46244" lon="2.22778">
        <ele>1895.86</ele>
        <time>2016-06-30T04:58:11Z</time>
      </trkpt>
      <trkpt lat="42.46244" lon="2.22781">
        <ele>1896.34</ele>
        <time>2016-06-30T04:58:14Z</time>
      </trkpt>
      <trkpt lat="42.46245" lon="2.22795">
        <ele>1896.82</ele>
        <time>2016-06-30T04:58:23Z</time>
      </trkpt>
      <trkpt lat="42.46246" lon="2.22797">
        <ele>1896.82</ele>
        <time>2016-06-30T04:58:25Z</time>
      </trkpt>
      <trkpt lat="42.46251" lon="2.22808">
        <ele>1897.78</ele>
        <time>2016-06-30T04:58:36Z</time>
      </trkpt>
      <trkpt lat="42.46239" lon="2.2282">
        <ele>1899.22</ele>
        <time>2016-06-30T04:58:51Z</time>
      </trkpt>
      <trkpt lat="42.46242" lon="2.22831">
        <ele>1901.14</ele>
        <time>2016-06-30T04:59:02Z</time>
      </trkpt>
      <trkpt lat="42.46242" lon="2.22833">
        <ele>1901.63</ele>
        <time>2016-06-30T04:59:04Z</time>
      </trkpt>
      <trkpt lat="42.46243" lon="2.22836">
        <ele>1904.03</ele>
        <time>2016-06-30T04:59:08Z</time>
      </trkpt>
      <trkpt lat="42.46244" lon="2.22841">
        <ele>1904.99</ele>
        <time>2016-06-30T04:59:12Z</time>
      </trkpt>
      <trkpt lat="42.46244" lon="2.22846">
        <ele>1904.99</ele>
        <time>2016-06-30T04:59:16Z</time>
      </trkpt>
      <trkpt lat="42.46244" lon="2.22851">
        <ele>1904.99</ele>
        <time>2016-06-30T04:59:20Z</time>
      </trkpt>
      <trkpt lat="42.46244" lon="2.22855">
        <ele>1904.99</ele>
        <time>2016-06-30T04:59:24Z</time>
      </trkpt>
      <trkpt lat="42.46247" lon="2.22863">
        <ele>1905.47</ele>
        <time>2016-06-30T04:59:30Z</time>
      </trkpt>
      <trkpt lat="42.46247" lon="2.22865">
        <ele>1905.47</ele>
        <time>2016-06-30T04:59:32Z</time>
      </trkpt>
      <trkpt lat="42.46249" lon="2.22871">
        <ele>1905.95</ele>
        <time>2016-06-30T04:59:36Z</time>
      </trkpt>
      <trkpt lat="42.46247" lon="2.22874">
        <ele>1905.95</ele>
        <time>2016-06-30T04:59:39Z</time>
      </trkpt>
      <trkpt lat="42.46246" lon="2.22876">
        <ele>1905.95</ele>
        <time>2016-06-30T04:59:41Z</time>
      </trkpt>
      <trkpt lat="42.4624" lon="2.22882">
        <ele>1907.39</ele>
        <time>2016-06-30T04:59:52Z</time>
      </trkpt>
      <trkpt lat="42.46234" lon="2.22886">
        <ele>1908.35</ele>
        <time>2016-06-30T05:00:00Z</time>
      </trkpt>
      <trkpt lat="42.46225" lon="2.22893">
        <ele>1909.8</ele>
        <time>2016-06-30T05:00:12Z</time>
      </trkpt>
      <trkpt lat="42.4622" lon="2.22896">
        <ele>1910.76</ele>
        <time>2016-06-30T05:00:22Z</time>
      </trkpt>
      <trkpt lat="42.46214" lon="2.22897">
        <ele>1911.72</ele>
        <time>2016-06-30T05:00:30Z</time>
      </trkpt>
      <trkpt lat="42.46204" lon="2.22907">
        <ele>1913.64</ele>
        <time>2016-06-30T05:00:43Z</time>
      </trkpt>
      <trkpt lat="42.462" lon="2.22911">
        <ele>1914.6</ele>
        <time>2016-06-30T05:00:51Z</time>
      </trkpt>
      <trkpt lat="42.46191" lon="2.22916">
        <ele>1915.56</ele>
        <time>2016-06-30T05:01:02Z</time>
      </trkpt>
      <trkpt lat="42.46186" lon="2.2292">
        <ele>1916.04</ele>
        <time>2016-06-30T05:01:09Z</time>
      </trkpt>
      <trkpt lat="42.4618" lon="2.22927">
        <ele>1917.49</ele>
        <time>2016-06-30T05:01:19Z</time>
      </trkpt>
      <trkpt lat="42.46179" lon="2.22927">
        <ele>1917.97</ele>
        <time>2016-06-30T05:01:20Z</time>
      </trkpt>
      <trkpt lat="42.46169" lon="2.22934">
        <ele>1918.93</ele>
        <time>2016-06-30T05:01:32Z</time>
      </trkpt>
      <trkpt lat="42.46166" lon="2.22936">
        <ele>1918.93</ele>
        <time>2016-06-30T05:01:35Z</time>
      </trkpt>
      <trkpt lat="42.46164" lon="2.22937">
        <ele>1919.41</ele>
        <time>2016-06-30T05:01:37Z</time>
      </trkpt>
      <trkpt lat="42.46154" lon="2.22946">
        <ele>1920.85</ele>
        <time>2016-06-30T05:01:49Z</time>
      </trkpt>
      <trkpt lat="42.46143" lon="2.22954">
        <ele>1921.81</ele>
        <time>2016-06-30T05:02:01Z</time>
      </trkpt>
      <trkpt lat="42.4614" lon="2.22958">
        <ele>1922.29</ele>
        <time>2016-06-30T05:02:14Z</time>
      </trkpt>
      <trkpt lat="42.46132" lon="2.22965">
        <ele>1923.25</ele>
        <time>2016-06-30T05:02:27Z</time>
      </trkpt>
      <trkpt lat="42.4613" lon="2.2297">
        <ele>1924.22</ele>
        <time>2016-06-30T05:02:40Z</time>
      </trkpt>
      <trkpt lat="42.46127" lon="2.2297">
        <ele>1924.22</ele>
        <time>2016-06-30T05:02:44Z</time>
      </trkpt>
      <trkpt lat="42.46115" lon="2.22975">
        <ele>1924.7</ele>
        <time>2016-06-30T05:02:56Z</time>
      </trkpt>
      <trkpt lat="42.46103" lon="2.22975">
        <ele>1925.18</ele>
        <time>2016-06-30T05:03:08Z</time>
      </trkpt>
      <trkpt lat="42.46092" lon="2.22976">
        <ele>1926.14</ele>
        <time>2016-06-30T05:03:18Z</time>
      </trkpt>
      <trkpt lat="42.46075" lon="2.22973">
        <ele>1927.1</ele>
        <time>2016-06-30T05:03:32Z</time>
      </trkpt>
      <trkpt lat="42.46073" lon="2.22973">
        <ele>1927.1</ele>
        <time>2016-06-30T05:03:34Z</time>
      </trkpt>
      <trkpt lat="42.46057" lon="2.22974">
        <ele>1928.06</ele>
        <time>2016-06-30T05:03:48Z</time>
      </trkpt>
      <trkpt lat="42.46045" lon="2.22977">
        <ele>1928.54</ele>
        <time>2016-06-30T05:03:59Z</time>
      </trkpt>
      <trkpt lat="42.46042" lon="2.22979">
        <ele>1928.54</ele>
        <time>2016-06-30T05:04:02Z</time>
      </trkpt>
      <trkpt lat="42.46029" lon="2.22983">
        <ele>1929.98</ele>
        <time>2016-06-30T05:04:14Z</time>
      </trkpt>
      <trkpt lat="42.46016" lon="2.22992">
        <ele>1930.95</ele>
        <time>2016-06-30T05:04:28Z</time>
      </trkpt>
      <trkpt lat="42.46015" lon="2.22993">
        <ele>1930.95</ele>
        <time>2016-06-30T05:04:29Z</time>
      </trkpt>
      <trkpt lat="42.46013" lon="2.22995">
        <ele>1930.95</ele>
        <time>2016-06-30T05:04:32Z</time>
      </trkpt>
      <trkpt lat="42.46002" lon="2.23007">
        <ele>1932.87</ele>
        <time>2016-06-30T05:04:46Z</time>
      </trkpt>
      <trkpt lat="42.46" lon="2.23008">
        <ele>1933.35</ele>
        <time>2016-06-30T05:04:49Z</time>
      </trkpt>
      <trkpt lat="42.45997" lon="2.2301">
        <ele>1933.35</ele>
        <time>2016-06-30T05:04:52Z</time>
      </trkpt>
      <trkpt lat="42.45992" lon="2.23014">
        <ele>1933.83</ele>
        <time>2016-06-30T05:04:58Z</time>
      </trkpt>
      <trkpt lat="42.45979" lon="2.23021">
        <ele>1935.27</ele>
        <time>2016-06-30T05:05:11Z</time>
      </trkpt>
      <trkpt lat="42.45969" lon="2.23029">
        <ele>1936.71</ele>
        <time>2016-06-30T05:05:23Z</time>
      </trkpt>
      <trkpt lat="42.45958" lon="2.23037">
        <ele>1938.16</ele>
        <time>2016-06-30T05:05:35Z</time>
      </trkpt>
      <trkpt lat="42.45957" lon="2.23037">
        <ele>1938.16</ele>
        <time>2016-06-30T05:05:37Z</time>
      </trkpt>
      <trkpt lat="42.45955" lon="2.23037">
        <ele>1938.64</ele>
        <time>2016-06-30T05:05:41Z</time>
      </trkpt>
      <trkpt lat="42.45943" lon="2.23044">
        <ele>1940.08</ele>
        <time>2016-06-30T05:05:54Z</time>
      </trkpt>
      <trkpt lat="42.45937" lon="2.23046">
        <ele>1940.56</ele>
        <time>2016-06-30T05:06:00Z</time>
      </trkpt>
      <trkpt lat="42.4593" lon="2.23061">
        <ele>1942.48</ele>
        <time>2016-06-30T05:06:13Z</time>
      </trkpt>
      <trkpt lat="42.45921" lon="2.23072">
        <ele>1943.44</ele>
        <time>2016-06-30T05:06:25Z</time>
      </trkpt>
      <trkpt lat="42.45914" lon="2.23082">
        <ele>1944.4</ele>
        <time>2016-06-30T05:06:35Z</time>
      </trkpt>
      <trkpt lat="42.45911" lon="2.23087">
        <ele>1944.4</ele>
        <time>2016-06-30T05:06:39Z</time>
      </trkpt>
      <trkpt lat="42.45911" lon="2.23091">
        <ele>1944.88</ele>
        <time>2016-06-30T05:06:42Z</time>
      </trkpt>
      <trkpt lat="42.4591" lon="2.23093">
        <ele>1944.88</ele>
        <time>2016-06-30T05:06:44Z</time>
      </trkpt>
      <trkpt lat="42.45909" lon="2.23095">
        <ele>1945.85</ele>
        <time>2016-06-30T05:06:46Z</time>
      </trkpt>
      <trkpt lat="42.459" lon="2.23106">
        <ele>1947.29</ele>
        <time>2016-06-30T05:06:58Z</time>
      </trkpt>
      <trkpt lat="42.4589" lon="2.23113">
        <ele>1947.77</ele>
        <time>2016-06-30T05:07:08Z</time>
      </trkpt>
      <trkpt lat="42.4589" lon="2.23113">
        <ele>1947.77</ele>
        <time>2016-06-30T05:07:09Z</time>
      </trkpt>
      <trkpt lat="42.45885" lon="2.23114">
        <ele>1948.25</ele>
        <time>2016-06-30T05:07:14Z</time>
      </trkpt>
      <trkpt lat="42.45875" lon="2.23115">
        <ele>1949.69</ele>
        <time>2016-06-30T05:07:26Z</time>
      </trkpt>
      <trkpt lat="42.45868" lon="2.23115">
        <ele>1951.61</ele>
        <time>2016-06-30T05:07:36Z</time>
      </trkpt>
      <trkpt lat="42.45866" lon="2.23115">
        <ele>1951.61</ele>
        <time>2016-06-30T05:07:38Z</time>
      </trkpt>
      <trkpt lat="42.45862" lon="2.23117">
        <ele>1952.57</ele>
        <time>2016-06-30T05:07:43Z</time>
      </trkpt>
      <trkpt lat="42.45859" lon="2.23118">
        <ele>1953.06</ele>
        <time>2016-06-30T05:07:46Z</time>
      </trkpt>
      <trkpt lat="42.45853" lon="2.23125">
        <ele>1954.5</ele>
        <time>2016-06-30T05:07:55Z</time>
      </trkpt>
      <trkpt lat="42.45845" lon="2.23138">
        <ele>1955.94</ele>
        <time>2016-06-30T05:08:08Z</time>
      </trkpt>
      <trkpt lat="42.45839" lon="2.23149">
        <ele>1956.9</ele>
        <time>2016-06-30T05:08:20Z</time>
      </trkpt>
      <trkpt lat="42.45831" lon="2.23162">
        <ele>1958.82</ele>
        <time>2016-06-30T05:08:34Z</time>
      </trkpt>
      <trkpt lat="42.45828" lon="2.23166">
        <ele>1960.27</ele>
        <time>2016-06-30T05:08:47Z</time>
      </trkpt>
      <trkpt lat="42.45828" lon="2.23167">
        <ele>1960.75</ele>
        <time>2016-06-30T05:09:14Z</time>
      </trkpt>
      <trkpt lat="42.45827" lon="2.23168">
        <ele>1960.75</ele>
        <time>2016-06-30T05:09:42Z</time>
      </trkpt>
      <trkpt lat="42.45828" lon="2.23167">
        <ele>1960.75</ele>
        <time>2016-06-30T05:10:06Z</time>
      </trkpt>
      <trkpt lat="42.45826" lon="2.23166">
        <ele>1961.23</ele>
        <time>2016-06-30T05:10:26Z</time>
      </trkpt>
      <trkpt lat="42.45823" lon="2.23166">
        <ele>1961.23</ele>
        <time>2016-06-30T05:10:30Z</time>
      </trkpt>
      <trkpt lat="42.4582" lon="2.23163">
        <ele>1961.23</ele>
        <time>2016-06-30T05:10:33Z</time>
      </trkpt>
      <trkpt lat="42.45807" lon="2.23162">
        <ele>1962.19</ele>
        <time>2016-06-30T05:10:46Z</time>
      </trkpt>
      <trkpt lat="42.45797" lon="2.2316">
        <ele>1963.15</ele>
        <time>2016-06-30T05:10:55Z</time>
      </trkpt>
      <trkpt lat="42.45784" lon="2.23161">
        <ele>1964.59</ele>
        <time>2016-06-30T05:11:10Z</time>
      </trkpt>
      <trkpt lat="42.45783" lon="2.23161">
        <ele>1965.07</ele>
        <time>2016-06-30T05:11:11Z</time>
      </trkpt>
      <trkpt lat="42.45779" lon="2.23163">
        <ele>1965.07</ele>
        <time>2016-06-30T05:11:15Z</time>
      </trkpt>
      <trkpt lat="42.45777" lon="2.23165">
        <ele>1965.55</ele>
        <time>2016-06-30T05:11:18Z</time>
      </trkpt>
      <trkpt lat="42.45765" lon="2.23175">
        <ele>1966.51</ele>
        <time>2016-06-30T05:11:32Z</time>
      </trkpt>
      <trkpt lat="42.45761" lon="2.2319">
        <ele>1966.51</ele>
        <time>2016-06-30T05:11:45Z</time>
      </trkpt>
      <trkpt lat="42.45759" lon="2.23194">
        <ele>1966.51</ele>
        <time>2016-06-30T05:11:48Z</time>
      </trkpt>
      <trkpt lat="42.45753" lon="2.23205">
        <ele>1966.99</ele>
        <time>2016-06-30T05:12:02Z</time>
      </trkpt>
      <trkpt lat="42.45746" lon="2.23206">
        <ele>1968.92</ele>
        <time>2016-06-30T05:12:11Z</time>
      </trkpt>
      <trkpt lat="42.45744" lon="2.23206">
        <ele>1968.92</ele>
        <time>2016-06-30T05:12:13Z</time>
      </trkpt>
      <trkpt lat="42.45737" lon="2.2321">
        <ele>1969.4</ele>
        <time>2016-06-30T05:12:25Z</time>
      </trkpt>
      <trkpt lat="42.45729" lon="2.23211">
        <ele>1970.36</ele>
        <time>2016-06-30T05:12:35Z</time>
      </trkpt>
      <trkpt lat="42.4572" lon="2.23209">
        <ele>1972.28</ele>
        <time>2016-06-30T05:12:46Z</time>
      </trkpt>
      <trkpt lat="42.45714" lon="2.2321">
        <ele>1974.69</ele>
        <time>2016-06-30T05:12:56Z</time>
      </trkpt>
      <trkpt lat="42.45707" lon="2.23217">
        <ele>1975.65</ele>
        <time>2016-06-30T05:13:07Z</time>
      </trkpt>
      <trkpt lat="42.45701" lon="2.23216">
        <ele>1975.65</ele>
        <time>2016-06-30T05:13:12Z</time>
      </trkpt>
      <trkpt lat="42.45696" lon="2.23219">
        <ele>1976.13</ele>
        <time>2016-06-30T05:13:17Z</time>
      </trkpt>
      <trkpt lat="42.45684" lon="2.23226">
        <ele>1977.09</ele>
        <time>2016-06-30T05:13:32Z</time>
      </trkpt>
      <trkpt lat="42.45679" lon="2.2323">
        <ele>1977.57</ele>
        <time>2016-06-30T05:13:41Z</time>
      </trkpt>
      <trkpt lat="42.45677" lon="2.23232">
        <ele>1978.53</ele>
        <time>2016-06-30T05:13:44Z</time>
      </trkpt>
      <trkpt lat="42.45672" lon="2.23236">
        <ele>1978.53</ele>
        <time>2016-06-30T05:13:55Z</time>
      </trkpt>
      <trkpt lat="42.45671" lon="2.23236">
        <ele>1978.53</ele>
        <time>2016-06-30T05:14:05Z</time>
      </trkpt>
      <trkpt lat="42.45672" lon="2.23234">
        <ele>1978.53</ele>
        <time>2016-06-30T05:14:09Z</time>
      </trkpt>
      <trkpt lat="42.45676" lon="2.23234">
        <ele>1978.53</ele>
        <time>2016-06-30T05:14:19Z</time>
      </trkpt>
      <trkpt lat="42.45677" lon="2.2324">
        <ele>1978.53</ele>
        <time>2016-06-30T05:14:31Z</time>
      </trkpt>
      <trkpt lat="42.45672" lon="2.23244">
        <ele>1979.01</ele>
        <time>2016-06-30T05:14:41Z</time>
      </trkpt>
      <trkpt lat="42.45668" lon="2.23246">
        <ele>1979.49</ele>
        <time>2016-06-30T05:14:48Z</time>
      </trkpt>
      <trkpt lat="42.45661" lon="2.23251">
        <ele>1979.97</ele>
        <time>2016-06-30T05:14:57Z</time>
      </trkpt>
      <trkpt lat="42.45655" lon="2.23258">
        <ele>1981.9</ele>
        <time>2016-06-30T05:15:09Z</time>
      </trkpt>
      <trkpt lat="42.45655" lon="2.23259">
        <ele>1982.38</ele>
        <time>2016-06-30T05:15:10Z</time>
      </trkpt>
      <trkpt lat="42.45649" lon="2.23269">
        <ele>1983.34</ele>
        <time>2016-06-30T05:15:22Z</time>
      </trkpt>
      <trkpt lat="42.45646" lon="2.23278">
        <ele>1984.78</ele>
        <time>2016-06-30T05:15:33Z</time>
      </trkpt>
      <trkpt lat="42.45646" lon="2.23287">
        <ele>1986.22</ele>
        <time>2016-06-30T05:15:45Z</time>
      </trkpt>
      <trkpt lat="42.45647" lon="2.23293">
        <ele>1987.18</ele>
        <time>2016-06-30T05:15:55Z</time>
      </trkpt>
      <trkpt lat="42.45645" lon="2.23295">
        <ele>1987.18</ele>
        <time>2016-06-30T05:15:58Z</time>
      </trkpt>
      <trkpt lat="42.45642" lon="2.23296">
        <ele>1988.62</ele>
        <time>2016-06-30T05:16:10Z</time>
      </trkpt>
      <trkpt lat="42.45642" lon="2.23297">
        <ele>1988.62</ele>
        <time>2016-06-30T05:16:33Z</time>
      </trkpt>
      <trkpt lat="42.45642" lon="2.23297">
        <ele>1989.1</ele>
        <time>2016-06-30T05:16:55Z</time>
      </trkpt>
      <trkpt lat="42.4564" lon="2.23299">
        <ele>1989.1</ele>
        <time>2016-06-30T05:17:19Z</time>
      </trkpt>
      <trkpt lat="42.45638" lon="2.23301">
        <ele>1989.1</ele>
        <time>2016-06-30T05:17:21Z</time>
      </trkpt>
      <trkpt lat="42.45635" lon="2.23302">
        <ele>1989.1</ele>
        <time>2016-06-30T05:17:25Z</time>
      </trkpt>
      <trkpt lat="42.45629" lon="2.2331">
        <ele>1990.55</ele>
        <time>2016-06-30T05:17:36Z</time>
      </trkpt>
      <trkpt lat="42.45628" lon="2.23311">
        <ele>1990.55</ele>
        <time>2016-06-30T05:17:37Z</time>
      </trkpt>
      <trkpt lat="42.45624" lon="2.23318">
        <ele>1991.99</ele>
        <time>2016-06-30T05:17:48Z</time>
      </trkpt>
      <trkpt lat="42.45617" lon="2.23328">
        <ele>1994.39</ele>
        <time>2016-06-30T05:18:00Z</time>
      </trkpt>
      <trkpt lat="42.45615" lon="2.23336">
        <ele>1995.83</ele>
        <time>2016-06-30T05:18:10Z</time>
      </trkpt>
      <trkpt lat="42.45609" lon="2.2335">
        <ele>1997.28</ele>
        <time>2016-06-30T05:18:23Z</time>
      </trkpt>
      <trkpt lat="42.45605" lon="2.23358">
        <ele>1997.76</ele>
        <time>2016-06-30T05:18:32Z</time>
      </trkpt>
      <trkpt lat="42.45605" lon="2.23367">
        <ele>1999.68</ele>
        <time>2016-06-30T05:18:44Z</time>
      </trkpt>
      <trkpt lat="42.45602" lon="2.23376">
        <ele>2001.12</ele>
        <time>2016-06-30T05:18:54Z</time>
      </trkpt>
      <trkpt lat="42.45601" lon="2.23377">
        <ele>2001.12</ele>
        <time>2016-06-30T05:18:56Z</time>
      </trkpt>
      <trkpt lat="42.45589" lon="2.2338">
        <ele>2003.04</ele>
        <time>2016-06-30T05:19:09Z</time>
      </trkpt>
      <trkpt lat="42.45578" lon="2.23379">
        <ele>2004.97</ele>
        <time>2016-06-30T05:19:22Z</time>
      </trkpt>
      <trkpt lat="42.45576" lon="2.23379">
        <ele>2004.97</ele>
        <time>2016-06-30T05:19:24Z</time>
      </trkpt>
      <trkpt lat="42.45568" lon="2.23375">
        <ele>2007.37</ele>
        <time>2016-06-30T05:19:36Z</time>
      </trkpt>
      <trkpt lat="42.45565" lon="2.23373">
        <ele>2007.85</ele>
        <time>2016-06-30T05:19:41Z</time>
      </trkpt>
      <trkpt lat="42.45555" lon="2.23372">
        <ele>2010.25</ele>
        <time>2016-06-30T05:19:54Z</time>
      </trkpt>
      <trkpt lat="42.45555" lon="2.23371">
        <ele>2011.22</ele>
        <time>2016-06-30T05:20:04Z</time>
      </trkpt>
      <trkpt lat="42.45553" lon="2.23371">
        <ele>2012.18</ele>
        <time>2016-06-30T05:20:16Z</time>
      </trkpt>
      <trkpt lat="42.45545" lon="2.23375">
        <ele>2013.62</ele>
        <time>2016-06-30T05:20:26Z</time>
      </trkpt>
      <trkpt lat="42.45535" lon="2.2338">
        <ele>2015.06</ele>
        <time>2016-06-30T05:20:39Z</time>
      </trkpt>
      <trkpt lat="42.4553" lon="2.2338">
        <ele>2016.5</ele>
        <time>2016-06-30T05:20:51Z</time>
      </trkpt>
      <trkpt lat="42.45523" lon="2.23381">
        <ele>2019.87</ele>
        <time>2016-06-30T05:21:04Z</time>
      </trkpt>
      <trkpt lat="42.45518" lon="2.23383">
        <ele>2023.23</ele>
        <time>2016-06-30T05:21:12Z</time>
      </trkpt>
      <trkpt lat="42.45512" lon="2.23391">
        <ele>2024.19</ele>
        <time>2016-06-30T05:21:23Z</time>
      </trkpt>
      <trkpt lat="42.45507" lon="2.23397">
        <ele>2024.67</ele>
        <time>2016-06-30T05:21:36Z</time>
      </trkpt>
      <trkpt lat="42.45509" lon="2.23397">
        <ele>2025.64</ele>
        <time>2016-06-30T05:21:53Z</time>
      </trkpt>
      <trkpt lat="42.45502" lon="2.23405">
        <ele>2026.6</ele>
        <time>2016-06-30T05:22:04Z</time>
      </trkpt>
      <trkpt lat="42.45496" lon="2.23415">
        <ele>2028.04</ele>
        <time>2016-06-30T05:22:14Z</time>
      </trkpt>
      <trkpt lat="42.45491" lon="2.23422">
        <ele>2029.96</ele>
        <time>2016-06-30T05:22:26Z</time>
      </trkpt>
      <trkpt lat="42.45484" lon="2.23429">
        <ele>2032.36</ele>
        <time>2016-06-30T05:22:39Z</time>
      </trkpt>
      <trkpt lat="42.45482" lon="2.23435">
        <ele>2033.81</ele>
        <time>2016-06-30T05:22:51Z</time>
      </trkpt>
      <trkpt lat="42.45486" lon="2.23438">
        <ele>2035.73</ele>
        <time>2016-06-30T05:23:02Z</time>
      </trkpt>
      <trkpt lat="42.45484" lon="2.23441">
        <ele>2037.17</ele>
        <time>2016-06-30T05:23:13Z</time>
      </trkpt>
      <trkpt lat="42.45479" lon="2.23446">
        <ele>2039.09</ele>
        <time>2016-06-30T05:23:24Z</time>
      </trkpt>
      <trkpt lat="42.45479" lon="2.23447">
        <ele>2040.05</ele>
        <time>2016-06-30T05:23:45Z</time>
      </trkpt>
      <trkpt lat="42.45478" lon="2.23444">
        <ele>2040.54</ele>
        <time>2016-06-30T05:24:09Z</time>
      </trkpt>
      <trkpt lat="42.45478" lon="2.23443">
        <ele>2040.54</ele>
        <time>2016-06-30T05:24:21Z</time>
      </trkpt>
      <trkpt lat="42.45477" lon="2.23444">
        <ele>2041.02</ele>
        <time>2016-06-30T05:24:33Z</time>
      </trkpt>
      <trkpt lat="42.45473" lon="2.23453">
        <ele>2041.98</ele>
        <time>2016-06-30T05:24:44Z</time>
      </trkpt>
      <trkpt lat="42.4547" lon="2.23459">
        <ele>2042.94</ele>
        <time>2016-06-30T05:24:53Z</time>
      </trkpt>
      <trkpt lat="42.45465" lon="2.23467">
        <ele>2044.86</ele>
        <time>2016-06-30T05:25:02Z</time>
      </trkpt>
      <trkpt lat="42.45458" lon="2.23476">
        <ele>2046.3</ele>
        <time>2016-06-30T05:25:13Z</time>
      </trkpt>
      <trkpt lat="42.45455" lon="2.23482">
        <ele>2046.78</ele>
        <time>2016-06-30T05:25:19Z</time>
      </trkpt>
      <trkpt lat="42.4545" lon="2.23494">
        <ele>2048.71</ele>
        <time>2016-06-30T05:25:32Z</time>
      </trkpt>
      <trkpt lat="42.4545" lon="2.23495">
        <ele>2048.71</ele>
        <time>2016-06-30T05:25:33Z</time>
      </trkpt>
      <trkpt lat="42.45445" lon="2.235">
        <ele>2049.67</ele>
        <time>2016-06-30T05:25:42Z</time>
      </trkpt>
      <trkpt lat="42.45437" lon="2.23511">
        <ele>2051.11</ele>
        <time>2016-06-30T05:25:55Z</time>
      </trkpt>
      <trkpt lat="42.45432" lon="2.23518">
        <ele>2052.55</ele>
        <time>2016-06-30T05:26:06Z</time>
      </trkpt>
      <trkpt lat="42.45429" lon="2.2352">
        <ele>2053.03</ele>
        <time>2016-06-30T05:26:10Z</time>
      </trkpt>
      <trkpt lat="42.45421" lon="2.23521">
        <ele>2055.44</ele>
        <time>2016-06-30T05:26:22Z</time>
      </trkpt>
      <trkpt lat="42.4542" lon="2.23529">
        <ele>2056.88</ele>
        <time>2016-06-30T05:26:34Z</time>
      </trkpt>
      <trkpt lat="42.45417" lon="2.23535">
        <ele>2058.32</ele>
        <time>2016-06-30T05:26:41Z</time>
      </trkpt>
      <trkpt lat="42.45413" lon="2.23542">
        <ele>2059.28</ele>
        <time>2016-06-30T05:26:50Z</time>
      </trkpt>
      <trkpt lat="42.45412" lon="2.23544">
        <ele>2059.76</ele>
        <time>2016-06-30T05:26:52Z</time>
      </trkpt>
      <trkpt lat="42.45405" lon="2.23547">
        <ele>2060.72</ele>
        <time>2016-06-30T05:27:01Z</time>
      </trkpt>
      <trkpt lat="42.45402" lon="2.23557">
        <ele>2061.68</ele>
        <time>2016-06-30T05:27:12Z</time>
      </trkpt>
      <trkpt lat="42.454" lon="2.23557">
        <ele>2062.17</ele>
        <time>2016-06-30T05:27:14Z</time>
      </trkpt>
      <trkpt lat="42.45397" lon="2.2356">
        <ele>2062.65</ele>
        <time>2016-06-30T05:27:19Z</time>
      </trkpt>
      <trkpt lat="42.45388" lon="2.23568">
        <ele>2064.09</ele>
        <time>2016-06-30T05:27:33Z</time>
      </trkpt>
      <trkpt lat="42.45386" lon="2.23566">
        <ele>2065.05</ele>
        <time>2016-06-30T05:27:37Z</time>
      </trkpt>
      <trkpt lat="42.45379" lon="2.23573">
        <ele>2066.01</ele>
        <time>2016-06-30T05:27:48Z</time>
      </trkpt>
      <trkpt lat="42.45373" lon="2.23578">
        <ele>2067.93</ele>
        <time>2016-06-30T05:27:59Z</time>
      </trkpt>
      <trkpt lat="42.45367" lon="2.23584">
        <ele>2069.38</ele>
        <time>2016-06-30T05:28:10Z</time>
      </trkpt>
      <trkpt lat="42.45366" lon="2.23585">
        <ele>2069.38</ele>
        <time>2016-06-30T05:28:12Z</time>
      </trkpt>
      <trkpt lat="42.45359" lon="2.23588">
        <ele>2069.86</ele>
        <time>2016-06-30T05:28:21Z</time>
      </trkpt>
      <trkpt lat="42.45354" lon="2.23595">
        <ele>2070.34</ele>
        <time>2016-06-30T05:28:28Z</time>
      </trkpt>
      <trkpt lat="42.45353" lon="2.236">
        <ele>2071.3</ele>
        <time>2016-06-30T05:28:33Z</time>
      </trkpt>
      <trkpt lat="42.45347" lon="2.23608">
        <ele>2072.74</ele>
        <time>2016-06-30T05:28:45Z</time>
      </trkpt>
      <trkpt lat="42.45343" lon="2.23615">
        <ele>2075.14</ele>
        <time>2016-06-30T05:28:55Z</time>
      </trkpt>
      <trkpt lat="42.45339" lon="2.23621">
        <ele>2077.07</ele>
        <time>2016-06-30T05:29:06Z</time>
      </trkpt>
      <trkpt lat="42.45329" lon="2.23631">
        <ele>2078.99</ele>
        <time>2016-06-30T05:29:21Z</time>
      </trkpt>
      <trkpt lat="42.45324" lon="2.23635">
        <ele>2079.95</ele>
        <time>2016-06-30T05:29:29Z</time>
      </trkpt>
      <trkpt lat="42.45314" lon="2.23642">
        <ele>2080.91</ele>
        <time>2016-06-30T05:29:40Z</time>
      </trkpt>
      <trkpt lat="42.4531" lon="2.23651">
        <ele>2082.35</ele>
        <time>2016-06-30T05:29:51Z</time>
      </trkpt>
      <trkpt lat="42.45304" lon="2.23655">
        <ele>2082.83</ele>
        <time>2016-06-30T05:30:00Z</time>
      </trkpt>
      <trkpt lat="42.45301" lon="2.2366">
        <ele>2084.28</ele>
        <time>2016-06-30T05:30:05Z</time>
      </trkpt>
      <trkpt lat="42.45299" lon="2.2367">
        <ele>2085.24</ele>
        <time>2016-06-30T05:30:14Z</time>
      </trkpt>
      <trkpt lat="42.45296" lon="2.23674">
        <ele>2085.72</ele>
        <time>2016-06-30T05:30:20Z</time>
      </trkpt>
      <trkpt lat="42.45292" lon="2.23687">
        <ele>2087.64</ele>
        <time>2016-06-30T05:30:33Z</time>
      </trkpt>
      <trkpt lat="42.45292" lon="2.237">
        <ele>2089.08</ele>
        <time>2016-06-30T05:30:46Z</time>
      </trkpt>
      <trkpt lat="42.45292" lon="2.237">
        <ele>2090.04</ele>
        <time>2016-06-30T05:30:47Z</time>
      </trkpt>
      <trkpt lat="42.45287" lon="2.23711">
        <ele>2091.49</ele>
        <time>2016-06-30T05:31:00Z</time>
      </trkpt>
      <trkpt lat="42.4528" lon="2.23721">
        <ele>2093.89</ele>
        <time>2016-06-30T05:31:13Z</time>
      </trkpt>
      <trkpt lat="42.4528" lon="2.23722">
        <ele>2093.89</ele>
        <time>2016-06-30T05:31:14Z</time>
      </trkpt>
      <trkpt lat="42.45275" lon="2.23724">
        <ele>2094.85</ele>
        <time>2016-06-30T05:31:18Z</time>
      </trkpt>
      <trkpt lat="42.45272" lon="2.23724">
        <ele>2095.33</ele>
        <time>2016-06-30T05:31:21Z</time>
      </trkpt>
      <trkpt lat="42.45264" lon="2.23726">
        <ele>2096.29</ele>
        <time>2016-06-30T05:31:30Z</time>
      </trkpt>
      <trkpt lat="42.45256" lon="2.23733">
        <ele>2097.25</ele>
        <time>2016-06-30T05:31:42Z</time>
      </trkpt>
      <trkpt lat="42.45254" lon="2.23735">
        <ele>2097.73</ele>
        <time>2016-06-30T05:31:45Z</time>
      </trkpt>
      <trkpt lat="42.45252" lon="2.23735">
        <ele>2097.73</ele>
        <time>2016-06-30T05:31:47Z</time>
      </trkpt>
      <trkpt lat="42.4525" lon="2.23737">
        <ele>2098.7</ele>
        <time>2016-06-30T05:31:49Z</time>
      </trkpt>
      <trkpt lat="42.45247" lon="2.23736">
        <ele>2098.7</ele>
        <time>2016-06-30T05:31:51Z</time>
      </trkpt>
      <trkpt lat="42.45245" lon="2.23737">
        <ele>2099.18</ele>
        <time>2016-06-30T05:31:53Z</time>
      </trkpt>
      <trkpt lat="42.45236" lon="2.23737">
        <ele>2100.62</ele>
        <time>2016-06-30T05:32:05Z</time>
      </trkpt>
      <trkpt lat="42.45231" lon="2.23738">
        <ele>2101.58</ele>
        <time>2016-06-30T05:32:13Z</time>
      </trkpt>
      <trkpt lat="42.45229" lon="2.23739">
        <ele>2102.06</ele>
        <time>2016-06-30T05:32:15Z</time>
      </trkpt>
      <trkpt lat="42.45223" lon="2.23744">
        <ele>2103.5</ele>
        <time>2016-06-30T05:32:27Z</time>
      </trkpt>
      <trkpt lat="42.45216" lon="2.23745">
        <ele>2105.42</ele>
        <time>2016-06-30T05:32:38Z</time>
      </trkpt>
      <trkpt lat="42.45212" lon="2.2375">
        <ele>2107.83</ele>
        <time>2016-06-30T05:32:46Z</time>
      </trkpt>
      <trkpt lat="42.45205" lon="2.2375">
        <ele>2111.19</ele>
        <time>2016-06-30T05:32:58Z</time>
      </trkpt>
      <trkpt lat="42.45202" lon="2.23754">
        <ele>2111.19</ele>
        <time>2016-06-30T05:33:08Z</time>
      </trkpt>
      <trkpt lat="42.45198" lon="2.23758">
        <ele>2111.67</ele>
        <time>2016-06-30T05:33:21Z</time>
      </trkpt>
      <trkpt lat="42.45197" lon="2.23759">
        <ele>2112.15</ele>
        <time>2016-06-30T05:33:44Z</time>
      </trkpt>
      <trkpt lat="42.45196" lon="2.2376">
        <ele>2112.15</ele>
        <time>2016-06-30T05:33:46Z</time>
      </trkpt>
      <trkpt lat="42.45194" lon="2.23761">
        <ele>2112.63</ele>
        <time>2016-06-30T05:33:49Z</time>
      </trkpt>
      <trkpt lat="42.45189" lon="2.2377">
        <ele>2114.08</ele>
        <time>2016-06-30T05:33:59Z</time>
      </trkpt>
      <trkpt lat="42.45187" lon="2.23771">
        <ele>2114.08</ele>
        <time>2016-06-30T05:34:01Z</time>
      </trkpt>
      <trkpt lat="42.45175" lon="2.23779">
        <ele>2115.52</ele>
        <time>2016-06-30T05:34:14Z</time>
      </trkpt>
      <trkpt lat="42.45171" lon="2.23787">
        <ele>2116.96</ele>
        <time>2016-06-30T05:34:25Z</time>
      </trkpt>
      <trkpt lat="42.45161" lon="2.23794">
        <ele>2117.92</ele>
        <time>2016-06-30T05:34:36Z</time>
      </trkpt>
      <trkpt lat="42.45154" lon="2.23799">
        <ele>2119.36</ele>
        <time>2016-06-30T05:34:47Z</time>
      </trkpt>
      <trkpt lat="42.45149" lon="2.23806">
        <ele>2120.81</ele>
        <time>2016-06-30T05:34:59Z</time>
      </trkpt>
      <trkpt lat="42.45147" lon="2.23807">
        <ele>2121.29</ele>
        <time>2016-06-30T05:35:03Z</time>
      </trkpt>
      <trkpt lat="42.45138" lon="2.23804">
        <ele>2121.77</ele>
        <time>2016-06-30T05:35:15Z</time>
      </trkpt>
      <trkpt lat="42.45133" lon="2.23807">
        <ele>2123.69</ele>
        <time>2016-06-30T05:35:28Z</time>
      </trkpt>
      <trkpt lat="42.4513" lon="2.23815">
        <ele>2125.13</ele>
        <time>2016-06-30T05:35:39Z</time>
      </trkpt>
      <trkpt lat="42.45122" lon="2.23821">
        <ele>2126.57</ele>
        <time>2016-06-30T05:35:51Z</time>
      </trkpt>
      <trkpt lat="42.45118" lon="2.23826">
        <ele>2127.53</ele>
        <time>2016-06-30T05:36:00Z</time>
      </trkpt>
      <trkpt lat="42.45109" lon="2.23827">
        <ele>2129.46</ele>
        <time>2016-06-30T05:36:11Z</time>
      </trkpt>
      <trkpt lat="42.45103" lon="2.2383">
        <ele>2131.86</ele>
        <time>2016-06-30T05:36:24Z</time>
      </trkpt>
      <trkpt lat="42.45103" lon="2.23834">
        <ele>2134.74</ele>
        <time>2016-06-30T05:36:32Z</time>
      </trkpt>
      <trkpt lat="42.45103" lon="2.23835">
        <ele>2135.71</ele>
        <time>2016-06-30T05:36:33Z</time>
      </trkpt>
      <trkpt lat="42.45101" lon="2.23837">
        <ele>2137.63</ele>
        <time>2016-06-30T05:36:47Z</time>
      </trkpt>
      <trkpt lat="42.45097" lon="2.2384">
        <ele>2138.11</ele>
        <time>2016-06-30T05:36:59Z</time>
      </trkpt>
      <trkpt lat="42.4509" lon="2.23841">
        <ele>2139.07</ele>
        <time>2016-06-30T05:37:12Z</time>
      </trkpt>
      <trkpt lat="42.45089" lon="2.23842">
        <ele>2140.03</ele>
        <time>2016-06-30T05:37:38Z</time>
      </trkpt>
      <trkpt lat="42.45085" lon="2.23844">
        <ele>2140.51</ele>
        <time>2016-06-30T05:37:52Z</time>
      </trkpt>
      <trkpt lat="42.4508" lon="2.23847">
        <ele>2141.95</ele>
        <time>2016-06-30T05:38:02Z</time>
      </trkpt>
      <trkpt lat="42.45084" lon="2.23849">
        <ele>2142.92</ele>
        <time>2016-06-30T05:38:11Z</time>
      </trkpt>
      <trkpt lat="42.45081" lon="2.23855">
        <ele>2145.32</ele>
        <time>2016-06-30T05:38:22Z</time>
      </trkpt>
      <trkpt lat="42.45075" lon="2.23857">
        <ele>2147.24</ele>
        <time>2016-06-30T05:38:33Z</time>
      </trkpt>
      <trkpt lat="42.45069" lon="2.2386">
        <ele>2149.65</ele>
        <time>2016-06-30T05:38:45Z</time>
      </trkpt>
      <trkpt lat="42.45067" lon="2.23862">
        <ele>2151.57</ele>
        <time>2016-06-30T05:39:00Z</time>
      </trkpt>
      <trkpt lat="42.45068" lon="2.23865">
        <ele>2153.49</ele>
        <time>2016-06-30T05:39:11Z</time>
      </trkpt>
      <trkpt lat="42.45062" lon="2.23867">
        <ele>2155.41</ele>
        <time>2016-06-30T05:39:23Z</time>
      </trkpt>
      <trkpt lat="42.45062" lon="2.23872">
        <ele>2157.34</ele>
        <time>2016-06-30T05:39:33Z</time>
      </trkpt>
      <trkpt lat="42.45064" lon="2.23875">
        <ele>2158.3</ele>
        <time>2016-06-30T05:39:49Z</time>
      </trkpt>
      <trkpt lat="42.45068" lon="2.23881">
        <ele>2159.74</ele>
        <time>2016-06-30T05:39:59Z</time>
      </trkpt>
      <trkpt lat="42.45071" lon="2.23886">
        <ele>2161.66</ele>
        <time>2016-06-30T05:40:11Z</time>
      </trkpt>
      <trkpt lat="42.45065" lon="2.23891">
        <ele>2163.58</ele>
        <time>2016-06-30T05:40:24Z</time>
      </trkpt>
      <trkpt lat="42.45063" lon="2.23891">
        <ele>2164.06</ele>
        <time>2016-06-30T05:40:27Z</time>
      </trkpt>
      <trkpt lat="42.45057" lon="2.23896">
        <ele>2165.99</ele>
        <time>2016-06-30T05:40:38Z</time>
      </trkpt>
      <trkpt lat="42.45051" lon="2.23905">
        <ele>2166.95</ele>
        <time>2016-06-30T05:40:49Z</time>
      </trkpt>
      <trkpt lat="42.45045" lon="2.23917">
        <ele>2168.39</ele>
        <time>2016-06-30T05:41:02Z</time>
      </trkpt>
      <trkpt lat="42.45045" lon="2.23918">
        <ele>2169.35</ele>
        <time>2016-06-30T05:41:03Z</time>
      </trkpt>
      <trkpt lat="42.45035" lon="2.2393">
        <ele>2170.31</ele>
        <time>2016-06-30T05:41:18Z</time>
      </trkpt>
      <trkpt lat="42.45026" lon="2.23938">
        <ele>2171.76</ele>
        <time>2016-06-30T05:41:30Z</time>
      </trkpt>
      <trkpt lat="42.45016" lon="2.23943">
        <ele>2173.2</ele>
        <time>2016-06-30T05:41:42Z</time>
      </trkpt>
      <trkpt lat="42.45012" lon="2.23948">
        <ele>2174.64</ele>
        <time>2016-06-30T05:41:51Z</time>
      </trkpt>
      <trkpt lat="42.45011" lon="2.23954">
        <ele>2175.6</ele>
        <time>2016-06-30T05:41:58Z</time>
      </trkpt>
      <trkpt lat="42.45005" lon="2.23963">
        <ele>2177.04</ele>
        <time>2016-06-30T05:42:10Z</time>
      </trkpt>
      <trkpt lat="42.44995" lon="2.2397">
        <ele>2178</ele>
        <time>2016-06-30T05:42:23Z</time>
      </trkpt>
      <trkpt lat="42.44989" lon="2.23977">
        <ele>2179.93</ele>
        <time>2016-06-30T05:42:34Z</time>
      </trkpt>
      <trkpt lat="42.4498" lon="2.23981">
        <ele>2180.89</ele>
        <time>2016-06-30T05:42:46Z</time>
      </trkpt>
      <trkpt lat="42.44978" lon="2.23983">
        <ele>2182.81</ele>
        <time>2016-06-30T05:42:58Z</time>
      </trkpt>
      <trkpt lat="42.44978" lon="2.23983">
        <ele>2184.25</ele>
        <time>2016-06-30T05:43:26Z</time>
      </trkpt>
      <trkpt lat="42.44973" lon="2.23984">
        <ele>2184.73</ele>
        <time>2016-06-30T05:43:35Z</time>
      </trkpt>
      <trkpt lat="42.44971" lon="2.23986">
        <ele>2185.21</ele>
        <time>2016-06-30T05:43:38Z</time>
      </trkpt>
      <trkpt lat="42.44968" lon="2.2399">
        <ele>2186.66</ele>
        <time>2016-06-30T05:43:47Z</time>
      </trkpt>
      <trkpt lat="42.44963" lon="2.23994">
        <ele>2190.02</ele>
        <time>2016-06-30T05:43:57Z</time>
      </trkpt>
      <trkpt lat="42.4496" lon="2.23995">
        <ele>2191.94</ele>
        <time>2016-06-30T05:44:01Z</time>
      </trkpt>
      <trkpt lat="42.44954" lon="2.23994">
        <ele>2192.42</ele>
        <time>2016-06-30T05:44:07Z</time>
      </trkpt>
      <trkpt lat="42.44947" lon="2.23999">
        <ele>2192.42</ele>
        <time>2016-06-30T05:44:18Z</time>
      </trkpt>
      <trkpt lat="42.4494" lon="2.24001">
        <ele>2193.39</ele>
        <time>2016-06-30T05:44:30Z</time>
      </trkpt>
      <trkpt lat="42.44935" lon="2.24001">
        <ele>2194.83</ele>
        <time>2016-06-30T05:44:42Z</time>
      </trkpt>
      <trkpt lat="42.44933" lon="2.24001">
        <ele>2196.27</ele>
        <time>2016-06-30T05:44:52Z</time>
      </trkpt>
      <trkpt lat="42.4493" lon="2.24007">
        <ele>2197.71</ele>
        <time>2016-06-30T05:45:09Z</time>
      </trkpt>
      <trkpt lat="42.44928" lon="2.24008">
        <ele>2198.67</ele>
        <time>2016-06-30T05:45:22Z</time>
      </trkpt>
      <trkpt lat="42.44925" lon="2.24017">
        <ele>2199.63</ele>
        <time>2016-06-30T05:45:34Z</time>
      </trkpt>
      <trkpt lat="42.44923" lon="2.24027">
        <ele>2201.08</ele>
        <time>2016-06-30T05:45:45Z</time>
      </trkpt>
      <trkpt lat="42.44922" lon="2.24037">
        <ele>2202.04</ele>
        <time>2016-06-30T05:45:55Z</time>
      </trkpt>
      <trkpt lat="42.44921" lon="2.24042">
        <ele>2203</ele>
        <time>2016-06-30T05:46:00Z</time>
      </trkpt>
      <trkpt lat="42.4492" lon="2.24054">
        <ele>2203.96</ele>
        <time>2016-06-30T05:46:11Z</time>
      </trkpt>
      <trkpt lat="42.44915" lon="2.24062">
        <ele>2204.92</ele>
        <time>2016-06-30T05:46:22Z</time>
      </trkpt>
      <trkpt lat="42.44915" lon="2.24063">
        <ele>2205.88</ele>
        <time>2016-06-30T05:46:27Z</time>
      </trkpt>
      <trkpt lat="42.44913" lon="2.24067">
        <ele>2206.84</ele>
        <time>2016-06-30T05:46:33Z</time>
      </trkpt>
      <trkpt lat="42.44912" lon="2.24073">
        <ele>2208.29</ele>
        <time>2016-06-30T05:46:41Z</time>
      </trkpt>
      <trkpt lat="42.4491" lon="2.24088">
        <ele>2210.21</ele>
        <time>2016-06-30T05:46:56Z</time>
      </trkpt>
      <trkpt lat="42.44909" lon="2.24095">
        <ele>2212.13</ele>
        <time>2016-06-30T05:47:06Z</time>
      </trkpt>
      <trkpt lat="42.44905" lon="2.24104">
        <ele>2214.05</ele>
        <time>2016-06-30T05:47:17Z</time>
      </trkpt>
      <trkpt lat="42.44901" lon="2.24112">
        <ele>2215.5</ele>
        <time>2016-06-30T05:47:27Z</time>
      </trkpt>
      <trkpt lat="42.44895" lon="2.24119">
        <ele>2217.42</ele>
        <time>2016-06-30T05:47:39Z</time>
      </trkpt>
      <trkpt lat="42.44891" lon="2.24127">
        <ele>2219.34</ele>
        <time>2016-06-30T05:47:52Z</time>
      </trkpt>
      <trkpt lat="42.44885" lon="2.24134">
        <ele>2221.74</ele>
        <time>2016-06-30T05:48:05Z</time>
      </trkpt>
      <trkpt lat="42.44881" lon="2.24138">
        <ele>2224.15</ele>
        <time>2016-06-30T05:48:17Z</time>
      </trkpt>
      <trkpt lat="42.44881" lon="2.24137">
        <ele>2225.59</ele>
        <time>2016-06-30T05:48:40Z</time>
      </trkpt>
      <trkpt lat="42.44877" lon="2.24143">
        <ele>2226.07</ele>
        <time>2016-06-30T05:48:57Z</time>
      </trkpt>
      <trkpt lat="42.44876" lon="2.24145">
        <ele>2226.55</ele>
        <time>2016-06-30T05:48:59Z</time>
      </trkpt>
      <trkpt lat="42.44875" lon="2.24149">
        <ele>2227.03</ele>
        <time>2016-06-30T05:49:03Z</time>
      </trkpt>
      <trkpt lat="42.44868" lon="2.24155">
        <ele>2228.47</ele>
        <time>2016-06-30T05:49:14Z</time>
      </trkpt>
      <trkpt lat="42.44859" lon="2.24162">
        <ele>2229.43</ele>
        <time>2016-06-30T05:49:27Z</time>
      </trkpt>
      <trkpt lat="42.44857" lon="2.24165">
        <ele>2230.4</ele>
        <time>2016-06-30T05:49:31Z</time>
      </trkpt>
      <trkpt lat="42.44856" lon="2.24171">
        <ele>2231.36</ele>
        <time>2016-06-30T05:49:39Z</time>
      </trkpt>
      <trkpt lat="42.44851" lon="2.24179">
        <ele>2233.28</ele>
        <time>2016-06-30T05:49:51Z</time>
      </trkpt>
      <trkpt lat="42.44843" lon="2.24182">
        <ele>2234.72</ele>
        <time>2016-06-30T05:50:04Z</time>
      </trkpt>
      <trkpt lat="42.44838" lon="2.2418">
        <ele>2235.68</ele>
        <time>2016-06-30T05:50:15Z</time>
      </trkpt>
      <trkpt lat="42.44838" lon="2.24182">
        <ele>2237.13</ele>
        <time>2016-06-30T05:50:23Z</time>
      </trkpt>
      <trkpt lat="42.44835" lon="2.24183">
        <ele>2238.09</ele>
        <time>2016-06-30T05:50:41Z</time>
      </trkpt>
      <trkpt lat="42.44831" lon="2.24185">
        <ele>2240.01</ele>
        <time>2016-06-30T05:50:52Z</time>
      </trkpt>
      <trkpt lat="42.44828" lon="2.24187">
        <ele>2241.45</ele>
        <time>2016-06-30T05:51:04Z</time>
      </trkpt>
      <trkpt lat="42.44825" lon="2.24185">
        <ele>2242.89</ele>
        <time>2016-06-30T05:51:24Z</time>
      </trkpt>
      <trkpt lat="42.44821" lon="2.24185">
        <ele>2243.37</ele>
        <time>2016-06-30T05:51:35Z</time>
      </trkpt>
      <trkpt lat="42.44815" lon="2.24191">
        <ele>2245.3</ele>
        <time>2016-06-30T05:51:46Z</time>
      </trkpt>
      <trkpt lat="42.44811" lon="2.24194">
        <ele>2246.74</ele>
        <time>2016-06-30T05:51:57Z</time>
      </trkpt>
      <trkpt lat="42.44807" lon="2.24194">
        <ele>2247.22</ele>
        <time>2016-06-30T05:52:03Z</time>
      </trkpt>
      <trkpt lat="42.44803" lon="2.24195">
        <ele>2248.18</ele>
        <time>2016-06-30T05:52:09Z</time>
      </trkpt>
      <trkpt lat="42.44798" lon="2.24193">
        <ele>2248.18</ele>
        <time>2016-06-30T05:52:15Z</time>
      </trkpt>
      <trkpt lat="42.44791" lon="2.24195">
        <ele>2248.66</ele>
        <time>2016-06-30T05:52:26Z</time>
      </trkpt>
      <trkpt lat="42.44786" lon="2.24195">
        <ele>2248.66</ele>
        <time>2016-06-30T05:52:33Z</time>
      </trkpt>
      <trkpt lat="42.44779" lon="2.24194">
        <ele>2248.66</ele>
        <time>2016-06-30T05:52:45Z</time>
      </trkpt>
      <trkpt lat="42.44779" lon="2.24193">
        <ele>2248.66</ele>
        <time>2016-06-30T05:53:02Z</time>
      </trkpt>
      <trkpt lat="42.44774" lon="2.24193">
        <ele>2248.66</ele>
        <time>2016-06-30T05:53:10Z</time>
      </trkpt>
      <trkpt lat="42.44767" lon="2.24193">
        <ele>2249.62</ele>
        <time>2016-06-30T05:53:20Z</time>
      </trkpt>
      <trkpt lat="42.44766" lon="2.24192">
        <ele>2249.62</ele>
        <time>2016-06-30T05:53:23Z</time>
      </trkpt>
      <trkpt lat="42.4476" lon="2.24185">
        <ele>2249.62</ele>
        <time>2016-06-30T05:53:33Z</time>
      </trkpt>
      <trkpt lat="42.44759" lon="2.24185">
        <ele>2249.62</ele>
        <time>2016-06-30T05:53:35Z</time>
      </trkpt>
      <trkpt lat="42.44757" lon="2.24184">
        <ele>2250.58</ele>
        <time>2016-06-30T05:53:47Z</time>
      </trkpt>
      <trkpt lat="42.44756" lon="2.24186">
        <ele>2251.06</ele>
        <time>2016-06-30T05:53:57Z</time>
      </trkpt>
      <trkpt lat="42.44753" lon="2.24186">
        <ele>2251.06</ele>
        <time>2016-06-30T05:54:02Z</time>
      </trkpt>
      <trkpt lat="42.44751" lon="2.24185">
        <ele>2251.06</ele>
        <time>2016-06-30T05:54:04Z</time>
      </trkpt>
      <trkpt lat="42.44741" lon="2.24179">
        <ele>2252.03</ele>
        <time>2016-06-30T05:54:17Z</time>
      </trkpt>
      <trkpt lat="42.4473" lon="2.2418">
        <ele>2252.51</ele>
        <time>2016-06-30T05:54:30Z</time>
      </trkpt>
      <trkpt lat="42.4473" lon="2.24179">
        <ele>2253.47</ele>
        <time>2016-06-30T05:54:55Z</time>
      </trkpt>
      <trkpt lat="42.44725" lon="2.24184">
        <ele>2254.43</ele>
        <time>2016-06-30T05:55:09Z</time>
      </trkpt>
      <trkpt lat="42.44722" lon="2.24186">
        <ele>2254.91</ele>
        <time>2016-06-30T05:55:18Z</time>
      </trkpt>
      <trkpt lat="42.44722" lon="2.24187">
        <ele>2255.39</ele>
        <time>2016-06-30T05:55:19Z</time>
      </trkpt>
      <trkpt lat="42.44717" lon="2.24188">
        <ele>2255.87</ele>
        <time>2016-06-30T05:55:29Z</time>
      </trkpt>
      <trkpt lat="42.44716" lon="2.24188">
        <ele>2255.87</ele>
        <time>2016-06-30T05:55:32Z</time>
      </trkpt>
      <trkpt lat="42.44714" lon="2.24187">
        <ele>2256.83</ele>
        <time>2016-06-30T05:55:37Z</time>
      </trkpt>
      <trkpt lat="42.44711" lon="2.24183">
        <ele>2257.79</ele>
        <time>2016-06-30T05:55:48Z</time>
      </trkpt>
      <trkpt lat="42.44709" lon="2.24182">
        <ele>2257.79</ele>
        <time>2016-06-30T05:56:02Z</time>
      </trkpt>
      <trkpt lat="42.44707" lon="2.24182">
        <ele>2257.79</ele>
        <time>2016-06-30T05:56:13Z</time>
      </trkpt>
      <trkpt lat="42.44702" lon="2.24178">
        <ele>2258.27</ele>
        <time>2016-06-30T05:56:23Z</time>
      </trkpt>
      <trkpt lat="42.447" lon="2.24178">
        <ele>2259.24</ele>
        <time>2016-06-30T05:56:34Z</time>
      </trkpt>
      <trkpt lat="42.44696" lon="2.24176">
        <ele>2259.72</ele>
        <time>2016-06-30T05:56:47Z</time>
      </trkpt>
      <trkpt lat="42.44693" lon="2.24178">
        <ele>2260.2</ele>
        <time>2016-06-30T05:57:04Z</time>
      </trkpt>
      <trkpt lat="42.44691" lon="2.24178">
        <ele>2261.16</ele>
        <time>2016-06-30T05:57:14Z</time>
      </trkpt>
      <trkpt lat="42.44686" lon="2.2418">
        <ele>2261.64</ele>
        <time>2016-06-30T05:57:26Z</time>
      </trkpt>
      <trkpt lat="42.44685" lon="2.24182">
        <ele>2262.12</ele>
        <time>2016-06-30T05:57:36Z</time>
      </trkpt>
      <trkpt lat="42.44683" lon="2.24185">
        <ele>2263.08</ele>
        <time>2016-06-30T05:57:47Z</time>
      </trkpt>
      <trkpt lat="42.44682" lon="2.24186">
        <ele>2263.08</ele>
        <time>2016-06-30T05:57:50Z</time>
      </trkpt>
      <trkpt lat="42.44675" lon="2.24187">
        <ele>2264.04</ele>
        <time>2016-06-30T05:57:59Z</time>
      </trkpt>
      <trkpt lat="42.44672" lon="2.24189">
        <ele>2264.52</ele>
        <time>2016-06-30T05:58:07Z</time>
      </trkpt>
      <trkpt lat="42.44671" lon="2.24192">
        <ele>2264.52</ele>
        <time>2016-06-30T05:58:18Z</time>
      </trkpt>
      <trkpt lat="42.4467" lon="2.24193">
        <ele>2264.52</ele>
        <time>2016-06-30T05:58:20Z</time>
      </trkpt>
      <trkpt lat="42.44669" lon="2.24194">
        <ele>2264.52</ele>
        <time>2016-06-30T05:58:22Z</time>
      </trkpt>
      <trkpt lat="42.44664" lon="2.24198">
        <ele>2265.48</ele>
        <time>2016-06-30T05:58:34Z</time>
      </trkpt>
      <trkpt lat="42.44662" lon="2.24198">
        <ele>2266.93</ele>
        <time>2016-06-30T05:58:47Z</time>
      </trkpt>
      <trkpt lat="42.44659" lon="2.24201">
        <ele>2267.41</ele>
        <time>2016-06-30T05:58:59Z</time>
      </trkpt>
      <trkpt lat="42.44654" lon="2.24203">
        <ele>2268.37</ele>
        <time>2016-06-30T05:59:10Z</time>
      </trkpt>
      <trkpt lat="42.44653" lon="2.24203">
        <ele>2268.37</ele>
        <time>2016-06-30T05:59:11Z</time>
      </trkpt>
      <trkpt lat="42.44649" lon="2.24205">
        <ele>2269.33</ele>
        <time>2016-06-30T05:59:21Z</time>
      </trkpt>
      <trkpt lat="42.44649" lon="2.24205">
        <ele>2269.81</ele>
        <time>2016-06-30T05:59:26Z</time>
      </trkpt>
      <trkpt lat="42.44646" lon="2.24208">
        <ele>2270.77</ele>
        <time>2016-06-30T05:59:36Z</time>
      </trkpt>
      <trkpt lat="42.44646" lon="2.24208">
        <ele>2270.77</ele>
        <time>2016-06-30T05:59:37Z</time>
      </trkpt>
      <trkpt lat="42.44643" lon="2.24214">
        <ele>2272.21</ele>
        <time>2016-06-30T05:59:48Z</time>
      </trkpt>
      <trkpt lat="42.4464" lon="2.24215">
        <ele>2273.17</ele>
        <time>2016-06-30T06:00:01Z</time>
      </trkpt>
      <trkpt lat="42.44638" lon="2.24217">
        <ele>2273.66</ele>
        <time>2016-06-30T06:00:15Z</time>
      </trkpt>
      <trkpt lat="42.44635" lon="2.2422">
        <ele>2275.1</ele>
        <time>2016-06-30T06:00:25Z</time>
      </trkpt>
      <trkpt lat="42.44633" lon="2.24221">
        <ele>2275.58</ele>
        <time>2016-06-30T06:00:30Z</time>
      </trkpt>
      <trkpt lat="42.44629" lon="2.24221">
        <ele>2276.54</ele>
        <time>2016-06-30T06:00:41Z</time>
      </trkpt>
      <trkpt lat="42.44629" lon="2.24222">
        <ele>2277.02</ele>
        <time>2016-06-30T06:00:50Z</time>
      </trkpt>
      <trkpt lat="42.44628" lon="2.24222">
        <ele>2277.02</ele>
        <time>2016-06-30T06:00:52Z</time>
      </trkpt>
      <trkpt lat="42.44627" lon="2.24225">
        <ele>2277.02</ele>
        <time>2016-06-30T06:00:57Z</time>
      </trkpt>
      <trkpt lat="42.44626" lon="2.24229">
        <ele>2278.94</ele>
        <time>2016-06-30T06:01:08Z</time>
      </trkpt>
      <trkpt lat="42.44624" lon="2.24234">
        <ele>2280.38</ele>
        <time>2016-06-30T06:01:18Z</time>
      </trkpt>
      <trkpt lat="42.44623" lon="2.24236">
        <ele>2281.83</ele>
        <time>2016-06-30T06:01:30Z</time>
      </trkpt>
      <trkpt lat="42.44622" lon="2.24235">
        <ele>2282.31</ele>
        <time>2016-06-30T06:01:52Z</time>
      </trkpt>
      <trkpt lat="42.44623" lon="2.24235">
        <ele>2282.79</ele>
        <time>2016-06-30T06:02:16Z</time>
      </trkpt>
      <trkpt lat="42.44623" lon="2.24236">
        <ele>2283.27</ele>
        <time>2016-06-30T06:02:46Z</time>
      </trkpt>
      <trkpt lat="42.44622" lon="2.2424">
        <ele>2283.27</ele>
        <time>2016-06-30T06:02:56Z</time>
      </trkpt>
      <trkpt lat="42.44619" lon="2.24246">
        <ele>2284.71</ele>
        <time>2016-06-30T06:03:07Z</time>
      </trkpt>
      <trkpt lat="42.44617" lon="2.24247">
        <ele>2285.19</ele>
        <time>2016-06-30T06:03:14Z</time>
      </trkpt>
      <trkpt lat="42.44616" lon="2.24248">
        <ele>2285.19</ele>
        <time>2016-06-30T06:03:19Z</time>
      </trkpt>
      <trkpt lat="42.44614" lon="2.2425">
        <ele>2285.67</ele>
        <time>2016-06-30T06:03:22Z</time>
      </trkpt>
      <trkpt lat="42.44608" lon="2.2425">
        <ele>2287.11</ele>
        <time>2016-06-30T06:03:31Z</time>
      </trkpt>
      <trkpt lat="42.44605" lon="2.2425">
        <ele>2287.59</ele>
        <time>2016-06-30T06:03:37Z</time>
      </trkpt>
      <trkpt lat="42.44603" lon="2.24249">
        <ele>2288.08</ele>
        <time>2016-06-30T06:03:47Z</time>
      </trkpt>
      <trkpt lat="42.44601" lon="2.2425">
        <ele>2288.56</ele>
        <time>2016-06-30T06:03:58Z</time>
      </trkpt>
      <trkpt lat="42.446" lon="2.24249">
        <ele>2288.56</ele>
        <time>2016-06-30T06:03:59Z</time>
      </trkpt>
      <trkpt lat="42.44599" lon="2.2425">
        <ele>2288.56</ele>
        <time>2016-06-30T06:04:01Z</time>
      </trkpt>
      <trkpt lat="42.44596" lon="2.24253">
        <ele>2289.52</ele>
        <time>2016-06-30T06:04:12Z</time>
      </trkpt>
      <trkpt lat="42.44595" lon="2.24255">
        <ele>2290.48</ele>
        <time>2016-06-30T06:04:25Z</time>
      </trkpt>
      <trkpt lat="42.44595" lon="2.24255">
        <ele>2290.48</ele>
        <time>2016-06-30T06:04:29Z</time>
      </trkpt>
      <trkpt lat="42.44593" lon="2.24257">
        <ele>2290.96</ele>
        <time>2016-06-30T06:04:42Z</time>
      </trkpt>
      <trkpt lat="42.44591" lon="2.24258">
        <ele>2291.92</ele>
        <time>2016-06-30T06:04:53Z</time>
      </trkpt>
      <trkpt lat="42.44589" lon="2.24258">
        <ele>2291.92</ele>
        <time>2016-06-30T06:05:03Z</time>
      </trkpt>
      <trkpt lat="42.44586" lon="2.24257">
        <ele>2292.88</ele>
        <time>2016-06-30T06:05:17Z</time>
      </trkpt>
      <trkpt lat="42.44585" lon="2.24258">
        <ele>2292.88</ele>
        <time>2016-06-30T06:05:21Z</time>
      </trkpt>
      <trkpt lat="42.44581" lon="2.24259">
        <ele>2293.36</ele>
        <time>2016-06-30T06:05:31Z</time>
      </trkpt>
      <trkpt lat="42.4458" lon="2.24259">
        <ele>2293.36</ele>
        <time>2016-06-30T06:05:32Z</time>
      </trkpt>
      <trkpt lat="42.44576" lon="2.24264">
        <ele>2293.84</ele>
        <time>2016-06-30T06:05:45Z</time>
      </trkpt>
      <trkpt lat="42.44576" lon="2.24268">
        <ele>2294.32</ele>
        <time>2016-06-30T06:05:52Z</time>
      </trkpt>
      <trkpt lat="42.44573" lon="2.24275">
        <ele>2295.77</ele>
        <time>2016-06-30T06:06:01Z</time>
      </trkpt>
      <trkpt lat="42.44573" lon="2.24275">
        <ele>2295.77</ele>
        <time>2016-06-30T06:06:02Z</time>
      </trkpt>
      <trkpt lat="42.4457" lon="2.24277">
        <ele>2296.25</ele>
        <time>2016-06-30T06:06:06Z</time>
      </trkpt>
      <trkpt lat="42.44568" lon="2.24283">
        <ele>2297.69</ele>
        <time>2016-06-30T06:06:16Z</time>
      </trkpt>
      <trkpt lat="42.44569" lon="2.24287">
        <ele>2299.13</ele>
        <time>2016-06-30T06:06:27Z</time>
      </trkpt>
      <trkpt lat="42.44568" lon="2.24288">
        <ele>2299.13</ele>
        <time>2016-06-30T06:06:28Z</time>
      </trkpt>
      <trkpt lat="42.44566" lon="2.24289">
        <ele>2299.61</ele>
        <time>2016-06-30T06:06:36Z</time>
      </trkpt>
      <trkpt lat="42.44562" lon="2.2429">
        <ele>2300.09</ele>
        <time>2016-06-30T06:06:45Z</time>
      </trkpt>
      <trkpt lat="42.44558" lon="2.24293">
        <ele>2300.09</ele>
        <time>2016-06-30T06:06:56Z</time>
      </trkpt>
      <trkpt lat="42.44557" lon="2.24293">
        <ele>2300.57</ele>
        <time>2016-06-30T06:07:14Z</time>
      </trkpt>
      <trkpt lat="42.44557" lon="2.24293">
        <ele>2301.05</ele>
        <time>2016-06-30T06:07:26Z</time>
      </trkpt>
      <trkpt lat="42.44555" lon="2.24293">
        <ele>2301.53</ele>
        <time>2016-06-30T06:07:34Z</time>
      </trkpt>
      <trkpt lat="42.44555" lon="2.24298">
        <ele>2301.53</ele>
        <time>2016-06-30T06:07:43Z</time>
      </trkpt>
      <trkpt lat="42.44554" lon="2.24302">
        <ele>2302.01</ele>
        <time>2016-06-30T06:07:47Z</time>
      </trkpt>
      <trkpt lat="42.44555" lon="2.24306">
        <ele>2302.01</ele>
        <time>2016-06-30T06:07:51Z</time>
      </trkpt>
      <trkpt lat="42.44554" lon="2.24311">
        <ele>2302.49</ele>
        <time>2016-06-30T06:07:55Z</time>
      </trkpt>
      <trkpt lat="42.44549" lon="2.24316">
        <ele>2302.98</ele>
        <time>2016-06-30T06:08:05Z</time>
      </trkpt>
      <trkpt lat="42.44546" lon="2.24318">
        <ele>2304.42</ele>
        <time>2016-06-30T06:08:17Z</time>
      </trkpt>
      <trkpt lat="42.44543" lon="2.2432">
        <ele>2304.42</ele>
        <time>2016-06-30T06:08:33Z</time>
      </trkpt>
      <trkpt lat="42.44541" lon="2.24321">
        <ele>2304.42</ele>
        <time>2016-06-30T06:08:37Z</time>
      </trkpt>
      <trkpt lat="42.44539" lon="2.24324">
        <ele>2304.42</ele>
        <time>2016-06-30T06:08:48Z</time>
      </trkpt>
      <trkpt lat="42.4454" lon="2.24328">
        <ele>2304.9</ele>
        <time>2016-06-30T06:09:03Z</time>
      </trkpt>
      <trkpt lat="42.44539" lon="2.2433">
        <ele>2305.86</ele>
        <time>2016-06-30T06:09:12Z</time>
      </trkpt>
      <trkpt lat="42.44538" lon="2.24331">
        <ele>2305.86</ele>
        <time>2016-06-30T06:09:14Z</time>
      </trkpt>
      <trkpt lat="42.44536" lon="2.2433">
        <ele>2305.86</ele>
        <time>2016-06-30T06:09:22Z</time>
      </trkpt>
      <trkpt lat="42.4453" lon="2.24326">
        <ele>2305.86</ele>
        <time>2016-06-30T06:09:32Z</time>
      </trkpt>
      <trkpt lat="42.4453" lon="2.24326">
        <ele>2305.86</ele>
        <time>2016-06-30T06:09:34Z</time>
      </trkpt>
      <trkpt lat="42.44525" lon="2.24323">
        <ele>2304.9</ele>
        <time>2016-06-30T06:09:44Z</time>
      </trkpt>
      <trkpt lat="42.44523" lon="2.24318">
        <ele>2304.42</ele>
        <time>2016-06-30T06:09:54Z</time>
      </trkpt>
      <trkpt lat="42.44521" lon="2.24314">
        <ele>2303.94</ele>
        <time>2016-06-30T06:10:04Z</time>
      </trkpt>
      <trkpt lat="42.44518" lon="2.24306">
        <ele>2303.94</ele>
        <time>2016-06-30T06:10:15Z</time>
      </trkpt>
      <trkpt lat="42.44516" lon="2.24305">
        <ele>2303.46</ele>
        <time>2016-06-30T06:10:25Z</time>
      </trkpt>
      <trkpt lat="42.44515" lon="2.24305">
        <ele>2303.46</ele>
        <time>2016-06-30T06:10:27Z</time>
      </trkpt>
      <trkpt lat="42.4451" lon="2.24303">
        <ele>2303.46</ele>
        <time>2016-06-30T06:10:40Z</time>
      </trkpt>
      <trkpt lat="42.44504" lon="2.24304">
        <ele>2303.46</ele>
        <time>2016-06-30T06:10:49Z</time>
      </trkpt>
      <trkpt lat="42.44504" lon="2.24305">
        <ele>2303.94</ele>
        <time>2016-06-30T06:10:50Z</time>
      </trkpt>
      <trkpt lat="42.44502" lon="2.24307">
        <ele>2303.46</ele>
        <time>2016-06-30T06:11:04Z</time>
      </trkpt>
      <trkpt lat="42.44497" lon="2.24308">
        <ele>2303.46</ele>
        <time>2016-06-30T06:11:16Z</time>
      </trkpt>
      <trkpt lat="42.44495" lon="2.24308">
        <ele>2302.98</ele>
        <time>2016-06-30T06:11:21Z</time>
      </trkpt>
      <trkpt lat="42.44493" lon="2.24308">
        <ele>2302.01</ele>
        <time>2016-06-30T06:11:33Z</time>
      </trkpt>
      <trkpt lat="42.44492" lon="2.24308">
        <ele>2302.01</ele>
        <time>2016-06-30T06:11:39Z</time>
      </trkpt>
      <trkpt lat="42.44486" lon="2.24308">
        <ele>2299.61</ele>
        <time>2016-06-30T06:11:49Z</time>
      </trkpt>
      <trkpt lat="42.44486" lon="2.24308">
        <ele>2299.61</ele>
        <time>2016-06-30T06:11:50Z</time>
      </trkpt>
      <trkpt lat="42.4448" lon="2.24311">
        <ele>2298.17</ele>
        <time>2016-06-30T06:12:01Z</time>
      </trkpt>
      <trkpt lat="42.44478" lon="2.24309">
        <ele>2297.21</ele>
        <time>2016-06-30T06:12:06Z</time>
      </trkpt>
      <trkpt lat="42.44478" lon="2.24306">
        <ele>2296.25</ele>
        <time>2016-06-30T06:12:10Z</time>
      </trkpt>
      <trkpt lat="42.44474" lon="2.24305">
        <ele>2292.4</ele>
        <time>2016-06-30T06:12:16Z</time>
      </trkpt>
      <trkpt lat="42.44472" lon="2.24305">
        <ele>2289.52</ele>
        <time>2016-06-30T06:12:20Z</time>
      </trkpt>
      <trkpt lat="42.44471" lon="2.24304">
        <ele>2288.08</ele>
        <time>2016-06-30T06:12:24Z</time>
      </trkpt>
      <trkpt lat="42.44467" lon="2.24307">
        <ele>2288.56</ele>
        <time>2016-06-30T06:12:30Z</time>
      </trkpt>
      <trkpt lat="42.44465" lon="2.24307">
        <ele>2288.56</ele>
        <time>2016-06-30T06:12:33Z</time>
      </trkpt>
      <trkpt lat="42.44463" lon="2.24306">
        <ele>2288.56</ele>
        <time>2016-06-30T06:12:35Z</time>
      </trkpt>
      <trkpt lat="42.4446" lon="2.24306">
        <ele>2288.56</ele>
        <time>2016-06-30T06:12:38Z</time>
      </trkpt>
      <trkpt lat="42.44458" lon="2.24305">
        <ele>2288.56</ele>
        <time>2016-06-30T06:12:40Z</time>
      </trkpt>
      <trkpt lat="42.4445" lon="2.24307">
        <ele>2289.52</ele>
        <time>2016-06-30T06:12:47Z</time>
      </trkpt>
      <trkpt lat="42.44444" lon="2.24306">
        <ele>2290</ele>
        <time>2016-06-30T06:12:53Z</time>
      </trkpt>
      <trkpt lat="42.44438" lon="2.24307">
        <ele>2290</ele>
        <time>2016-06-30T06:12:59Z</time>
      </trkpt>
      <trkpt lat="42.44434" lon="2.24304">
        <ele>2290.48</ele>
        <time>2016-06-30T06:13:03Z</time>
      </trkpt>
      <trkpt lat="42.4443" lon="2.24303">
        <ele>2290.48</ele>
        <time>2016-06-30T06:13:07Z</time>
      </trkpt>
      <trkpt lat="42.44424" lon="2.24303">
        <ele>2291.92</ele>
        <time>2016-06-30T06:13:14Z</time>
      </trkpt>
      <trkpt lat="42.44414" lon="2.24298">
        <ele>2292.88</ele>
        <time>2016-06-30T06:13:26Z</time>
      </trkpt>
      <trkpt lat="42.44407" lon="2.24296">
        <ele>2293.36</ele>
        <time>2016-06-30T06:13:33Z</time>
      </trkpt>
      <trkpt lat="42.44397" lon="2.24303">
        <ele>2295.28</ele>
        <time>2016-06-30T06:13:46Z</time>
      </trkpt>
      <trkpt lat="42.44387" lon="2.24311">
        <ele>2296.25</ele>
        <time>2016-06-30T06:13:59Z</time>
      </trkpt>
      <trkpt lat="42.44381" lon="2.24321">
        <ele>2297.69</ele>
        <time>2016-06-30T06:14:12Z</time>
      </trkpt>
      <trkpt lat="42.44378" lon="2.24322">
        <ele>2298.17</ele>
        <time>2016-06-30T06:14:16Z</time>
      </trkpt>
      <trkpt lat="42.44371" lon="2.24324">
        <ele>2298.65</ele>
        <time>2016-06-30T06:14:26Z</time>
      </trkpt>
      <trkpt lat="42.44369" lon="2.24324">
        <ele>2298.65</ele>
        <time>2016-06-30T06:14:28Z</time>
      </trkpt>
      <trkpt lat="42.44364" lon="2.24328">
        <ele>2299.61</ele>
        <time>2016-06-30T06:14:37Z</time>
      </trkpt>
      <trkpt lat="42.4436" lon="2.24335">
        <ele>2300.09</ele>
        <time>2016-06-30T06:14:43Z</time>
      </trkpt>
      <trkpt lat="42.4435" lon="2.24343">
        <ele>2301.53</ele>
        <time>2016-06-30T06:14:54Z</time>
      </trkpt>
      <trkpt lat="42.44347" lon="2.24342">
        <ele>2302.01</ele>
        <time>2016-06-30T06:14:58Z</time>
      </trkpt>
      <trkpt lat="42.4434" lon="2.24341">
        <ele>2302.98</ele>
        <time>2016-06-30T06:15:05Z</time>
      </trkpt>
      <trkpt lat="42.44335" lon="2.24337">
        <ele>2303.46</ele>
        <time>2016-06-30T06:15:11Z</time>
      </trkpt>
      <trkpt lat="42.44326" lon="2.2433">
        <ele>2304.9</ele>
        <time>2016-06-30T06:15:22Z</time>
      </trkpt>
      <trkpt lat="42.44324" lon="2.24329">
        <ele>2305.38</ele>
        <time>2016-06-30T06:15:24Z</time>
      </trkpt>
      <trkpt lat="42.44317" lon="2.24333">
        <ele>2306.34</ele>
        <time>2016-06-30T06:15:35Z</time>
      </trkpt>
      <trkpt lat="42.44311" lon="2.24346">
        <ele>2306.82</ele>
        <time>2016-06-30T06:15:49Z</time>
      </trkpt>
      <trkpt lat="42.44311" lon="2.24349">
        <ele>2307.3</ele>
        <time>2016-06-30T06:15:52Z</time>
      </trkpt>
      <trkpt lat="42.4431" lon="2.24351">
        <ele>2307.78</ele>
        <time>2016-06-30T06:15:54Z</time>
      </trkpt>
      <trkpt lat="42.44304" lon="2.24353">
        <ele>2308.26</ele>
        <time>2016-06-30T06:16:00Z</time>
      </trkpt>
      <trkpt lat="42.44302" lon="2.24352">
        <ele>2308.26</ele>
        <time>2016-06-30T06:16:02Z</time>
      </trkpt>
      <trkpt lat="42.44299" lon="2.24348">
        <ele>2309.22</ele>
        <time>2016-06-30T06:16:06Z</time>
      </trkpt>
      <trkpt lat="42.44295" lon="2.24342">
        <ele>2309.7</ele>
        <time>2016-06-30T06:16:13Z</time>
      </trkpt>
      <trkpt lat="42.44285" lon="2.24334">
        <ele>2310.67</ele>
        <time>2016-06-30T06:16:26Z</time>
      </trkpt>
      <trkpt lat="42.44283" lon="2.24334">
        <ele>2310.67</ele>
        <time>2016-06-30T06:16:28Z</time>
      </trkpt>
      <trkpt lat="42.44273" lon="2.24343">
        <ele>2311.63</ele>
        <time>2016-06-30T06:16:42Z</time>
      </trkpt>
      <trkpt lat="42.44268" lon="2.24348">
        <ele>2313.07</ele>
        <time>2016-06-30T06:16:48Z</time>
      </trkpt>
      <trkpt lat="42.44263" lon="2.24348">
        <ele>2313.07</ele>
        <time>2016-06-30T06:16:53Z</time>
      </trkpt>
      <trkpt lat="42.44256" lon="2.24341">
        <ele>2314.03</ele>
        <time>2016-06-30T06:17:05Z</time>
      </trkpt>
      <trkpt lat="42.44254" lon="2.2434">
        <ele>2314.51</ele>
        <time>2016-06-30T06:17:09Z</time>
      </trkpt>
      <trkpt lat="42.44245" lon="2.24339">
        <ele>2314.99</ele>
        <time>2016-06-30T06:17:20Z</time>
      </trkpt>
      <trkpt lat="42.44244" lon="2.24341">
        <ele>2314.99</ele>
        <time>2016-06-30T06:17:22Z</time>
      </trkpt>
      <trkpt lat="42.4424" lon="2.24347">
        <ele>2315.95</ele>
        <time>2016-06-30T06:17:28Z</time>
      </trkpt>
      <trkpt lat="42.44238" lon="2.24354">
        <ele>2316.43</ele>
        <time>2016-06-30T06:17:35Z</time>
      </trkpt>
      <trkpt lat="42.44238" lon="2.24356">
        <ele>2316.91</ele>
        <time>2016-06-30T06:17:37Z</time>
      </trkpt>
      <trkpt lat="42.44234" lon="2.24372">
        <ele>2317.88</ele>
        <time>2016-06-30T06:17:50Z</time>
      </trkpt>
      <trkpt lat="42.44228" lon="2.24375">
        <ele>2319.32</ele>
        <time>2016-06-30T06:18:00Z</time>
      </trkpt>
      <trkpt lat="42.44228" lon="2.24375">
        <ele>2319.8</ele>
        <time>2016-06-30T06:18:18Z</time>
      </trkpt>
      <trkpt lat="42.44229" lon="2.24375">
        <ele>2320.28</ele>
        <time>2016-06-30T06:18:38Z</time>
      </trkpt>
      <trkpt lat="42.44228" lon="2.24376">
        <ele>2320.28</ele>
        <time>2016-06-30T06:18:54Z</time>
      </trkpt>
      <trkpt lat="42.44226" lon="2.24375">
        <ele>2320.28</ele>
        <time>2016-06-30T06:18:56Z</time>
      </trkpt>
      <trkpt lat="42.44224" lon="2.24375">
        <ele>2320.28</ele>
        <time>2016-06-30T06:18:58Z</time>
      </trkpt>
      <trkpt lat="42.44215" lon="2.24373">
        <ele>2321.24</ele>
        <time>2016-06-30T06:19:06Z</time>
      </trkpt>
      <trkpt lat="42.4421" lon="2.24373">
        <ele>2321.72</ele>
        <time>2016-06-30T06:19:11Z</time>
      </trkpt>
      <trkpt lat="42.44202" lon="2.2437">
        <ele>2321.72</ele>
        <time>2016-06-30T06:19:20Z</time>
      </trkpt>
      <trkpt lat="42.4419" lon="2.24373">
        <ele>2323.16</ele>
        <time>2016-06-30T06:19:31Z</time>
      </trkpt>
      <trkpt lat="42.44182" lon="2.24378">
        <ele>2324.61</ele>
        <time>2016-06-30T06:19:40Z</time>
      </trkpt>
      <trkpt lat="42.44178" lon="2.24379">
        <ele>2325.09</ele>
        <time>2016-06-30T06:19:45Z</time>
      </trkpt>
      <trkpt lat="42.44175" lon="2.24381">
        <ele>2325.57</ele>
        <time>2016-06-30T06:19:50Z</time>
      </trkpt>
      <trkpt lat="42.44166" lon="2.24387">
        <ele>2327.49</ele>
        <time>2016-06-30T06:20:03Z</time>
      </trkpt>
      <trkpt lat="42.44158" lon="2.24394">
        <ele>2328.45</ele>
        <time>2016-06-30T06:20:14Z</time>
      </trkpt>
      <trkpt lat="42.4415" lon="2.24392">
        <ele>2329.89</ele>
        <time>2016-06-30T06:20:26Z</time>
      </trkpt>
      <trkpt lat="42.44148" lon="2.24391">
        <ele>2330.37</ele>
        <time>2016-06-30T06:20:28Z</time>
      </trkpt>
      <trkpt lat="42.44147" lon="2.24387">
        <ele>2330.85</ele>
        <time>2016-06-30T06:20:31Z</time>
      </trkpt>
      <trkpt lat="42.44146" lon="2.24386">
        <ele>2330.85</ele>
        <time>2016-06-30T06:20:33Z</time>
      </trkpt>
      <trkpt lat="42.44141" lon="2.24381">
        <ele>2332.78</ele>
        <time>2016-06-30T06:20:44Z</time>
      </trkpt>
      <trkpt lat="42.44139" lon="2.2438">
        <ele>2333.74</ele>
        <time>2016-06-30T06:20:47Z</time>
      </trkpt>
      <trkpt lat="42.44136" lon="2.24381">
        <ele>2336.14</ele>
        <time>2016-06-30T06:20:51Z</time>
      </trkpt>
      <trkpt lat="42.44129" lon="2.24379">
        <ele>2337.1</ele>
        <time>2016-06-30T06:21:02Z</time>
      </trkpt>
      <trkpt lat="42.44126" lon="2.24382">
        <ele>2337.1</ele>
        <time>2016-06-30T06:21:06Z</time>
      </trkpt>
      <trkpt lat="42.44119" lon="2.24382">
        <ele>2337.58</ele>
        <time>2016-06-30T06:21:13Z</time>
      </trkpt>
      <trkpt lat="42.4411" lon="2.24384">
        <ele>2339.02</ele>
        <time>2016-06-30T06:21:23Z</time>
      </trkpt>
      <trkpt lat="42.44101" lon="2.24391">
        <ele>2339.51</ele>
        <time>2016-06-30T06:21:35Z</time>
      </trkpt>
      <trkpt lat="42.441" lon="2.24393">
        <ele>2339.99</ele>
        <time>2016-06-30T06:21:38Z</time>
      </trkpt>
      <trkpt lat="42.44093" lon="2.24399">
        <ele>2340.95</ele>
        <time>2016-06-30T06:21:49Z</time>
      </trkpt>
      <trkpt lat="42.44081" lon="2.24399">
        <ele>2341.91</ele>
        <time>2016-06-30T06:22:02Z</time>
      </trkpt>
      <trkpt lat="42.44076" lon="2.24399">
        <ele>2342.39</ele>
        <time>2016-06-30T06:22:07Z</time>
      </trkpt>
      <trkpt lat="42.44072" lon="2.24399">
        <ele>2342.39</ele>
        <time>2016-06-30T06:22:11Z</time>
      </trkpt>
      <trkpt lat="42.4406" lon="2.24399">
        <ele>2342.87</ele>
        <time>2016-06-30T06:22:24Z</time>
      </trkpt>
      <trkpt lat="42.44049" lon="2.24398">
        <ele>2344.31</ele>
        <time>2016-06-30T06:22:35Z</time>
      </trkpt>
      <trkpt lat="42.44046" lon="2.24396">
        <ele>2344.31</ele>
        <time>2016-06-30T06:22:38Z</time>
      </trkpt>
      <trkpt lat="42.44039" lon="2.24388">
        <ele>2344.79</ele>
        <time>2016-06-30T06:22:46Z</time>
      </trkpt>
      <trkpt lat="42.44034" lon="2.24386">
        <ele>2344.79</ele>
        <time>2016-06-30T06:22:51Z</time>
      </trkpt>
      <trkpt lat="42.44031" lon="2.24385">
        <ele>2344.79</ele>
        <time>2016-06-30T06:22:54Z</time>
      </trkpt>
      <trkpt lat="42.44025" lon="2.24382">
        <ele>2344.79</ele>
        <time>2016-06-30T06:23:00Z</time>
      </trkpt>
      <trkpt lat="42.44012" lon="2.2438">
        <ele>2345.27</ele>
        <time>2016-06-30T06:23:13Z</time>
      </trkpt>
      <trkpt lat="42.44011" lon="2.2438">
        <ele>2345.27</ele>
        <time>2016-06-30T06:23:14Z</time>
      </trkpt>
      <trkpt lat="42.44005" lon="2.24381">
        <ele>2346.23</ele>
        <time>2016-06-30T06:23:19Z</time>
      </trkpt>
      <trkpt lat="42.43998" lon="2.24384">
        <ele>2346.72</ele>
        <time>2016-06-30T06:23:27Z</time>
      </trkpt>
      <trkpt lat="42.43993" lon="2.24402">
        <ele>2347.2</ele>
        <time>2016-06-30T06:23:41Z</time>
      </trkpt>
      <trkpt lat="42.43992" lon="2.24402">
        <ele>2347.2</ele>
        <time>2016-06-30T06:23:43Z</time>
      </trkpt>
      <trkpt lat="42.43982" lon="2.24412">
        <ele>2347.2</ele>
        <time>2016-06-30T06:23:55Z</time>
      </trkpt>
      <trkpt lat="42.43973" lon="2.24415">
        <ele>2348.64</ele>
        <time>2016-06-30T06:24:07Z</time>
      </trkpt>
      <trkpt lat="42.43967" lon="2.24419">
        <ele>2349.6</ele>
        <time>2016-06-30T06:24:16Z</time>
      </trkpt>
      <trkpt lat="42.43963" lon="2.24426">
        <ele>2350.08</ele>
        <time>2016-06-30T06:24:25Z</time>
      </trkpt>
      <trkpt lat="42.43957" lon="2.2443">
        <ele>2350.56</ele>
        <time>2016-06-30T06:24:32Z</time>
      </trkpt>
      <trkpt lat="42.4395" lon="2.24432">
        <ele>2352</ele>
        <time>2016-06-30T06:24:42Z</time>
      </trkpt>
      <trkpt lat="42.43946" lon="2.24434">
        <ele>2352</ele>
        <time>2016-06-30T06:24:46Z</time>
      </trkpt>
      <trkpt lat="42.43936" lon="2.24435">
        <ele>2353.93</ele>
        <time>2016-06-30T06:24:59Z</time>
      </trkpt>
      <trkpt lat="42.43931" lon="2.24432">
        <ele>2354.41</ele>
        <time>2016-06-30T06:25:06Z</time>
      </trkpt>
      <trkpt lat="42.43927" lon="2.24433">
        <ele>2354.89</ele>
        <time>2016-06-30T06:25:13Z</time>
      </trkpt>
      <trkpt lat="42.43922" lon="2.24434">
        <ele>2355.37</ele>
        <time>2016-06-30T06:25:18Z</time>
      </trkpt>
      <trkpt lat="42.43913" lon="2.24437">
        <ele>2356.33</ele>
        <time>2016-06-30T06:25:30Z</time>
      </trkpt>
      <trkpt lat="42.43907" lon="2.24437">
        <ele>2357.77</ele>
        <time>2016-06-30T06:25:39Z</time>
      </trkpt>
      <trkpt lat="42.43899" lon="2.24433">
        <ele>2360.17</ele>
        <time>2016-06-30T06:25:51Z</time>
      </trkpt>
      <trkpt lat="42.4389" lon="2.24435">
        <ele>2361.14</ele>
        <time>2016-06-30T06:26:02Z</time>
      </trkpt>
      <trkpt lat="42.43884" lon="2.24436">
        <ele>2361.62</ele>
        <time>2016-06-30T06:26:08Z</time>
      </trkpt>
      <trkpt lat="42.43874" lon="2.24442">
        <ele>2363.54</ele>
        <time>2016-06-30T06:26:20Z</time>
      </trkpt>
      <trkpt lat="42.43872" lon="2.24444">
        <ele>2363.54</ele>
        <time>2016-06-30T06:26:22Z</time>
      </trkpt>
      <trkpt lat="42.43867" lon="2.24447">
        <ele>2363.54</ele>
        <time>2016-06-30T06:26:28Z</time>
      </trkpt>
      <trkpt lat="42.43865" lon="2.24449">
        <ele>2364.02</ele>
        <time>2016-06-30T06:26:30Z</time>
      </trkpt>
      <trkpt lat="42.43858" lon="2.24451">
        <ele>2364.5</ele>
        <time>2016-06-30T06:26:38Z</time>
      </trkpt>
      <trkpt lat="42.43846" lon="2.2445">
        <ele>2365.94</ele>
        <time>2016-06-30T06:26:51Z</time>
      </trkpt>
      <trkpt lat="42.43844" lon="2.24451">
        <ele>2365.46</ele>
        <time>2016-06-30T06:26:53Z</time>
      </trkpt>
      <trkpt lat="42.43832" lon="2.24456">
        <ele>2366.42</ele>
        <time>2016-06-30T06:27:06Z</time>
      </trkpt>
      <trkpt lat="42.4383" lon="2.24457">
        <ele>2366.42</ele>
        <time>2016-06-30T06:27:08Z</time>
      </trkpt>
      <trkpt lat="42.43818" lon="2.24463">
        <ele>2366.42</ele>
        <time>2016-06-30T06:27:20Z</time>
      </trkpt>
      <trkpt lat="42.43806" lon="2.24467">
        <ele>2366.42</ele>
        <time>2016-06-30T06:27:32Z</time>
      </trkpt>
      <trkpt lat="42.43799" lon="2.24473">
        <ele>2366.42</ele>
        <time>2016-06-30T06:27:41Z</time>
      </trkpt>
      <trkpt lat="42.43792" lon="2.24482">
        <ele>2366.9</ele>
        <time>2016-06-30T06:27:51Z</time>
      </trkpt>
      <trkpt lat="42.43785" lon="2.24485">
        <ele>2367.86</ele>
        <time>2016-06-30T06:27:57Z</time>
      </trkpt>
      <trkpt lat="42.43772" lon="2.24489">
        <ele>2368.35</ele>
        <time>2016-06-30T06:28:09Z</time>
      </trkpt>
      <trkpt lat="42.4376" lon="2.24494">
        <ele>2369.31</ele>
        <time>2016-06-30T06:28:21Z</time>
      </trkpt>
      <trkpt lat="42.43753" lon="2.24497">
        <ele>2369.79</ele>
        <time>2016-06-30T06:28:28Z</time>
      </trkpt>
      <trkpt lat="42.43751" lon="2.24497">
        <ele>2371.23</ele>
        <time>2016-06-30T06:28:43Z</time>
      </trkpt>
      <trkpt lat="42.43752" lon="2.24497">
        <ele>2371.23</ele>
        <time>2016-06-30T06:29:06Z</time>
      </trkpt>
      <trkpt lat="42.43748" lon="2.24497">
        <ele>2371.23</ele>
        <time>2016-06-30T06:29:23Z</time>
      </trkpt>
      <trkpt lat="42.43739" lon="2.24499">
        <ele>2371.71</ele>
        <time>2016-06-30T06:29:33Z</time>
      </trkpt>
      <trkpt lat="42.43737" lon="2.24498">
        <ele>2371.71</ele>
        <time>2016-06-30T06:29:35Z</time>
      </trkpt>
      <trkpt lat="42.43731" lon="2.24499">
        <ele>2372.67</ele>
        <time>2016-06-30T06:29:41Z</time>
      </trkpt>
      <trkpt lat="42.4372" lon="2.24496">
        <ele>2373.63</ele>
        <time>2016-06-30T06:29:52Z</time>
      </trkpt>
      <trkpt lat="42.43713" lon="2.24496">
        <ele>2375.07</ele>
        <time>2016-06-30T06:29:59Z</time>
      </trkpt>
      <trkpt lat="42.43701" lon="2.24493">
        <ele>2377</ele>
        <time>2016-06-30T06:30:11Z</time>
      </trkpt>
      <trkpt lat="42.43696" lon="2.24491">
        <ele>2377.48</ele>
        <time>2016-06-30T06:30:15Z</time>
      </trkpt>
      <trkpt lat="42.43686" lon="2.2449">
        <ele>2378.44</ele>
        <time>2016-06-30T06:30:25Z</time>
      </trkpt>
      <trkpt lat="42.43681" lon="2.2449">
        <ele>2378.92</ele>
        <time>2016-06-30T06:30:29Z</time>
      </trkpt>
      <trkpt lat="42.4367" lon="2.24488">
        <ele>2379.88</ele>
        <time>2016-06-30T06:30:41Z</time>
      </trkpt>
      <trkpt lat="42.43659" lon="2.24486">
        <ele>2381.8</ele>
        <time>2016-06-30T06:30:53Z</time>
      </trkpt>
      <trkpt lat="42.43656" lon="2.24483">
        <ele>2382.76</ele>
        <time>2016-06-30T06:30:59Z</time>
      </trkpt>
      <trkpt lat="42.43654" lon="2.24483">
        <ele>2382.76</ele>
        <time>2016-06-30T06:31:01Z</time>
      </trkpt>
      <trkpt lat="42.4365" lon="2.24482">
        <ele>2383.73</ele>
        <time>2016-06-30T06:31:06Z</time>
      </trkpt>
      <trkpt lat="42.43641" lon="2.24479">
        <ele>2384.69</ele>
        <time>2016-06-30T06:31:17Z</time>
      </trkpt>
      <trkpt lat="42.43632" lon="2.24477">
        <ele>2386.61</ele>
        <time>2016-06-30T06:31:28Z</time>
      </trkpt>
      <trkpt lat="42.4363" lon="2.24477">
        <ele>2386.61</ele>
        <time>2016-06-30T06:31:31Z</time>
      </trkpt>
      <trkpt lat="42.43621" lon="2.24479">
        <ele>2388.05</ele>
        <time>2016-06-30T06:31:42Z</time>
      </trkpt>
      <trkpt lat="42.43616" lon="2.24478">
        <ele>2388.53</ele>
        <time>2016-06-30T06:31:47Z</time>
      </trkpt>
      <trkpt lat="42.43606" lon="2.24481">
        <ele>2389.97</ele>
        <time>2016-06-30T06:31:59Z</time>
      </trkpt>
      <trkpt lat="42.43596" lon="2.24481">
        <ele>2391.9</ele>
        <time>2016-06-30T06:32:11Z</time>
      </trkpt>
      <trkpt lat="42.4359" lon="2.24481">
        <ele>2392.86</ele>
        <time>2016-06-30T06:32:18Z</time>
      </trkpt>
      <trkpt lat="42.43585" lon="2.24477">
        <ele>2394.3</ele>
        <time>2016-06-30T06:32:31Z</time>
      </trkpt>
      <trkpt lat="42.43583" lon="2.24477">
        <ele>2395.74</ele>
        <time>2016-06-30T06:32:54Z</time>
      </trkpt>
      <trkpt lat="42.4358" lon="2.24473">
        <ele>2396.22</ele>
        <time>2016-06-30T06:33:17Z</time>
      </trkpt>
      <trkpt lat="42.43572" lon="2.2447">
        <ele>2397.67</ele>
        <time>2016-06-30T06:33:29Z</time>
      </trkpt>
      <trkpt lat="42.4357" lon="2.24471">
        <ele>2397.67</ele>
        <time>2016-06-30T06:33:31Z</time>
      </trkpt>
      <trkpt lat="42.4356" lon="2.24475">
        <ele>2400.07</ele>
        <time>2016-06-30T06:33:44Z</time>
      </trkpt>
      <trkpt lat="42.43559" lon="2.24476">
        <ele>2400.07</ele>
        <time>2016-06-30T06:33:46Z</time>
      </trkpt>
      <trkpt lat="42.43552" lon="2.24479">
        <ele>2401.51</ele>
        <time>2016-06-30T06:33:58Z</time>
      </trkpt>
      <trkpt lat="42.43551" lon="2.24479">
        <ele>2402.95</ele>
        <time>2016-06-30T06:34:17Z</time>
      </trkpt>
      <trkpt lat="42.43551" lon="2.24479">
        <ele>2403.43</ele>
        <time>2016-06-30T06:34:33Z</time>
      </trkpt>
      <trkpt lat="42.43551" lon="2.24479">
        <ele>2403.91</ele>
        <time>2016-06-30T06:35:00Z</time>
      </trkpt>
      <trkpt lat="42.43551" lon="2.24479">
        <ele>2403.91</ele>
        <time>2016-06-30T06:35:22Z</time>
      </trkpt>
      <trkpt lat="42.43544" lon="2.24482">
        <ele>2403.91</ele>
        <time>2016-06-30T06:35:31Z</time>
      </trkpt>
      <trkpt lat="42.43543" lon="2.24484">
        <ele>2403.91</ele>
        <time>2016-06-30T06:35:33Z</time>
      </trkpt>
      <trkpt lat="42.43541" lon="2.24485">
        <ele>2404.39</ele>
        <time>2016-06-30T06:35:35Z</time>
      </trkpt>
      <trkpt lat="42.43533" lon="2.24489">
        <ele>2404.39</ele>
        <time>2016-06-30T06:35:45Z</time>
      </trkpt>
      <trkpt lat="42.43524" lon="2.2449">
        <ele>2405.84</ele>
        <time>2016-06-30T06:35:56Z</time>
      </trkpt>
      <trkpt lat="42.43517" lon="2.24494">
        <ele>2407.28</ele>
        <time>2016-06-30T06:36:08Z</time>
      </trkpt>
      <trkpt lat="42.43516" lon="2.24494">
        <ele>2407.28</ele>
        <time>2016-06-30T06:36:10Z</time>
      </trkpt>
      <trkpt lat="42.43508" lon="2.24496">
        <ele>2409.68</ele>
        <time>2016-06-30T06:36:22Z</time>
      </trkpt>
      <trkpt lat="42.43501" lon="2.24497">
        <ele>2411.6</ele>
        <time>2016-06-30T06:36:34Z</time>
      </trkpt>
      <trkpt lat="42.43497" lon="2.24498">
        <ele>2413.05</ele>
        <time>2016-06-30T06:36:46Z</time>
      </trkpt>
      <trkpt lat="42.43494" lon="2.245">
        <ele>2414.01</ele>
        <time>2016-06-30T06:37:00Z</time>
      </trkpt>
      <trkpt lat="42.43492" lon="2.24507">
        <ele>2415.45</ele>
        <time>2016-06-30T06:37:10Z</time>
      </trkpt>
      <trkpt lat="42.43487" lon="2.24512">
        <ele>2417.37</ele>
        <time>2016-06-30T06:37:21Z</time>
      </trkpt>
      <trkpt lat="42.43486" lon="2.24512">
        <ele>2419.78</ele>
        <time>2016-06-30T06:37:37Z</time>
      </trkpt>
      <trkpt lat="42.43487" lon="2.24512">
        <ele>2419.78</ele>
        <time>2016-06-30T06:37:51Z</time>
      </trkpt>
      <trkpt lat="42.43487" lon="2.24513">
        <ele>2419.78</ele>
        <time>2016-06-30T06:38:16Z</time>
      </trkpt>
      <trkpt lat="42.43486" lon="2.24514">
        <ele>2419.78</ele>
        <time>2016-06-30T06:38:34Z</time>
      </trkpt>
      <trkpt lat="42.43477" lon="2.24511">
        <ele>2421.22</ele>
        <time>2016-06-30T06:38:45Z</time>
      </trkpt>
      <trkpt lat="42.4347" lon="2.24513">
        <ele>2422.66</ele>
        <time>2016-06-30T06:38:56Z</time>
      </trkpt>
      <trkpt lat="42.43461" lon="2.24519">
        <ele>2425.06</ele>
        <time>2016-06-30T06:39:10Z</time>
      </trkpt>
      <trkpt lat="42.43452" lon="2.24525">
        <ele>2426.99</ele>
        <time>2016-06-30T06:39:21Z</time>
      </trkpt>
      <trkpt lat="42.43444" lon="2.2453">
        <ele>2428.43</ele>
        <time>2016-06-30T06:39:33Z</time>
      </trkpt>
      <trkpt lat="42.43441" lon="2.24533">
        <ele>2430.35</ele>
        <time>2016-06-30T06:39:42Z</time>
      </trkpt>
      <trkpt lat="42.4344" lon="2.24534">
        <ele>2430.35</ele>
        <time>2016-06-30T06:39:43Z</time>
      </trkpt>
      <trkpt lat="42.43435" lon="2.24538">
        <ele>2432.27</ele>
        <time>2016-06-30T06:39:55Z</time>
      </trkpt>
      <trkpt lat="42.43435" lon="2.24539">
        <ele>2433.71</ele>
        <time>2016-06-30T06:40:12Z</time>
      </trkpt>
      <trkpt lat="42.43432" lon="2.2454">
        <ele>2434.68</ele>
        <time>2016-06-30T06:40:27Z</time>
      </trkpt>
      <trkpt lat="42.43422" lon="2.24541">
        <ele>2435.64</ele>
        <time>2016-06-30T06:40:41Z</time>
      </trkpt>
      <trkpt lat="42.43413" lon="2.24544">
        <ele>2437.56</ele>
        <time>2016-06-30T06:40:52Z</time>
      </trkpt>
      <trkpt lat="42.43406" lon="2.24547">
        <ele>2439.48</ele>
        <time>2016-06-30T06:41:04Z</time>
      </trkpt>
      <trkpt lat="42.43399" lon="2.24551">
        <ele>2441.41</ele>
        <time>2016-06-30T06:41:16Z</time>
      </trkpt>
      <trkpt lat="42.43394" lon="2.24555">
        <ele>2443.33</ele>
        <time>2016-06-30T06:41:28Z</time>
      </trkpt>
      <trkpt lat="42.43387" lon="2.24558">
        <ele>2444.77</ele>
        <time>2016-06-30T06:41:40Z</time>
      </trkpt>
      <trkpt lat="42.4338" lon="2.2456">
        <ele>2447.17</ele>
        <time>2016-06-30T06:41:53Z</time>
      </trkpt>
      <trkpt lat="42.43371" lon="2.24557">
        <ele>2450.06</ele>
        <time>2016-06-30T06:42:07Z</time>
      </trkpt>
      <trkpt lat="42.43364" lon="2.24558">
        <ele>2451.98</ele>
        <time>2016-06-30T06:42:19Z</time>
      </trkpt>
      <trkpt lat="42.43359" lon="2.24557">
        <ele>2454.38</ele>
        <time>2016-06-30T06:42:30Z</time>
      </trkpt>
      <trkpt lat="42.4335" lon="2.24558">
        <ele>2455.82</ele>
        <time>2016-06-30T06:42:43Z</time>
      </trkpt>
      <trkpt lat="42.43345" lon="2.24559">
        <ele>2457.75</ele>
        <time>2016-06-30T06:42:53Z</time>
      </trkpt>
      <trkpt lat="42.43338" lon="2.24562">
        <ele>2459.19</ele>
        <time>2016-06-30T06:43:04Z</time>
      </trkpt>
      <trkpt lat="42.43331" lon="2.24558">
        <ele>2460.63</ele>
        <time>2016-06-30T06:43:15Z</time>
      </trkpt>
      <trkpt lat="42.43327" lon="2.24556">
        <ele>2462.07</ele>
        <time>2016-06-30T06:43:27Z</time>
      </trkpt>
      <trkpt lat="42.43324" lon="2.24556">
        <ele>2462.55</ele>
        <time>2016-06-30T06:43:49Z</time>
      </trkpt>
      <trkpt lat="42.43323" lon="2.24555">
        <ele>2463.04</ele>
        <time>2016-06-30T06:43:51Z</time>
      </trkpt>
      <trkpt lat="42.4332" lon="2.24544">
        <ele>2464.48</ele>
        <time>2016-06-30T06:44:03Z</time>
      </trkpt>
      <trkpt lat="42.43319" lon="2.24543">
        <ele>2464.48</ele>
        <time>2016-06-30T06:44:07Z</time>
      </trkpt>
      <trkpt lat="42.43314" lon="2.24538">
        <ele>2464.48</ele>
        <time>2016-06-30T06:44:14Z</time>
      </trkpt>
      <trkpt lat="42.43312" lon="2.24535">
        <ele>2464.96</ele>
        <time>2016-06-30T06:44:18Z</time>
      </trkpt>
      <trkpt lat="42.43309" lon="2.24531">
        <ele>2464.96</ele>
        <time>2016-06-30T06:44:22Z</time>
      </trkpt>
      <trkpt lat="42.43308" lon="2.2453">
        <ele>2465.44</ele>
        <time>2016-06-30T06:44:24Z</time>
      </trkpt>
      <trkpt lat="42.43305" lon="2.24529">
        <ele>2465.92</ele>
        <time>2016-06-30T06:44:29Z</time>
      </trkpt>
      <trkpt lat="42.43304" lon="2.24528">
        <ele>2465.92</ele>
        <time>2016-06-30T06:44:31Z</time>
      </trkpt>
      <trkpt lat="42.43298" lon="2.24524">
        <ele>2466.4</ele>
        <time>2016-06-30T06:44:38Z</time>
      </trkpt>
      <trkpt lat="42.4329" lon="2.24517">
        <ele>2468.32</ele>
        <time>2016-06-30T06:44:51Z</time>
      </trkpt>
      <trkpt lat="42.43285" lon="2.24517">
        <ele>2469.28</ele>
        <time>2016-06-30T06:45:02Z</time>
      </trkpt>
      <trkpt lat="42.43285" lon="2.24516">
        <ele>2469.28</ele>
        <time>2016-06-30T06:45:03Z</time>
      </trkpt>
      <trkpt lat="42.43284" lon="2.24514">
        <ele>2470.24</ele>
        <time>2016-06-30T06:45:19Z</time>
      </trkpt>
      <trkpt lat="42.43284" lon="2.24513">
        <ele>2470.73</ele>
        <time>2016-06-30T06:45:44Z</time>
      </trkpt>
      <trkpt lat="42.43284" lon="2.24514">
        <ele>2470.73</ele>
        <time>2016-06-30T06:46:08Z</time>
      </trkpt>
      <trkpt lat="42.43283" lon="2.24506">
        <ele>2471.21</ele>
        <time>2016-06-30T06:46:22Z</time>
      </trkpt>
      <trkpt lat="42.43279" lon="2.24501">
        <ele>2471.69</ele>
        <time>2016-06-30T06:46:28Z</time>
      </trkpt>
      <trkpt lat="42.43274" lon="2.24495">
        <ele>2472.65</ele>
        <time>2016-06-30T06:46:37Z</time>
      </trkpt>
      <trkpt lat="42.4327" lon="2.24493">
        <ele>2473.61</ele>
        <time>2016-06-30T06:46:44Z</time>
      </trkpt>
      <trkpt lat="42.43258" lon="2.24487">
        <ele>2475.53</ele>
        <time>2016-06-30T06:46:58Z</time>
      </trkpt>
      <trkpt lat="42.43254" lon="2.24483">
        <ele>2476.49</ele>
        <time>2016-06-30T06:47:06Z</time>
      </trkpt>
      <trkpt lat="42.43251" lon="2.24481">
        <ele>2477.94</ele>
        <time>2016-06-30T06:47:11Z</time>
      </trkpt>
      <trkpt lat="42.43247" lon="2.2448">
        <ele>2478.42</ele>
        <time>2016-06-30T06:47:15Z</time>
      </trkpt>
      <trkpt lat="42.43242" lon="2.24479">
        <ele>2479.38</ele>
        <time>2016-06-30T06:47:22Z</time>
      </trkpt>
      <trkpt lat="42.43235" lon="2.24479">
        <ele>2480.34</ele>
        <time>2016-06-30T06:47:31Z</time>
      </trkpt>
      <trkpt lat="42.43226" lon="2.24476">
        <ele>2482.26</ele>
        <time>2016-06-30T06:47:45Z</time>
      </trkpt>
      <trkpt lat="42.43218" lon="2.24476">
        <ele>2484.66</ele>
        <time>2016-06-30T06:47:57Z</time>
      </trkpt>
      <trkpt lat="42.43216" lon="2.24474">
        <ele>2486.11</ele>
        <time>2016-06-30T06:48:12Z</time>
      </trkpt>
      <trkpt lat="42.43211" lon="2.24469">
        <ele>2487.07</ele>
        <time>2016-06-30T06:48:23Z</time>
      </trkpt>
      <trkpt lat="42.43207" lon="2.24469">
        <ele>2487.55</ele>
        <time>2016-06-30T06:48:27Z</time>
      </trkpt>
      <trkpt lat="42.432" lon="2.24466">
        <ele>2488.99</ele>
        <time>2016-06-30T06:48:37Z</time>
      </trkpt>
      <trkpt lat="42.43196" lon="2.24465">
        <ele>2490.43</ele>
        <time>2016-06-30T06:48:47Z</time>
      </trkpt>
      <trkpt lat="42.43194" lon="2.24464">
        <ele>2491.87</ele>
        <time>2016-06-30T06:48:55Z</time>
      </trkpt>
      <trkpt lat="42.43189" lon="2.24458">
        <ele>2493.8</ele>
        <time>2016-06-30T06:49:06Z</time>
      </trkpt>
      <trkpt lat="42.43188" lon="2.24458">
        <ele>2493.8</ele>
        <time>2016-06-30T06:49:07Z</time>
      </trkpt>
      <trkpt lat="42.43183" lon="2.24456">
        <ele>2495.72</ele>
        <time>2016-06-30T06:49:17Z</time>
      </trkpt>
      <trkpt lat="42.43179" lon="2.24451">
        <ele>2497.64</ele>
        <time>2016-06-30T06:49:27Z</time>
      </trkpt>
      <trkpt lat="42.43173" lon="2.24444">
        <ele>2499.57</ele>
        <time>2016-06-30T06:49:40Z</time>
      </trkpt>
      <trkpt lat="42.43168" lon="2.2444">
        <ele>2501.01</ele>
        <time>2016-06-30T06:49:50Z</time>
      </trkpt>
      <trkpt lat="42.43165" lon="2.24434">
        <ele>2502.45</ele>
        <time>2016-06-30T06:49:58Z</time>
      </trkpt>
      <trkpt lat="42.4316" lon="2.24429">
        <ele>2504.85</ele>
        <time>2016-06-30T06:50:11Z</time>
      </trkpt>
      <trkpt lat="42.43155" lon="2.24425">
        <ele>2506.29</ele>
        <time>2016-06-30T06:50:22Z</time>
      </trkpt>
      <trkpt lat="42.43155" lon="2.24424">
        <ele>2507.74</ele>
        <time>2016-06-30T06:50:40Z</time>
      </trkpt>
      <trkpt lat="42.43152" lon="2.2442">
        <ele>2508.22</ele>
        <time>2016-06-30T06:50:59Z</time>
      </trkpt>
      <trkpt lat="42.43146" lon="2.24415">
        <ele>2509.18</ele>
        <time>2016-06-30T06:51:07Z</time>
      </trkpt>
      <trkpt lat="42.43139" lon="2.2441">
        <ele>2510.62</ele>
        <time>2016-06-30T06:51:18Z</time>
      </trkpt>
      <trkpt lat="42.43136" lon="2.24406">
        <ele>2511.1</ele>
        <time>2016-06-30T06:51:23Z</time>
      </trkpt>
      <trkpt lat="42.43132" lon="2.244">
        <ele>2512.54</ele>
        <time>2016-06-30T06:51:34Z</time>
      </trkpt>
      <trkpt lat="42.43127" lon="2.24394">
        <ele>2514.47</ele>
        <time>2016-06-30T06:51:46Z</time>
      </trkpt>
      <trkpt lat="42.43124" lon="2.24386">
        <ele>2516.39</ele>
        <time>2016-06-30T06:51:57Z</time>
      </trkpt>
      <trkpt lat="42.43119" lon="2.2438">
        <ele>2520.23</ele>
        <time>2016-06-30T06:52:08Z</time>
      </trkpt>
      <trkpt lat="42.4312" lon="2.2437">
        <ele>2521.19</ele>
        <time>2016-06-30T06:52:19Z</time>
      </trkpt>
      <trkpt lat="42.4312" lon="2.24365">
        <ele>2521.68</ele>
        <time>2016-06-30T06:52:25Z</time>
      </trkpt>
      <trkpt lat="42.43118" lon="2.24361">
        <ele>2522.64</ele>
        <time>2016-06-30T06:52:38Z</time>
      </trkpt>
      <trkpt lat="42.43119" lon="2.2436">
        <ele>2524.08</ele>
        <time>2016-06-30T06:52:57Z</time>
      </trkpt>
      <trkpt lat="42.43118" lon="2.24351">
        <ele>2525.04</ele>
        <time>2016-06-30T06:53:09Z</time>
      </trkpt>
      <trkpt lat="42.43115" lon="2.24342">
        <ele>2526.96</ele>
        <time>2016-06-30T06:53:20Z</time>
      </trkpt>
      <trkpt lat="42.43115" lon="2.24337">
        <ele>2529.37</ele>
        <time>2016-06-30T06:53:33Z</time>
      </trkpt>
      <trkpt lat="42.43113" lon="2.24324">
        <ele>2531.29</ele>
        <time>2016-06-30T06:53:46Z</time>
      </trkpt>
      <trkpt lat="42.43114" lon="2.24321">
        <ele>2533.21</ele>
        <time>2016-06-30T06:54:01Z</time>
      </trkpt>
      <trkpt lat="42.43117" lon="2.24315">
        <ele>2536.58</ele>
        <time>2016-06-30T06:54:11Z</time>
      </trkpt>
      <trkpt lat="42.43121" lon="2.24313">
        <ele>2539.46</ele>
        <time>2016-06-30T06:54:22Z</time>
      </trkpt>
      <trkpt lat="42.43124" lon="2.24308">
        <ele>2540.42</ele>
        <time>2016-06-30T06:54:34Z</time>
      </trkpt>
      <trkpt lat="42.43125" lon="2.243">
        <ele>2542.34</ele>
        <time>2016-06-30T06:54:46Z</time>
      </trkpt>
      <trkpt lat="42.43128" lon="2.24295">
        <ele>2543.31</ele>
        <time>2016-06-30T06:54:57Z</time>
      </trkpt>
      <trkpt lat="42.43128" lon="2.24285">
        <ele>2545.71</ele>
        <time>2016-06-30T06:55:08Z</time>
      </trkpt>
      <trkpt lat="42.43127" lon="2.24272">
        <ele>2547.15</ele>
        <time>2016-06-30T06:55:20Z</time>
      </trkpt>
      <trkpt lat="42.43128" lon="2.24263">
        <ele>2549.07</ele>
        <time>2016-06-30T06:55:32Z</time>
      </trkpt>
      <trkpt lat="42.43127" lon="2.24254">
        <ele>2551</ele>
        <time>2016-06-30T06:55:45Z</time>
      </trkpt>
      <trkpt lat="42.43129" lon="2.24247">
        <ele>2552.44</ele>
        <time>2016-06-30T06:55:55Z</time>
      </trkpt>
      <trkpt lat="42.43128" lon="2.24243">
        <ele>2554.36</ele>
        <time>2016-06-30T06:56:03Z</time>
      </trkpt>
      <trkpt lat="42.43124" lon="2.24236">
        <ele>2555.8</ele>
        <time>2016-06-30T06:56:13Z</time>
      </trkpt>
      <trkpt lat="42.43122" lon="2.24228">
        <ele>2557.73</ele>
        <time>2016-06-30T06:56:24Z</time>
      </trkpt>
      <trkpt lat="42.43122" lon="2.24224">
        <ele>2558.69</ele>
        <time>2016-06-30T06:56:29Z</time>
      </trkpt>
      <trkpt lat="42.4312" lon="2.24214">
        <ele>2560.61</ele>
        <time>2016-06-30T06:56:41Z</time>
      </trkpt>
      <trkpt lat="42.4312" lon="2.24213">
        <ele>2560.61</ele>
        <time>2016-06-30T06:56:42Z</time>
      </trkpt>
      <trkpt lat="42.43119" lon="2.24206">
        <ele>2563.01</ele>
        <time>2016-06-30T06:56:55Z</time>
      </trkpt>
      <trkpt lat="42.43119" lon="2.24206">
        <ele>2563.49</ele>
        <time>2016-06-30T06:57:18Z</time>
      </trkpt>
      <trkpt lat="42.43112" lon="2.24208">
        <ele>2563.97</ele>
        <time>2016-06-30T06:57:31Z</time>
      </trkpt>
      <trkpt lat="42.43108" lon="2.2421">
        <ele>2564.45</ele>
        <time>2016-06-30T06:57:36Z</time>
      </trkpt>
      <trkpt lat="42.43103" lon="2.24209">
        <ele>2565.9</ele>
        <time>2016-06-30T06:57:42Z</time>
      </trkpt>
      <trkpt lat="42.43101" lon="2.24209">
        <ele>2565.9</ele>
        <time>2016-06-30T06:57:44Z</time>
      </trkpt>
      <trkpt lat="42.43092" lon="2.24208">
        <ele>2567.82</ele>
        <time>2016-06-30T06:57:54Z</time>
      </trkpt>
      <trkpt lat="42.43083" lon="2.24217">
        <ele>2568.78</ele>
        <time>2016-06-30T06:58:07Z</time>
      </trkpt>
      <trkpt lat="42.43074" lon="2.24222">
        <ele>2569.74</ele>
        <time>2016-06-30T06:58:18Z</time>
      </trkpt>
      <trkpt lat="42.4307" lon="2.24224">
        <ele>2570.7</ele>
        <time>2016-06-30T06:58:23Z</time>
      </trkpt>
      <trkpt lat="42.43065" lon="2.24232">
        <ele>2571.66</ele>
        <time>2016-06-30T06:58:33Z</time>
      </trkpt>
      <trkpt lat="42.43055" lon="2.2425">
        <ele>2572.14</ele>
        <time>2016-06-30T06:58:47Z</time>
      </trkpt>
      <trkpt lat="42.43053" lon="2.24256">
        <ele>2572.14</ele>
        <time>2016-06-30T06:58:52Z</time>
      </trkpt>
      <trkpt lat="42.43049" lon="2.24266">
        <ele>2573.11</ele>
        <time>2016-06-30T06:59:00Z</time>
      </trkpt>
      <trkpt lat="42.43046" lon="2.24275">
        <ele>2573.59</ele>
        <time>2016-06-30T06:59:06Z</time>
      </trkpt>
      <trkpt lat="42.43042" lon="2.24281">
        <ele>2574.07</ele>
        <time>2016-06-30T06:59:11Z</time>
      </trkpt>
      <trkpt lat="42.43035" lon="2.243">
        <ele>2575.03</ele>
        <time>2016-06-30T06:59:25Z</time>
      </trkpt>
      <trkpt lat="42.43033" lon="2.2432">
        <ele>2575.51</ele>
        <time>2016-06-30T06:59:38Z</time>
      </trkpt>
      <trkpt lat="42.43032" lon="2.24336">
        <ele>2575.51</ele>
        <time>2016-06-30T06:59:48Z</time>
      </trkpt>
      <trkpt lat="42.43029" lon="2.2435">
        <ele>2575.51</ele>
        <time>2016-06-30T06:59:58Z</time>
      </trkpt>
      <trkpt lat="42.43029" lon="2.24354">
        <ele>2575.51</ele>
        <time>2016-06-30T07:00:01Z</time>
      </trkpt>
      <trkpt lat="42.43028" lon="2.2437">
        <ele>2575.51</ele>
        <time>2016-06-30T07:00:13Z</time>
      </trkpt>
      <trkpt lat="42.43026" lon="2.24386">
        <ele>2575.51</ele>
        <time>2016-06-30T07:00:24Z</time>
      </trkpt>
      <trkpt lat="42.43026" lon="2.24392">
        <ele>2575.51</ele>
        <time>2016-06-30T07:00:28Z</time>
      </trkpt>
      <trkpt lat="42.43025" lon="2.24401">
        <ele>2576.95</ele>
        <time>2016-06-30T07:00:36Z</time>
      </trkpt>
      <trkpt lat="42.43026" lon="2.2441">
        <ele>2577.43</ele>
        <time>2016-06-30T07:00:42Z</time>
      </trkpt>
      <trkpt lat="42.43024" lon="2.24427">
        <ele>2578.39</ele>
        <time>2016-06-30T07:00:55Z</time>
      </trkpt>
      <trkpt lat="42.43024" lon="2.24438">
        <ele>2580.32</ele>
        <time>2016-06-30T07:01:03Z</time>
      </trkpt>
      <trkpt lat="42.43022" lon="2.2444">
        <ele>2580.32</ele>
        <time>2016-06-30T07:01:05Z</time>
      </trkpt>
      <trkpt lat="42.43025" lon="2.24456">
        <ele>2582.24</ele>
        <time>2016-06-30T07:01:17Z</time>
      </trkpt>
      <trkpt lat="42.43025" lon="2.24458">
        <ele>2582.72</ele>
        <time>2016-06-30T07:01:18Z</time>
      </trkpt>
      <trkpt lat="42.43025" lon="2.24464">
        <ele>2582.72</ele>
        <time>2016-06-30T07:01:22Z</time>
      </trkpt>
      <trkpt lat="42.43023" lon="2.24476">
        <ele>2583.2</ele>
        <time>2016-06-30T07:01:32Z</time>
      </trkpt>
      <trkpt lat="42.43024" lon="2.24479">
        <ele>2583.2</ele>
        <time>2016-06-30T07:01:34Z</time>
      </trkpt>
      <trkpt lat="42.43021" lon="2.24488">
        <ele>2584.16</ele>
        <time>2016-06-30T07:01:42Z</time>
      </trkpt>
      <trkpt lat="42.43022" lon="2.24489">
        <ele>2584.16</ele>
        <time>2016-06-30T07:01:44Z</time>
      </trkpt>
      <trkpt lat="42.43021" lon="2.24492">
        <ele>2585.12</ele>
        <time>2016-06-30T07:01:46Z</time>
      </trkpt>
      <trkpt lat="42.43021" lon="2.24495">
        <ele>2585.12</ele>
        <time>2016-06-30T07:01:49Z</time>
      </trkpt>
      <trkpt lat="42.43019" lon="2.24512">
        <ele>2586.56</ele>
        <time>2016-06-30T07:02:02Z</time>
      </trkpt>
      <trkpt lat="42.4302" lon="2.24526">
        <ele>2588.01</ele>
        <time>2016-06-30T07:02:14Z</time>
      </trkpt>
      <trkpt lat="42.43021" lon="2.2454">
        <ele>2588.97</ele>
        <time>2016-06-30T07:02:25Z</time>
      </trkpt>
      <trkpt lat="42.43021" lon="2.24543">
        <ele>2588.97</ele>
        <time>2016-06-30T07:02:27Z</time>
      </trkpt>
      <trkpt lat="42.4302" lon="2.24557">
        <ele>2589.93</ele>
        <time>2016-06-30T07:02:39Z</time>
      </trkpt>
      <trkpt lat="42.4302" lon="2.2456">
        <ele>2591.37</ele>
        <time>2016-06-30T07:02:54Z</time>
      </trkpt>
      <trkpt lat="42.4302" lon="2.24561">
        <ele>2591.85</ele>
        <time>2016-06-30T07:03:14Z</time>
      </trkpt>
      <trkpt lat="42.43021" lon="2.24562">
        <ele>2591.85</ele>
        <time>2016-06-30T07:03:36Z</time>
      </trkpt>
      <trkpt lat="42.4302" lon="2.24563">
        <ele>2592.33</ele>
        <time>2016-06-30T07:04:02Z</time>
      </trkpt>
      <trkpt lat="42.4302" lon="2.24563">
        <ele>2592.33</ele>
        <time>2016-06-30T07:04:06Z</time>
      </trkpt>
      <trkpt lat="42.43008" lon="2.24568">
        <ele>2593.29</ele>
        <time>2016-06-30T07:04:20Z</time>
      </trkpt>
      <trkpt lat="42.43002" lon="2.2457">
        <ele>2594.74</ele>
        <time>2016-06-30T07:04:27Z</time>
      </trkpt>
      <trkpt lat="42.43001" lon="2.24572">
        <ele>2595.22</ele>
        <time>2016-06-30T07:04:29Z</time>
      </trkpt>
      <trkpt lat="42.42999" lon="2.24572">
        <ele>2595.7</ele>
        <time>2016-06-30T07:04:31Z</time>
      </trkpt>
      <trkpt lat="42.42988" lon="2.24576">
        <ele>2598.1</ele>
        <time>2016-06-30T07:04:44Z</time>
      </trkpt>
      <trkpt lat="42.42982" lon="2.24579">
        <ele>2601.46</ele>
        <time>2016-06-30T07:04:53Z</time>
      </trkpt>
      <trkpt lat="42.42982" lon="2.2458">
        <ele>2601.95</ele>
        <time>2016-06-30T07:04:54Z</time>
      </trkpt>
      <trkpt lat="42.42979" lon="2.24581">
        <ele>2603.87</ele>
        <time>2016-06-30T07:04:58Z</time>
      </trkpt>
      <trkpt lat="42.42975" lon="2.24584">
        <ele>2603.87</ele>
        <time>2016-06-30T07:05:03Z</time>
      </trkpt>
      <trkpt lat="42.42964" lon="2.24588">
        <ele>2603.87</ele>
        <time>2016-06-30T07:05:15Z</time>
      </trkpt>
      <trkpt lat="42.42957" lon="2.2459">
        <ele>2604.35</ele>
        <time>2016-06-30T07:05:22Z</time>
      </trkpt>
      <trkpt lat="42.42947" lon="2.2459">
        <ele>2606.27</ele>
        <time>2016-06-30T07:05:34Z</time>
      </trkpt>
      <trkpt lat="42.42943" lon="2.24589">
        <ele>2607.23</ele>
        <time>2016-06-30T07:05:39Z</time>
      </trkpt>
      <trkpt lat="42.42938" lon="2.2459">
        <ele>2607.71</ele>
        <time>2016-06-30T07:05:45Z</time>
      </trkpt>
      <trkpt lat="42.42937" lon="2.24588">
        <ele>2607.71</ele>
        <time>2016-06-30T07:05:47Z</time>
      </trkpt>
      <trkpt lat="42.42932" lon="2.24586">
        <ele>2608.67</ele>
        <time>2016-06-30T07:05:53Z</time>
      </trkpt>
      <trkpt lat="42.4293" lon="2.24584">
        <ele>2608.67</ele>
        <time>2016-06-30T07:05:55Z</time>
      </trkpt>
      <trkpt lat="42.42929" lon="2.24584">
        <ele>2608.67</ele>
        <time>2016-06-30T07:05:57Z</time>
      </trkpt>
      <trkpt lat="42.42927" lon="2.24582">
        <ele>2609.64</ele>
        <time>2016-06-30T07:05:59Z</time>
      </trkpt>
      <trkpt lat="42.42925" lon="2.24581">
        <ele>2609.64</ele>
        <time>2016-06-30T07:06:01Z</time>
      </trkpt>
      <trkpt lat="42.42924" lon="2.2458">
        <ele>2610.12</ele>
        <time>2016-06-30T07:06:03Z</time>
      </trkpt>
      <trkpt lat="42.42918" lon="2.2458">
        <ele>2610.6</ele>
        <time>2016-06-30T07:06:09Z</time>
      </trkpt>
      <trkpt lat="42.42914" lon="2.24578">
        <ele>2611.08</ele>
        <time>2016-06-30T07:06:14Z</time>
      </trkpt>
      <trkpt lat="42.42913" lon="2.24576">
        <ele>2611.56</ele>
        <time>2016-06-30T07:06:16Z</time>
      </trkpt>
      <trkpt lat="42.42911" lon="2.24575">
        <ele>2611.56</ele>
        <time>2016-06-30T07:06:18Z</time>
      </trkpt>
      <trkpt lat="42.42909" lon="2.24573">
        <ele>2612.52</ele>
        <time>2016-06-30T07:06:21Z</time>
      </trkpt>
      <trkpt lat="42.42901" lon="2.24568">
        <ele>2613.48</ele>
        <time>2016-06-30T07:06:30Z</time>
      </trkpt>
      <trkpt lat="42.42898" lon="2.24567">
        <ele>2613.48</ele>
        <time>2016-06-30T07:06:33Z</time>
      </trkpt>
      <trkpt lat="42.42896" lon="2.24566">
        <ele>2613.96</ele>
        <time>2016-06-30T07:06:35Z</time>
      </trkpt>
      <trkpt lat="42.42885" lon="2.24559">
        <ele>2613.96</ele>
        <time>2016-06-30T07:06:50Z</time>
      </trkpt>
      <trkpt lat="42.42885" lon="2.24558">
        <ele>2614.44</ele>
        <time>2016-06-30T07:07:04Z</time>
      </trkpt>
      <trkpt lat="42.42886" lon="2.24555">
        <ele>2614.44</ele>
        <time>2016-06-30T07:07:09Z</time>
      </trkpt>
      <trkpt lat="42.42886" lon="2.24544">
        <ele>2614.92</ele>
        <time>2016-06-30T07:07:19Z</time>
      </trkpt>
      <trkpt lat="42.42887" lon="2.24536">
        <ele>2615.88</ele>
        <time>2016-06-30T07:07:25Z</time>
      </trkpt>
      <trkpt lat="42.42887" lon="2.24534">
        <ele>2615.88</ele>
        <time>2016-06-30T07:07:27Z</time>
      </trkpt>
      <trkpt lat="42.42887" lon="2.24516">
        <ele>2616.37</ele>
        <time>2016-06-30T07:07:40Z</time>
      </trkpt>
      <trkpt lat="42.42887" lon="2.24511">
        <ele>2616.85</ele>
        <time>2016-06-30T07:07:44Z</time>
      </trkpt>
      <trkpt lat="42.42886" lon="2.24509">
        <ele>2616.85</ele>
        <time>2016-06-30T07:07:46Z</time>
      </trkpt>
      <trkpt lat="42.42884" lon="2.24491">
        <ele>2617.81</ele>
        <time>2016-06-30T07:08:00Z</time>
      </trkpt>
      <trkpt lat="42.42884" lon="2.24477">
        <ele>2619.25</ele>
        <time>2016-06-30T07:08:12Z</time>
      </trkpt>
      <trkpt lat="42.42884" lon="2.24471">
        <ele>2620.21</ele>
        <time>2016-06-30T07:08:17Z</time>
      </trkpt>
      <trkpt lat="42.42885" lon="2.24459">
        <ele>2621.17</ele>
        <time>2016-06-30T07:08:29Z</time>
      </trkpt>
      <trkpt lat="42.42885" lon="2.24449">
        <ele>2622.61</ele>
        <time>2016-06-30T07:08:38Z</time>
      </trkpt>
      <trkpt lat="42.42883" lon="2.2444">
        <ele>2624.06</ele>
        <time>2016-06-30T07:08:47Z</time>
      </trkpt>
      <trkpt lat="42.42882" lon="2.24429">
        <ele>2625.98</ele>
        <time>2016-06-30T07:08:59Z</time>
      </trkpt>
      <trkpt lat="42.42882" lon="2.24428">
        <ele>2627.42</ele>
        <time>2016-06-30T07:09:18Z</time>
      </trkpt>
      <trkpt lat="42.42882" lon="2.24427">
        <ele>2627.42</ele>
        <time>2016-06-30T07:09:25Z</time>
      </trkpt>
      <trkpt lat="42.42888" lon="2.24416">
        <ele>2628.38</ele>
        <time>2016-06-30T07:09:36Z</time>
      </trkpt>
      <trkpt lat="42.4289" lon="2.24405">
        <ele>2628.86</ele>
        <time>2016-06-30T07:09:47Z</time>
      </trkpt>
      <trkpt lat="42.42891" lon="2.24401">
        <ele>2628.86</ele>
        <time>2016-06-30T07:09:50Z</time>
      </trkpt>
      <trkpt lat="42.42888" lon="2.24385">
        <ele>2629.82</ele>
        <time>2016-06-30T07:10:03Z</time>
      </trkpt>
      <trkpt lat="42.42885" lon="2.24376">
        <ele>2630.3</ele>
        <time>2016-06-30T07:10:11Z</time>
      </trkpt>
      <trkpt lat="42.42883" lon="2.24368">
        <ele>2631.27</ele>
        <time>2016-06-30T07:10:17Z</time>
      </trkpt>
      <trkpt lat="42.42882" lon="2.24358">
        <ele>2631.75</ele>
        <time>2016-06-30T07:10:25Z</time>
      </trkpt>
      <trkpt lat="42.42883" lon="2.2435">
        <ele>2632.23</ele>
        <time>2016-06-30T07:10:31Z</time>
      </trkpt>
      <trkpt lat="42.4288" lon="2.24337">
        <ele>2633.67</ele>
        <time>2016-06-30T07:10:42Z</time>
      </trkpt>
      <trkpt lat="42.4288" lon="2.24334">
        <ele>2634.15</ele>
        <time>2016-06-30T07:10:44Z</time>
      </trkpt>
      <trkpt lat="42.42877" lon="2.24323">
        <ele>2634.63</ele>
        <time>2016-06-30T07:10:54Z</time>
      </trkpt>
      <trkpt lat="42.42877" lon="2.24319">
        <ele>2635.11</ele>
        <time>2016-06-30T07:11:01Z</time>
      </trkpt>
      <trkpt lat="42.42878" lon="2.24317">
        <ele>2635.59</ele>
        <time>2016-06-30T07:11:18Z</time>
      </trkpt>
      <trkpt lat="42.42877" lon="2.24315">
        <ele>2636.55</ele>
        <time>2016-06-30T07:11:48Z</time>
      </trkpt>
      <trkpt lat="42.42877" lon="2.24314">
        <ele>2636.55</ele>
        <time>2016-06-30T07:11:49Z</time>
      </trkpt>
      <trkpt lat="42.42875" lon="2.24301">
        <ele>2637.99</ele>
        <time>2016-06-30T07:12:02Z</time>
      </trkpt>
      <trkpt lat="42.42876" lon="2.24288">
        <ele>2639.92</ele>
        <time>2016-06-30T07:12:15Z</time>
      </trkpt>
      <trkpt lat="42.42876" lon="2.24286">
        <ele>2640.4</ele>
        <time>2016-06-30T07:12:17Z</time>
      </trkpt>
      <trkpt lat="42.42875" lon="2.24277">
        <ele>2640.88</ele>
        <time>2016-06-30T07:12:26Z</time>
      </trkpt>
      <trkpt lat="42.42877" lon="2.24265">
        <ele>2644.24</ele>
        <time>2016-06-30T07:12:39Z</time>
      </trkpt>
      <trkpt lat="42.42878" lon="2.24257">
        <ele>2646.17</ele>
        <time>2016-06-30T07:12:54Z</time>
      </trkpt>
      <trkpt lat="42.42878" lon="2.24255">
        <ele>2647.13</ele>
        <time>2016-06-30T07:13:13Z</time>
      </trkpt>
      <trkpt lat="42.42876" lon="2.24244">
        <ele>2648.57</ele>
        <time>2016-06-30T07:13:25Z</time>
      </trkpt>
      <trkpt lat="42.42875" lon="2.24235">
        <ele>2650.49</ele>
        <time>2016-06-30T07:13:37Z</time>
      </trkpt>
      <trkpt lat="42.42875" lon="2.24233">
        <ele>2650.97</ele>
        <time>2016-06-30T07:13:39Z</time>
      </trkpt>
      <trkpt lat="42.42876" lon="2.24231">
        <ele>2650.97</ele>
        <time>2016-06-30T07:13:41Z</time>
      </trkpt>
      <trkpt lat="42.42879" lon="2.2422">
        <ele>2653.38</ele>
        <time>2016-06-30T07:13:54Z</time>
      </trkpt>
      <trkpt lat="42.42882" lon="2.24213">
        <ele>2655.3</ele>
        <time>2016-06-30T07:14:08Z</time>
      </trkpt>
      <trkpt lat="42.42881" lon="2.24203">
        <ele>2656.26</ele>
        <time>2016-06-30T07:14:18Z</time>
      </trkpt>
      <trkpt lat="42.4288" lon="2.24192">
        <ele>2657.7</ele>
        <time>2016-06-30T07:14:27Z</time>
      </trkpt>
      <trkpt lat="42.4288" lon="2.24178">
        <ele>2659.14</ele>
        <time>2016-06-30T07:14:40Z</time>
      </trkpt>
      <trkpt lat="42.42878" lon="2.24169">
        <ele>2660.59</ele>
        <time>2016-06-30T07:14:50Z</time>
      </trkpt>
      <trkpt lat="42.4288" lon="2.24155">
        <ele>2662.03</ele>
        <time>2016-06-30T07:15:03Z</time>
      </trkpt>
      <trkpt lat="42.42883" lon="2.24144">
        <ele>2663.95</ele>
        <time>2016-06-30T07:15:14Z</time>
      </trkpt>
      <trkpt lat="42.42884" lon="2.24136">
        <ele>2664.91</ele>
        <time>2016-06-30T07:15:24Z</time>
      </trkpt>
      <trkpt lat="42.42885" lon="2.24127">
        <ele>2665.39</ele>
        <time>2016-06-30T07:15:34Z</time>
      </trkpt>
      <trkpt lat="42.42885" lon="2.24126">
        <ele>2665.39</ele>
        <time>2016-06-30T07:15:35Z</time>
      </trkpt>
      <trkpt lat="42.42886" lon="2.24122">
        <ele>2665.39</ele>
        <time>2016-06-30T07:15:38Z</time>
      </trkpt>
      <trkpt lat="42.42887" lon="2.24111">
        <ele>2665.87</ele>
        <time>2016-06-30T07:15:50Z</time>
      </trkpt>
      <trkpt lat="42.42886" lon="2.24105">
        <ele>2665.87</ele>
        <time>2016-06-30T07:15:55Z</time>
      </trkpt>
      <trkpt lat="42.4288" lon="2.24096">
        <ele>2665.87</ele>
        <time>2016-06-30T07:16:07Z</time>
      </trkpt>
      <trkpt lat="42.42873" lon="2.2409">
        <ele>2667.31</ele>
        <time>2016-06-30T07:16:18Z</time>
      </trkpt>
      <trkpt lat="42.42871" lon="2.24089">
        <ele>2667.8</ele>
        <time>2016-06-30T07:16:20Z</time>
      </trkpt>
      <trkpt lat="42.42868" lon="2.24082">
        <ele>2667.8</ele>
        <time>2016-06-30T07:16:26Z</time>
      </trkpt>
      <trkpt lat="42.42863" lon="2.24066">
        <ele>2669.24</ele>
        <time>2016-06-30T07:16:41Z</time>
      </trkpt>
      <trkpt lat="42.42862" lon="2.24066">
        <ele>2669.24</ele>
        <time>2016-06-30T07:16:42Z</time>
      </trkpt>
      <trkpt lat="42.42859" lon="2.24059">
        <ele>2671.16</ele>
        <time>2016-06-30T07:16:51Z</time>
      </trkpt>
      <trkpt lat="42.42855" lon="2.24048">
        <ele>2671.64</ele>
        <time>2016-06-30T07:17:02Z</time>
      </trkpt>
      <trkpt lat="42.42855" lon="2.24047">
        <ele>2671.64</ele>
        <time>2016-06-30T07:17:03Z</time>
      </trkpt>
      <trkpt lat="42.42855" lon="2.24041">
        <ele>2671.64</ele>
        <time>2016-06-30T07:17:08Z</time>
      </trkpt>
      <trkpt lat="42.42854" lon="2.24034">
        <ele>2672.12</ele>
        <time>2016-06-30T07:17:12Z</time>
      </trkpt>
      <trkpt lat="42.42854" lon="2.24025">
        <ele>2672.12</ele>
        <time>2016-06-30T07:17:19Z</time>
      </trkpt>
      <trkpt lat="42.42851" lon="2.24017">
        <ele>2672.6</ele>
        <time>2016-06-30T07:17:31Z</time>
      </trkpt>
      <trkpt lat="42.4285" lon="2.24017">
        <ele>2673.56</ele>
        <time>2016-06-30T07:18:00Z</time>
      </trkpt>
      <trkpt lat="42.42849" lon="2.24009">
        <ele>2674.04</ele>
        <time>2016-06-30T07:18:13Z</time>
      </trkpt>
      <trkpt lat="42.42849" lon="2.24001">
        <ele>2676.45</ele>
        <time>2016-06-30T07:18:26Z</time>
      </trkpt>
      <trkpt lat="42.42846" lon="2.23991">
        <ele>2677.89</ele>
        <time>2016-06-30T07:18:37Z</time>
      </trkpt>
      <trkpt lat="42.42844" lon="2.23982">
        <ele>2678.85</ele>
        <time>2016-06-30T07:18:49Z</time>
      </trkpt>
      <trkpt lat="42.42844" lon="2.2398">
        <ele>2679.81</ele>
        <time>2016-06-30T07:19:05Z</time>
      </trkpt>
      <trkpt lat="42.42843" lon="2.23979">
        <ele>2679.81</ele>
        <time>2016-06-30T07:19:27Z</time>
      </trkpt>
      <trkpt lat="42.42844" lon="2.23981">
        <ele>2679.81</ele>
        <time>2016-06-30T07:20:00Z</time>
      </trkpt>
      <trkpt lat="42.42841" lon="2.23974">
        <ele>2679.81</ele>
        <time>2016-06-30T07:20:23Z</time>
      </trkpt>
      <trkpt lat="42.42837" lon="2.23964">
        <ele>2681.25</ele>
        <time>2016-06-30T07:20:34Z</time>
      </trkpt>
      <trkpt lat="42.42837" lon="2.23963">
        <ele>2681.25</ele>
        <time>2016-06-30T07:20:35Z</time>
      </trkpt>
      <trkpt lat="42.42838" lon="2.23958">
        <ele>2682.22</ele>
        <time>2016-06-30T07:20:47Z</time>
      </trkpt>
      <trkpt lat="42.42839" lon="2.23958">
        <ele>2683.18</ele>
        <time>2016-06-30T07:21:18Z</time>
      </trkpt>
      <trkpt lat="42.42839" lon="2.2396">
        <ele>2683.66</ele>
        <time>2016-06-30T07:21:46Z</time>
      </trkpt>
      <trkpt lat="42.42837" lon="2.23957">
        <ele>2683.66</ele>
        <time>2016-06-30T07:22:08Z</time>
      </trkpt>
      <trkpt lat="42.42834" lon="2.23943">
        <ele>2683.66</ele>
        <time>2016-06-30T07:22:20Z</time>
      </trkpt>
      <trkpt lat="42.42831" lon="2.23936">
        <ele>2685.1</ele>
        <time>2016-06-30T07:22:28Z</time>
      </trkpt>
      <trkpt lat="42.42825" lon="2.23925">
        <ele>2686.54</ele>
        <time>2016-06-30T07:22:42Z</time>
      </trkpt>
      <trkpt lat="42.42821" lon="2.23914">
        <ele>2688.46</ele>
        <time>2016-06-30T07:22:54Z</time>
      </trkpt>
      <trkpt lat="42.42816" lon="2.23908">
        <ele>2689.43</ele>
        <time>2016-06-30T07:23:05Z</time>
      </trkpt>
      <trkpt lat="42.42815" lon="2.23901">
        <ele>2691.83</ele>
        <time>2016-06-30T07:23:16Z</time>
      </trkpt>
      <trkpt lat="42.42812" lon="2.23894">
        <ele>2693.27</ele>
        <time>2016-06-30T07:23:28Z</time>
      </trkpt>
      <trkpt lat="42.42811" lon="2.23891">
        <ele>2696.64</ele>
        <time>2016-06-30T07:23:38Z</time>
      </trkpt>
      <trkpt lat="42.42811" lon="2.23892">
        <ele>2696.15</ele>
        <time>2016-06-30T07:24:15Z</time>
      </trkpt>
      <trkpt lat="42.42808" lon="2.23886">
        <ele>2695.67</ele>
        <time>2016-06-30T07:24:26Z</time>
      </trkpt>
      <trkpt lat="42.42806" lon="2.23878">
        <ele>2697.12</ele>
        <time>2016-06-30T07:24:38Z</time>
      </trkpt>
      <trkpt lat="42.42803" lon="2.2387">
        <ele>2699.04</ele>
        <time>2016-06-30T07:24:50Z</time>
      </trkpt>
      <trkpt lat="42.42803" lon="2.23866">
        <ele>2702.4</ele>
        <time>2016-06-30T07:24:57Z</time>
      </trkpt>
      <trkpt lat="42.42803" lon="2.23864">
        <ele>2705.29</ele>
        <time>2016-06-30T07:25:01Z</time>
      </trkpt>
      <trkpt lat="42.42799" lon="2.23859">
        <ele>2706.25</ele>
        <time>2016-06-30T07:25:11Z</time>
      </trkpt>
      <trkpt lat="42.42796" lon="2.23855">
        <ele>2706.25</ele>
        <time>2016-06-30T07:25:22Z</time>
      </trkpt>
      <trkpt lat="42.42795" lon="2.2385">
        <ele>2707.69</ele>
        <time>2016-06-30T07:25:34Z</time>
      </trkpt>
      <trkpt lat="42.42794" lon="2.23845">
        <ele>2710.09</ele>
        <time>2016-06-30T07:25:46Z</time>
      </trkpt>
      <trkpt lat="42.42794" lon="2.23844">
        <ele>2711.06</ele>
        <time>2016-06-30T07:26:08Z</time>
      </trkpt>
      <trkpt lat="42.42793" lon="2.23839">
        <ele>2712.02</ele>
        <time>2016-06-30T07:26:19Z</time>
      </trkpt>
      <trkpt lat="42.42788" lon="2.23834">
        <ele>2713.46</ele>
        <time>2016-06-30T07:26:30Z</time>
      </trkpt>
      <trkpt lat="42.42787" lon="2.23828">
        <ele>2714.9</ele>
        <time>2016-06-30T07:26:41Z</time>
      </trkpt>
      <trkpt lat="42.42786" lon="2.23827">
        <ele>2714.9</ele>
        <time>2016-06-30T07:26:43Z</time>
      </trkpt>
      <trkpt lat="42.42782" lon="2.23824">
        <ele>2716.82</ele>
        <time>2016-06-30T07:26:53Z</time>
      </trkpt>
      <trkpt lat="42.42781" lon="2.23818">
        <ele>2718.75</ele>
        <time>2016-06-30T07:27:07Z</time>
      </trkpt>
      <trkpt lat="42.4278" lon="2.23813">
        <ele>2721.15</ele>
        <time>2016-06-30T07:27:23Z</time>
      </trkpt>
      <trkpt lat="42.42777" lon="2.23809">
        <ele>2722.59</ele>
        <time>2016-06-30T07:27:35Z</time>
      </trkpt>
      <trkpt lat="42.42778" lon="2.23805">
        <ele>2724.51</ele>
        <time>2016-06-30T07:27:46Z</time>
      </trkpt>
      <trkpt lat="42.42778" lon="2.23801">
        <ele>2725.48</ele>
        <time>2016-06-30T07:27:57Z</time>
      </trkpt>
      <trkpt lat="42.42774" lon="2.23798">
        <ele>2727.4</ele>
        <time>2016-06-30T07:28:07Z</time>
      </trkpt>
      <trkpt lat="42.42771" lon="2.23797">
        <ele>2728.84</ele>
        <time>2016-06-30T07:28:21Z</time>
      </trkpt>
      <trkpt lat="42.42772" lon="2.23792">
        <ele>2730.28</ele>
        <time>2016-06-30T07:28:33Z</time>
      </trkpt>
      <trkpt lat="42.42767" lon="2.23788">
        <ele>2731.72</ele>
        <time>2016-06-30T07:28:45Z</time>
      </trkpt>
      <trkpt lat="42.42769" lon="2.23784">
        <ele>2735.09</ele>
        <time>2016-06-30T07:28:56Z</time>
      </trkpt>
      <trkpt lat="42.42765" lon="2.23781">
        <ele>2737.97</ele>
        <time>2016-06-30T07:29:07Z</time>
      </trkpt>
      <trkpt lat="42.42761" lon="2.23779">
        <ele>2738.45</ele>
        <time>2016-06-30T07:29:18Z</time>
      </trkpt>
      <trkpt lat="42.42757" lon="2.23777">
        <ele>2740.38</ele>
        <time>2016-06-30T07:29:30Z</time>
      </trkpt>
      <trkpt lat="42.42755" lon="2.23776">
        <ele>2741.82</ele>
        <time>2016-06-30T07:29:41Z</time>
      </trkpt>
      <trkpt lat="42.42755" lon="2.23775">
        <ele>2742.78</ele>
        <time>2016-06-30T07:30:08Z</time>
      </trkpt>
      <trkpt lat="42.42755" lon="2.23774">
        <ele>2742.78</ele>
        <time>2016-06-30T07:30:23Z</time>
      </trkpt>
      <trkpt lat="42.42758" lon="2.23771">
        <ele>2743.74</ele>
        <time>2016-06-30T07:30:35Z</time>
      </trkpt>
      <trkpt lat="42.42757" lon="2.23765">
        <ele>2745.66</ele>
        <time>2016-06-30T07:30:46Z</time>
      </trkpt>
      <trkpt lat="42.42757" lon="2.23761">
        <ele>2748.07</ele>
        <time>2016-06-30T07:30:56Z</time>
      </trkpt>
      <trkpt lat="42.42759" lon="2.23757">
        <ele>2749.03</ele>
        <time>2016-06-30T07:31:06Z</time>
      </trkpt>
      <trkpt lat="42.42757" lon="2.23754">
        <ele>2749.99</ele>
        <time>2016-06-30T07:31:17Z</time>
      </trkpt>
      <trkpt lat="42.42759" lon="2.23748">
        <ele>2751.91</ele>
        <time>2016-06-30T07:31:30Z</time>
      </trkpt>
      <trkpt lat="42.42758" lon="2.23742">
        <ele>2753.35</ele>
        <time>2016-06-30T07:31:40Z</time>
      </trkpt>
      <trkpt lat="42.42757" lon="2.2374">
        <ele>2754.31</ele>
        <time>2016-06-30T07:31:54Z</time>
      </trkpt>
      <trkpt lat="42.42757" lon="2.23737">
        <ele>2755.28</ele>
        <time>2016-06-30T07:32:15Z</time>
      </trkpt>
      <trkpt lat="42.42754" lon="2.23735">
        <ele>2756.72</ele>
        <time>2016-06-30T07:32:28Z</time>
      </trkpt>
      <trkpt lat="42.4275" lon="2.23733">
        <ele>2758.64</ele>
        <time>2016-06-30T07:32:38Z</time>
      </trkpt>
      <trkpt lat="42.42751" lon="2.2373">
        <ele>2762</ele>
        <time>2016-06-30T07:32:46Z</time>
      </trkpt>
      <trkpt lat="42.4275" lon="2.23726">
        <ele>2764.41</ele>
        <time>2016-06-30T07:32:58Z</time>
      </trkpt>
      <trkpt lat="42.42749" lon="2.23722">
        <ele>2764.89</ele>
        <time>2016-06-30T07:33:10Z</time>
      </trkpt>
      <trkpt lat="42.42747" lon="2.23719">
        <ele>2765.85</ele>
        <time>2016-06-30T07:33:29Z</time>
      </trkpt>
      <trkpt lat="42.42744" lon="2.23717">
        <ele>2767.77</ele>
        <time>2016-06-30T07:33:41Z</time>
      </trkpt>
      <trkpt lat="42.42742" lon="2.23717">
        <ele>2768.73</ele>
        <time>2016-06-30T07:33:52Z</time>
      </trkpt>
      <trkpt lat="42.4274" lon="2.23716">
        <ele>2770.66</ele>
        <time>2016-06-30T07:34:03Z</time>
      </trkpt>
      <trkpt lat="42.42735" lon="2.23719">
        <ele>2772.1</ele>
        <time>2016-06-30T07:34:13Z</time>
      </trkpt>
      <trkpt lat="42.42734" lon="2.23721">
        <ele>2773.54</ele>
        <time>2016-06-30T07:34:29Z</time>
      </trkpt>
      <trkpt lat="42.42734" lon="2.23716">
        <ele>2775.46</ele>
        <time>2016-06-30T07:34:39Z</time>
      </trkpt>
      <trkpt lat="42.42733" lon="2.23712">
        <ele>2776.42</ele>
        <time>2016-06-30T07:34:48Z</time>
      </trkpt>
      <trkpt lat="42.42728" lon="2.23708">
        <ele>2778.35</ele>
        <time>2016-06-30T07:35:00Z</time>
      </trkpt>
      <trkpt lat="42.42727" lon="2.23705">
        <ele>2781.71</ele>
        <time>2016-06-30T07:35:08Z</time>
      </trkpt>
      <trkpt lat="42.42726" lon="2.23701">
        <ele>2783.15</ele>
        <time>2016-06-30T07:35:18Z</time>
      </trkpt>
      <trkpt lat="42.42729" lon="2.23697">
        <ele>2783.15</ele>
        <time>2016-06-30T07:35:30Z</time>
      </trkpt>
      <trkpt lat="42.42729" lon="2.23693">
        <ele>2786.52</ele>
        <time>2016-06-30T07:35:40Z</time>
      </trkpt>
      <trkpt lat="42.42729" lon="2.23693">
        <ele>2789.88</ele>
        <time>2016-06-30T07:35:47Z</time>
      </trkpt>
      <trkpt lat="42.42728" lon="2.23691">
        <ele>2789.88</ele>
        <time>2016-06-30T07:36:00Z</time>
      </trkpt>
      <trkpt lat="42.42723" lon="2.23687">
        <ele>2789.88</ele>
        <time>2016-06-30T07:36:11Z</time>
      </trkpt>
      <trkpt lat="42.4272" lon="2.23681">
        <ele>2793.25</ele>
        <time>2016-06-30T07:36:17Z</time>
      </trkpt>
      <trkpt lat="42.42719" lon="2.23674">
        <ele>2794.69</ele>
        <time>2016-06-30T07:36:29Z</time>
      </trkpt>
      <trkpt lat="42.42715" lon="2.23669">
        <ele>2795.17</ele>
        <time>2016-06-30T07:36:40Z</time>
      </trkpt>
      <trkpt lat="42.42709" lon="2.23658">
        <ele>2797.09</ele>
        <time>2016-06-30T07:36:54Z</time>
      </trkpt>
      <trkpt lat="42.42703" lon="2.23653">
        <ele>2798.05</ele>
        <time>2016-06-30T07:37:06Z</time>
      </trkpt>
      <trkpt lat="42.42701" lon="2.23651">
        <ele>2798.54</ele>
        <time>2016-06-30T07:37:09Z</time>
      </trkpt>
      <trkpt lat="42.42695" lon="2.23649">
        <ele>2799.98</ele>
        <time>2016-06-30T07:37:20Z</time>
      </trkpt>
      <trkpt lat="42.42691" lon="2.23643">
        <ele>2801.9</ele>
        <time>2016-06-30T07:37:31Z</time>
      </trkpt>
      <trkpt lat="42.42686" lon="2.2364">
        <ele>2803.34</ele>
        <time>2016-06-30T07:37:43Z</time>
      </trkpt>
      <trkpt lat="42.42685" lon="2.23635">
        <ele>2804.78</ele>
        <time>2016-06-30T07:37:54Z</time>
      </trkpt>
      <trkpt lat="42.42683" lon="2.2363">
        <ele>2806.23</ele>
        <time>2016-06-30T07:38:12Z</time>
      </trkpt>
      <trkpt lat="42.42678" lon="2.23628">
        <ele>2808.15</ele>
        <time>2016-06-30T07:38:23Z</time>
      </trkpt>
      <trkpt lat="42.42674" lon="2.23624">
        <ele>2810.55</ele>
        <time>2016-06-30T07:38:35Z</time>
      </trkpt>
      <trkpt lat="42.42671" lon="2.23623">
        <ele>2813.92</ele>
        <time>2016-06-30T07:38:40Z</time>
      </trkpt>
      <trkpt lat="42.42669" lon="2.23615">
        <ele>2814.88</ele>
        <time>2016-06-30T07:38:52Z</time>
      </trkpt>
      <trkpt lat="42.42664" lon="2.2361">
        <ele>2815.36</ele>
        <time>2016-06-30T07:39:05Z</time>
      </trkpt>
      <trkpt lat="42.42658" lon="2.23606">
        <ele>2816.8</ele>
        <time>2016-06-30T07:39:18Z</time>
      </trkpt>
      <trkpt lat="42.42659" lon="2.23598">
        <ele>2819.2</ele>
        <time>2016-06-30T07:39:31Z</time>
      </trkpt>
      <trkpt lat="42.42659" lon="2.23598">
        <ele>2820.65</ele>
        <time>2016-06-30T07:39:55Z</time>
      </trkpt>
      <trkpt lat="42.42657" lon="2.23591">
        <ele>2822.09</ele>
        <time>2016-06-30T07:40:05Z</time>
      </trkpt>
      <trkpt lat="42.42654" lon="2.23581">
        <ele>2823.05</ele>
        <time>2016-06-30T07:40:16Z</time>
      </trkpt>
      <trkpt lat="42.42653" lon="2.2358">
        <ele>2823.05</ele>
        <time>2016-06-30T07:40:17Z</time>
      </trkpt>
      <trkpt lat="42.42652" lon="2.23578">
        <ele>2823.53</ele>
        <time>2016-06-30T07:40:19Z</time>
      </trkpt>
      <trkpt lat="42.42648" lon="2.23572">
        <ele>2823.53</ele>
        <time>2016-06-30T07:40:24Z</time>
      </trkpt>
      <trkpt lat="42.42646" lon="2.2357">
        <ele>2823.53</ele>
        <time>2016-06-30T07:40:26Z</time>
      </trkpt>
      <trkpt lat="42.42643" lon="2.23563">
        <ele>2824.01</ele>
        <time>2016-06-30T07:40:32Z</time>
      </trkpt>
      <trkpt lat="42.42642" lon="2.23562">
        <ele>2824.01</ele>
        <time>2016-06-30T07:40:34Z</time>
      </trkpt>
      <trkpt lat="42.42635" lon="2.2355">
        <ele>2824.49</ele>
        <time>2016-06-30T07:40:46Z</time>
      </trkpt>
      <trkpt lat="42.4263" lon="2.23539">
        <ele>2826.41</ele>
        <time>2016-06-30T07:40:59Z</time>
      </trkpt>
      <trkpt lat="42.42631" lon="2.2353">
        <ele>2827.85</ele>
        <time>2016-06-30T07:41:12Z</time>
      </trkpt>
      <trkpt lat="42.42628" lon="2.23525">
        <ele>2829.78</ele>
        <time>2016-06-30T07:41:23Z</time>
      </trkpt>
      <trkpt lat="42.42627" lon="2.23518">
        <ele>2832.18</ele>
        <time>2016-06-30T07:41:34Z</time>
      </trkpt>
      <trkpt lat="42.42625" lon="2.23507">
        <ele>2834.1</ele>
        <time>2016-06-30T07:41:48Z</time>
      </trkpt>
      <trkpt lat="42.42624" lon="2.23498">
        <ele>2835.55</ele>
        <time>2016-06-30T07:41:59Z</time>
      </trkpt>
      <trkpt lat="42.42621" lon="2.23491">
        <ele>2838.91</ele>
        <time>2016-06-30T07:42:08Z</time>
      </trkpt>
      <trkpt lat="42.4262" lon="2.23489">
        <ele>2841.79</ele>
        <time>2016-06-30T07:42:11Z</time>
      </trkpt>
      <trkpt lat="42.42614" lon="2.23484">
        <ele>2842.76</ele>
        <time>2016-06-30T07:42:24Z</time>
      </trkpt>
      <trkpt lat="42.4261" lon="2.23479">
        <ele>2842.76</ele>
        <time>2016-06-30T07:42:34Z</time>
      </trkpt>
      <trkpt lat="42.4261" lon="2.23473">
        <ele>2842.76</ele>
        <time>2016-06-30T07:42:46Z</time>
      </trkpt>
      <trkpt lat="42.42611" lon="2.23466">
        <ele>2845.64</ele>
        <time>2016-06-30T07:42:59Z</time>
      </trkpt>
      <trkpt lat="42.42613" lon="2.2346">
        <ele>2846.12</ele>
        <time>2016-06-30T07:43:10Z</time>
      </trkpt>
      <trkpt lat="42.42615" lon="2.23454">
        <ele>2847.08</ele>
        <time>2016-06-30T07:43:21Z</time>
      </trkpt>
      <trkpt lat="42.42615" lon="2.23454">
        <ele>2848.52</ele>
        <time>2016-06-30T07:43:41Z</time>
      </trkpt>
      <trkpt lat="42.42613" lon="2.2345">
        <ele>2849</ele>
        <time>2016-06-30T07:43:59Z</time>
      </trkpt>
      <trkpt lat="42.42608" lon="2.23442">
        <ele>2849.97</ele>
        <time>2016-06-30T07:44:10Z</time>
      </trkpt>
      <trkpt lat="42.42605" lon="2.23433">
        <ele>2852.37</ele>
        <time>2016-06-30T07:44:22Z</time>
      </trkpt>
      <trkpt lat="42.42604" lon="2.23432">
        <ele>2852.37</ele>
        <time>2016-06-30T07:44:24Z</time>
      </trkpt>
      <trkpt lat="42.42602" lon="2.23424">
        <ele>2853.33</ele>
        <time>2016-06-30T07:44:35Z</time>
      </trkpt>
      <trkpt lat="42.42602" lon="2.23422">
        <ele>2855.25</ele>
        <time>2016-06-30T07:44:49Z</time>
      </trkpt>
      <trkpt lat="42.42603" lon="2.23416">
        <ele>2856.21</ele>
        <time>2016-06-30T07:45:00Z</time>
      </trkpt>
      <trkpt lat="42.42607" lon="2.23415">
        <ele>2857.18</ele>
        <time>2016-06-30T07:45:08Z</time>
      </trkpt>
      <trkpt lat="42.42609" lon="2.23414">
        <ele>2858.62</ele>
        <time>2016-06-30T07:45:22Z</time>
      </trkpt>
      <trkpt lat="42.4261" lon="2.23411">
        <ele>2860.54</ele>
        <time>2016-06-30T07:45:35Z</time>
      </trkpt>
      <trkpt lat="42.42609" lon="2.23408">
        <ele>2861.02</ele>
        <time>2016-06-30T07:45:50Z</time>
      </trkpt>
      <trkpt lat="42.42609" lon="2.23407">
        <ele>2861.98</ele>
        <time>2016-06-30T07:46:05Z</time>
      </trkpt>
      <trkpt lat="42.4261" lon="2.23407">
        <ele>2861.98</ele>
        <time>2016-06-30T07:46:18Z</time>
      </trkpt>
      <trkpt lat="42.42609" lon="2.23406">
        <ele>2862.94</ele>
        <time>2016-06-30T07:46:34Z</time>
      </trkpt>
      <trkpt lat="42.42609" lon="2.23402">
        <ele>2863.42</ele>
        <time>2016-06-30T07:46:46Z</time>
      </trkpt>
      <trkpt lat="42.42609" lon="2.23401">
        <ele>2863.42</ele>
        <time>2016-06-30T07:47:05Z</time>
      </trkpt>
      <trkpt lat="42.42611" lon="2.23399">
        <ele>2863.9</ele>
        <time>2016-06-30T07:47:22Z</time>
      </trkpt>
      <trkpt lat="42.42612" lon="2.23396">
        <ele>2863.9</ele>
        <time>2016-06-30T07:47:45Z</time>
      </trkpt>
      <trkpt lat="42.42611" lon="2.23395">
        <ele>2863.9</ele>
        <time>2016-06-30T07:47:49Z</time>
      </trkpt>
      <trkpt lat="42.42608" lon="2.23383">
        <ele>2864.39</ele>
        <time>2016-06-30T07:48:02Z</time>
      </trkpt>
      <trkpt lat="42.42608" lon="2.23381">
        <ele>2864.87</ele>
        <time>2016-06-30T07:48:04Z</time>
      </trkpt>
      <trkpt lat="42.42611" lon="2.23373">
        <ele>2865.83</ele>
        <time>2016-06-30T07:48:14Z</time>
      </trkpt>
      <trkpt lat="42.42612" lon="2.23365">
        <ele>2867.75</ele>
        <time>2016-06-30T07:48:25Z</time>
      </trkpt>
      <trkpt lat="42.42614" lon="2.23352">
        <ele>2869.19</ele>
        <time>2016-06-30T07:48:38Z</time>
      </trkpt>
      <trkpt lat="42.42613" lon="2.23336">
        <ele>2870.63</ele>
        <time>2016-06-30T07:48:50Z</time>
      </trkpt>
      <trkpt lat="42.42614" lon="2.23323">
        <ele>2870.63</ele>
        <time>2016-06-30T07:49:02Z</time>
      </trkpt>
      <trkpt lat="42.42615" lon="2.2331">
        <ele>2871.6</ele>
        <time>2016-06-30T07:49:14Z</time>
      </trkpt>
      <trkpt lat="42.42619" lon="2.23299">
        <ele>2872.56</ele>
        <time>2016-06-30T07:49:26Z</time>
      </trkpt>
      <trkpt lat="42.42623" lon="2.23292">
        <ele>2873.04</ele>
        <time>2016-06-30T07:49:37Z</time>
      </trkpt>
      <trkpt lat="42.42623" lon="2.23288">
        <ele>2874</ele>
        <time>2016-06-30T07:49:48Z</time>
      </trkpt>
      <trkpt lat="42.42624" lon="2.23288">
        <ele>2874</ele>
        <time>2016-06-30T07:50:04Z</time>
      </trkpt>
      <trkpt lat="42.42623" lon="2.23288">
        <ele>2874</ele>
        <time>2016-06-30T07:50:16Z</time>
      </trkpt>
      <trkpt lat="42.42623" lon="2.23289">
        <ele>2874</ele>
        <time>2016-06-30T07:50:52Z</time>
      </trkpt>
      <trkpt lat="42.42624" lon="2.23289">
        <ele>2874.48</ele>
        <time>2016-06-30T07:51:06Z</time>
      </trkpt>
      <trkpt lat="42.42624" lon="2.23288">
        <ele>2873.52</ele>
        <time>2016-06-30T07:51:46Z</time>
      </trkpt>
      <trkpt lat="42.42624" lon="2.23287">
        <ele>2873.04</ele>
        <time>2016-06-30T07:52:25Z</time>
      </trkpt>
      <trkpt lat="42.42624" lon="2.23287">
        <ele>2873.04</ele>
        <time>2016-06-30T07:53:03Z</time>
      </trkpt>
      <trkpt lat="42.42623" lon="2.23287">
        <ele>2874.48</ele>
        <time>2016-06-30T07:53:39Z</time>
      </trkpt>
      <trkpt lat="42.42623" lon="2.23287">
        <ele>2874.96</ele>
        <time>2016-06-30T07:54:13Z</time>
      </trkpt>
      <trkpt lat="42.42623" lon="2.23287">
        <ele>2873.52</ele>
        <time>2016-06-30T07:54:44Z</time>
      </trkpt>
      <trkpt lat="42.42623" lon="2.23288">
        <ele>2874</ele>
        <time>2016-06-30T07:55:13Z</time>
      </trkpt>
      <trkpt lat="42.42623" lon="2.23289">
        <ele>2874</ele>
        <time>2016-06-30T07:55:52Z</time>
      </trkpt>
      <trkpt lat="42.42622" lon="2.23289">
        <ele>2874.48</ele>
        <time>2016-06-30T07:56:35Z</time>
      </trkpt>
      <trkpt lat="42.42622" lon="2.23289">
        <ele>2874.48</ele>
        <time>2016-06-30T07:57:16Z</time>
      </trkpt>
      <trkpt lat="42.42622" lon="2.23289">
        <ele>2874.48</ele>
        <time>2016-06-30T07:57:59Z</time>
      </trkpt>
      <trkpt lat="42.42622" lon="2.23289">
        <ele>2874.96</ele>
        <time>2016-06-30T07:58:26Z</time>
      </trkpt>
      <trkpt lat="42.42622" lon="2.23289">
        <ele>2874.96</ele>
        <time>2016-06-30T07:58:54Z</time>
      </trkpt>
      <trkpt lat="42.42623" lon="2.2329">
        <ele>2874.96</ele>
        <time>2016-06-30T07:59:24Z</time>
      </trkpt>
      <trkpt lat="42.42623" lon="2.2329">
        <ele>2874.96</ele>
        <time>2016-06-30T07:59:53Z</time>
      </trkpt>
      <trkpt lat="42.42623" lon="2.2329">
        <ele>2874.96</ele>
        <time>2016-06-30T08:00:27Z</time>
      </trkpt>
      <trkpt lat="42.42623" lon="2.2329">
        <ele>2875.44</ele>
        <time>2016-06-30T08:00:29Z</time>
      </trkpt>
      <trkpt lat="42.42622" lon="2.2329">
        <ele>2875.44</ele>
        <time>2016-06-30T08:00:37Z</time>
      </trkpt>
      <trkpt lat="42.42623" lon="2.2329">
        <ele>2875.44</ele>
        <time>2016-06-30T08:00:54Z</time>
      </trkpt>
      <trkpt lat="42.42623" lon="2.2329">
        <ele>2876.4</ele>
        <time>2016-06-30T08:01:16Z</time>
      </trkpt>
      <trkpt lat="42.42624" lon="2.2329">
        <ele>2876.4</ele>
        <time>2016-06-30T08:01:32Z</time>
      </trkpt>
      <trkpt lat="42.42623" lon="2.23291">
        <ele>2876.4</ele>
        <time>2016-06-30T08:02:10Z</time>
      </trkpt>
      <trkpt lat="42.42623" lon="2.23291">
        <ele>2876.4</ele>
        <time>2016-06-30T08:02:43Z</time>
      </trkpt>
      <trkpt lat="42.42623" lon="2.23291">
        <ele>2876.4</ele>
        <time>2016-06-30T08:03:17Z</time>
      </trkpt>
      <trkpt lat="42.42623" lon="2.23291">
        <ele>2876.88</ele>
        <time>2016-06-30T08:03:54Z</time>
      </trkpt>
      <trkpt lat="42.42623" lon="2.23291">
        <ele>2876.88</ele>
        <time>2016-06-30T08:04:30Z</time>
      </trkpt>
      <trkpt lat="42.42623" lon="2.23291">
        <ele>2876.88</ele>
        <time>2016-06-30T08:05:00Z</time>
      </trkpt>
      <trkpt lat="42.42623" lon="2.23291">
        <ele>2875.44</ele>
        <time>2016-06-30T08:05:32Z</time>
      </trkpt>
      <trkpt lat="42.42623" lon="2.23292">
        <ele>2875.92</ele>
        <time>2016-06-30T08:06:11Z</time>
      </trkpt>
      <trkpt lat="42.42623" lon="2.23292">
        <ele>2875.92</ele>
        <time>2016-06-30T08:06:53Z</time>
      </trkpt>
      <trkpt lat="42.42622" lon="2.23291">
        <ele>2875.92</ele>
        <time>2016-06-30T08:07:20Z</time>
      </trkpt>
      <trkpt lat="42.42622" lon="2.2329">
        <ele>2875.92</ele>
        <time>2016-06-30T08:07:36Z</time>
      </trkpt>
      <trkpt lat="42.42623" lon="2.2329">
        <ele>2875.92</ele>
        <time>2016-06-30T08:07:58Z</time>
      </trkpt>
      <trkpt lat="42.42623" lon="2.2329">
        <ele>2875.92</ele>
        <time>2016-06-30T08:08:13Z</time>
      </trkpt>
      <trkpt lat="42.42623" lon="2.2329">
        <ele>2875.92</ele>
        <time>2016-06-30T08:08:28Z</time>
      </trkpt>
      <trkpt lat="42.42622" lon="2.23288">
        <ele>2875.92</ele>
        <time>2016-06-30T08:08:47Z</time>
      </trkpt>
      <trkpt lat="42.42622" lon="2.23288">
        <ele>2876.4</ele>
        <time>2016-06-30T08:09:04Z</time>
      </trkpt>
      <trkpt lat="42.42623" lon="2.23288">
        <ele>2876.4</ele>
        <time>2016-06-30T08:09:23Z</time>
      </trkpt>
      <trkpt lat="42.42623" lon="2.23289">
        <ele>2877.84</ele>
        <time>2016-06-30T08:09:43Z</time>
      </trkpt>
      <trkpt lat="42.42623" lon="2.23288">
        <ele>2877.84</ele>
        <time>2016-06-30T08:10:11Z</time>
      </trkpt>
      <trkpt lat="42.42623" lon="2.23289">
        <ele>2877.84</ele>
        <time>2016-06-30T08:10:32Z</time>
      </trkpt>
      <trkpt lat="42.42623" lon="2.23288">
        <ele>2877.84</ele>
        <time>2016-06-30T08:10:46Z</time>
      </trkpt>
      <trkpt lat="42.42623" lon="2.23289">
        <ele>2877.36</ele>
        <time>2016-06-30T08:11:02Z</time>
      </trkpt>
      <trkpt lat="42.42623" lon="2.23289">
        <ele>2877.36</ele>
        <time>2016-06-30T08:11:14Z</time>
      </trkpt>
      <trkpt lat="42.42623" lon="2.23289">
        <ele>2877.36</ele>
        <time>2016-06-30T08:11:33Z</time>
      </trkpt>
      <trkpt lat="42.42623" lon="2.23289">
        <ele>2876.88</ele>
        <time>2016-06-30T08:12:01Z</time>
      </trkpt>
      <trkpt lat="42.42623" lon="2.23289">
        <ele>2876.88</ele>
        <time>2016-06-30T08:12:25Z</time>
      </trkpt>
      <trkpt lat="42.42623" lon="2.23288">
        <ele>2876.88</ele>
        <time>2016-06-30T08:12:37Z</time>
      </trkpt>
      <trkpt lat="42.42624" lon="2.23288">
        <ele>2876.88</ele>
        <time>2016-06-30T08:12:38Z</time>
      </trkpt>
      <trkpt lat="42.42623" lon="2.23284">
        <ele>2876.88</ele>
        <time>2016-06-30T08:12:42Z</time>
      </trkpt>
      <trkpt lat="42.42623" lon="2.23281">
        <ele>2876.88</ele>
        <time>2016-06-30T08:12:45Z</time>
      </trkpt>
      <trkpt lat="42.42625" lon="2.23276">
        <ele>2876.88</ele>
        <time>2016-06-30T08:12:49Z</time>
      </trkpt>
      <trkpt lat="42.42624" lon="2.23275">
        <ele>2876.88</ele>
        <time>2016-06-30T08:12:51Z</time>
      </trkpt>
      <trkpt lat="42.42623" lon="2.23268">
        <ele>2876.4</ele>
        <time>2016-06-30T08:12:56Z</time>
      </trkpt>
      <trkpt lat="42.42629" lon="2.23253">
        <ele>2874.48</ele>
        <time>2016-06-30T08:13:08Z</time>
      </trkpt>
      <trkpt lat="42.42634" lon="2.23239">
        <ele>2874</ele>
        <time>2016-06-30T08:13:19Z</time>
      </trkpt>
      <trkpt lat="42.42635" lon="2.23229">
        <ele>2874</ele>
        <time>2016-06-30T08:13:28Z</time>
      </trkpt>
      <trkpt lat="42.42635" lon="2.23223">
        <ele>2874</ele>
        <time>2016-06-30T08:13:34Z</time>
      </trkpt>
      <trkpt lat="42.42636" lon="2.23218">
        <ele>2874</ele>
        <time>2016-06-30T08:13:38Z</time>
      </trkpt>
      <trkpt lat="42.42636" lon="2.23215">
        <ele>2874</ele>
        <time>2016-06-30T08:13:40Z</time>
      </trkpt>
      <trkpt lat="42.42641" lon="2.23204">
        <ele>2874</ele>
        <time>2016-06-30T08:13:49Z</time>
      </trkpt>
      <trkpt lat="42.42641" lon="2.23201">
        <ele>2874</ele>
        <time>2016-06-30T08:13:51Z</time>
      </trkpt>
      <trkpt lat="42.42642" lon="2.23183">
        <ele>2874</ele>
        <time>2016-06-30T08:14:04Z</time>
      </trkpt>
      <trkpt lat="42.42642" lon="2.23175">
        <ele>2873.52</ele>
        <time>2016-06-30T08:14:11Z</time>
      </trkpt>
      <trkpt lat="42.42651" lon="2.23169">
        <ele>2873.52</ele>
        <time>2016-06-30T08:14:22Z</time>
      </trkpt>
      <trkpt lat="42.42654" lon="2.23167">
        <ele>2873.52</ele>
        <time>2016-06-30T08:14:26Z</time>
      </trkpt>
      <trkpt lat="42.42655" lon="2.23163">
        <ele>2874.48</ele>
        <time>2016-06-30T08:14:30Z</time>
      </trkpt>
      <trkpt lat="42.42655" lon="2.2316">
        <ele>2874.96</ele>
        <time>2016-06-30T08:14:32Z</time>
      </trkpt>
      <trkpt lat="42.42658" lon="2.23154">
        <ele>2875.92</ele>
        <time>2016-06-30T08:14:42Z</time>
      </trkpt>
      <trkpt lat="42.42659" lon="2.23151">
        <ele>2875.92</ele>
        <time>2016-06-30T08:14:46Z</time>
      </trkpt>
      <trkpt lat="42.42662" lon="2.23149">
        <ele>2875.92</ele>
        <time>2016-06-30T08:14:49Z</time>
      </trkpt>
      <trkpt lat="42.42665" lon="2.23142">
        <ele>2875.92</ele>
        <time>2016-06-30T08:14:56Z</time>
      </trkpt>
      <trkpt lat="42.42669" lon="2.23129">
        <ele>2875.92</ele>
        <time>2016-06-30T08:15:09Z</time>
      </trkpt>
      <trkpt lat="42.42671" lon="2.23123">
        <ele>2875.92</ele>
        <time>2016-06-30T08:15:14Z</time>
      </trkpt>
      <trkpt lat="42.42672" lon="2.23121">
        <ele>2875.92</ele>
        <time>2016-06-30T08:15:17Z</time>
      </trkpt>
      <trkpt lat="42.42673" lon="2.23116">
        <ele>2875.92</ele>
        <time>2016-06-30T08:15:21Z</time>
      </trkpt>
      <trkpt lat="42.42674" lon="2.23114">
        <ele>2875.92</ele>
        <time>2016-06-30T08:15:23Z</time>
      </trkpt>
      <trkpt lat="42.42678" lon="2.23108">
        <ele>2875.92</ele>
        <time>2016-06-30T08:15:32Z</time>
      </trkpt>
      <trkpt lat="42.42678" lon="2.23106">
        <ele>2875.92</ele>
        <time>2016-06-30T08:15:35Z</time>
      </trkpt>
      <trkpt lat="42.42681" lon="2.23094">
        <ele>2875.92</ele>
        <time>2016-06-30T08:15:45Z</time>
      </trkpt>
      <trkpt lat="42.42684" lon="2.2309">
        <ele>2875.92</ele>
        <time>2016-06-30T08:15:56Z</time>
      </trkpt>
      <trkpt lat="42.42686" lon="2.23089">
        <ele>2877.36</ele>
        <time>2016-06-30T08:16:18Z</time>
      </trkpt>
      <trkpt lat="42.42689" lon="2.23086">
        <ele>2877.36</ele>
        <time>2016-06-30T08:16:31Z</time>
      </trkpt>
      <trkpt lat="42.42694" lon="2.23081">
        <ele>2877.36</ele>
        <time>2016-06-30T08:16:43Z</time>
      </trkpt>
      <trkpt lat="42.42697" lon="2.23081">
        <ele>2877.36</ele>
        <time>2016-06-30T08:16:54Z</time>
      </trkpt>
      <trkpt lat="42.42698" lon="2.23081">
        <ele>2875.92</ele>
        <time>2016-06-30T08:17:21Z</time>
      </trkpt>
      <trkpt lat="42.42698" lon="2.2308">
        <ele>2876.4</ele>
        <time>2016-06-30T08:17:42Z</time>
      </trkpt>
      <trkpt lat="42.42693" lon="2.23077">
        <ele>2876.4</ele>
        <time>2016-06-30T08:17:55Z</time>
      </trkpt>
      <trkpt lat="42.42687" lon="2.23073">
        <ele>2876.4</ele>
        <time>2016-06-30T08:18:06Z</time>
      </trkpt>
      <trkpt lat="42.42687" lon="2.23072">
        <ele>2876.4</ele>
        <time>2016-06-30T08:18:07Z</time>
      </trkpt>
      <trkpt lat="42.42683" lon="2.23069">
        <ele>2874.48</ele>
        <time>2016-06-30T08:18:19Z</time>
      </trkpt>
      <trkpt lat="42.42682" lon="2.23066">
        <ele>2874</ele>
        <time>2016-06-30T08:18:24Z</time>
      </trkpt>
      <trkpt lat="42.42679" lon="2.23063">
        <ele>2871.11</ele>
        <time>2016-06-30T08:18:36Z</time>
      </trkpt>
      <trkpt lat="42.42676" lon="2.2306">
        <ele>2869.67</ele>
        <time>2016-06-30T08:18:48Z</time>
      </trkpt>
      <trkpt lat="42.42674" lon="2.23057">
        <ele>2868.23</ele>
        <time>2016-06-30T08:18:58Z</time>
      </trkpt>
      <trkpt lat="42.42671" lon="2.23051">
        <ele>2864.87</ele>
        <time>2016-06-30T08:19:11Z</time>
      </trkpt>
      <trkpt lat="42.4267" lon="2.23049">
        <ele>2861.98</ele>
        <time>2016-06-30T08:19:15Z</time>
      </trkpt>
      <trkpt lat="42.4267" lon="2.23045">
        <ele>2858.62</ele>
        <time>2016-06-30T08:19:20Z</time>
      </trkpt>
      <trkpt lat="42.42672" lon="2.23041">
        <ele>2858.62</ele>
        <time>2016-06-30T08:19:31Z</time>
      </trkpt>
      <trkpt lat="42.42674" lon="2.23034">
        <ele>2858.62</ele>
        <time>2016-06-30T08:19:43Z</time>
      </trkpt>
      <trkpt lat="42.42674" lon="2.23032">
        <ele>2858.14</ele>
        <time>2016-06-30T08:19:47Z</time>
      </trkpt>
      <trkpt lat="42.42674" lon="2.23031">
        <ele>2857.66</ele>
        <time>2016-06-30T08:19:52Z</time>
      </trkpt>
      <trkpt lat="42.42672" lon="2.2303">
        <ele>2856.69</ele>
        <time>2016-06-30T08:19:56Z</time>
      </trkpt>
      <trkpt lat="42.42673" lon="2.23023">
        <ele>2852.37</ele>
        <time>2016-06-30T08:20:06Z</time>
      </trkpt>
      <trkpt lat="42.4267" lon="2.23021">
        <ele>2849</ele>
        <time>2016-06-30T08:20:11Z</time>
      </trkpt>
      <trkpt lat="42.42669" lon="2.23014">
        <ele>2849</ele>
        <time>2016-06-30T08:20:21Z</time>
      </trkpt>
      <trkpt lat="42.42666" lon="2.2301">
        <ele>2848.04</ele>
        <time>2016-06-30T08:20:30Z</time>
      </trkpt>
      <trkpt lat="42.42665" lon="2.23001">
        <ele>2846.12</ele>
        <time>2016-06-30T08:20:41Z</time>
      </trkpt>
      <trkpt lat="42.42662" lon="2.22997">
        <ele>2842.76</ele>
        <time>2016-06-30T08:20:49Z</time>
      </trkpt>
      <trkpt lat="42.42661" lon="2.22995">
        <ele>2839.39</ele>
        <time>2016-06-30T08:20:54Z</time>
      </trkpt>
      <trkpt lat="42.4266" lon="2.22987">
        <ele>2837.95</ele>
        <time>2016-06-30T08:21:06Z</time>
      </trkpt>
      <trkpt lat="42.4266" lon="2.22987">
        <ele>2837.95</ele>
        <time>2016-06-30T08:21:08Z</time>
      </trkpt>
      <trkpt lat="42.42655" lon="2.22977">
        <ele>2836.03</ele>
        <time>2016-06-30T08:21:21Z</time>
      </trkpt>
      <trkpt lat="42.42652" lon="2.22972">
        <ele>2835.06</ele>
        <time>2016-06-30T08:21:27Z</time>
      </trkpt>
      <trkpt lat="42.4265" lon="2.22963">
        <ele>2832.66</ele>
        <time>2016-06-30T08:21:38Z</time>
      </trkpt>
      <trkpt lat="42.42649" lon="2.22961">
        <ele>2829.78</ele>
        <time>2016-06-30T08:21:41Z</time>
      </trkpt>
      <trkpt lat="42.42648" lon="2.2296">
        <ele>2828.82</ele>
        <time>2016-06-30T08:21:42Z</time>
      </trkpt>
      <trkpt lat="42.42649" lon="2.2295">
        <ele>2825.93</ele>
        <time>2016-06-30T08:21:52Z</time>
      </trkpt>
      <trkpt lat="42.42645" lon="2.2294">
        <ele>2825.93</ele>
        <time>2016-06-30T08:22:04Z</time>
      </trkpt>
      <trkpt lat="42.42646" lon="2.22937">
        <ele>2825.45</ele>
        <time>2016-06-30T08:22:07Z</time>
      </trkpt>
      <trkpt lat="42.42642" lon="2.22929">
        <ele>2823.53</ele>
        <time>2016-06-30T08:22:16Z</time>
      </trkpt>
      <trkpt lat="42.42639" lon="2.22921">
        <ele>2821.13</ele>
        <time>2016-06-30T08:22:25Z</time>
      </trkpt>
      <trkpt lat="42.42638" lon="2.22914">
        <ele>2816.8</ele>
        <time>2016-06-30T08:22:31Z</time>
      </trkpt>
      <trkpt lat="42.42638" lon="2.22908">
        <ele>2815.36</ele>
        <time>2016-06-30T08:22:36Z</time>
      </trkpt>
      <trkpt lat="42.42636" lon="2.22892">
        <ele>2814.88</ele>
        <time>2016-06-30T08:22:50Z</time>
      </trkpt>
      <trkpt lat="42.42634" lon="2.22882">
        <ele>2812.96</ele>
        <time>2016-06-30T08:23:01Z</time>
      </trkpt>
      <trkpt lat="42.42633" lon="2.22881">
        <ele>2810.55</ele>
        <time>2016-06-30T08:23:22Z</time>
      </trkpt>
      <trkpt lat="42.42633" lon="2.2288">
        <ele>2809.59</ele>
        <time>2016-06-30T08:23:39Z</time>
      </trkpt>
      <trkpt lat="42.42633" lon="2.2288">
        <ele>2809.59</ele>
        <time>2016-06-30T08:23:56Z</time>
      </trkpt>
      <trkpt lat="42.42634" lon="2.22879">
        <ele>2809.11</ele>
        <time>2016-06-30T08:24:06Z</time>
      </trkpt>
      <trkpt lat="42.42633" lon="2.22873">
        <ele>2807.67</ele>
        <time>2016-06-30T08:24:18Z</time>
      </trkpt>
      <trkpt lat="42.42633" lon="2.2287">
        <ele>2806.71</ele>
        <time>2016-06-30T08:24:22Z</time>
      </trkpt>
      <trkpt lat="42.42635" lon="2.22867">
        <ele>2805.26</ele>
        <time>2016-06-30T08:24:34Z</time>
      </trkpt>
      <trkpt lat="42.42633" lon="2.22862">
        <ele>2802.86</ele>
        <time>2016-06-30T08:24:44Z</time>
      </trkpt>
      <trkpt lat="42.42632" lon="2.22862">
        <ele>2799.5</ele>
        <time>2016-06-30T08:24:48Z</time>
      </trkpt>
      <trkpt lat="42.42632" lon="2.22861">
        <ele>2798.05</ele>
        <time>2016-06-30T08:24:50Z</time>
      </trkpt>
      <trkpt lat="42.42632" lon="2.22856">
        <ele>2797.57</ele>
        <time>2016-06-30T08:25:01Z</time>
      </trkpt>
      <trkpt lat="42.42632" lon="2.22848">
        <ele>2797.57</ele>
        <time>2016-06-30T08:25:11Z</time>
      </trkpt>
      <trkpt lat="42.42631" lon="2.2284">
        <ele>2796.13</ele>
        <time>2016-06-30T08:25:22Z</time>
      </trkpt>
      <trkpt lat="42.42631" lon="2.22836">
        <ele>2795.65</ele>
        <time>2016-06-30T08:25:27Z</time>
      </trkpt>
      <trkpt lat="42.42631" lon="2.22832">
        <ele>2793.25</ele>
        <time>2016-06-30T08:25:37Z</time>
      </trkpt>
      <trkpt lat="42.42631" lon="2.22832">
        <ele>2792.77</ele>
        <time>2016-06-30T08:25:45Z</time>
      </trkpt>
      <trkpt lat="42.42632" lon="2.22832">
        <ele>2791.81</ele>
        <time>2016-06-30T08:25:59Z</time>
      </trkpt>
      <trkpt lat="42.42632" lon="2.22832">
        <ele>2791.33</ele>
        <time>2016-06-30T08:26:22Z</time>
      </trkpt>
      <trkpt lat="42.42632" lon="2.22831">
        <ele>2791.33</ele>
        <time>2016-06-30T08:26:42Z</time>
      </trkpt>
      <trkpt lat="42.42631" lon="2.2283">
        <ele>2791.33</ele>
        <time>2016-06-30T08:26:55Z</time>
      </trkpt>
      <trkpt lat="42.42631" lon="2.22831">
        <ele>2791.33</ele>
        <time>2016-06-30T08:27:16Z</time>
      </trkpt>
      <trkpt lat="42.42631" lon="2.22831">
        <ele>2791.33</ele>
        <time>2016-06-30T08:27:29Z</time>
      </trkpt>
      <trkpt lat="42.4263" lon="2.2283">
        <ele>2791.33</ele>
        <time>2016-06-30T08:27:41Z</time>
      </trkpt>
      <trkpt lat="42.42632" lon="2.22828">
        <ele>2789.4</ele>
        <time>2016-06-30T08:27:50Z</time>
      </trkpt>
      <trkpt lat="42.4263" lon="2.22822">
        <ele>2787.96</ele>
        <time>2016-06-30T08:28:00Z</time>
      </trkpt>
      <trkpt lat="42.4263" lon="2.22817">
        <ele>2786.52</ele>
        <time>2016-06-30T08:28:09Z</time>
      </trkpt>
      <trkpt lat="42.4263" lon="2.22809">
        <ele>2784.12</ele>
        <time>2016-06-30T08:28:21Z</time>
      </trkpt>
      <trkpt lat="42.4263" lon="2.22807">
        <ele>2783.15</ele>
        <time>2016-06-30T08:28:26Z</time>
      </trkpt>
      <trkpt lat="42.4263" lon="2.22803">
        <ele>2779.79</ele>
        <time>2016-06-30T08:28:38Z</time>
      </trkpt>
      <trkpt lat="42.4263" lon="2.22802">
        <ele>2778.35</ele>
        <time>2016-06-30T08:28:40Z</time>
      </trkpt>
      <trkpt lat="42.4263" lon="2.22797">
        <ele>2774.98</ele>
        <time>2016-06-30T08:28:45Z</time>
      </trkpt>
      <trkpt lat="42.42628" lon="2.2279">
        <ele>2774.5</ele>
        <time>2016-06-30T08:28:56Z</time>
      </trkpt>
      <trkpt lat="42.42627" lon="2.22782">
        <ele>2773.06</ele>
        <time>2016-06-30T08:29:07Z</time>
      </trkpt>
      <trkpt lat="42.42625" lon="2.22769">
        <ele>2770.18</ele>
        <time>2016-06-30T08:29:21Z</time>
      </trkpt>
      <trkpt lat="42.42624" lon="2.22769">
        <ele>2769.21</ele>
        <time>2016-06-30T08:29:25Z</time>
      </trkpt>
      <trkpt lat="42.42624" lon="2.22755">
        <ele>2767.77</ele>
        <time>2016-06-30T08:29:38Z</time>
      </trkpt>
      <trkpt lat="42.42624" lon="2.22748">
        <ele>2767.29</ele>
        <time>2016-06-30T08:29:45Z</time>
      </trkpt>
      <trkpt lat="42.42625" lon="2.22734">
        <ele>2764.89</ele>
        <time>2016-06-30T08:29:56Z</time>
      </trkpt>
      <trkpt lat="42.42624" lon="2.22726">
        <ele>2763.93</ele>
        <time>2016-06-30T08:30:08Z</time>
      </trkpt>
      <trkpt lat="42.42625" lon="2.22724">
        <ele>2762.49</ele>
        <time>2016-06-30T08:30:18Z</time>
      </trkpt>
      <trkpt lat="42.42624" lon="2.2272">
        <ele>2761.04</ele>
        <time>2016-06-30T08:30:28Z</time>
      </trkpt>
      <trkpt lat="42.42624" lon="2.22715">
        <ele>2760.08</ele>
        <time>2016-06-30T08:30:38Z</time>
      </trkpt>
      <trkpt lat="42.42624" lon="2.22714">
        <ele>2759.6</ele>
        <time>2016-06-30T08:30:40Z</time>
      </trkpt>
      <trkpt lat="42.42621" lon="2.22704">
        <ele>2757.2</ele>
        <time>2016-06-30T08:30:51Z</time>
      </trkpt>
      <trkpt lat="42.4262" lon="2.22701">
        <ele>2756.72</ele>
        <time>2016-06-30T08:30:55Z</time>
      </trkpt>
      <trkpt lat="42.42622" lon="2.22697">
        <ele>2755.28</ele>
        <time>2016-06-30T08:31:00Z</time>
      </trkpt>
      <trkpt lat="42.42623" lon="2.22682">
        <ele>2751.91</ele>
        <time>2016-06-30T08:31:12Z</time>
      </trkpt>
      <trkpt lat="42.42623" lon="2.22676">
        <ele>2748.55</ele>
        <time>2016-06-30T08:31:17Z</time>
      </trkpt>
      <trkpt lat="42.42621" lon="2.2266">
        <ele>2747.59</ele>
        <time>2016-06-30T08:31:29Z</time>
      </trkpt>
      <trkpt lat="42.42621" lon="2.22655">
        <ele>2747.59</ele>
        <time>2016-06-30T08:31:34Z</time>
      </trkpt>
      <trkpt lat="42.42621" lon="2.2265">
        <ele>2747.59</ele>
        <time>2016-06-30T08:31:40Z</time>
      </trkpt>
      <trkpt lat="42.42624" lon="2.22641">
        <ele>2747.59</ele>
        <time>2016-06-30T08:31:51Z</time>
      </trkpt>
      <trkpt lat="42.42625" lon="2.22637">
        <ele>2747.1</ele>
        <time>2016-06-30T08:32:03Z</time>
      </trkpt>
      <trkpt lat="42.42623" lon="2.22633">
        <ele>2745.66</ele>
        <time>2016-06-30T08:32:16Z</time>
      </trkpt>
      <trkpt lat="42.42622" lon="2.22629">
        <ele>2743.74</ele>
        <time>2016-06-30T08:32:26Z</time>
      </trkpt>
      <trkpt lat="42.4262" lon="2.22627">
        <ele>2742.78</ele>
        <time>2016-06-30T08:32:35Z</time>
      </trkpt>
      <trkpt lat="42.42619" lon="2.22625">
        <ele>2741.34</ele>
        <time>2016-06-30T08:32:40Z</time>
      </trkpt>
      <trkpt lat="42.4262" lon="2.22621">
        <ele>2740.86</ele>
        <time>2016-06-30T08:32:44Z</time>
      </trkpt>
      <trkpt lat="42.42621" lon="2.22607">
        <ele>2739.89</ele>
        <time>2016-06-30T08:32:56Z</time>
      </trkpt>
      <trkpt lat="42.42621" lon="2.22604">
        <ele>2739.89</ele>
        <time>2016-06-30T08:32:58Z</time>
      </trkpt>
      <trkpt lat="42.42619" lon="2.22593">
        <ele>2737.97</ele>
        <time>2016-06-30T08:33:11Z</time>
      </trkpt>
      <trkpt lat="42.42619" lon="2.22589">
        <ele>2737.01</ele>
        <time>2016-06-30T08:33:15Z</time>
      </trkpt>
      <trkpt lat="42.42616" lon="2.22587">
        <ele>2733.65</ele>
        <time>2016-06-30T08:33:19Z</time>
      </trkpt>
      <trkpt lat="42.42615" lon="2.22587">
        <ele>2732.2</ele>
        <time>2016-06-30T08:33:21Z</time>
      </trkpt>
      <trkpt lat="42.42612" lon="2.2258">
        <ele>2730.76</ele>
        <time>2016-06-30T08:33:30Z</time>
      </trkpt>
      <trkpt lat="42.42613" lon="2.22566">
        <ele>2730.76</ele>
        <time>2016-06-30T08:33:42Z</time>
      </trkpt>
      <trkpt lat="42.42614" lon="2.22564">
        <ele>2730.76</ele>
        <time>2016-06-30T08:33:46Z</time>
      </trkpt>
      <trkpt lat="42.42616" lon="2.22553">
        <ele>2729.32</ele>
        <time>2016-06-30T08:33:59Z</time>
      </trkpt>
      <trkpt lat="42.42613" lon="2.22549">
        <ele>2727.4</ele>
        <time>2016-06-30T08:34:08Z</time>
      </trkpt>
      <trkpt lat="42.42611" lon="2.2255">
        <ele>2724.51</ele>
        <time>2016-06-30T08:34:11Z</time>
      </trkpt>
      <trkpt lat="42.42609" lon="2.22546">
        <ele>2722.11</ele>
        <time>2016-06-30T08:34:20Z</time>
      </trkpt>
      <trkpt lat="42.4261" lon="2.22539">
        <ele>2722.11</ele>
        <time>2016-06-30T08:34:30Z</time>
      </trkpt>
      <trkpt lat="42.42608" lon="2.22538">
        <ele>2721.63</ele>
        <time>2016-06-30T08:34:47Z</time>
      </trkpt>
      <trkpt lat="42.42603" lon="2.22533">
        <ele>2720.67</ele>
        <time>2016-06-30T08:34:59Z</time>
      </trkpt>
      <trkpt lat="42.42603" lon="2.22519">
        <ele>2718.75</ele>
        <time>2016-06-30T08:35:09Z</time>
      </trkpt>
      <trkpt lat="42.42601" lon="2.22509">
        <ele>2718.27</ele>
        <time>2016-06-30T08:35:18Z</time>
      </trkpt>
      <trkpt lat="42.426" lon="2.22502">
        <ele>2717.78</ele>
        <time>2016-06-30T08:35:26Z</time>
      </trkpt>
      <trkpt lat="42.426" lon="2.22499">
        <ele>2717.78</ele>
        <time>2016-06-30T08:35:28Z</time>
      </trkpt>
      <trkpt lat="42.426" lon="2.22498">
        <ele>2717.3</ele>
        <time>2016-06-30T08:35:32Z</time>
      </trkpt>
      <trkpt lat="42.42597" lon="2.22497">
        <ele>2716.82</ele>
        <time>2016-06-30T08:35:36Z</time>
      </trkpt>
      <trkpt lat="42.42596" lon="2.22492">
        <ele>2715.86</ele>
        <time>2016-06-30T08:35:41Z</time>
      </trkpt>
      <trkpt lat="42.42593" lon="2.22478">
        <ele>2713.94</ele>
        <time>2016-06-30T08:35:54Z</time>
      </trkpt>
      <trkpt lat="42.42593" lon="2.22474">
        <ele>2712.98</ele>
        <time>2016-06-30T08:35:59Z</time>
      </trkpt>
      <trkpt lat="42.42593" lon="2.22469">
        <ele>2711.54</ele>
        <time>2016-06-30T08:36:04Z</time>
      </trkpt>
      <trkpt lat="42.42592" lon="2.22463">
        <ele>2711.06</ele>
        <time>2016-06-30T08:36:09Z</time>
      </trkpt>
      <trkpt lat="42.42591" lon="2.22457">
        <ele>2710.09</ele>
        <time>2016-06-30T08:36:14Z</time>
      </trkpt>
      <trkpt lat="42.42592" lon="2.22454">
        <ele>2709.13</ele>
        <time>2016-06-30T08:36:16Z</time>
      </trkpt>
      <trkpt lat="42.42595" lon="2.22433">
        <ele>2708.17</ele>
        <time>2016-06-30T08:36:31Z</time>
      </trkpt>
      <trkpt lat="42.42596" lon="2.2243">
        <ele>2707.21</ele>
        <time>2016-06-30T08:36:44Z</time>
      </trkpt>
      <trkpt lat="42.42596" lon="2.22429">
        <ele>2706.73</ele>
        <time>2016-06-30T08:37:02Z</time>
      </trkpt>
      <trkpt lat="42.42596" lon="2.22429">
        <ele>2706.73</ele>
        <time>2016-06-30T08:37:19Z</time>
      </trkpt>
      <trkpt lat="42.42593" lon="2.22424">
        <ele>2706.25</ele>
        <time>2016-06-30T08:37:30Z</time>
      </trkpt>
      <trkpt lat="42.42592" lon="2.22421">
        <ele>2651.93</ele>
        <time>2016-06-30T08:38:36Z</time>
      </trkpt>
      <trkpt lat="42.42592" lon="2.22421">
        <ele>2651.93</ele>
        <time>2016-06-30T08:38:37Z</time>
      </trkpt>
      <trkpt lat="42.42593" lon="2.22424">
        <ele>2651.93</ele>
        <time>2016-06-30T08:38:53Z</time>
      </trkpt>
      <trkpt lat="42.42592" lon="2.22422">
        <ele>2652.9</ele>
        <time>2016-06-30T08:39:16Z</time>
      </trkpt>
      <trkpt lat="42.4259" lon="2.22417">
        <ele>2653.38</ele>
        <time>2016-06-30T08:39:37Z</time>
      </trkpt>
      <trkpt lat="42.42587" lon="2.22411">
        <ele>2653.86</ele>
        <time>2016-06-30T08:39:46Z</time>
      </trkpt>
      <trkpt lat="42.42582" lon="2.22402">
        <ele>2655.3</ele>
        <time>2016-06-30T08:39:57Z</time>
      </trkpt>
      <trkpt lat="42.42582" lon="2.22402">
        <ele>2655.3</ele>
        <time>2016-06-30T08:39:58Z</time>
      </trkpt>
      <trkpt lat="42.4258" lon="2.22395">
        <ele>2657.22</ele>
        <time>2016-06-30T08:40:12Z</time>
      </trkpt>
      <trkpt lat="42.42575" lon="2.22394">
        <ele>2658.66</ele>
        <time>2016-06-30T08:40:25Z</time>
      </trkpt>
      <trkpt lat="42.42575" lon="2.22392">
        <ele>2661.07</ele>
        <time>2016-06-30T08:40:35Z</time>
      </trkpt>
      <trkpt lat="42.42575" lon="2.22388">
        <ele>2662.51</ele>
        <time>2016-06-30T08:40:48Z</time>
      </trkpt>
      <trkpt lat="42.42572" lon="2.22384">
        <ele>2664.91</ele>
        <time>2016-06-30T08:41:00Z</time>
      </trkpt>
      <trkpt lat="42.4257" lon="2.2238">
        <ele>2666.83</ele>
        <time>2016-06-30T08:41:10Z</time>
      </trkpt>
      <trkpt lat="42.42569" lon="2.22375">
        <ele>2669.24</ele>
        <time>2016-06-30T08:41:20Z</time>
      </trkpt>
      <trkpt lat="42.42566" lon="2.22374">
        <ele>2672.12</ele>
        <time>2016-06-30T08:41:28Z</time>
      </trkpt>
      <trkpt lat="42.42566" lon="2.22374">
        <ele>2675.01</ele>
        <time>2016-06-30T08:41:33Z</time>
      </trkpt>
      <trkpt lat="42.42566" lon="2.22373">
        <ele>2675.49</ele>
        <time>2016-06-30T08:41:48Z</time>
      </trkpt>
      <trkpt lat="42.42565" lon="2.22371">
        <ele>2675.97</ele>
        <time>2016-06-30T08:42:00Z</time>
      </trkpt>
      <trkpt lat="42.42564" lon="2.2237">
        <ele>2676.45</ele>
        <time>2016-06-30T08:42:10Z</time>
      </trkpt>
      <trkpt lat="42.42562" lon="2.22365">
        <ele>2678.85</ele>
        <time>2016-06-30T08:42:21Z</time>
      </trkpt>
      <trkpt lat="42.4256" lon="2.22361">
        <ele>2679.33</ele>
        <time>2016-06-30T08:42:25Z</time>
      </trkpt>
      <trkpt lat="42.4255" lon="2.22353">
        <ele>2680.77</ele>
        <time>2016-06-30T08:42:38Z</time>
      </trkpt>
      <trkpt lat="42.42543" lon="2.22345">
        <ele>2682.22</ele>
        <time>2016-06-30T08:42:50Z</time>
      </trkpt>
      <trkpt lat="42.42538" lon="2.22342">
        <ele>2684.14</ele>
        <time>2016-06-30T08:43:01Z</time>
      </trkpt>
      <trkpt lat="42.42533" lon="2.22336">
        <ele>2685.58</ele>
        <time>2016-06-30T08:43:12Z</time>
      </trkpt>
      <trkpt lat="42.42532" lon="2.22335">
        <ele>2687.02</ele>
        <time>2016-06-30T08:43:27Z</time>
      </trkpt>
      <trkpt lat="42.4253" lon="2.22333">
        <ele>2687.98</ele>
        <time>2016-06-30T08:43:47Z</time>
      </trkpt>
      <trkpt lat="42.4253" lon="2.22332">
        <ele>2687.98</ele>
        <time>2016-06-30T08:43:48Z</time>
      </trkpt>
      <trkpt lat="42.42525" lon="2.22323">
        <ele>2688.46</ele>
        <time>2016-06-30T08:43:59Z</time>
      </trkpt>
      <trkpt lat="42.42524" lon="2.22322">
        <ele>2688.46</ele>
        <time>2016-06-30T08:44:00Z</time>
      </trkpt>
      <trkpt lat="42.42514" lon="2.22312">
        <ele>2687.5</ele>
        <time>2016-06-30T08:44:14Z</time>
      </trkpt>
      <trkpt lat="42.42507" lon="2.22302">
        <ele>2687.98</ele>
        <time>2016-06-30T08:44:26Z</time>
      </trkpt>
      <trkpt lat="42.42502" lon="2.22296">
        <ele>2687.98</ele>
        <time>2016-06-30T08:44:34Z</time>
      </trkpt>
      <trkpt lat="42.42501" lon="2.22294">
        <ele>2688.46</ele>
        <time>2016-06-30T08:44:37Z</time>
      </trkpt>
      <trkpt lat="42.42497" lon="2.22285">
        <ele>2688.46</ele>
        <time>2016-06-30T08:44:49Z</time>
      </trkpt>
      <trkpt lat="42.42496" lon="2.22283">
        <ele>2688.46</ele>
        <time>2016-06-30T08:44:51Z</time>
      </trkpt>
      <trkpt lat="42.42496" lon="2.22275">
        <ele>2689.91</ele>
        <time>2016-06-30T08:45:03Z</time>
      </trkpt>
      <trkpt lat="42.42496" lon="2.22269">
        <ele>2693.75</ele>
        <time>2016-06-30T08:45:13Z</time>
      </trkpt>
      <trkpt lat="42.42494" lon="2.22264">
        <ele>2693.27</ele>
        <time>2016-06-30T08:45:22Z</time>
      </trkpt>
      <trkpt lat="42.42493" lon="2.2226">
        <ele>2692.31</ele>
        <time>2016-06-30T08:45:32Z</time>
      </trkpt>
      <trkpt lat="42.42493" lon="2.22259">
        <ele>2691.35</ele>
        <time>2016-06-30T08:45:43Z</time>
      </trkpt>
      <trkpt lat="42.42492" lon="2.22257">
        <ele>2690.39</ele>
        <time>2016-06-30T08:45:54Z</time>
      </trkpt>
      <trkpt lat="42.4249" lon="2.22256">
        <ele>2690.87</ele>
        <time>2016-06-30T08:45:56Z</time>
      </trkpt>
      <trkpt lat="42.42488" lon="2.22254">
        <ele>2690.39</ele>
        <time>2016-06-30T08:45:59Z</time>
      </trkpt>
      <trkpt lat="42.42486" lon="2.22249">
        <ele>2688.46</ele>
        <time>2016-06-30T08:46:09Z</time>
      </trkpt>
      <trkpt lat="42.42486" lon="2.22249">
        <ele>2688.94</ele>
        <time>2016-06-30T08:46:11Z</time>
      </trkpt>
      <trkpt lat="42.42483" lon="2.22247">
        <ele>2686.06</ele>
        <time>2016-06-30T08:46:15Z</time>
      </trkpt>
      <trkpt lat="42.42481" lon="2.22246">
        <ele>2684.62</ele>
        <time>2016-06-30T08:46:17Z</time>
      </trkpt>
      <trkpt lat="42.42478" lon="2.22243">
        <ele>2682.22</ele>
        <time>2016-06-30T08:46:21Z</time>
      </trkpt>
      <trkpt lat="42.42472" lon="2.22236">
        <ele>2682.7</ele>
        <time>2016-06-30T08:46:32Z</time>
      </trkpt>
      <trkpt lat="42.42468" lon="2.22228">
        <ele>2684.14</ele>
        <time>2016-06-30T08:46:41Z</time>
      </trkpt>
      <trkpt lat="42.42466" lon="2.22224">
        <ele>2686.06</ele>
        <time>2016-06-30T08:46:54Z</time>
      </trkpt>
      <trkpt lat="42.42466" lon="2.22223">
        <ele>2687.02</ele>
        <time>2016-06-30T08:46:59Z</time>
      </trkpt>
      <trkpt lat="42.42466" lon="2.22221">
        <ele>2690.39</ele>
        <time>2016-06-30T08:47:10Z</time>
      </trkpt>
      <trkpt lat="42.42464" lon="2.22219">
        <ele>2691.35</ele>
        <time>2016-06-30T08:47:18Z</time>
      </trkpt>
      <trkpt lat="42.42463" lon="2.22216">
        <ele>2690.39</ele>
        <time>2016-06-30T08:47:31Z</time>
      </trkpt>
      <trkpt lat="42.42462" lon="2.22216">
        <ele>2689.91</ele>
        <time>2016-06-30T08:47:34Z</time>
      </trkpt>
      <trkpt lat="42.42462" lon="2.22214">
        <ele>2690.39</ele>
        <time>2016-06-30T08:47:40Z</time>
      </trkpt>
      <trkpt lat="42.42459" lon="2.22211">
        <ele>2690.39</ele>
        <time>2016-06-30T08:47:47Z</time>
      </trkpt>
      <trkpt lat="42.42457" lon="2.22205">
        <ele>2690.87</ele>
        <time>2016-06-30T08:47:57Z</time>
      </trkpt>
      <trkpt lat="42.42456" lon="2.22204">
        <ele>2690.87</ele>
        <time>2016-06-30T08:47:59Z</time>
      </trkpt>
      <trkpt lat="42.42452" lon="2.2219">
        <ele>2690.87</ele>
        <time>2016-06-30T08:48:11Z</time>
      </trkpt>
      <trkpt lat="42.42451" lon="2.22184">
        <ele>2692.31</ele>
        <time>2016-06-30T08:48:22Z</time>
      </trkpt>
      <trkpt lat="42.42449" lon="2.22179">
        <ele>2693.27</ele>
        <time>2016-06-30T08:48:35Z</time>
      </trkpt>
      <trkpt lat="42.42447" lon="2.22173">
        <ele>2693.75</ele>
        <time>2016-06-30T08:48:50Z</time>
      </trkpt>
      <trkpt lat="42.42444" lon="2.22168">
        <ele>2694.23</ele>
        <time>2016-06-30T08:49:06Z</time>
      </trkpt>
      <trkpt lat="42.42441" lon="2.2216">
        <ele>2695.19</ele>
        <time>2016-06-30T08:49:18Z</time>
      </trkpt>
      <trkpt lat="42.42437" lon="2.22155">
        <ele>2697.6</ele>
        <time>2016-06-30T08:49:30Z</time>
      </trkpt>
      <trkpt lat="42.42433" lon="2.22149">
        <ele>2699.52</ele>
        <time>2016-06-30T08:49:41Z</time>
      </trkpt>
      <trkpt lat="42.42432" lon="2.22144">
        <ele>2701.44</ele>
        <time>2016-06-30T08:49:52Z</time>
      </trkpt>
      <trkpt lat="42.42432" lon="2.22144">
        <ele>2702.4</ele>
        <time>2016-06-30T08:49:53Z</time>
      </trkpt>
      <trkpt lat="42.42429" lon="2.22137">
        <ele>2705.29</ele>
        <time>2016-06-30T08:50:02Z</time>
      </trkpt>
      <trkpt lat="42.42426" lon="2.22132">
        <ele>2707.69</ele>
        <time>2016-06-30T08:50:13Z</time>
      </trkpt>
      <trkpt lat="42.42426" lon="2.22132">
        <ele>2708.17</ele>
        <time>2016-06-30T08:50:29Z</time>
      </trkpt>
      <trkpt lat="42.42421" lon="2.22129">
        <ele>2707.69</ele>
        <time>2016-06-30T08:50:43Z</time>
      </trkpt>
      <trkpt lat="42.4242" lon="2.22127">
        <ele>2709.13</ele>
        <time>2016-06-30T08:50:49Z</time>
      </trkpt>
      <trkpt lat="42.42414" lon="2.22124">
        <ele>2710.57</ele>
        <time>2016-06-30T08:51:00Z</time>
      </trkpt>
      <trkpt lat="42.42412" lon="2.22118">
        <ele>2711.06</ele>
        <time>2016-06-30T08:51:08Z</time>
      </trkpt>
      <trkpt lat="42.42406" lon="2.22114">
        <ele>2712.5</ele>
        <time>2016-06-30T08:51:21Z</time>
      </trkpt>
      <trkpt lat="42.42404" lon="2.22109">
        <ele>2713.94</ele>
        <time>2016-06-30T08:51:31Z</time>
      </trkpt>
      <trkpt lat="42.42402" lon="2.22106">
        <ele>2715.86</ele>
        <time>2016-06-30T08:51:46Z</time>
      </trkpt>
      <trkpt lat="42.424" lon="2.22102">
        <ele>2717.3</ele>
        <time>2016-06-30T08:51:59Z</time>
      </trkpt>
      <trkpt lat="42.42397" lon="2.22101">
        <ele>2718.27</ele>
        <time>2016-06-30T08:52:09Z</time>
      </trkpt>
      <trkpt lat="42.42395" lon="2.22097">
        <ele>2720.19</ele>
        <time>2016-06-30T08:52:20Z</time>
      </trkpt>
      <trkpt lat="42.42395" lon="2.22091">
        <ele>2722.11</ele>
        <time>2016-06-30T08:52:32Z</time>
      </trkpt>
      <trkpt lat="42.42392" lon="2.22087">
        <ele>2724.99</ele>
        <time>2016-06-30T08:52:44Z</time>
      </trkpt>
      <trkpt lat="42.4239" lon="2.22085">
        <ele>2726.92</ele>
        <time>2016-06-30T08:52:57Z</time>
      </trkpt>
      <trkpt lat="42.42389" lon="2.22084">
        <ele>2727.88</ele>
        <time>2016-06-30T08:53:18Z</time>
      </trkpt>
      <trkpt lat="42.42387" lon="2.22082">
        <ele>2729.32</ele>
        <time>2016-06-30T08:53:35Z</time>
      </trkpt>
      <trkpt lat="42.42385" lon="2.22077">
        <ele>2731.72</ele>
        <time>2016-06-30T08:53:48Z</time>
      </trkpt>
      <trkpt lat="42.42387" lon="2.22075">
        <ele>2733.17</ele>
        <time>2016-06-30T08:53:59Z</time>
      </trkpt>
      <trkpt lat="42.42386" lon="2.22072">
        <ele>2735.09</ele>
        <time>2016-06-30T08:54:12Z</time>
      </trkpt>
      <trkpt lat="42.42382" lon="2.22069">
        <ele>2736.05</ele>
        <time>2016-06-30T08:54:22Z</time>
      </trkpt>
      <trkpt lat="42.42382" lon="2.22065">
        <ele>2738.45</ele>
        <time>2016-06-30T08:54:33Z</time>
      </trkpt>
      <trkpt lat="42.42381" lon="2.22064">
        <ele>2739.41</ele>
        <time>2016-06-30T08:54:45Z</time>
      </trkpt>
      <trkpt lat="42.42381" lon="2.22064">
        <ele>2739.89</ele>
        <time>2016-06-30T08:54:51Z</time>
      </trkpt>
      <trkpt lat="42.42375" lon="2.22062">
        <ele>2740.86</ele>
        <time>2016-06-30T08:55:02Z</time>
      </trkpt>
      <trkpt lat="42.42374" lon="2.22061">
        <ele>2742.3</ele>
        <time>2016-06-30T08:55:13Z</time>
      </trkpt>
      <trkpt lat="42.42371" lon="2.22059">
        <ele>2744.22</ele>
        <time>2016-06-30T08:55:25Z</time>
      </trkpt>
      <trkpt lat="42.42371" lon="2.22059">
        <ele>2746.14</ele>
        <time>2016-06-30T08:55:36Z</time>
      </trkpt>
      <trkpt lat="42.42369" lon="2.22058">
        <ele>2747.1</ele>
        <time>2016-06-30T08:55:46Z</time>
      </trkpt>
      <trkpt lat="42.42367" lon="2.22054">
        <ele>2748.55</ele>
        <time>2016-06-30T08:55:59Z</time>
      </trkpt>
      <trkpt lat="42.42364" lon="2.22051">
        <ele>2750.47</ele>
        <time>2016-06-30T08:56:08Z</time>
      </trkpt>
      <trkpt lat="42.4236" lon="2.22048">
        <ele>2751.43</ele>
        <time>2016-06-30T08:56:18Z</time>
      </trkpt>
      <trkpt lat="42.42357" lon="2.22044">
        <ele>2753.35</ele>
        <time>2016-06-30T08:56:29Z</time>
      </trkpt>
      <trkpt lat="42.42356" lon="2.22043">
        <ele>2755.28</ele>
        <time>2016-06-30T08:56:51Z</time>
      </trkpt>
      <trkpt lat="42.42353" lon="2.2204">
        <ele>2756.24</ele>
        <time>2016-06-30T08:57:03Z</time>
      </trkpt>
      <trkpt lat="42.42348" lon="2.22038">
        <ele>2758.64</ele>
        <time>2016-06-30T08:57:14Z</time>
      </trkpt>
      <trkpt lat="42.42346" lon="2.22033">
        <ele>2762</ele>
        <time>2016-06-30T08:57:26Z</time>
      </trkpt>
      <trkpt lat="42.42348" lon="2.2203">
        <ele>2765.85</ele>
        <time>2016-06-30T08:57:33Z</time>
      </trkpt>
      <trkpt lat="42.42348" lon="2.22027">
        <ele>2766.33</ele>
        <time>2016-06-30T08:57:45Z</time>
      </trkpt>
      <trkpt lat="42.42346" lon="2.22027">
        <ele>2767.29</ele>
        <time>2016-06-30T08:58:04Z</time>
      </trkpt>
      <trkpt lat="42.42343" lon="2.22026">
        <ele>2768.25</ele>
        <time>2016-06-30T08:58:15Z</time>
      </trkpt>
      <trkpt lat="42.42342" lon="2.22024">
        <ele>2770.18</ele>
        <time>2016-06-30T08:58:29Z</time>
      </trkpt>
      <trkpt lat="42.4234" lon="2.2202">
        <ele>2771.14</ele>
        <time>2016-06-30T08:58:40Z</time>
      </trkpt>
      <trkpt lat="42.4234" lon="2.22016">
        <ele>2773.06</ele>
        <time>2016-06-30T08:58:51Z</time>
      </trkpt>
      <trkpt lat="42.42337" lon="2.22013">
        <ele>2774.5</ele>
        <time>2016-06-30T08:59:01Z</time>
      </trkpt>
      <trkpt lat="42.42338" lon="2.22013">
        <ele>2775.94</ele>
        <time>2016-06-30T08:59:26Z</time>
      </trkpt>
      <trkpt lat="42.42337" lon="2.22012">
        <ele>2776.91</ele>
        <time>2016-06-30T08:59:42Z</time>
      </trkpt>
      <trkpt lat="42.42335" lon="2.2201">
        <ele>2778.35</ele>
        <time>2016-06-30T08:59:53Z</time>
      </trkpt>
      <trkpt lat="42.42329" lon="2.22007">
        <ele>2779.79</ele>
        <time>2016-06-30T09:00:06Z</time>
      </trkpt>
      <trkpt lat="42.42331" lon="2.22004">
        <ele>2781.71</ele>
        <time>2016-06-30T09:00:16Z</time>
      </trkpt>
      <trkpt lat="42.42331" lon="2.22003">
        <ele>2782.67</ele>
        <time>2016-06-30T09:00:25Z</time>
      </trkpt>
      <trkpt lat="42.4233" lon="2.22001">
        <ele>2784.12</ele>
        <time>2016-06-30T09:00:36Z</time>
      </trkpt>
      <trkpt lat="42.42329" lon="2.22">
        <ele>2786.52</ele>
        <time>2016-06-30T09:00:51Z</time>
      </trkpt>
      <trkpt lat="42.42324" lon="2.21996">
        <ele>2788.44</ele>
        <time>2016-06-30T09:01:04Z</time>
      </trkpt>
      <trkpt lat="42.42322" lon="2.21992">
        <ele>2790.36</ele>
        <time>2016-06-30T09:01:15Z</time>
      </trkpt>
      <trkpt lat="42.4232" lon="2.2199">
        <ele>2792.29</ele>
        <time>2016-06-30T09:01:25Z</time>
      </trkpt>
      <trkpt lat="42.42318" lon="2.21988">
        <ele>2794.21</ele>
        <time>2016-06-30T09:01:39Z</time>
      </trkpt>
      <trkpt lat="42.42317" lon="2.21987">
        <ele>2795.17</ele>
        <time>2016-06-30T09:01:43Z</time>
      </trkpt>
      <trkpt lat="42.42314" lon="2.21983">
        <ele>2796.61</ele>
        <time>2016-06-30T09:01:51Z</time>
      </trkpt>
      <trkpt lat="42.42312" lon="2.21979">
        <ele>2798.54</ele>
        <time>2016-06-30T09:01:59Z</time>
      </trkpt>
      <trkpt lat="42.42311" lon="2.21975">
        <ele>2800.46</ele>
        <time>2016-06-30T09:02:10Z</time>
      </trkpt>
      <trkpt lat="42.42311" lon="2.21971">
        <ele>2801.9</ele>
        <time>2016-06-30T09:02:17Z</time>
      </trkpt>
      <trkpt lat="42.4231" lon="2.21965">
        <ele>2802.38</ele>
        <time>2016-06-30T09:02:23Z</time>
      </trkpt>
      <trkpt lat="42.4231" lon="2.21962">
        <ele>2803.34</ele>
        <time>2016-06-30T09:02:25Z</time>
      </trkpt>
      <trkpt lat="42.42306" lon="2.2195">
        <ele>2803.82</ele>
        <time>2016-06-30T09:02:37Z</time>
      </trkpt>
      <trkpt lat="42.42302" lon="2.21943">
        <ele>2805.26</ele>
        <time>2016-06-30T09:02:49Z</time>
      </trkpt>
      <trkpt lat="42.42302" lon="2.21942">
        <ele>2808.15</ele>
        <time>2016-06-30T09:02:55Z</time>
      </trkpt>
      <trkpt lat="42.42298" lon="2.2193">
        <ele>2810.07</ele>
        <time>2016-06-30T09:03:08Z</time>
      </trkpt>
      <trkpt lat="42.42297" lon="2.21927">
        <ele>2808.63</ele>
        <time>2016-06-30T09:03:12Z</time>
      </trkpt>
      <trkpt lat="42.42293" lon="2.21924">
        <ele>2806.71</ele>
        <time>2016-06-30T09:03:23Z</time>
      </trkpt>
      <trkpt lat="42.42292" lon="2.21921">
        <ele>2804.78</ele>
        <time>2016-06-30T09:03:35Z</time>
      </trkpt>
      <trkpt lat="42.42291" lon="2.2192">
        <ele>2804.78</ele>
        <time>2016-06-30T09:03:47Z</time>
      </trkpt>
      <trkpt lat="42.42292" lon="2.21919">
        <ele>2804.78</ele>
        <time>2016-06-30T09:04:08Z</time>
      </trkpt>
      <trkpt lat="42.42292" lon="2.21917">
        <ele>2803.82</ele>
        <time>2016-06-30T09:04:21Z</time>
      </trkpt>
      <trkpt lat="42.42292" lon="2.21914">
        <ele>2803.82</ele>
        <time>2016-06-30T09:04:34Z</time>
      </trkpt>
      <trkpt lat="42.42293" lon="2.21911">
        <ele>2803.34</ele>
        <time>2016-06-30T09:04:47Z</time>
      </trkpt>
      <trkpt lat="42.42294" lon="2.21909">
        <ele>2802.38</ele>
        <time>2016-06-30T09:04:57Z</time>
      </trkpt>
      <trkpt lat="42.42297" lon="2.21903">
        <ele>2802.38</ele>
        <time>2016-06-30T09:05:06Z</time>
      </trkpt>
      <trkpt lat="42.42298" lon="2.21896">
        <ele>2801.42</ele>
        <time>2016-06-30T09:05:15Z</time>
      </trkpt>
      <trkpt lat="42.42298" lon="2.21893">
        <ele>2798.54</ele>
        <time>2016-06-30T09:05:22Z</time>
      </trkpt>
      <trkpt lat="42.42297" lon="2.21892">
        <ele>2797.09</ele>
        <time>2016-06-30T09:05:24Z</time>
      </trkpt>
      <trkpt lat="42.42295" lon="2.21897">
        <ele>2794.69</ele>
        <time>2016-06-30T09:05:30Z</time>
      </trkpt>
      <trkpt lat="42.42292" lon="2.21893">
        <ele>2794.69</ele>
        <time>2016-06-30T09:05:41Z</time>
      </trkpt>
      <trkpt lat="42.4229" lon="2.21888">
        <ele>2790.84</ele>
        <time>2016-06-30T09:05:52Z</time>
      </trkpt>
      <trkpt lat="42.42288" lon="2.21887">
        <ele>2788.92</ele>
        <time>2016-06-30T09:06:02Z</time>
      </trkpt>
      <trkpt lat="42.42287" lon="2.21885">
        <ele>2788.92</ele>
        <time>2016-06-30T09:06:05Z</time>
      </trkpt>
      <trkpt lat="42.42285" lon="2.21882">
        <ele>2788.92</ele>
        <time>2016-06-30T09:06:16Z</time>
      </trkpt>
      <trkpt lat="42.42284" lon="2.21877">
        <ele>2787</ele>
        <time>2016-06-30T09:06:27Z</time>
      </trkpt>
      <trkpt lat="42.42284" lon="2.21876">
        <ele>2786.04</ele>
        <time>2016-06-30T09:06:28Z</time>
      </trkpt>
      <trkpt lat="42.42285" lon="2.21869">
        <ele>2782.67</ele>
        <time>2016-06-30T09:06:33Z</time>
      </trkpt>
      <trkpt lat="42.42284" lon="2.21864">
        <ele>2779.31</ele>
        <time>2016-06-30T09:06:37Z</time>
      </trkpt>
      <trkpt lat="42.42282" lon="2.21859">
        <ele>2777.39</ele>
        <time>2016-06-30T09:06:41Z</time>
      </trkpt>
      <trkpt lat="42.42282" lon="2.21851">
        <ele>2779.31</ele>
        <time>2016-06-30T09:06:54Z</time>
      </trkpt>
      <trkpt lat="42.42278" lon="2.21844">
        <ele>2775.46</ele>
        <time>2016-06-30T09:07:01Z</time>
      </trkpt>
      <trkpt lat="42.42277" lon="2.21838">
        <ele>2771.62</ele>
        <time>2016-06-30T09:07:07Z</time>
      </trkpt>
      <trkpt lat="42.42277" lon="2.21835">
        <ele>2771.62</ele>
        <time>2016-06-30T09:07:20Z</time>
      </trkpt>
      <trkpt lat="42.42277" lon="2.21833">
        <ele>2773.06</ele>
        <time>2016-06-30T09:07:32Z</time>
      </trkpt>
      <trkpt lat="42.42276" lon="2.21829">
        <ele>2771.14</ele>
        <time>2016-06-30T09:07:38Z</time>
      </trkpt>
      <trkpt lat="42.42272" lon="2.21819">
        <ele>2769.7</ele>
        <time>2016-06-30T09:07:49Z</time>
      </trkpt>
      <trkpt lat="42.42272" lon="2.21812">
        <ele>2766.81</ele>
        <time>2016-06-30T09:08:03Z</time>
      </trkpt>
      <trkpt lat="42.42272" lon="2.21806">
        <ele>2765.85</ele>
        <time>2016-06-30T09:08:13Z</time>
      </trkpt>
      <trkpt lat="42.4227" lon="2.21802">
        <ele>2762.49</ele>
        <time>2016-06-30T09:08:20Z</time>
      </trkpt>
      <trkpt lat="42.4227" lon="2.21796">
        <ele>2759.12</ele>
        <time>2016-06-30T09:08:25Z</time>
      </trkpt>
      <trkpt lat="42.42268" lon="2.21785">
        <ele>2757.68</ele>
        <time>2016-06-30T09:08:37Z</time>
      </trkpt>
      <trkpt lat="42.42267" lon="2.21781">
        <ele>2757.2</ele>
        <time>2016-06-30T09:08:41Z</time>
      </trkpt>
      <trkpt lat="42.42264" lon="2.21776">
        <ele>2752.87</ele>
        <time>2016-06-30T09:08:49Z</time>
      </trkpt>
      <trkpt lat="42.42264" lon="2.21773">
        <ele>2749.51</ele>
        <time>2016-06-30T09:08:53Z</time>
      </trkpt>
      <trkpt lat="42.42263" lon="2.21764">
        <ele>2748.07</ele>
        <time>2016-06-30T09:09:04Z</time>
      </trkpt>
      <trkpt lat="42.42263" lon="2.21754">
        <ele>2747.1</ele>
        <time>2016-06-30T09:09:16Z</time>
      </trkpt>
      <trkpt lat="42.42261" lon="2.21751">
        <ele>2746.62</ele>
        <time>2016-06-30T09:09:19Z</time>
      </trkpt>
      <trkpt lat="42.42265" lon="2.21744">
        <ele>2746.14</ele>
        <time>2016-06-30T09:09:25Z</time>
      </trkpt>
      <trkpt lat="42.42265" lon="2.21741">
        <ele>2745.66</ele>
        <time>2016-06-30T09:09:27Z</time>
      </trkpt>
      <trkpt lat="42.42266" lon="2.21739">
        <ele>2745.66</ele>
        <time>2016-06-30T09:09:29Z</time>
      </trkpt>
      <trkpt lat="42.42267" lon="2.21729">
        <ele>2745.66</ele>
        <time>2016-06-30T09:09:39Z</time>
      </trkpt>
      <trkpt lat="42.42268" lon="2.21721">
        <ele>2745.66</ele>
        <time>2016-06-30T09:09:49Z</time>
      </trkpt>
      <trkpt lat="42.4227" lon="2.21711">
        <ele>2748.07</ele>
        <time>2016-06-30T09:10:01Z</time>
      </trkpt>
      <trkpt lat="42.4227" lon="2.2171">
        <ele>2749.03</ele>
        <time>2016-06-30T09:10:11Z</time>
      </trkpt>
      <trkpt lat="42.42271" lon="2.21708">
        <ele>2750.47</ele>
        <time>2016-06-30T09:10:31Z</time>
      </trkpt>
      <trkpt lat="42.42272" lon="2.21695">
        <ele>2751.91</ele>
        <time>2016-06-30T09:10:45Z</time>
      </trkpt>
      <trkpt lat="42.42275" lon="2.21692">
        <ele>2753.83</ele>
        <time>2016-06-30T09:10:56Z</time>
      </trkpt>
      <trkpt lat="42.42277" lon="2.2169">
        <ele>2757.2</ele>
        <time>2016-06-30T09:11:05Z</time>
      </trkpt>
      <trkpt lat="42.42278" lon="2.21689">
        <ele>2760.56</ele>
        <time>2016-06-30T09:11:10Z</time>
      </trkpt>
      <trkpt lat="42.42278" lon="2.21687">
        <ele>2761.04</ele>
        <time>2016-06-30T09:11:23Z</time>
      </trkpt>
      <trkpt lat="42.42279" lon="2.21681">
        <ele>2761.52</ele>
        <time>2016-06-30T09:11:42Z</time>
      </trkpt>
      <trkpt lat="42.42281" lon="2.21676">
        <ele>2762</ele>
        <time>2016-06-30T09:11:56Z</time>
      </trkpt>
      <trkpt lat="42.42282" lon="2.21668">
        <ele>2763.93</ele>
        <time>2016-06-30T09:12:07Z</time>
      </trkpt>
      <trkpt lat="42.42284" lon="2.21661">
        <ele>2764.89</ele>
        <time>2016-06-30T09:12:18Z</time>
      </trkpt>
      <trkpt lat="42.42284" lon="2.2166">
        <ele>2765.85</ele>
        <time>2016-06-30T09:12:23Z</time>
      </trkpt>
      <trkpt lat="42.42286" lon="2.21655">
        <ele>2767.77</ele>
        <time>2016-06-30T09:12:34Z</time>
      </trkpt>
      <trkpt lat="42.42286" lon="2.21653">
        <ele>2768.25</ele>
        <time>2016-06-30T09:12:43Z</time>
      </trkpt>
      <trkpt lat="42.42288" lon="2.21645">
        <ele>2769.21</ele>
        <time>2016-06-30T09:12:55Z</time>
      </trkpt>
      <trkpt lat="42.4229" lon="2.21639">
        <ele>2771.14</ele>
        <time>2016-06-30T09:13:06Z</time>
      </trkpt>
      <trkpt lat="42.4229" lon="2.21636">
        <ele>2772.1</ele>
        <time>2016-06-30T09:13:18Z</time>
      </trkpt>
      <trkpt lat="42.4229" lon="2.21635">
        <ele>2772.58</ele>
        <time>2016-06-30T09:13:30Z</time>
      </trkpt>
      <trkpt lat="42.42292" lon="2.21632">
        <ele>2773.54</ele>
        <time>2016-06-30T09:13:41Z</time>
      </trkpt>
      <trkpt lat="42.42294" lon="2.21629">
        <ele>2775.46</ele>
        <time>2016-06-30T09:13:53Z</time>
      </trkpt>
      <trkpt lat="42.42294" lon="2.21627">
        <ele>2776.91</ele>
        <time>2016-06-30T09:14:06Z</time>
      </trkpt>
      <trkpt lat="42.42297" lon="2.21623">
        <ele>2779.31</ele>
        <time>2016-06-30T09:14:17Z</time>
      </trkpt>
      <trkpt lat="42.42298" lon="2.2162">
        <ele>2781.23</ele>
        <time>2016-06-30T09:14:34Z</time>
      </trkpt>
      <trkpt lat="42.42298" lon="2.21619">
        <ele>2782.19</ele>
        <time>2016-06-30T09:14:48Z</time>
      </trkpt>
      <trkpt lat="42.42299" lon="2.21618">
        <ele>2782.67</ele>
        <time>2016-06-30T09:15:12Z</time>
      </trkpt>
      <trkpt lat="42.42298" lon="2.21617">
        <ele>2783.15</ele>
        <time>2016-06-30T09:15:34Z</time>
      </trkpt>
      <trkpt lat="42.42299" lon="2.21616">
        <ele>2783.63</ele>
        <time>2016-06-30T09:15:47Z</time>
      </trkpt>
      <trkpt lat="42.423" lon="2.21611">
        <ele>2785.08</ele>
        <time>2016-06-30T09:15:59Z</time>
      </trkpt>
      <trkpt lat="42.423" lon="2.21609">
        <ele>2786.52</ele>
        <time>2016-06-30T09:16:13Z</time>
      </trkpt>
      <trkpt lat="42.42301" lon="2.21608">
        <ele>2787.96</ele>
        <time>2016-06-30T09:16:26Z</time>
      </trkpt>
      <trkpt lat="42.42301" lon="2.21607">
        <ele>2788.92</ele>
        <time>2016-06-30T09:16:42Z</time>
      </trkpt>
      <trkpt lat="42.42301" lon="2.21604">
        <ele>2789.88</ele>
        <time>2016-06-30T09:16:58Z</time>
      </trkpt>
      <trkpt lat="42.42302" lon="2.216">
        <ele>2789.88</ele>
        <time>2016-06-30T09:17:07Z</time>
      </trkpt>
      <trkpt lat="42.42304" lon="2.21589">
        <ele>2789.88</ele>
        <time>2016-06-30T09:17:18Z</time>
      </trkpt>
      <trkpt lat="42.42306" lon="2.21579">
        <ele>2790.84</ele>
        <time>2016-06-30T09:17:30Z</time>
      </trkpt>
      <trkpt lat="42.42306" lon="2.21574">
        <ele>2792.29</ele>
        <time>2016-06-30T09:17:43Z</time>
      </trkpt>
      <trkpt lat="42.42309" lon="2.21565">
        <ele>2794.21</ele>
        <time>2016-06-30T09:17:56Z</time>
      </trkpt>
      <trkpt lat="42.42312" lon="2.21556">
        <ele>2796.61</ele>
        <time>2016-06-30T09:18:08Z</time>
      </trkpt>
      <trkpt lat="42.42313" lon="2.21547">
        <ele>2798.05</ele>
        <time>2016-06-30T09:18:21Z</time>
      </trkpt>
      <trkpt lat="42.42313" lon="2.21547">
        <ele>2799.98</ele>
        <time>2016-06-30T09:18:43Z</time>
      </trkpt>
      <trkpt lat="42.42313" lon="2.21546">
        <ele>2799.98</ele>
        <time>2016-06-30T09:19:01Z</time>
      </trkpt>
      <trkpt lat="42.42315" lon="2.21538">
        <ele>2801.42</ele>
        <time>2016-06-30T09:19:12Z</time>
      </trkpt>
      <trkpt lat="42.42317" lon="2.21527">
        <ele>2803.34</ele>
        <time>2016-06-30T09:19:23Z</time>
      </trkpt>
      <trkpt lat="42.4232" lon="2.21519">
        <ele>2804.78</ele>
        <time>2016-06-30T09:19:34Z</time>
      </trkpt>
      <trkpt lat="42.4232" lon="2.21519">
        <ele>2804.78</ele>
        <time>2016-06-30T09:19:35Z</time>
      </trkpt>
      <trkpt lat="42.42323" lon="2.21511">
        <ele>2807.67</ele>
        <time>2016-06-30T09:19:47Z</time>
      </trkpt>
      <trkpt lat="42.42326" lon="2.21507">
        <ele>2809.59</ele>
        <time>2016-06-30T09:19:59Z</time>
      </trkpt>
      <trkpt lat="42.42326" lon="2.21505">
        <ele>2811.03</ele>
        <time>2016-06-30T09:20:12Z</time>
      </trkpt>
      <trkpt lat="42.42327" lon="2.21503">
        <ele>2811.51</ele>
        <time>2016-06-30T09:20:22Z</time>
      </trkpt>
      <trkpt lat="42.4233" lon="2.21496">
        <ele>2813.92</ele>
        <time>2016-06-30T09:20:34Z</time>
      </trkpt>
      <trkpt lat="42.42333" lon="2.2149">
        <ele>2815.36</ele>
        <time>2016-06-30T09:20:44Z</time>
      </trkpt>
      <trkpt lat="42.42334" lon="2.2149">
        <ele>2817.28</ele>
        <time>2016-06-30T09:21:02Z</time>
      </trkpt>
      <trkpt lat="42.42335" lon="2.21489">
        <ele>2817.76</ele>
        <time>2016-06-30T09:21:25Z</time>
      </trkpt>
      <trkpt lat="42.42337" lon="2.21484">
        <ele>2819.68</ele>
        <time>2016-06-30T09:21:36Z</time>
      </trkpt>
      <trkpt lat="42.42338" lon="2.21481">
        <ele>2820.16</ele>
        <time>2016-06-30T09:21:39Z</time>
      </trkpt>
      <trkpt lat="42.42344" lon="2.21469">
        <ele>2823.53</ele>
        <time>2016-06-30T09:21:52Z</time>
      </trkpt>
      <trkpt lat="42.42346" lon="2.21463">
        <ele>2824.97</ele>
        <time>2016-06-30T09:22:03Z</time>
      </trkpt>
      <trkpt lat="42.42351" lon="2.21456">
        <ele>2827.37</ele>
        <time>2016-06-30T09:22:14Z</time>
      </trkpt>
      <trkpt lat="42.4235" lon="2.21449">
        <ele>2829.3</ele>
        <time>2016-06-30T09:22:26Z</time>
      </trkpt>
      <trkpt lat="42.42352" lon="2.2145">
        <ele>2829.78</ele>
        <time>2016-06-30T09:22:42Z</time>
      </trkpt>
      <trkpt lat="42.42353" lon="2.21448">
        <ele>2830.26</ele>
        <time>2016-06-30T09:23:09Z</time>
      </trkpt>
      <trkpt lat="42.42356" lon="2.21438">
        <ele>2831.22</ele>
        <time>2016-06-30T09:23:19Z</time>
      </trkpt>
      <trkpt lat="42.42358" lon="2.2143">
        <ele>2831.7</ele>
        <time>2016-06-30T09:23:29Z</time>
      </trkpt>
      <trkpt lat="42.42363" lon="2.21427">
        <ele>2833.14</ele>
        <time>2016-06-30T09:23:39Z</time>
      </trkpt>
      <trkpt lat="42.42365" lon="2.21422">
        <ele>2834.58</ele>
        <time>2016-06-30T09:23:50Z</time>
      </trkpt>
      <trkpt lat="42.42367" lon="2.2142">
        <ele>2836.51</ele>
        <time>2016-06-30T09:24:03Z</time>
      </trkpt>
      <trkpt lat="42.4237" lon="2.21415">
        <ele>2836.99</ele>
        <time>2016-06-30T09:24:20Z</time>
      </trkpt>
      <trkpt lat="42.4237" lon="2.21413">
        <ele>2837.95</ele>
        <time>2016-06-30T09:24:23Z</time>
      </trkpt>
      <trkpt lat="42.42374" lon="2.21405">
        <ele>2839.39</ele>
        <time>2016-06-30T09:24:35Z</time>
      </trkpt>
      <trkpt lat="42.42377" lon="2.21401">
        <ele>2843.24</ele>
        <time>2016-06-30T09:24:42Z</time>
      </trkpt>
      <trkpt lat="42.42379" lon="2.21395">
        <ele>2844.2</ele>
        <time>2016-06-30T09:24:53Z</time>
      </trkpt>
      <trkpt lat="42.42381" lon="2.2139">
        <ele>2844.68</ele>
        <time>2016-06-30T09:25:05Z</time>
      </trkpt>
      <trkpt lat="42.42383" lon="2.21384">
        <ele>2846.6</ele>
        <time>2016-06-30T09:25:19Z</time>
      </trkpt>
      <trkpt lat="42.42385" lon="2.2138">
        <ele>2847.56</ele>
        <time>2016-06-30T09:25:30Z</time>
      </trkpt>
      <trkpt lat="42.42388" lon="2.21375">
        <ele>2849</ele>
        <time>2016-06-30T09:25:40Z</time>
      </trkpt>
      <trkpt lat="42.42391" lon="2.21372">
        <ele>2851.41</ele>
        <time>2016-06-30T09:25:52Z</time>
      </trkpt>
      <trkpt lat="42.42392" lon="2.21373">
        <ele>2852.37</ele>
        <time>2016-06-30T09:26:08Z</time>
      </trkpt>
      <trkpt lat="42.42395" lon="2.2138">
        <ele>2853.81</ele>
        <time>2016-06-30T09:26:20Z</time>
      </trkpt>
      <trkpt lat="42.42394" lon="2.21381">
        <ele>2854.29</ele>
        <time>2016-06-30T09:26:34Z</time>
      </trkpt>
      <trkpt lat="42.42396" lon="2.21377">
        <ele>2854.29</ele>
        <time>2016-06-30T09:26:49Z</time>
      </trkpt>
      <trkpt lat="42.42396" lon="2.21375">
        <ele>2854.77</ele>
        <time>2016-06-30T09:27:00Z</time>
      </trkpt>
      <trkpt lat="42.42396" lon="2.21375">
        <ele>2854.77</ele>
        <time>2016-06-30T09:27:30Z</time>
      </trkpt>
      <trkpt lat="42.42396" lon="2.21377">
        <ele>2854.77</ele>
        <time>2016-06-30T09:27:43Z</time>
      </trkpt>
      <trkpt lat="42.42395" lon="2.21378">
        <ele>2855.25</ele>
        <time>2016-06-30T09:28:08Z</time>
      </trkpt>
      <trkpt lat="42.42395" lon="2.2138">
        <ele>2855.73</ele>
        <time>2016-06-30T09:28:25Z</time>
      </trkpt>
      <trkpt lat="42.42394" lon="2.21379">
        <ele>2855.73</ele>
        <time>2016-06-30T09:28:35Z</time>
      </trkpt>
      <trkpt lat="42.42394" lon="2.21381">
        <ele>2856.21</ele>
        <time>2016-06-30T09:28:49Z</time>
      </trkpt>
      <trkpt lat="42.42391" lon="2.21389">
        <ele>2856.21</ele>
        <time>2016-06-30T09:29:01Z</time>
      </trkpt>
      <trkpt lat="42.42391" lon="2.2139">
        <ele>2855.25</ele>
        <time>2016-06-30T09:29:04Z</time>
      </trkpt>
      <trkpt lat="42.42387" lon="2.21395">
        <ele>2853.81</ele>
        <time>2016-06-30T09:29:15Z</time>
      </trkpt>
      <trkpt lat="42.42385" lon="2.21401">
        <ele>2852.85</ele>
        <time>2016-06-30T09:29:24Z</time>
      </trkpt>
      <trkpt lat="42.4238" lon="2.21404">
        <ele>2850.45</ele>
        <time>2016-06-30T09:29:35Z</time>
      </trkpt>
      <trkpt lat="42.42379" lon="2.21411">
        <ele>2848.52</ele>
        <time>2016-06-30T09:29:46Z</time>
      </trkpt>
      <trkpt lat="42.42376" lon="2.21411">
        <ele>2845.16</ele>
        <time>2016-06-30T09:29:50Z</time>
      </trkpt>
      <trkpt lat="42.4237" lon="2.21418">
        <ele>2842.28</ele>
        <time>2016-06-30T09:30:02Z</time>
      </trkpt>
      <trkpt lat="42.42369" lon="2.2142">
        <ele>2842.28</ele>
        <time>2016-06-30T09:30:08Z</time>
      </trkpt>
      <trkpt lat="42.42365" lon="2.21426">
        <ele>2841.31</ele>
        <time>2016-06-30T09:30:19Z</time>
      </trkpt>
      <trkpt lat="42.42364" lon="2.21427">
        <ele>2840.83</ele>
        <time>2016-06-30T09:30:21Z</time>
      </trkpt>
      <trkpt lat="42.42361" lon="2.21434">
        <ele>2839.39</ele>
        <time>2016-06-30T09:30:26Z</time>
      </trkpt>
      <trkpt lat="42.42359" lon="2.2144">
        <ele>2838.91</ele>
        <time>2016-06-30T09:30:34Z</time>
      </trkpt>
      <trkpt lat="42.42351" lon="2.21448">
        <ele>2834.58</ele>
        <time>2016-06-30T09:30:42Z</time>
      </trkpt>
      <trkpt lat="42.42348" lon="2.21451">
        <ele>2834.1</ele>
        <time>2016-06-30T09:30:45Z</time>
      </trkpt>
      <trkpt lat="42.42332" lon="2.21458">
        <ele>2833.62</ele>
        <time>2016-06-30T09:30:59Z</time>
      </trkpt>
      <trkpt lat="42.42323" lon="2.21462">
        <ele>2832.18</ele>
        <time>2016-06-30T09:31:07Z</time>
      </trkpt>
      <trkpt lat="42.4231" lon="2.2146">
        <ele>2832.18</ele>
        <time>2016-06-30T09:31:20Z</time>
      </trkpt>
      <trkpt lat="42.42309" lon="2.2146">
        <ele>2831.22</ele>
        <time>2016-06-30T09:31:21Z</time>
      </trkpt>
      <trkpt lat="42.42305" lon="2.21455">
        <ele>2827.85</ele>
        <time>2016-06-30T09:31:27Z</time>
      </trkpt>
      <trkpt lat="42.42304" lon="2.21454">
        <ele>2826.89</ele>
        <time>2016-06-30T09:31:28Z</time>
      </trkpt>
      <trkpt lat="42.42297" lon="2.21449">
        <ele>2824.49</ele>
        <time>2016-06-30T09:31:35Z</time>
      </trkpt>
      <trkpt lat="42.42288" lon="2.21442">
        <ele>2824.49</ele>
        <time>2016-06-30T09:31:44Z</time>
      </trkpt>
      <trkpt lat="42.4228" lon="2.21438">
        <ele>2824.49</ele>
        <time>2016-06-30T09:31:50Z</time>
      </trkpt>
      <trkpt lat="42.42273" lon="2.21435">
        <ele>2824.49</ele>
        <time>2016-06-30T09:31:56Z</time>
      </trkpt>
      <trkpt lat="42.4226" lon="2.21428">
        <ele>2824.01</ele>
        <time>2016-06-30T09:32:08Z</time>
      </trkpt>
      <trkpt lat="42.42253" lon="2.21422">
        <ele>2823.05</ele>
        <time>2016-06-30T09:32:16Z</time>
      </trkpt>
      <trkpt lat="42.42249" lon="2.21416">
        <ele>2822.09</ele>
        <time>2016-06-30T09:32:21Z</time>
      </trkpt>
      <trkpt lat="42.42245" lon="2.21412">
        <ele>2818.24</ele>
        <time>2016-06-30T09:32:29Z</time>
      </trkpt>
      <trkpt lat="42.42239" lon="2.21406">
        <ele>2814.4</ele>
        <time>2016-06-30T09:32:35Z</time>
      </trkpt>
      <trkpt lat="42.4223" lon="2.21397">
        <ele>2812.96</ele>
        <time>2016-06-30T09:32:48Z</time>
      </trkpt>
      <trkpt lat="42.42227" lon="2.21393">
        <ele>2812.47</ele>
        <time>2016-06-30T09:32:52Z</time>
      </trkpt>
      <trkpt lat="42.42214" lon="2.21383">
        <ele>2811.03</ele>
        <time>2016-06-30T09:33:10Z</time>
      </trkpt>
      <trkpt lat="42.42213" lon="2.21381">
        <ele>2810.07</ele>
        <time>2016-06-30T09:33:12Z</time>
      </trkpt>
      <trkpt lat="42.42211" lon="2.21378">
        <ele>2810.55</ele>
        <time>2016-06-30T09:33:15Z</time>
      </trkpt>
      <trkpt lat="42.42202" lon="2.2137">
        <ele>2807.19</ele>
        <time>2016-06-30T09:33:24Z</time>
      </trkpt>
      <trkpt lat="42.42197" lon="2.21363">
        <ele>2802.86</ele>
        <time>2016-06-30T09:33:32Z</time>
      </trkpt>
      <trkpt lat="42.42195" lon="2.2136">
        <ele>2803.34</ele>
        <time>2016-06-30T09:33:37Z</time>
      </trkpt>
      <trkpt lat="42.42189" lon="2.21349">
        <ele>2801.9</ele>
        <time>2016-06-30T09:33:49Z</time>
      </trkpt>
      <trkpt lat="42.42184" lon="2.21341">
        <ele>2798.54</ele>
        <time>2016-06-30T09:33:56Z</time>
      </trkpt>
      <trkpt lat="42.42182" lon="2.21337">
        <ele>2795.17</ele>
        <time>2016-06-30T09:33:59Z</time>
      </trkpt>
      <trkpt lat="42.42177" lon="2.21335">
        <ele>2793.25</ele>
        <time>2016-06-30T09:34:03Z</time>
      </trkpt>
      <trkpt lat="42.4217" lon="2.21326">
        <ele>2795.17</ele>
        <time>2016-06-30T09:34:18Z</time>
      </trkpt>
      <trkpt lat="42.42168" lon="2.21323">
        <ele>2793.73</ele>
        <time>2016-06-30T09:34:22Z</time>
      </trkpt>
      <trkpt lat="42.42166" lon="2.2132">
        <ele>2791.81</ele>
        <time>2016-06-30T09:34:25Z</time>
      </trkpt>
      <trkpt lat="42.42164" lon="2.21316">
        <ele>2788.92</ele>
        <time>2016-06-30T09:34:28Z</time>
      </trkpt>
      <trkpt lat="42.42156" lon="2.21305">
        <ele>2787</ele>
        <time>2016-06-30T09:34:41Z</time>
      </trkpt>
      <trkpt lat="42.42154" lon="2.21302">
        <ele>2788.44</ele>
        <time>2016-06-30T09:34:55Z</time>
      </trkpt>
      <trkpt lat="42.42147" lon="2.21299">
        <ele>2788.92</ele>
        <time>2016-06-30T09:35:07Z</time>
      </trkpt>
      <trkpt lat="42.42144" lon="2.21297">
        <ele>2789.4</ele>
        <time>2016-06-30T09:35:20Z</time>
      </trkpt>
      <trkpt lat="42.4214" lon="2.21293">
        <ele>2789.88</ele>
        <time>2016-06-30T09:35:32Z</time>
      </trkpt>
      <trkpt lat="42.42137" lon="2.21291">
        <ele>2790.84</ele>
        <time>2016-06-30T09:35:44Z</time>
      </trkpt>
      <trkpt lat="42.42137" lon="2.2129">
        <ele>2790.84</ele>
        <time>2016-06-30T09:35:59Z</time>
      </trkpt>
      <trkpt lat="42.42136" lon="2.21288">
        <ele>2789.4</ele>
        <time>2016-06-30T09:36:09Z</time>
      </trkpt>
      <trkpt lat="42.42136" lon="2.21285">
        <ele>2788.92</ele>
        <time>2016-06-30T09:36:25Z</time>
      </trkpt>
      <trkpt lat="42.42135" lon="2.21284">
        <ele>2788.44</ele>
        <time>2016-06-30T09:36:35Z</time>
      </trkpt>
      <trkpt lat="42.42133" lon="2.21279">
        <ele>2788.44</ele>
        <time>2016-06-30T09:36:46Z</time>
      </trkpt>
      <trkpt lat="42.42132" lon="2.21276">
        <ele>2787.48</ele>
        <time>2016-06-30T09:36:59Z</time>
      </trkpt>
      <trkpt lat="42.42131" lon="2.21274">
        <ele>2787</ele>
        <time>2016-06-30T09:37:10Z</time>
      </trkpt>
      <trkpt lat="42.42131" lon="2.21273">
        <ele>2786.52</ele>
        <time>2016-06-30T09:37:23Z</time>
      </trkpt>
      <trkpt lat="42.4213" lon="2.21271">
        <ele>2786.52</ele>
        <time>2016-06-30T09:37:35Z</time>
      </trkpt>
      <trkpt lat="42.42128" lon="2.21269">
        <ele>2785.08</ele>
        <time>2016-06-30T09:37:46Z</time>
      </trkpt>
      <trkpt lat="42.42124" lon="2.21263">
        <ele>2784.12</ele>
        <time>2016-06-30T09:37:58Z</time>
      </trkpt>
      <trkpt lat="42.42115" lon="2.21255">
        <ele>2783.15</ele>
        <time>2016-06-30T09:38:11Z</time>
      </trkpt>
      <trkpt lat="42.42109" lon="2.21252">
        <ele>2783.15</ele>
        <time>2016-06-30T09:38:24Z</time>
      </trkpt>
      <trkpt lat="42.42107" lon="2.21245">
        <ele>2784.6</ele>
        <time>2016-06-30T09:38:36Z</time>
      </trkpt>
      <trkpt lat="42.42105" lon="2.21235">
        <ele>2784.6</ele>
        <time>2016-06-30T09:38:48Z</time>
      </trkpt>
      <trkpt lat="42.42099" lon="2.21234">
        <ele>2785.08</ele>
        <time>2016-06-30T09:39:00Z</time>
      </trkpt>
      <trkpt lat="42.42095" lon="2.21233">
        <ele>2785.56</ele>
        <time>2016-06-30T09:39:10Z</time>
      </trkpt>
      <trkpt lat="42.42093" lon="2.21231">
        <ele>2786.04</ele>
        <time>2016-06-30T09:39:16Z</time>
      </trkpt>
      <trkpt lat="42.42089" lon="2.21228">
        <ele>2786.04</ele>
        <time>2016-06-30T09:39:24Z</time>
      </trkpt>
      <trkpt lat="42.42087" lon="2.21221">
        <ele>2786.52</ele>
        <time>2016-06-30T09:39:36Z</time>
      </trkpt>
      <trkpt lat="42.42087" lon="2.21218">
        <ele>2786.52</ele>
        <time>2016-06-30T09:40:00Z</time>
      </trkpt>
      <trkpt lat="42.42086" lon="2.21216">
        <ele>2785.56</ele>
        <time>2016-06-30T09:40:11Z</time>
      </trkpt>
      <trkpt lat="42.42085" lon="2.21215">
        <ele>2785.08</ele>
        <time>2016-06-30T09:40:14Z</time>
      </trkpt>
      <trkpt lat="42.42083" lon="2.21207">
        <ele>2783.63</ele>
        <time>2016-06-30T09:40:25Z</time>
      </trkpt>
      <trkpt lat="42.42082" lon="2.21191">
        <ele>2781.71</ele>
        <time>2016-06-30T09:40:37Z</time>
      </trkpt>
      <trkpt lat="42.42081" lon="2.21184">
        <ele>2779.79</ele>
        <time>2016-06-30T09:40:43Z</time>
      </trkpt>
      <trkpt lat="42.42081" lon="2.21175">
        <ele>2775.46</ele>
        <time>2016-06-30T09:40:49Z</time>
      </trkpt>
      <trkpt lat="42.42081" lon="2.21174">
        <ele>2774.98</ele>
        <time>2016-06-30T09:40:50Z</time>
      </trkpt>
      <trkpt lat="42.42068" lon="2.21162">
        <ele>2772.58</ele>
        <time>2016-06-30T09:41:03Z</time>
      </trkpt>
      <trkpt lat="42.42066" lon="2.2116">
        <ele>2772.58</ele>
        <time>2016-06-30T09:41:07Z</time>
      </trkpt>
      <trkpt lat="42.42062" lon="2.21159">
        <ele>2771.62</ele>
        <time>2016-06-30T09:41:13Z</time>
      </trkpt>
      <trkpt lat="42.42061" lon="2.21147">
        <ele>2768.25</ele>
        <time>2016-06-30T09:41:21Z</time>
      </trkpt>
      <trkpt lat="42.42061" lon="2.21145">
        <ele>2767.29</ele>
        <time>2016-06-30T09:41:23Z</time>
      </trkpt>
      <trkpt lat="42.42058" lon="2.21136">
        <ele>2765.85</ele>
        <time>2016-06-30T09:41:33Z</time>
      </trkpt>
      <trkpt lat="42.42051" lon="2.21139">
        <ele>2765.37</ele>
        <time>2016-06-30T09:41:40Z</time>
      </trkpt>
      <trkpt lat="42.42048" lon="2.21139">
        <ele>2764.89</ele>
        <time>2016-06-30T09:41:43Z</time>
      </trkpt>
      <trkpt lat="42.42044" lon="2.21129">
        <ele>2762.49</ele>
        <time>2016-06-30T09:41:52Z</time>
      </trkpt>
      <trkpt lat="42.42041" lon="2.21124">
        <ele>2758.64</ele>
        <time>2016-06-30T09:41:57Z</time>
      </trkpt>
      <trkpt lat="42.42035" lon="2.21116">
        <ele>2757.2</ele>
        <time>2016-06-30T09:42:05Z</time>
      </trkpt>
      <trkpt lat="42.42031" lon="2.21114">
        <ele>2756.24</ele>
        <time>2016-06-30T09:42:10Z</time>
      </trkpt>
      <trkpt lat="42.42027" lon="2.21092">
        <ele>2753.83</ele>
        <time>2016-06-30T09:42:25Z</time>
      </trkpt>
      <trkpt lat="42.42026" lon="2.21084">
        <ele>2752.39</ele>
        <time>2016-06-30T09:42:31Z</time>
      </trkpt>
      <trkpt lat="42.42023" lon="2.21078">
        <ele>2751.91</ele>
        <time>2016-06-30T09:42:37Z</time>
      </trkpt>
      <trkpt lat="42.42019" lon="2.21071">
        <ele>2749.99</ele>
        <time>2016-06-30T09:42:46Z</time>
      </trkpt>
      <trkpt lat="42.42013" lon="2.21067">
        <ele>2746.62</ele>
        <time>2016-06-30T09:42:53Z</time>
      </trkpt>
      <trkpt lat="42.42012" lon="2.21064">
        <ele>2743.74</ele>
        <time>2016-06-30T09:42:56Z</time>
      </trkpt>
      <trkpt lat="42.42013" lon="2.21064">
        <ele>2740.38</ele>
        <time>2016-06-30T09:43:02Z</time>
      </trkpt>
      <trkpt lat="42.42012" lon="2.21059">
        <ele>2741.82</ele>
        <time>2016-06-30T09:43:17Z</time>
      </trkpt>
      <trkpt lat="42.42012" lon="2.21057">
        <ele>2741.82</ele>
        <time>2016-06-30T09:43:19Z</time>
      </trkpt>
      <trkpt lat="42.42011" lon="2.21055">
        <ele>2741.82</ele>
        <time>2016-06-30T09:43:21Z</time>
      </trkpt>
      <trkpt lat="42.42008" lon="2.21055">
        <ele>2741.82</ele>
        <time>2016-06-30T09:43:24Z</time>
      </trkpt>
      <trkpt lat="42.42004" lon="2.21046">
        <ele>2739.41</ele>
        <time>2016-06-30T09:43:35Z</time>
      </trkpt>
      <trkpt lat="42.42004" lon="2.21037">
        <ele>2735.09</ele>
        <time>2016-06-30T09:43:41Z</time>
      </trkpt>
      <trkpt lat="42.41999" lon="2.21027">
        <ele>2733.65</ele>
        <time>2016-06-30T09:43:52Z</time>
      </trkpt>
      <trkpt lat="42.41999" lon="2.21027">
        <ele>2733.65</ele>
        <time>2016-06-30T09:43:53Z</time>
      </trkpt>
      <trkpt lat="42.41996" lon="2.21021">
        <ele>2733.17</ele>
        <time>2016-06-30T09:43:58Z</time>
      </trkpt>
      <trkpt lat="42.41994" lon="2.21015">
        <ele>2732.68</ele>
        <time>2016-06-30T09:44:02Z</time>
      </trkpt>
      <trkpt lat="42.41988" lon="2.21003">
        <ele>2731.24</ele>
        <time>2016-06-30T09:44:13Z</time>
      </trkpt>
      <trkpt lat="42.41986" lon="2.20985">
        <ele>2730.28</ele>
        <time>2016-06-30T09:44:26Z</time>
      </trkpt>
      <trkpt lat="42.41984" lon="2.20977">
        <ele>2729.8</ele>
        <time>2016-06-30T09:44:32Z</time>
      </trkpt>
      <trkpt lat="42.41981" lon="2.20971">
        <ele>2729.32</ele>
        <time>2016-06-30T09:44:37Z</time>
      </trkpt>
      <trkpt lat="42.41979" lon="2.20965">
        <ele>2729.32</ele>
        <time>2016-06-30T09:44:41Z</time>
      </trkpt>
      <trkpt lat="42.41978" lon="2.20947">
        <ele>2729.32</ele>
        <time>2016-06-30T09:44:57Z</time>
      </trkpt>
      <trkpt lat="42.41976" lon="2.20935">
        <ele>2731.72</ele>
        <time>2016-06-30T09:45:08Z</time>
      </trkpt>
      <trkpt lat="42.41975" lon="2.20927">
        <ele>2733.17</ele>
        <time>2016-06-30T09:45:21Z</time>
      </trkpt>
      <trkpt lat="42.41974" lon="2.20926">
        <ele>2733.65</ele>
        <time>2016-06-30T09:45:38Z</time>
      </trkpt>
      <trkpt lat="42.41974" lon="2.20918">
        <ele>2735.09</ele>
        <time>2016-06-30T09:45:50Z</time>
      </trkpt>
      <trkpt lat="42.41975" lon="2.20911">
        <ele>2737.01</ele>
        <time>2016-06-30T09:46:03Z</time>
      </trkpt>
      <trkpt lat="42.41977" lon="2.20901">
        <ele>2738.93</ele>
        <time>2016-06-30T09:46:14Z</time>
      </trkpt>
      <trkpt lat="42.41976" lon="2.20897">
        <ele>2740.38</ele>
        <time>2016-06-30T09:46:27Z</time>
      </trkpt>
      <trkpt lat="42.41976" lon="2.20897">
        <ele>2741.34</ele>
        <time>2016-06-30T09:46:45Z</time>
      </trkpt>
      <trkpt lat="42.41976" lon="2.20894">
        <ele>2742.3</ele>
        <time>2016-06-30T09:46:58Z</time>
      </trkpt>
      <trkpt lat="42.41976" lon="2.20888">
        <ele>2744.22</ele>
        <time>2016-06-30T09:47:09Z</time>
      </trkpt>
      <trkpt lat="42.41976" lon="2.20882">
        <ele>2745.66</ele>
        <time>2016-06-30T09:47:21Z</time>
      </trkpt>
      <trkpt lat="42.41977" lon="2.2088">
        <ele>2746.62</ele>
        <time>2016-06-30T09:47:39Z</time>
      </trkpt>
      <trkpt lat="42.4198" lon="2.20876">
        <ele>2748.55</ele>
        <time>2016-06-30T09:47:50Z</time>
      </trkpt>
      <trkpt lat="42.41978" lon="2.20869">
        <ele>2749.99</ele>
        <time>2016-06-30T09:48:01Z</time>
      </trkpt>
      <trkpt lat="42.41977" lon="2.20868">
        <ele>2750.95</ele>
        <time>2016-06-30T09:48:17Z</time>
      </trkpt>
      <trkpt lat="42.41977" lon="2.20867">
        <ele>2751.91</ele>
        <time>2016-06-30T09:48:46Z</time>
      </trkpt>
      <trkpt lat="42.41975" lon="2.20865">
        <ele>2751.91</ele>
        <time>2016-06-30T09:49:01Z</time>
      </trkpt>
      <trkpt lat="42.41974" lon="2.20864">
        <ele>2752.39</ele>
        <time>2016-06-30T09:49:03Z</time>
      </trkpt>
      <trkpt lat="42.41978" lon="2.20859">
        <ele>2753.83</ele>
        <time>2016-06-30T09:49:14Z</time>
      </trkpt>
      <trkpt lat="42.41978" lon="2.20858">
        <ele>2753.83</ele>
        <time>2016-06-30T09:49:15Z</time>
      </trkpt>
      <trkpt lat="42.41977" lon="2.20851">
        <ele>2755.76</ele>
        <time>2016-06-30T09:49:26Z</time>
      </trkpt>
      <trkpt lat="42.41973" lon="2.20849">
        <ele>2758.16</ele>
        <time>2016-06-30T09:49:38Z</time>
      </trkpt>
      <trkpt lat="42.41973" lon="2.20848">
        <ele>2759.6</ele>
        <time>2016-06-30T09:49:51Z</time>
      </trkpt>
      <trkpt lat="42.41974" lon="2.20844">
        <ele>2761.04</ele>
        <time>2016-06-30T09:50:05Z</time>
      </trkpt>
      <trkpt lat="42.41975" lon="2.2084">
        <ele>2762</ele>
        <time>2016-06-30T09:50:16Z</time>
      </trkpt>
      <trkpt lat="42.41976" lon="2.2084">
        <ele>2762.49</ele>
        <time>2016-06-30T09:50:18Z</time>
      </trkpt>
      <trkpt lat="42.41973" lon="2.20834">
        <ele>2763.93</ele>
        <time>2016-06-30T09:50:28Z</time>
      </trkpt>
      <trkpt lat="42.41971" lon="2.20819">
        <ele>2765.37</ele>
        <time>2016-06-30T09:50:42Z</time>
      </trkpt>
      <trkpt lat="42.41968" lon="2.2081">
        <ele>2766.33</ele>
        <time>2016-06-30T09:50:54Z</time>
      </trkpt>
      <trkpt lat="42.41967" lon="2.20809">
        <ele>2766.33</ele>
        <time>2016-06-30T09:50:55Z</time>
      </trkpt>
      <trkpt lat="42.41964" lon="2.20799">
        <ele>2767.29</ele>
        <time>2016-06-30T09:51:07Z</time>
      </trkpt>
      <trkpt lat="42.41962" lon="2.20794">
        <ele>2768.73</ele>
        <time>2016-06-30T09:51:15Z</time>
      </trkpt>
      <trkpt lat="42.41959" lon="2.20786">
        <ele>2769.7</ele>
        <time>2016-06-30T09:51:24Z</time>
      </trkpt>
      <trkpt lat="42.41955" lon="2.20778">
        <ele>2771.14</ele>
        <time>2016-06-30T09:51:34Z</time>
      </trkpt>
      <trkpt lat="42.41954" lon="2.20776">
        <ele>2772.1</ele>
        <time>2016-06-30T09:51:49Z</time>
      </trkpt>
      <trkpt lat="42.41953" lon="2.20773">
        <ele>2772.58</ele>
        <time>2016-06-30T09:52:09Z</time>
      </trkpt>
      <trkpt lat="42.41953" lon="2.20772">
        <ele>2773.54</ele>
        <time>2016-06-30T09:52:30Z</time>
      </trkpt>
      <trkpt lat="42.41952" lon="2.2077">
        <ele>2774.02</ele>
        <time>2016-06-30T09:52:52Z</time>
      </trkpt>
      <trkpt lat="42.41951" lon="2.20764">
        <ele>2775.46</ele>
        <time>2016-06-30T09:53:16Z</time>
      </trkpt>
      <trkpt lat="42.41951" lon="2.20757">
        <ele>2777.39</ele>
        <time>2016-06-30T09:53:26Z</time>
      </trkpt>
      <trkpt lat="42.41948" lon="2.20743">
        <ele>2778.35</ele>
        <time>2016-06-30T09:53:38Z</time>
      </trkpt>
      <trkpt lat="42.41944" lon="2.20734">
        <ele>2779.31</ele>
        <time>2016-06-30T09:53:49Z</time>
      </trkpt>
      <trkpt lat="42.4194" lon="2.20723">
        <ele>2780.27</ele>
        <time>2016-06-30T09:54:01Z</time>
      </trkpt>
      <trkpt lat="42.41938" lon="2.20717">
        <ele>2781.71</ele>
        <time>2016-06-30T09:54:10Z</time>
      </trkpt>
      <trkpt lat="42.41938" lon="2.20709">
        <ele>2782.67</ele>
        <time>2016-06-30T09:54:21Z</time>
      </trkpt>
      <trkpt lat="42.41937" lon="2.20709">
        <ele>2783.15</ele>
        <time>2016-06-30T09:54:45Z</time>
      </trkpt>
      <trkpt lat="42.41936" lon="2.2071">
        <ele>2783.15</ele>
        <time>2016-06-30T09:55:15Z</time>
      </trkpt>
      <trkpt lat="42.41934" lon="2.20711">
        <ele>2783.15</ele>
        <time>2016-06-30T09:55:18Z</time>
      </trkpt>
      <trkpt lat="42.4193" lon="2.20714">
        <ele>2783.15</ele>
        <time>2016-06-30T09:55:22Z</time>
      </trkpt>
      <trkpt lat="42.41928" lon="2.20713">
        <ele>2783.15</ele>
        <time>2016-06-30T09:55:24Z</time>
      </trkpt>
      <trkpt lat="42.41926" lon="2.2071">
        <ele>2783.15</ele>
        <time>2016-06-30T09:55:29Z</time>
      </trkpt>
      <trkpt lat="42.41917" lon="2.2071">
        <ele>2784.12</ele>
        <time>2016-06-30T09:55:41Z</time>
      </trkpt>
      <trkpt lat="42.41915" lon="2.20708">
        <ele>2784.6</ele>
        <time>2016-06-30T09:55:44Z</time>
      </trkpt>
      <trkpt lat="42.41902" lon="2.20698">
        <ele>2786.04</ele>
        <time>2016-06-30T09:55:58Z</time>
      </trkpt>
      <trkpt lat="42.41901" lon="2.20696">
        <ele>2786.04</ele>
        <time>2016-06-30T09:56:01Z</time>
      </trkpt>
      <trkpt lat="42.41892" lon="2.20692">
        <ele>2788.44</ele>
        <time>2016-06-30T09:56:14Z</time>
      </trkpt>
      <trkpt lat="42.41889" lon="2.20687">
        <ele>2791.81</ele>
        <time>2016-06-30T09:56:22Z</time>
      </trkpt>
      <trkpt lat="42.41884" lon="2.20687">
        <ele>2794.69</ele>
        <time>2016-06-30T09:56:31Z</time>
      </trkpt>
      <trkpt lat="42.41881" lon="2.20688">
        <ele>2794.69</ele>
        <time>2016-06-30T09:56:46Z</time>
      </trkpt>
      <trkpt lat="42.41879" lon="2.20687">
        <ele>2794.69</ele>
        <time>2016-06-30T09:56:48Z</time>
      </trkpt>
      <trkpt lat="42.41867" lon="2.20681">
        <ele>2794.69</ele>
        <time>2016-06-30T09:57:00Z</time>
      </trkpt>
      <trkpt lat="42.41858" lon="2.20679">
        <ele>2794.69</ele>
        <time>2016-06-30T09:57:12Z</time>
      </trkpt>
      <trkpt lat="42.41857" lon="2.20678">
        <ele>2794.69</ele>
        <time>2016-06-30T09:57:14Z</time>
      </trkpt>
      <trkpt lat="42.41855" lon="2.20678">
        <ele>2795.17</ele>
        <time>2016-06-30T09:57:16Z</time>
      </trkpt>
      <trkpt lat="42.4185" lon="2.20675">
        <ele>2795.65</ele>
        <time>2016-06-30T09:57:22Z</time>
      </trkpt>
      <trkpt lat="42.41848" lon="2.20674">
        <ele>2795.65</ele>
        <time>2016-06-30T09:57:24Z</time>
      </trkpt>
      <trkpt lat="42.41844" lon="2.20667">
        <ele>2797.09</ele>
        <time>2016-06-30T09:57:32Z</time>
      </trkpt>
      <trkpt lat="42.41838" lon="2.20666">
        <ele>2798.54</ele>
        <time>2016-06-30T09:57:42Z</time>
      </trkpt>
      <trkpt lat="42.4183" lon="2.20668">
        <ele>2799.98</ele>
        <time>2016-06-30T09:57:56Z</time>
      </trkpt>
      <trkpt lat="42.41822" lon="2.20669">
        <ele>2801.9</ele>
        <time>2016-06-30T09:58:08Z</time>
      </trkpt>
      <trkpt lat="42.41816" lon="2.20667">
        <ele>2802.38</ele>
        <time>2016-06-30T09:58:16Z</time>
      </trkpt>
      <trkpt lat="42.41813" lon="2.20666">
        <ele>2802.86</ele>
        <time>2016-06-30T09:58:32Z</time>
      </trkpt>
      <trkpt lat="42.41805" lon="2.20664">
        <ele>2803.34</ele>
        <time>2016-06-30T09:58:47Z</time>
      </trkpt>
      <trkpt lat="42.41804" lon="2.20663">
        <ele>2803.34</ele>
        <time>2016-06-30T09:58:48Z</time>
      </trkpt>
      <trkpt lat="42.41793" lon="2.20663">
        <ele>2804.78</ele>
        <time>2016-06-30T09:59:00Z</time>
      </trkpt>
      <trkpt lat="42.41789" lon="2.20662">
        <ele>2805.26</ele>
        <time>2016-06-30T09:59:06Z</time>
      </trkpt>
      <trkpt lat="42.41782" lon="2.20662">
        <ele>2806.71</ele>
        <time>2016-06-30T09:59:16Z</time>
      </trkpt>
      <trkpt lat="42.4178" lon="2.20663">
        <ele>2807.19</ele>
        <time>2016-06-30T09:59:18Z</time>
      </trkpt>
      <trkpt lat="42.41776" lon="2.20662">
        <ele>2808.63</ele>
        <time>2016-06-30T09:59:29Z</time>
      </trkpt>
      <trkpt lat="42.41775" lon="2.20662">
        <ele>2809.59</ele>
        <time>2016-06-30T09:59:47Z</time>
      </trkpt>
      <trkpt lat="42.41776" lon="2.20662">
        <ele>2809.59</ele>
        <time>2016-06-30T10:00:15Z</time>
      </trkpt>
      <trkpt lat="42.41772" lon="2.20663">
        <ele>2809.59</ele>
        <time>2016-06-30T10:00:23Z</time>
      </trkpt>
      <trkpt lat="42.41765" lon="2.20664">
        <ele>2810.07</ele>
        <time>2016-06-30T10:00:31Z</time>
      </trkpt>
      <trkpt lat="42.4176" lon="2.20667">
        <ele>2811.03</ele>
        <time>2016-06-30T10:00:37Z</time>
      </trkpt>
      <trkpt lat="42.41753" lon="2.20666">
        <ele>2812.47</ele>
        <time>2016-06-30T10:00:46Z</time>
      </trkpt>
      <trkpt lat="42.41752" lon="2.20662">
        <ele>2812.47</ele>
        <time>2016-06-30T10:00:49Z</time>
      </trkpt>
      <trkpt lat="42.4175" lon="2.20659">
        <ele>2812.96</ele>
        <time>2016-06-30T10:00:53Z</time>
      </trkpt>
      <trkpt lat="42.41746" lon="2.20659">
        <ele>2813.44</ele>
        <time>2016-06-30T10:00:57Z</time>
      </trkpt>
      <trkpt lat="42.4174" lon="2.20655">
        <ele>2814.88</ele>
        <time>2016-06-30T10:01:04Z</time>
      </trkpt>
      <trkpt lat="42.41739" lon="2.20652">
        <ele>2814.88</ele>
        <time>2016-06-30T10:01:06Z</time>
      </trkpt>
      <trkpt lat="42.41737" lon="2.20649">
        <ele>2814.88</ele>
        <time>2016-06-30T10:01:09Z</time>
      </trkpt>
      <trkpt lat="42.41736" lon="2.20627">
        <ele>2814.88</ele>
        <time>2016-06-30T10:01:24Z</time>
      </trkpt>
      <trkpt lat="42.41736" lon="2.20622">
        <ele>2813.44</ele>
        <time>2016-06-30T10:01:27Z</time>
      </trkpt>
      <trkpt lat="42.41736" lon="2.20615">
        <ele>2813.44</ele>
        <time>2016-06-30T10:01:31Z</time>
      </trkpt>
      <trkpt lat="42.41737" lon="2.206">
        <ele>2811.99</ele>
        <time>2016-06-30T10:01:40Z</time>
      </trkpt>
      <trkpt lat="42.41737" lon="2.20594">
        <ele>2811.51</ele>
        <time>2016-06-30T10:01:44Z</time>
      </trkpt>
      <trkpt lat="42.41734" lon="2.20586">
        <ele>2810.55</ele>
        <time>2016-06-30T10:01:50Z</time>
      </trkpt>
      <trkpt lat="42.41734" lon="2.20566">
        <ele>2809.59</ele>
        <time>2016-06-30T10:02:02Z</time>
      </trkpt>
      <trkpt lat="42.41733" lon="2.20555">
        <ele>2808.15</ele>
        <time>2016-06-30T10:02:09Z</time>
      </trkpt>
      <trkpt lat="42.41731" lon="2.20534">
        <ele>2807.67</ele>
        <time>2016-06-30T10:02:23Z</time>
      </trkpt>
      <trkpt lat="42.41729" lon="2.2052">
        <ele>2807.19</ele>
        <time>2016-06-30T10:02:32Z</time>
      </trkpt>
      <trkpt lat="42.41728" lon="2.20509">
        <ele>2806.71</ele>
        <time>2016-06-30T10:02:39Z</time>
      </trkpt>
      <trkpt lat="42.41728" lon="2.20499">
        <ele>2806.23</ele>
        <time>2016-06-30T10:02:46Z</time>
      </trkpt>
      <trkpt lat="42.41725" lon="2.20479">
        <ele>2805.26</ele>
        <time>2016-06-30T10:02:58Z</time>
      </trkpt>
      <trkpt lat="42.41724" lon="2.20475">
        <ele>2804.78</ele>
        <time>2016-06-30T10:03:01Z</time>
      </trkpt>
      <trkpt lat="42.41722" lon="2.2046">
        <ele>2803.34</ele>
        <time>2016-06-30T10:03:12Z</time>
      </trkpt>
      <trkpt lat="42.41719" lon="2.20453">
        <ele>2802.38</ele>
        <time>2016-06-30T10:03:18Z</time>
      </trkpt>
      <trkpt lat="42.41717" lon="2.20442">
        <ele>2798.54</ele>
        <time>2016-06-30T10:03:26Z</time>
      </trkpt>
      <trkpt lat="42.41715" lon="2.20434">
        <ele>2795.65</ele>
        <time>2016-06-30T10:03:30Z</time>
      </trkpt>
      <trkpt lat="42.41709" lon="2.20415">
        <ele>2793.73</ele>
        <time>2016-06-30T10:03:42Z</time>
      </trkpt>
      <trkpt lat="42.41705" lon="2.20397">
        <ele>2793.73</ele>
        <time>2016-06-30T10:03:54Z</time>
      </trkpt>
      <trkpt lat="42.41698" lon="2.20379">
        <ele>2791.33</ele>
        <time>2016-06-30T10:04:08Z</time>
      </trkpt>
      <trkpt lat="42.4169" lon="2.20365">
        <ele>2789.88</ele>
        <time>2016-06-30T10:04:19Z</time>
      </trkpt>
      <trkpt lat="42.41684" lon="2.20347">
        <ele>2789.88</ele>
        <time>2016-06-30T10:04:33Z</time>
      </trkpt>
      <trkpt lat="42.41678" lon="2.20325">
        <ele>2789.88</ele>
        <time>2016-06-30T10:04:48Z</time>
      </trkpt>
      <trkpt lat="42.41677" lon="2.20322">
        <ele>2789.88</ele>
        <time>2016-06-30T10:04:50Z</time>
      </trkpt>
      <trkpt lat="42.41671" lon="2.203">
        <ele>2790.84</ele>
        <time>2016-06-30T10:05:05Z</time>
      </trkpt>
      <trkpt lat="42.4167" lon="2.20298">
        <ele>2790.84</ele>
        <time>2016-06-30T10:05:07Z</time>
      </trkpt>
      <trkpt lat="42.41666" lon="2.20292">
        <ele>2791.33</ele>
        <time>2016-06-30T10:05:12Z</time>
      </trkpt>
      <trkpt lat="42.4166" lon="2.20278">
        <ele>2792.29</ele>
        <time>2016-06-30T10:05:22Z</time>
      </trkpt>
      <trkpt lat="42.41654" lon="2.20262">
        <ele>2792.77</ele>
        <time>2016-06-30T10:05:34Z</time>
      </trkpt>
      <trkpt lat="42.41652" lon="2.20255">
        <ele>2793.73</ele>
        <time>2016-06-30T10:05:39Z</time>
      </trkpt>
      <trkpt lat="42.41648" lon="2.20238">
        <ele>2794.69</ele>
        <time>2016-06-30T10:05:53Z</time>
      </trkpt>
      <trkpt lat="42.41647" lon="2.20225">
        <ele>2796.61</ele>
        <time>2016-06-30T10:06:05Z</time>
      </trkpt>
      <trkpt lat="42.41647" lon="2.20222">
        <ele>2798.05</ele>
        <time>2016-06-30T10:06:18Z</time>
      </trkpt>
      <trkpt lat="42.41646" lon="2.20217">
        <ele>2798.54</ele>
        <time>2016-06-30T10:06:42Z</time>
      </trkpt>
      <trkpt lat="42.41643" lon="2.20204">
        <ele>2799.98</ele>
        <time>2016-06-30T10:06:55Z</time>
      </trkpt>
      <trkpt lat="42.41642" lon="2.20203">
        <ele>2799.98</ele>
        <time>2016-06-30T10:06:56Z</time>
      </trkpt>
      <trkpt lat="42.41636" lon="2.20192">
        <ele>2801.9</ele>
        <time>2016-06-30T10:07:10Z</time>
      </trkpt>
      <trkpt lat="42.41635" lon="2.2019">
        <ele>2802.38</ele>
        <time>2016-06-30T10:07:12Z</time>
      </trkpt>
      <trkpt lat="42.41633" lon="2.20182">
        <ele>2804.3</ele>
        <time>2016-06-30T10:07:24Z</time>
      </trkpt>
      <trkpt lat="42.41632" lon="2.20181">
        <ele>2805.75</ele>
        <time>2016-06-30T10:07:43Z</time>
      </trkpt>
      <trkpt lat="42.41632" lon="2.20181">
        <ele>2806.23</ele>
        <time>2016-06-30T10:08:04Z</time>
      </trkpt>
      <trkpt lat="42.41631" lon="2.20178">
        <ele>2806.23</ele>
        <time>2016-06-30T10:08:11Z</time>
      </trkpt>
      <trkpt lat="42.4163" lon="2.20176">
        <ele>2806.23</ele>
        <time>2016-06-30T10:08:13Z</time>
      </trkpt>
      <trkpt lat="42.41629" lon="2.20174">
        <ele>2806.23</ele>
        <time>2016-06-30T10:08:15Z</time>
      </trkpt>
      <trkpt lat="42.41623" lon="2.2016">
        <ele>2806.71</ele>
        <time>2016-06-30T10:08:29Z</time>
      </trkpt>
      <trkpt lat="42.41622" lon="2.20148">
        <ele>2806.71</ele>
        <time>2016-06-30T10:08:40Z</time>
      </trkpt>
      <trkpt lat="42.41623" lon="2.20144">
        <ele>2806.71</ele>
        <time>2016-06-30T10:08:45Z</time>
      </trkpt>
      <trkpt lat="42.41622" lon="2.20134">
        <ele>2806.71</ele>
        <time>2016-06-30T10:08:53Z</time>
      </trkpt>
      <trkpt lat="42.41626" lon="2.2012">
        <ele>2806.71</ele>
        <time>2016-06-30T10:09:03Z</time>
      </trkpt>
      <trkpt lat="42.41628" lon="2.20106">
        <ele>2805.75</ele>
        <time>2016-06-30T10:09:13Z</time>
      </trkpt>
      <trkpt lat="42.41631" lon="2.20103">
        <ele>2805.75</ele>
        <time>2016-06-30T10:09:18Z</time>
      </trkpt>
      <trkpt lat="42.41635" lon="2.20087">
        <ele>2805.75</ele>
        <time>2016-06-30T10:09:29Z</time>
      </trkpt>
      <trkpt lat="42.41636" lon="2.20085">
        <ele>2805.75</ele>
        <time>2016-06-30T10:09:31Z</time>
      </trkpt>
      <trkpt lat="42.41642" lon="2.20072">
        <ele>2805.75</ele>
        <time>2016-06-30T10:09:42Z</time>
      </trkpt>
      <trkpt lat="42.41646" lon="2.20055">
        <ele>2805.75</ele>
        <time>2016-06-30T10:09:54Z</time>
      </trkpt>
      <trkpt lat="42.41646" lon="2.20052">
        <ele>2805.75</ele>
        <time>2016-06-30T10:10:01Z</time>
      </trkpt>
      <trkpt lat="42.41648" lon="2.2003">
        <ele>2804.78</ele>
        <time>2016-06-30T10:10:14Z</time>
      </trkpt>
      <trkpt lat="42.41648" lon="2.20029">
        <ele>2804.78</ele>
        <time>2016-06-30T10:10:15Z</time>
      </trkpt>
      <trkpt lat="42.41651" lon="2.2002">
        <ele>2804.78</ele>
        <time>2016-06-30T10:10:23Z</time>
      </trkpt>
      <trkpt lat="42.41651" lon="2.20009">
        <ele>2804.78</ele>
        <time>2016-06-30T10:10:32Z</time>
      </trkpt>
      <trkpt lat="42.41648" lon="2.19988">
        <ele>2806.23</ele>
        <time>2016-06-30T10:10:46Z</time>
      </trkpt>
      <trkpt lat="42.41649" lon="2.19971">
        <ele>2807.19</ele>
        <time>2016-06-30T10:11:02Z</time>
      </trkpt>
      <trkpt lat="42.4165" lon="2.19968">
        <ele>2807.19</ele>
        <time>2016-06-30T10:11:05Z</time>
      </trkpt>
      <trkpt lat="42.41651" lon="2.19964">
        <ele>2807.19</ele>
        <time>2016-06-30T10:11:08Z</time>
      </trkpt>
      <trkpt lat="42.41654" lon="2.19955">
        <ele>2805.75</ele>
        <time>2016-06-30T10:11:15Z</time>
      </trkpt>
      <trkpt lat="42.41657" lon="2.1995">
        <ele>2804.78</ele>
        <time>2016-06-30T10:11:21Z</time>
      </trkpt>
      <trkpt lat="42.41657" lon="2.19944">
        <ele>2799.98</ele>
        <time>2016-06-30T10:11:26Z</time>
      </trkpt>
      <trkpt lat="42.41659" lon="2.19942">
        <ele>2798.54</ele>
        <time>2016-06-30T10:11:28Z</time>
      </trkpt>
      <trkpt lat="42.41661" lon="2.19941">
        <ele>2797.57</ele>
        <time>2016-06-30T10:11:30Z</time>
      </trkpt>
      <trkpt lat="42.41662" lon="2.19937">
        <ele>2796.61</ele>
        <time>2016-06-30T10:11:36Z</time>
      </trkpt>
      <trkpt lat="42.41663" lon="2.19934">
        <ele>2796.61</ele>
        <time>2016-06-30T10:11:38Z</time>
      </trkpt>
      <trkpt lat="42.41665" lon="2.19932">
        <ele>2796.61</ele>
        <time>2016-06-30T10:11:41Z</time>
      </trkpt>
      <trkpt lat="42.41669" lon="2.19926">
        <ele>2796.61</ele>
        <time>2016-06-30T10:11:46Z</time>
      </trkpt>
      <trkpt lat="42.41669" lon="2.19924">
        <ele>2796.61</ele>
        <time>2016-06-30T10:11:48Z</time>
      </trkpt>
      <trkpt lat="42.41678" lon="2.19916">
        <ele>2794.69</ele>
        <time>2016-06-30T10:11:59Z</time>
      </trkpt>
      <trkpt lat="42.41682" lon="2.19909">
        <ele>2791.33</ele>
        <time>2016-06-30T10:12:04Z</time>
      </trkpt>
      <trkpt lat="42.41684" lon="2.19905">
        <ele>2787.48</ele>
        <time>2016-06-30T10:12:08Z</time>
      </trkpt>
      <trkpt lat="42.41687" lon="2.19902">
        <ele>2785.56</ele>
        <time>2016-06-30T10:12:11Z</time>
      </trkpt>
      <trkpt lat="42.41689" lon="2.19896">
        <ele>2784.6</ele>
        <time>2016-06-30T10:12:16Z</time>
      </trkpt>
      <trkpt lat="42.41693" lon="2.19885">
        <ele>2784.6</ele>
        <time>2016-06-30T10:12:23Z</time>
      </trkpt>
      <trkpt lat="42.41698" lon="2.1987">
        <ele>2781.71</ele>
        <time>2016-06-30T10:12:32Z</time>
      </trkpt>
      <trkpt lat="42.41702" lon="2.19862">
        <ele>2776.91</ele>
        <time>2016-06-30T10:12:37Z</time>
      </trkpt>
      <trkpt lat="42.41704" lon="2.19858">
        <ele>2774.98</ele>
        <time>2016-06-30T10:12:40Z</time>
      </trkpt>
      <trkpt lat="42.41705" lon="2.19857">
        <ele>2775.46</ele>
        <time>2016-06-30T10:12:41Z</time>
      </trkpt>
      <trkpt lat="42.41713" lon="2.19842">
        <ele>2774.5</ele>
        <time>2016-06-30T10:12:53Z</time>
      </trkpt>
      <trkpt lat="42.41721" lon="2.19833">
        <ele>2773.54</ele>
        <time>2016-06-30T10:13:01Z</time>
      </trkpt>
      <trkpt lat="42.41726" lon="2.1983">
        <ele>2770.66</ele>
        <time>2016-06-30T10:13:06Z</time>
      </trkpt>
      <trkpt lat="42.41728" lon="2.19827">
        <ele>2768.73</ele>
        <time>2016-06-30T10:13:08Z</time>
      </trkpt>
      <trkpt lat="42.4173" lon="2.19826">
        <ele>2766.81</ele>
        <time>2016-06-30T10:13:10Z</time>
      </trkpt>
      <trkpt lat="42.41733" lon="2.1982">
        <ele>2764.89</ele>
        <time>2016-06-30T10:13:14Z</time>
      </trkpt>
      <trkpt lat="42.41734" lon="2.19817">
        <ele>2763.45</ele>
        <time>2016-06-30T10:13:16Z</time>
      </trkpt>
      <trkpt lat="42.41734" lon="2.19809">
        <ele>2762.49</ele>
        <time>2016-06-30T10:13:20Z</time>
      </trkpt>
      <trkpt lat="42.41736" lon="2.19804">
        <ele>2762.49</ele>
        <time>2016-06-30T10:13:24Z</time>
      </trkpt>
      <trkpt lat="42.41738" lon="2.19802">
        <ele>2762.49</ele>
        <time>2016-06-30T10:13:26Z</time>
      </trkpt>
      <trkpt lat="42.41741" lon="2.19799">
        <ele>2762.49</ele>
        <time>2016-06-30T10:13:29Z</time>
      </trkpt>
      <trkpt lat="42.41747" lon="2.19783">
        <ele>2759.12</ele>
        <time>2016-06-30T10:13:40Z</time>
      </trkpt>
      <trkpt lat="42.41751" lon="2.19778">
        <ele>2756.24</ele>
        <time>2016-06-30T10:13:44Z</time>
      </trkpt>
      <trkpt lat="42.41751" lon="2.19775">
        <ele>2754.8</ele>
        <time>2016-06-30T10:13:46Z</time>
      </trkpt>
      <trkpt lat="42.41752" lon="2.19771">
        <ele>2754.8</ele>
        <time>2016-06-30T10:13:48Z</time>
      </trkpt>
      <trkpt lat="42.41754" lon="2.19761">
        <ele>2753.35</ele>
        <time>2016-06-30T10:13:54Z</time>
      </trkpt>
      <trkpt lat="42.41754" lon="2.19758">
        <ele>2753.35</ele>
        <time>2016-06-30T10:13:56Z</time>
      </trkpt>
      <trkpt lat="42.41756" lon="2.19751">
        <ele>2753.35</ele>
        <time>2016-06-30T10:14:00Z</time>
      </trkpt>
      <trkpt lat="42.41759" lon="2.19744">
        <ele>2753.35</ele>
        <time>2016-06-30T10:14:05Z</time>
      </trkpt>
      <trkpt lat="42.4176" lon="2.19733">
        <ele>2752.39</ele>
        <time>2016-06-30T10:14:11Z</time>
      </trkpt>
      <trkpt lat="42.41761" lon="2.19729">
        <ele>2751.43</ele>
        <time>2016-06-30T10:14:14Z</time>
      </trkpt>
      <trkpt lat="42.41763" lon="2.19712">
        <ele>2749.99</ele>
        <time>2016-06-30T10:14:25Z</time>
      </trkpt>
      <trkpt lat="42.41762" lon="2.1971">
        <ele>2748.55</ele>
        <time>2016-06-30T10:14:38Z</time>
      </trkpt>
      <trkpt lat="42.41762" lon="2.19711">
        <ele>2747.59</ele>
        <time>2016-06-30T10:15:00Z</time>
      </trkpt>
      <trkpt lat="42.41761" lon="2.19711">
        <ele>2747.59</ele>
        <time>2016-06-30T10:15:12Z</time>
      </trkpt>
      <trkpt lat="42.41766" lon="2.19703">
        <ele>2747.59</ele>
        <time>2016-06-30T10:15:17Z</time>
      </trkpt>
      <trkpt lat="42.41767" lon="2.19695">
        <ele>2747.59</ele>
        <time>2016-06-30T10:15:22Z</time>
      </trkpt>
      <trkpt lat="42.41774" lon="2.1968">
        <ele>2746.62</ele>
        <time>2016-06-30T10:15:32Z</time>
      </trkpt>
      <trkpt lat="42.41775" lon="2.19679">
        <ele>2746.62</ele>
        <time>2016-06-30T10:15:33Z</time>
      </trkpt>
      <trkpt lat="42.41782" lon="2.19662">
        <ele>2744.7</ele>
        <time>2016-06-30T10:15:43Z</time>
      </trkpt>
      <trkpt lat="42.41783" lon="2.1966">
        <ele>2744.7</ele>
        <time>2016-06-30T10:15:45Z</time>
      </trkpt>
      <trkpt lat="42.41784" lon="2.19652">
        <ele>2743.74</ele>
        <time>2016-06-30T10:15:50Z</time>
      </trkpt>
      <trkpt lat="42.41787" lon="2.19639">
        <ele>2741.82</ele>
        <time>2016-06-30T10:15:59Z</time>
      </trkpt>
      <trkpt lat="42.41796" lon="2.19619">
        <ele>2738.45</ele>
        <time>2016-06-30T10:16:10Z</time>
      </trkpt>
      <trkpt lat="42.41797" lon="2.19609">
        <ele>2735.09</ele>
        <time>2016-06-30T10:16:14Z</time>
      </trkpt>
      <trkpt lat="42.41801" lon="2.19597">
        <ele>2731.24</ele>
        <time>2016-06-30T10:16:20Z</time>
      </trkpt>
      <trkpt lat="42.4181" lon="2.1958">
        <ele>2731.24</ele>
        <time>2016-06-30T10:16:29Z</time>
      </trkpt>
      <trkpt lat="42.41811" lon="2.19572">
        <ele>2730.28</ele>
        <time>2016-06-30T10:16:34Z</time>
      </trkpt>
      <trkpt lat="42.41816" lon="2.19557">
        <ele>2729.32</ele>
        <time>2016-06-30T10:16:43Z</time>
      </trkpt>
      <trkpt lat="42.4182" lon="2.19539">
        <ele>2727.88</ele>
        <time>2016-06-30T10:16:53Z</time>
      </trkpt>
      <trkpt lat="42.4183" lon="2.19538">
        <ele>2726.92</ele>
        <time>2016-06-30T10:17:00Z</time>
      </trkpt>
      <trkpt lat="42.41835" lon="2.19546">
        <ele>2723.07</ele>
        <time>2016-06-30T10:17:06Z</time>
      </trkpt>
      <trkpt lat="42.41837" lon="2.19555">
        <ele>2719.71</ele>
        <time>2016-06-30T10:17:11Z</time>
      </trkpt>
      <trkpt lat="42.41838" lon="2.19557">
        <ele>2720.19</ele>
        <time>2016-06-30T10:17:12Z</time>
      </trkpt>
      <trkpt lat="42.4184" lon="2.19569">
        <ele>2718.75</ele>
        <time>2016-06-30T10:17:19Z</time>
      </trkpt>
      <trkpt lat="42.41845" lon="2.19591">
        <ele>2717.78</ele>
        <time>2016-06-30T10:17:32Z</time>
      </trkpt>
      <trkpt lat="42.41846" lon="2.19593">
        <ele>2717.78</ele>
        <time>2016-06-30T10:17:33Z</time>
      </trkpt>
      <trkpt lat="42.41849" lon="2.19603">
        <ele>2714.42</ele>
        <time>2016-06-30T10:17:38Z</time>
      </trkpt>
      <trkpt lat="42.41852" lon="2.19616">
        <ele>2710.09</ele>
        <time>2016-06-30T10:17:45Z</time>
      </trkpt>
      <trkpt lat="42.41853" lon="2.19617">
        <ele>2710.09</ele>
        <time>2016-06-30T10:17:46Z</time>
      </trkpt>
      <trkpt lat="42.41856" lon="2.19633">
        <ele>2710.09</ele>
        <time>2016-06-30T10:17:55Z</time>
      </trkpt>
      <trkpt lat="42.41858" lon="2.1964">
        <ele>2710.09</ele>
        <time>2016-06-30T10:17:59Z</time>
      </trkpt>
      <trkpt lat="42.41863" lon="2.19659">
        <ele>2708.65</ele>
        <time>2016-06-30T10:18:10Z</time>
      </trkpt>
      <trkpt lat="42.41866" lon="2.19672">
        <ele>2706.73</ele>
        <time>2016-06-30T10:18:17Z</time>
      </trkpt>
      <trkpt lat="42.41869" lon="2.19689">
        <ele>2705.29</ele>
        <time>2016-06-30T10:18:29Z</time>
      </trkpt>
      <trkpt lat="42.41873" lon="2.19709">
        <ele>2702.4</ele>
        <time>2016-06-30T10:18:41Z</time>
      </trkpt>
      <trkpt lat="42.41873" lon="2.19714">
        <ele>2701.44</ele>
        <time>2016-06-30T10:18:44Z</time>
      </trkpt>
      <trkpt lat="42.41873" lon="2.1972">
        <ele>2700.96</ele>
        <time>2016-06-30T10:18:47Z</time>
      </trkpt>
      <trkpt lat="42.41875" lon="2.19729">
        <ele>2700</ele>
        <time>2016-06-30T10:18:53Z</time>
      </trkpt>
      <trkpt lat="42.41879" lon="2.19741">
        <ele>2698.08</ele>
        <time>2016-06-30T10:19:01Z</time>
      </trkpt>
      <trkpt lat="42.41881" lon="2.19751">
        <ele>2697.12</ele>
        <time>2016-06-30T10:19:07Z</time>
      </trkpt>
      <trkpt lat="42.41881" lon="2.1976">
        <ele>2696.64</ele>
        <time>2016-06-30T10:19:12Z</time>
      </trkpt>
      <trkpt lat="42.41881" lon="2.19774">
        <ele>2692.79</ele>
        <time>2016-06-30T10:19:20Z</time>
      </trkpt>
      <trkpt lat="42.4188" lon="2.19795">
        <ele>2690.87</ele>
        <time>2016-06-30T10:19:33Z</time>
      </trkpt>
      <trkpt lat="42.41878" lon="2.19813">
        <ele>2690.87</ele>
        <time>2016-06-30T10:19:44Z</time>
      </trkpt>
      <trkpt lat="42.41878" lon="2.19825">
        <ele>2690.87</ele>
        <time>2016-06-30T10:19:51Z</time>
      </trkpt>
      <trkpt lat="42.41876" lon="2.19835">
        <ele>2690.39</ele>
        <time>2016-06-30T10:19:57Z</time>
      </trkpt>
      <trkpt lat="42.41873" lon="2.1986">
        <ele>2689.43</ele>
        <time>2016-06-30T10:20:11Z</time>
      </trkpt>
      <trkpt lat="42.41874" lon="2.19886">
        <ele>2688.46</ele>
        <time>2016-06-30T10:20:24Z</time>
      </trkpt>
      <trkpt lat="42.41876" lon="2.19902">
        <ele>2687.98</ele>
        <time>2016-06-30T10:20:34Z</time>
      </trkpt>
      <trkpt lat="42.41879" lon="2.19909">
        <ele>2687.5</ele>
        <time>2016-06-30T10:20:39Z</time>
      </trkpt>
      <trkpt lat="42.41879" lon="2.19919">
        <ele>2687.5</ele>
        <time>2016-06-30T10:20:45Z</time>
      </trkpt>
      <trkpt lat="42.41882" lon="2.19929">
        <ele>2687.02</ele>
        <time>2016-06-30T10:20:53Z</time>
      </trkpt>
      <trkpt lat="42.41887" lon="2.19928">
        <ele>2687.02</ele>
        <time>2016-06-30T10:20:58Z</time>
      </trkpt>
      <trkpt lat="42.41893" lon="2.19923">
        <ele>2686.54</ele>
        <time>2016-06-30T10:21:04Z</time>
      </trkpt>
      <trkpt lat="42.41897" lon="2.19923">
        <ele>2686.54</ele>
        <time>2016-06-30T10:21:08Z</time>
      </trkpt>
      <trkpt lat="42.41903" lon="2.19925">
        <ele>2685.58</ele>
        <time>2016-06-30T10:21:13Z</time>
      </trkpt>
      <trkpt lat="42.41918" lon="2.19922">
        <ele>2682.7</ele>
        <time>2016-06-30T10:21:26Z</time>
      </trkpt>
      <trkpt lat="42.41923" lon="2.19922">
        <ele>2682.22</ele>
        <time>2016-06-30T10:21:30Z</time>
      </trkpt>
      <trkpt lat="42.41931" lon="2.1992">
        <ele>2680.77</ele>
        <time>2016-06-30T10:21:37Z</time>
      </trkpt>
      <trkpt lat="42.41952" lon="2.19926">
        <ele>2678.85</ele>
        <time>2016-06-30T10:21:52Z</time>
      </trkpt>
      <trkpt lat="42.41965" lon="2.19924">
        <ele>2674.52</ele>
        <time>2016-06-30T10:22:01Z</time>
      </trkpt>
      <trkpt lat="42.41976" lon="2.19922">
        <ele>2672.12</ele>
        <time>2016-06-30T10:22:08Z</time>
      </trkpt>
      <trkpt lat="42.41978" lon="2.19923">
        <ele>2672.12</ele>
        <time>2016-06-30T10:22:10Z</time>
      </trkpt>
      <trkpt lat="42.41982" lon="2.19926">
        <ele>2672.12</ele>
        <time>2016-06-30T10:22:14Z</time>
      </trkpt>
      <trkpt lat="42.41989" lon="2.19931">
        <ele>2672.12</ele>
        <time>2016-06-30T10:22:19Z</time>
      </trkpt>
      <trkpt lat="42.41991" lon="2.19933">
        <ele>2671.64</ele>
        <time>2016-06-30T10:22:21Z</time>
      </trkpt>
      <trkpt lat="42.41997" lon="2.19939">
        <ele>2670.2</ele>
        <time>2016-06-30T10:22:26Z</time>
      </trkpt>
      <trkpt lat="42.42001" lon="2.19948">
        <ele>2666.35</ele>
        <time>2016-06-30T10:22:32Z</time>
      </trkpt>
      <trkpt lat="42.42001" lon="2.1995">
        <ele>2665.39</ele>
        <time>2016-06-30T10:22:33Z</time>
      </trkpt>
      <trkpt lat="42.42001" lon="2.19957">
        <ele>2663.95</ele>
        <time>2016-06-30T10:22:37Z</time>
      </trkpt>
      <trkpt lat="42.42001" lon="2.19974">
        <ele>2662.03</ele>
        <time>2016-06-30T10:22:49Z</time>
      </trkpt>
      <trkpt lat="42.42002" lon="2.19978">
        <ele>2661.55</ele>
        <time>2016-06-30T10:22:52Z</time>
      </trkpt>
      <trkpt lat="42.42006" lon="2.19986">
        <ele>2657.22</ele>
        <time>2016-06-30T10:22:59Z</time>
      </trkpt>
      <trkpt lat="42.42009" lon="2.19991">
        <ele>2653.38</ele>
        <time>2016-06-30T10:23:04Z</time>
      </trkpt>
      <trkpt lat="42.42016" lon="2.20004">
        <ele>2652.9</ele>
        <time>2016-06-30T10:23:16Z</time>
      </trkpt>
      <trkpt lat="42.42015" lon="2.20008">
        <ele>2649.53</ele>
        <time>2016-06-30T10:23:25Z</time>
      </trkpt>
      <trkpt lat="42.42015" lon="2.20009">
        <ele>2648.57</ele>
        <time>2016-06-30T10:23:26Z</time>
      </trkpt>
      <trkpt lat="42.42011" lon="2.2001">
        <ele>2645.69</ele>
        <time>2016-06-30T10:23:30Z</time>
      </trkpt>
      <trkpt lat="42.42008" lon="2.20011">
        <ele>2644.72</ele>
        <time>2016-06-30T10:23:33Z</time>
      </trkpt>
      <trkpt lat="42.42003" lon="2.20017">
        <ele>2643.28</ele>
        <time>2016-06-30T10:23:42Z</time>
      </trkpt>
      <trkpt lat="42.42" lon="2.20018">
        <ele>2643.28</ele>
        <time>2016-06-30T10:23:46Z</time>
      </trkpt>
      <trkpt lat="42.41999" lon="2.20021">
        <ele>2643.28</ele>
        <time>2016-06-30T10:23:49Z</time>
      </trkpt>
      <trkpt lat="42.41993" lon="2.20025">
        <ele>2640.88</ele>
        <time>2016-06-30T10:23:56Z</time>
      </trkpt>
      <trkpt lat="42.41987" lon="2.20025">
        <ele>2637.03</ele>
        <time>2016-06-30T10:24:01Z</time>
      </trkpt>
      <trkpt lat="42.41975" lon="2.20018">
        <ele>2635.11</ele>
        <time>2016-06-30T10:24:11Z</time>
      </trkpt>
      <trkpt lat="42.41971" lon="2.20021">
        <ele>2635.11</ele>
        <time>2016-06-30T10:24:15Z</time>
      </trkpt>
      <trkpt lat="42.41971" lon="2.20023">
        <ele>2634.15</ele>
        <time>2016-06-30T10:24:17Z</time>
      </trkpt>
      <trkpt lat="42.4197" lon="2.20027">
        <ele>2632.23</ele>
        <time>2016-06-30T10:24:21Z</time>
      </trkpt>
      <trkpt lat="42.41972" lon="2.20032">
        <ele>2628.38</ele>
        <time>2016-06-30T10:24:25Z</time>
      </trkpt>
      <trkpt lat="42.41974" lon="2.20034">
        <ele>2625.98</ele>
        <time>2016-06-30T10:24:28Z</time>
      </trkpt>
      <trkpt lat="42.41973" lon="2.20037">
        <ele>2625.02</ele>
        <time>2016-06-30T10:24:31Z</time>
      </trkpt>
      <trkpt lat="42.41968" lon="2.20042">
        <ele>2625.02</ele>
        <time>2016-06-30T10:24:37Z</time>
      </trkpt>
      <trkpt lat="42.4197" lon="2.20046">
        <ele>2624.06</ele>
        <time>2016-06-30T10:24:44Z</time>
      </trkpt>
      <trkpt lat="42.4197" lon="2.20051">
        <ele>2623.58</ele>
        <time>2016-06-30T10:24:48Z</time>
      </trkpt>
      <trkpt lat="42.4197" lon="2.20053">
        <ele>2622.61</ele>
        <time>2016-06-30T10:24:51Z</time>
      </trkpt>
      <trkpt lat="42.41973" lon="2.20057">
        <ele>2618.77</ele>
        <time>2016-06-30T10:24:56Z</time>
      </trkpt>
      <trkpt lat="42.41975" lon="2.20061">
        <ele>2615.88</ele>
        <time>2016-06-30T10:25:00Z</time>
      </trkpt>
      <trkpt lat="42.41981" lon="2.20071">
        <ele>2613.48</ele>
        <time>2016-06-30T10:25:10Z</time>
      </trkpt>
      <trkpt lat="42.41991" lon="2.20078">
        <ele>2611.08</ele>
        <time>2016-06-30T10:25:20Z</time>
      </trkpt>
      <trkpt lat="42.41995" lon="2.2008">
        <ele>2609.16</ele>
        <time>2016-06-30T10:25:23Z</time>
      </trkpt>
      <trkpt lat="42.42002" lon="2.20082">
        <ele>2607.71</ele>
        <time>2016-06-30T10:25:28Z</time>
      </trkpt>
      <trkpt lat="42.42009" lon="2.20084">
        <ele>2605.79</ele>
        <time>2016-06-30T10:25:34Z</time>
      </trkpt>
      <trkpt lat="42.42014" lon="2.20085">
        <ele>2605.79</ele>
        <time>2016-06-30T10:25:37Z</time>
      </trkpt>
      <trkpt lat="42.42015" lon="2.20086">
        <ele>2605.31</ele>
        <time>2016-06-30T10:25:39Z</time>
      </trkpt>
      <trkpt lat="42.42021" lon="2.20091">
        <ele>2605.31</ele>
        <time>2016-06-30T10:25:44Z</time>
      </trkpt>
      <trkpt lat="42.42025" lon="2.20098">
        <ele>2603.39</ele>
        <time>2016-06-30T10:25:51Z</time>
      </trkpt>
      <trkpt lat="42.42025" lon="2.20101">
        <ele>2603.39</ele>
        <time>2016-06-30T10:25:53Z</time>
      </trkpt>
      <trkpt lat="42.4203" lon="2.20104">
        <ele>2599.06</ele>
        <time>2016-06-30T10:25:58Z</time>
      </trkpt>
      <trkpt lat="42.4203" lon="2.20105">
        <ele>2598.58</ele>
        <time>2016-06-30T10:25:59Z</time>
      </trkpt>
      <trkpt lat="42.4203" lon="2.20108">
        <ele>2596.18</ele>
        <time>2016-06-30T10:26:02Z</time>
      </trkpt>
      <trkpt lat="42.42033" lon="2.20113">
        <ele>2594.74</ele>
        <time>2016-06-30T10:26:08Z</time>
      </trkpt>
      <trkpt lat="42.42032" lon="2.20115">
        <ele>2594.74</ele>
        <time>2016-06-30T10:26:10Z</time>
      </trkpt>
      <trkpt lat="42.42035" lon="2.20125">
        <ele>2594.25</ele>
        <time>2016-06-30T10:26:18Z</time>
      </trkpt>
      <trkpt lat="42.42039" lon="2.20132">
        <ele>2592.81</ele>
        <time>2016-06-30T10:26:23Z</time>
      </trkpt>
      <trkpt lat="42.4204" lon="2.20135">
        <ele>2591.85</ele>
        <time>2016-06-30T10:26:25Z</time>
      </trkpt>
      <trkpt lat="42.42045" lon="2.20136">
        <ele>2588.97</ele>
        <time>2016-06-30T10:26:29Z</time>
      </trkpt>
      <trkpt lat="42.4205" lon="2.20137">
        <ele>2587.53</ele>
        <time>2016-06-30T10:26:34Z</time>
      </trkpt>
      <trkpt lat="42.42061" lon="2.20141">
        <ele>2587.04</ele>
        <time>2016-06-30T10:26:45Z</time>
      </trkpt>
      <trkpt lat="42.42063" lon="2.20142">
        <ele>2588.01</ele>
        <time>2016-06-30T10:26:48Z</time>
      </trkpt>
      <trkpt lat="42.42067" lon="2.20141">
        <ele>2588.01</ele>
        <time>2016-06-30T10:26:55Z</time>
      </trkpt>
      <trkpt lat="42.42068" lon="2.2014">
        <ele>2588.97</ele>
        <time>2016-06-30T10:26:58Z</time>
      </trkpt>
      <trkpt lat="42.42069" lon="2.20139">
        <ele>2589.45</ele>
        <time>2016-06-30T10:27:03Z</time>
      </trkpt>
      <trkpt lat="42.42074" lon="2.20134">
        <ele>2589.93</ele>
        <time>2016-06-30T10:27:13Z</time>
      </trkpt>
      <trkpt lat="42.4208" lon="2.20133">
        <ele>2590.89</ele>
        <time>2016-06-30T10:27:23Z</time>
      </trkpt>
      <trkpt lat="42.42087" lon="2.20131">
        <ele>2591.37</ele>
        <time>2016-06-30T10:27:33Z</time>
      </trkpt>
      <trkpt lat="42.42094" lon="2.20137">
        <ele>2592.33</ele>
        <time>2016-06-30T10:27:44Z</time>
      </trkpt>
      <trkpt lat="42.42094" lon="2.20145">
        <ele>2592.33</ele>
        <time>2016-06-30T10:27:49Z</time>
      </trkpt>
      <trkpt lat="42.42093" lon="2.2015">
        <ele>2592.33</ele>
        <time>2016-06-30T10:27:53Z</time>
      </trkpt>
      <trkpt lat="42.42092" lon="2.2016">
        <ele>2592.81</ele>
        <time>2016-06-30T10:28:00Z</time>
      </trkpt>
      <trkpt lat="42.42091" lon="2.20167">
        <ele>2593.29</ele>
        <time>2016-06-30T10:28:05Z</time>
      </trkpt>
      <trkpt lat="42.42091" lon="2.20169">
        <ele>2593.29</ele>
        <time>2016-06-30T10:28:07Z</time>
      </trkpt>
      <trkpt lat="42.42091" lon="2.20177">
        <ele>2593.77</ele>
        <time>2016-06-30T10:28:14Z</time>
      </trkpt>
      <trkpt lat="42.42091" lon="2.2018">
        <ele>2594.25</ele>
        <time>2016-06-30T10:28:16Z</time>
      </trkpt>
      <trkpt lat="42.42089" lon="2.20187">
        <ele>2594.74</ele>
        <time>2016-06-30T10:28:24Z</time>
      </trkpt>
      <trkpt lat="42.42091" lon="2.20192">
        <ele>2596.18</ele>
        <time>2016-06-30T10:28:30Z</time>
      </trkpt>
      <trkpt lat="42.42091" lon="2.20204">
        <ele>2597.14</ele>
        <time>2016-06-30T10:28:42Z</time>
      </trkpt>
      <trkpt lat="42.42092" lon="2.20216">
        <ele>2599.06</ele>
        <time>2016-06-30T10:28:52Z</time>
      </trkpt>
      <trkpt lat="42.42094" lon="2.20221">
        <ele>2600.02</ele>
        <time>2016-06-30T10:29:03Z</time>
      </trkpt>
      <trkpt lat="42.42095" lon="2.20225">
        <ele>2601.46</ele>
        <time>2016-06-30T10:29:26Z</time>
      </trkpt>
      <trkpt lat="42.42097" lon="2.20233">
        <ele>2601.95</ele>
        <time>2016-06-30T10:29:33Z</time>
      </trkpt>
      <trkpt lat="42.42101" lon="2.20239">
        <ele>2603.39</ele>
        <time>2016-06-30T10:29:41Z</time>
      </trkpt>
      <trkpt lat="42.42105" lon="2.20241">
        <ele>2606.75</ele>
        <time>2016-06-30T10:29:47Z</time>
      </trkpt>
      <trkpt lat="42.42105" lon="2.20243">
        <ele>2607.71</ele>
        <time>2016-06-30T10:29:59Z</time>
      </trkpt>
      <trkpt lat="42.42105" lon="2.20241">
        <ele>2606.75</ele>
        <time>2016-06-30T10:30:20Z</time>
      </trkpt>
      <trkpt lat="42.42105" lon="2.20241">
        <ele>2606.27</ele>
        <time>2016-06-30T10:30:42Z</time>
      </trkpt>
      <trkpt lat="42.42113" lon="2.20244">
        <ele>2606.27</ele>
        <time>2016-06-30T10:30:48Z</time>
      </trkpt>
      <trkpt lat="42.42129" lon="2.20242">
        <ele>2605.31</ele>
        <time>2016-06-30T10:31:00Z</time>
      </trkpt>
      <trkpt lat="42.42139" lon="2.20247">
        <ele>2603.87</ele>
        <time>2016-06-30T10:31:12Z</time>
      </trkpt>
      <trkpt lat="42.4214" lon="2.20247">
        <ele>2602.91</ele>
        <time>2016-06-30T10:31:17Z</time>
      </trkpt>
      <trkpt lat="42.42144" lon="2.20241">
        <ele>2601.46</ele>
        <time>2016-06-30T10:31:28Z</time>
      </trkpt>
      <trkpt lat="42.42147" lon="2.20241">
        <ele>2599.54</ele>
        <time>2016-06-30T10:31:36Z</time>
      </trkpt>
      <trkpt lat="42.4215" lon="2.2024">
        <ele>2597.14</ele>
        <time>2016-06-30T10:31:39Z</time>
      </trkpt>
      <trkpt lat="42.42154" lon="2.20238">
        <ele>2593.29</ele>
        <time>2016-06-30T10:31:45Z</time>
      </trkpt>
      <trkpt lat="42.42157" lon="2.20236">
        <ele>2592.81</ele>
        <time>2016-06-30T10:31:50Z</time>
      </trkpt>
      <trkpt lat="42.4216" lon="2.20228">
        <ele>2592.81</ele>
        <time>2016-06-30T10:31:57Z</time>
      </trkpt>
      <trkpt lat="42.4216" lon="2.20224">
        <ele>2592.33</ele>
        <time>2016-06-30T10:32:00Z</time>
      </trkpt>
      <trkpt lat="42.42162" lon="2.20221">
        <ele>2591.85</ele>
        <time>2016-06-30T10:32:04Z</time>
      </trkpt>
      <trkpt lat="42.42165" lon="2.20222">
        <ele>2590.41</ele>
        <time>2016-06-30T10:32:09Z</time>
      </trkpt>
      <trkpt lat="42.42168" lon="2.20215">
        <ele>2587.53</ele>
        <time>2016-06-30T10:32:15Z</time>
      </trkpt>
      <trkpt lat="42.42172" lon="2.2021">
        <ele>2583.2</ele>
        <time>2016-06-30T10:32:20Z</time>
      </trkpt>
      <trkpt lat="42.42173" lon="2.20207">
        <ele>2581.28</ele>
        <time>2016-06-30T10:32:22Z</time>
      </trkpt>
      <trkpt lat="42.42181" lon="2.2021">
        <ele>2579.84</ele>
        <time>2016-06-30T10:32:33Z</time>
      </trkpt>
      <trkpt lat="42.42184" lon="2.20214">
        <ele>2579.35</ele>
        <time>2016-06-30T10:32:43Z</time>
      </trkpt>
      <trkpt lat="42.42186" lon="2.20215">
        <ele>2579.35</ele>
        <time>2016-06-30T10:32:46Z</time>
      </trkpt>
      <trkpt lat="42.42189" lon="2.20215">
        <ele>2577.91</ele>
        <time>2016-06-30T10:32:53Z</time>
      </trkpt>
      <trkpt lat="42.4219" lon="2.20212">
        <ele>2576.95</ele>
        <time>2016-06-30T10:32:56Z</time>
      </trkpt>
      <trkpt lat="42.42193" lon="2.20215">
        <ele>2573.59</ele>
        <time>2016-06-30T10:33:02Z</time>
      </trkpt>
      <trkpt lat="42.42196" lon="2.20217">
        <ele>2570.7</ele>
        <time>2016-06-30T10:33:06Z</time>
      </trkpt>
      <trkpt lat="42.42196" lon="2.20217">
        <ele>2570.22</ele>
        <time>2016-06-30T10:33:07Z</time>
      </trkpt>
      <trkpt lat="42.42196" lon="2.20221">
        <ele>2569.74</ele>
        <time>2016-06-30T10:33:11Z</time>
      </trkpt>
      <trkpt lat="42.42197" lon="2.20225">
        <ele>2569.74</ele>
        <time>2016-06-30T10:33:21Z</time>
      </trkpt>
      <trkpt lat="42.42198" lon="2.20224">
        <ele>2569.74</ele>
        <time>2016-06-30T10:33:24Z</time>
      </trkpt>
      <trkpt lat="42.42201" lon="2.20217">
        <ele>2568.3</ele>
        <time>2016-06-30T10:33:30Z</time>
      </trkpt>
      <trkpt lat="42.42206" lon="2.20214">
        <ele>2566.38</ele>
        <time>2016-06-30T10:33:42Z</time>
      </trkpt>
      <trkpt lat="42.42208" lon="2.20217">
        <ele>2564.93</ele>
        <time>2016-06-30T10:33:55Z</time>
      </trkpt>
      <trkpt lat="42.42208" lon="2.20218">
        <ele>2564.93</ele>
        <time>2016-06-30T10:33:56Z</time>
      </trkpt>
      <trkpt lat="42.42208" lon="2.20223">
        <ele>2564.45</ele>
        <time>2016-06-30T10:33:59Z</time>
      </trkpt>
      <trkpt lat="42.42209" lon="2.20225">
        <ele>2563.97</ele>
        <time>2016-06-30T10:34:01Z</time>
      </trkpt>
      <trkpt lat="42.42211" lon="2.20234">
        <ele>2562.05</ele>
        <time>2016-06-30T10:34:10Z</time>
      </trkpt>
      <trkpt lat="42.42209" lon="2.20238">
        <ele>2562.05</ele>
        <time>2016-06-30T10:34:13Z</time>
      </trkpt>
      <trkpt lat="42.42206" lon="2.2024">
        <ele>2562.05</ele>
        <time>2016-06-30T10:34:16Z</time>
      </trkpt>
      <trkpt lat="42.42206" lon="2.20244">
        <ele>2562.05</ele>
        <time>2016-06-30T10:34:19Z</time>
      </trkpt>
      <trkpt lat="42.42204" lon="2.20246">
        <ele>2561.09</ele>
        <time>2016-06-30T10:34:25Z</time>
      </trkpt>
      <trkpt lat="42.42206" lon="2.20249">
        <ele>2560.13</ele>
        <time>2016-06-30T10:34:30Z</time>
      </trkpt>
      <trkpt lat="42.42205" lon="2.20256">
        <ele>2555.8</ele>
        <time>2016-06-30T10:34:37Z</time>
      </trkpt>
      <trkpt lat="42.42205" lon="2.20257">
        <ele>2555.32</ele>
        <time>2016-06-30T10:34:38Z</time>
      </trkpt>
      <trkpt lat="42.42208" lon="2.20255">
        <ele>2553.4</ele>
        <time>2016-06-30T10:34:49Z</time>
      </trkpt>
      <trkpt lat="42.42209" lon="2.20255">
        <ele>2553.4</ele>
        <time>2016-06-30T10:34:52Z</time>
      </trkpt>
      <trkpt lat="42.42213" lon="2.20249">
        <ele>2553.4</ele>
        <time>2016-06-30T10:35:02Z</time>
      </trkpt>
      <trkpt lat="42.42213" lon="2.20251">
        <ele>2553.4</ele>
        <time>2016-06-30T10:35:04Z</time>
      </trkpt>
      <trkpt lat="42.42215" lon="2.2025">
        <ele>2552.44</ele>
        <time>2016-06-30T10:35:06Z</time>
      </trkpt>
      <trkpt lat="42.42218" lon="2.20258">
        <ele>2551</ele>
        <time>2016-06-30T10:35:15Z</time>
      </trkpt>
      <trkpt lat="42.4222" lon="2.20258">
        <ele>2550.03</ele>
        <time>2016-06-30T10:35:18Z</time>
      </trkpt>
      <trkpt lat="42.42226" lon="2.20252">
        <ele>2546.67</ele>
        <time>2016-06-30T10:35:26Z</time>
      </trkpt>
      <trkpt lat="42.42229" lon="2.20252">
        <ele>2543.79</ele>
        <time>2016-06-30T10:35:31Z</time>
      </trkpt>
      <trkpt lat="42.4223" lon="2.20251">
        <ele>2542.82</ele>
        <time>2016-06-30T10:35:33Z</time>
      </trkpt>
      <trkpt lat="42.42232" lon="2.20252">
        <ele>2543.31</ele>
        <time>2016-06-30T10:35:36Z</time>
      </trkpt>
      <trkpt lat="42.42237" lon="2.20252">
        <ele>2542.34</ele>
        <time>2016-06-30T10:35:47Z</time>
      </trkpt>
      <trkpt lat="42.42239" lon="2.20254">
        <ele>2541.86</ele>
        <time>2016-06-30T10:35:53Z</time>
      </trkpt>
      <trkpt lat="42.42242" lon="2.20256">
        <ele>2540.9</ele>
        <time>2016-06-30T10:35:59Z</time>
      </trkpt>
      <trkpt lat="42.42246" lon="2.20258">
        <ele>2539.46</ele>
        <time>2016-06-30T10:36:06Z</time>
      </trkpt>
      <trkpt lat="42.42249" lon="2.20262">
        <ele>2538.5</ele>
        <time>2016-06-30T10:36:10Z</time>
      </trkpt>
      <trkpt lat="42.42254" lon="2.2026">
        <ele>2535.13</ele>
        <time>2016-06-30T10:36:20Z</time>
      </trkpt>
      <trkpt lat="42.42257" lon="2.20266">
        <ele>2532.25</ele>
        <time>2016-06-30T10:36:31Z</time>
      </trkpt>
      <trkpt lat="42.42258" lon="2.20266">
        <ele>2532.25</ele>
        <time>2016-06-30T10:36:32Z</time>
      </trkpt>
      <trkpt lat="42.4226" lon="2.20268">
        <ele>2532.25</ele>
        <time>2016-06-30T10:36:36Z</time>
      </trkpt>
      <trkpt lat="42.42263" lon="2.20266">
        <ele>2531.29</ele>
        <time>2016-06-30T10:36:40Z</time>
      </trkpt>
      <trkpt lat="42.42271" lon="2.20269">
        <ele>2530.33</ele>
        <time>2016-06-30T10:36:48Z</time>
      </trkpt>
      <trkpt lat="42.42278" lon="2.20275">
        <ele>2528.89</ele>
        <time>2016-06-30T10:36:57Z</time>
      </trkpt>
      <trkpt lat="42.42281" lon="2.20275">
        <ele>2528.89</ele>
        <time>2016-06-30T10:37:00Z</time>
      </trkpt>
      <trkpt lat="42.42285" lon="2.2028">
        <ele>2528.4</ele>
        <time>2016-06-30T10:37:04Z</time>
      </trkpt>
      <trkpt lat="42.42288" lon="2.20286">
        <ele>2527.44</ele>
        <time>2016-06-30T10:37:13Z</time>
      </trkpt>
      <trkpt lat="42.42291" lon="2.20288">
        <ele>2526.96</ele>
        <time>2016-06-30T10:37:16Z</time>
      </trkpt>
      <trkpt lat="42.42292" lon="2.20294">
        <ele>2526.48</ele>
        <time>2016-06-30T10:37:24Z</time>
      </trkpt>
      <trkpt lat="42.42305" lon="2.20291">
        <ele>2526</ele>
        <time>2016-06-30T10:37:36Z</time>
      </trkpt>
      <trkpt lat="42.42313" lon="2.20289">
        <ele>2526</ele>
        <time>2016-06-30T10:37:44Z</time>
      </trkpt>
      <trkpt lat="42.42315" lon="2.20297">
        <ele>2524.08</ele>
        <time>2016-06-30T10:37:58Z</time>
      </trkpt>
      <trkpt lat="42.42316" lon="2.20294">
        <ele>2523.12</ele>
        <time>2016-06-30T10:38:22Z</time>
      </trkpt>
      <trkpt lat="42.42316" lon="2.20292">
        <ele>2523.12</ele>
        <time>2016-06-30T10:38:28Z</time>
      </trkpt>
      <trkpt lat="42.42316" lon="2.20287">
        <ele>2523.12</ele>
        <time>2016-06-30T10:38:32Z</time>
      </trkpt>
      <trkpt lat="42.42328" lon="2.20296">
        <ele>2523.12</ele>
        <time>2016-06-30T10:38:44Z</time>
      </trkpt>
      <trkpt lat="42.42331" lon="2.203">
        <ele>2522.64</ele>
        <time>2016-06-30T10:38:48Z</time>
      </trkpt>
      <trkpt lat="42.4234" lon="2.20301">
        <ele>2520.71</ele>
        <time>2016-06-30T10:38:57Z</time>
      </trkpt>
      <trkpt lat="42.42344" lon="2.20305">
        <ele>2520.23</ele>
        <time>2016-06-30T10:39:02Z</time>
      </trkpt>
      <trkpt lat="42.42347" lon="2.20307">
        <ele>2520.23</ele>
        <time>2016-06-30T10:39:05Z</time>
      </trkpt>
      <trkpt lat="42.42348" lon="2.20315">
        <ele>2518.31</ele>
        <time>2016-06-30T10:39:19Z</time>
      </trkpt>
      <trkpt lat="42.42349" lon="2.20315">
        <ele>2517.35</ele>
        <time>2016-06-30T10:39:35Z</time>
      </trkpt>
      <trkpt lat="42.42347" lon="2.20314">
        <ele>2516.87</ele>
        <time>2016-06-30T10:39:50Z</time>
      </trkpt>
      <trkpt lat="42.42348" lon="2.20314">
        <ele>2516.87</ele>
        <time>2016-06-30T10:39:59Z</time>
      </trkpt>
      <trkpt lat="42.42351" lon="2.20309">
        <ele>2516.87</ele>
        <time>2016-06-30T10:40:03Z</time>
      </trkpt>
      <trkpt lat="42.42353" lon="2.20307">
        <ele>2516.87</ele>
        <time>2016-06-30T10:40:05Z</time>
      </trkpt>
      <trkpt lat="42.42359" lon="2.203">
        <ele>2516.39</ele>
        <time>2016-06-30T10:40:13Z</time>
      </trkpt>
      <trkpt lat="42.42361" lon="2.20297">
        <ele>2515.43</ele>
        <time>2016-06-30T10:40:16Z</time>
      </trkpt>
      <trkpt lat="42.42376" lon="2.20296">
        <ele>2513.98</ele>
        <time>2016-06-30T10:40:27Z</time>
      </trkpt>
      <trkpt lat="42.42377" lon="2.20296">
        <ele>2513.98</ele>
        <time>2016-06-30T10:40:28Z</time>
      </trkpt>
      <trkpt lat="42.42378" lon="2.20295">
        <ele>2513.5</ele>
        <time>2016-06-30T10:40:30Z</time>
      </trkpt>
      <trkpt lat="42.42383" lon="2.20277">
        <ele>2512.06</ele>
        <time>2016-06-30T10:40:41Z</time>
      </trkpt>
      <trkpt lat="42.42384" lon="2.20269">
        <ele>2511.58</ele>
        <time>2016-06-30T10:40:46Z</time>
      </trkpt>
      <trkpt lat="42.42386" lon="2.20261">
        <ele>2510.62</ele>
        <time>2016-06-30T10:40:53Z</time>
      </trkpt>
      <trkpt lat="42.42387" lon="2.20251">
        <ele>2508.7</ele>
        <time>2016-06-30T10:41:00Z</time>
      </trkpt>
      <trkpt lat="42.42388" lon="2.20245">
        <ele>2507.74</ele>
        <time>2016-06-30T10:41:05Z</time>
      </trkpt>
      <trkpt lat="42.42387" lon="2.20239">
        <ele>2506.77</ele>
        <time>2016-06-30T10:41:09Z</time>
      </trkpt>
      <trkpt lat="42.42391" lon="2.20229">
        <ele>2503.41</ele>
        <time>2016-06-30T10:41:15Z</time>
      </trkpt>
      <trkpt lat="42.42398" lon="2.20227">
        <ele>2501.49</ele>
        <time>2016-06-30T10:41:21Z</time>
      </trkpt>
      <trkpt lat="42.424" lon="2.20222">
        <ele>2501.49</ele>
        <time>2016-06-30T10:41:25Z</time>
      </trkpt>
      <trkpt lat="42.42401" lon="2.20218">
        <ele>2501.49</ele>
        <time>2016-06-30T10:41:28Z</time>
      </trkpt>
      <trkpt lat="42.42401" lon="2.20216">
        <ele>2501.49</ele>
        <time>2016-06-30T10:41:30Z</time>
      </trkpt>
      <trkpt lat="42.42409" lon="2.20208">
        <ele>2501.49</ele>
        <time>2016-06-30T10:41:40Z</time>
      </trkpt>
      <trkpt lat="42.42411" lon="2.20205">
        <ele>2501.49</ele>
        <time>2016-06-30T10:41:44Z</time>
      </trkpt>
      <trkpt lat="42.42413" lon="2.202">
        <ele>2501.49</ele>
        <time>2016-06-30T10:41:48Z</time>
      </trkpt>
      <trkpt lat="42.42415" lon="2.20195">
        <ele>2500.53</ele>
        <time>2016-06-30T10:41:53Z</time>
      </trkpt>
      <trkpt lat="42.42417" lon="2.20194">
        <ele>2500.53</ele>
        <time>2016-06-30T10:41:55Z</time>
      </trkpt>
      <trkpt lat="42.42419" lon="2.20185">
        <ele>2498.12</ele>
        <time>2016-06-30T10:42:05Z</time>
      </trkpt>
      <trkpt lat="42.42414" lon="2.20182">
        <ele>2496.2</ele>
        <time>2016-06-30T10:42:11Z</time>
      </trkpt>
      <trkpt lat="42.42413" lon="2.20176">
        <ele>2492.36</ele>
        <time>2016-06-30T10:42:16Z</time>
      </trkpt>
      <trkpt lat="42.42415" lon="2.20173">
        <ele>2491.39</ele>
        <time>2016-06-30T10:42:20Z</time>
      </trkpt>
      <trkpt lat="42.42417" lon="2.20162">
        <ele>2491.39</ele>
        <time>2016-06-30T10:42:30Z</time>
      </trkpt>
      <trkpt lat="42.42419" lon="2.20155">
        <ele>2491.39</ele>
        <time>2016-06-30T10:42:37Z</time>
      </trkpt>
      <trkpt lat="42.42421" lon="2.20149">
        <ele>2489.47</ele>
        <time>2016-06-30T10:42:47Z</time>
      </trkpt>
      <trkpt lat="42.42423" lon="2.20145">
        <ele>2488.99</ele>
        <time>2016-06-30T10:42:51Z</time>
      </trkpt>
      <trkpt lat="42.42422" lon="2.20142">
        <ele>2487.55</ele>
        <time>2016-06-30T10:42:55Z</time>
      </trkpt>
      <trkpt lat="42.42422" lon="2.20141">
        <ele>2487.55</ele>
        <time>2016-06-30T10:42:57Z</time>
      </trkpt>
      <trkpt lat="42.4242" lon="2.2014">
        <ele>2483.22</ele>
        <time>2016-06-30T10:43:05Z</time>
      </trkpt>
      <trkpt lat="42.42418" lon="2.20135">
        <ele>2481.3</ele>
        <time>2016-06-30T10:43:12Z</time>
      </trkpt>
      <trkpt lat="42.42419" lon="2.20129">
        <ele>2481.3</ele>
        <time>2016-06-30T10:43:18Z</time>
      </trkpt>
      <trkpt lat="42.42421" lon="2.20124">
        <ele>2479.86</ele>
        <time>2016-06-30T10:43:23Z</time>
      </trkpt>
      <trkpt lat="42.42421" lon="2.20122">
        <ele>2479.86</ele>
        <time>2016-06-30T10:43:25Z</time>
      </trkpt>
      <trkpt lat="42.42425" lon="2.20106">
        <ele>2477.94</ele>
        <time>2016-06-30T10:43:36Z</time>
      </trkpt>
      <trkpt lat="42.42425" lon="2.20106">
        <ele>2477.94</ele>
        <time>2016-06-30T10:43:37Z</time>
      </trkpt>
      <trkpt lat="42.42423" lon="2.201">
        <ele>2474.57</ele>
        <time>2016-06-30T10:43:43Z</time>
      </trkpt>
      <trkpt lat="42.42424" lon="2.20097">
        <ele>2473.61</ele>
        <time>2016-06-30T10:43:45Z</time>
      </trkpt>
      <trkpt lat="42.42425" lon="2.20092">
        <ele>2472.65</ele>
        <time>2016-06-30T10:43:49Z</time>
      </trkpt>
      <trkpt lat="42.42422" lon="2.20086">
        <ele>2472.65</ele>
        <time>2016-06-30T10:43:54Z</time>
      </trkpt>
      <trkpt lat="42.42426" lon="2.20077">
        <ele>2472.17</ele>
        <time>2016-06-30T10:44:05Z</time>
      </trkpt>
      <trkpt lat="42.42426" lon="2.20075">
        <ele>2472.17</ele>
        <time>2016-06-30T10:44:11Z</time>
      </trkpt>
      <trkpt lat="42.42429" lon="2.20067">
        <ele>2470.73</ele>
        <time>2016-06-30T10:44:21Z</time>
      </trkpt>
      <trkpt lat="42.42428" lon="2.20057">
        <ele>2468.32</ele>
        <time>2016-06-30T10:44:34Z</time>
      </trkpt>
      <trkpt lat="42.42428" lon="2.2005">
        <ele>2464.48</ele>
        <time>2016-06-30T10:44:42Z</time>
      </trkpt>
      <trkpt lat="42.42427" lon="2.20051">
        <ele>2462.55</ele>
        <time>2016-06-30T10:44:53Z</time>
      </trkpt>
      <trkpt lat="42.42427" lon="2.20051">
        <ele>2463.52</ele>
        <time>2016-06-30T10:45:13Z</time>
      </trkpt>
      <trkpt lat="42.42427" lon="2.20051">
        <ele>2463.52</ele>
        <time>2016-06-30T10:45:19Z</time>
      </trkpt>
      <trkpt lat="42.42426" lon="2.2005">
        <ele>2463.52</ele>
        <time>2016-06-30T10:45:21Z</time>
      </trkpt>
      <trkpt lat="42.42424" lon="2.20044">
        <ele>2462.07</ele>
        <time>2016-06-30T10:45:32Z</time>
      </trkpt>
      <trkpt lat="42.42422" lon="2.20038">
        <ele>2460.63</ele>
        <time>2016-06-30T10:45:39Z</time>
      </trkpt>
      <trkpt lat="42.42421" lon="2.20034">
        <ele>2459.19</ele>
        <time>2016-06-30T10:45:46Z</time>
      </trkpt>
      <trkpt lat="42.42421" lon="2.20027">
        <ele>2455.82</ele>
        <time>2016-06-30T10:45:52Z</time>
      </trkpt>
      <trkpt lat="42.42422" lon="2.20021">
        <ele>2452.46</ele>
        <time>2016-06-30T10:45:58Z</time>
      </trkpt>
      <trkpt lat="42.42423" lon="2.20017">
        <ele>2452.46</ele>
        <time>2016-06-30T10:46:02Z</time>
      </trkpt>
      <trkpt lat="42.42423" lon="2.20008">
        <ele>2452.46</ele>
        <time>2016-06-30T10:46:14Z</time>
      </trkpt>
      <trkpt lat="42.42426" lon="2.19997">
        <ele>2451.02</ele>
        <time>2016-06-30T10:46:26Z</time>
      </trkpt>
      <trkpt lat="42.42425" lon="2.19996">
        <ele>2447.65</ele>
        <time>2016-06-30T10:46:32Z</time>
      </trkpt>
      <trkpt lat="42.42427" lon="2.19986">
        <ele>2445.73</ele>
        <time>2016-06-30T10:46:43Z</time>
      </trkpt>
      <trkpt lat="42.42427" lon="2.19986">
        <ele>2445.73</ele>
        <time>2016-06-30T10:46:44Z</time>
      </trkpt>
      <trkpt lat="42.42425" lon="2.19979">
        <ele>2444.77</ele>
        <time>2016-06-30T10:46:54Z</time>
      </trkpt>
      <trkpt lat="42.42424" lon="2.19978">
        <ele>2444.29</ele>
        <time>2016-06-30T10:46:58Z</time>
      </trkpt>
      <trkpt lat="42.42424" lon="2.19969">
        <ele>2441.41</ele>
        <time>2016-06-30T10:47:10Z</time>
      </trkpt>
      <trkpt lat="42.42422" lon="2.19966">
        <ele>2439.96</ele>
        <time>2016-06-30T10:47:23Z</time>
      </trkpt>
      <trkpt lat="42.42419" lon="2.19959">
        <ele>2438.52</ele>
        <time>2016-06-30T10:47:33Z</time>
      </trkpt>
      <trkpt lat="42.42419" lon="2.19957">
        <ele>2438.04</ele>
        <time>2016-06-30T10:47:37Z</time>
      </trkpt>
      <trkpt lat="42.42418" lon="2.19949">
        <ele>2437.08</ele>
        <time>2016-06-30T10:47:43Z</time>
      </trkpt>
      <trkpt lat="42.42418" lon="2.19942">
        <ele>2435.64</ele>
        <time>2016-06-30T10:47:49Z</time>
      </trkpt>
      <trkpt lat="42.42419" lon="2.19939">
        <ele>2435.16</ele>
        <time>2016-06-30T10:47:51Z</time>
      </trkpt>
      <trkpt lat="42.42422" lon="2.19931">
        <ele>2434.68</ele>
        <time>2016-06-30T10:47:57Z</time>
      </trkpt>
      <trkpt lat="42.42426" lon="2.19926">
        <ele>2434.2</ele>
        <time>2016-06-30T10:48:01Z</time>
      </trkpt>
      <trkpt lat="42.42431" lon="2.19917">
        <ele>2432.75</ele>
        <time>2016-06-30T10:48:09Z</time>
      </trkpt>
      <trkpt lat="42.42432" lon="2.19914">
        <ele>2432.75</ele>
        <time>2016-06-30T10:48:11Z</time>
      </trkpt>
      <trkpt lat="42.42433" lon="2.19911">
        <ele>2432.75</ele>
        <time>2016-06-30T10:48:13Z</time>
      </trkpt>
      <trkpt lat="42.42439" lon="2.19904">
        <ele>2431.79</ele>
        <time>2016-06-30T10:48:20Z</time>
      </trkpt>
      <trkpt lat="42.42448" lon="2.1989">
        <ele>2430.83</ele>
        <time>2016-06-30T10:48:33Z</time>
      </trkpt>
      <trkpt lat="42.42455" lon="2.19885">
        <ele>2430.35</ele>
        <time>2016-06-30T10:48:43Z</time>
      </trkpt>
      <trkpt lat="42.42462" lon="2.19876">
        <ele>2429.87</ele>
        <time>2016-06-30T10:48:52Z</time>
      </trkpt>
      <trkpt lat="42.42462" lon="2.19873">
        <ele>2429.87</ele>
        <time>2016-06-30T10:48:56Z</time>
      </trkpt>
      <trkpt lat="42.42464" lon="2.19867">
        <ele>2429.39</ele>
        <time>2016-06-30T10:49:00Z</time>
      </trkpt>
      <trkpt lat="42.42466" lon="2.1986">
        <ele>2428.91</ele>
        <time>2016-06-30T10:49:04Z</time>
      </trkpt>
      <trkpt lat="42.4247" lon="2.19857">
        <ele>2427.95</ele>
        <time>2016-06-30T10:49:08Z</time>
      </trkpt>
      <trkpt lat="42.42472" lon="2.19847">
        <ele>2426.5</ele>
        <time>2016-06-30T10:49:16Z</time>
      </trkpt>
      <trkpt lat="42.42474" lon="2.19844">
        <ele>2426.02</ele>
        <time>2016-06-30T10:49:19Z</time>
      </trkpt>
      <trkpt lat="42.42477" lon="2.19843">
        <ele>2426.02</ele>
        <time>2016-06-30T10:49:22Z</time>
      </trkpt>
      <trkpt lat="42.42479" lon="2.19843">
        <ele>2425.06</ele>
        <time>2016-06-30T10:49:24Z</time>
      </trkpt>
      <trkpt lat="42.42488" lon="2.1984">
        <ele>2424.1</ele>
        <time>2016-06-30T10:49:34Z</time>
      </trkpt>
      <trkpt lat="42.4249" lon="2.19835">
        <ele>2423.14</ele>
        <time>2016-06-30T10:49:39Z</time>
      </trkpt>
      <trkpt lat="42.42492" lon="2.19832">
        <ele>2422.66</ele>
        <time>2016-06-30T10:49:43Z</time>
      </trkpt>
      <trkpt lat="42.42496" lon="2.19825">
        <ele>2421.22</ele>
        <time>2016-06-30T10:49:49Z</time>
      </trkpt>
      <trkpt lat="42.42499" lon="2.19823">
        <ele>2420.74</ele>
        <time>2016-06-30T10:49:52Z</time>
      </trkpt>
      <trkpt lat="42.42506" lon="2.19818">
        <ele>2418.81</ele>
        <time>2016-06-30T10:50:00Z</time>
      </trkpt>
      <trkpt lat="42.42512" lon="2.19816">
        <ele>2417.85</ele>
        <time>2016-06-30T10:50:06Z</time>
      </trkpt>
      <trkpt lat="42.42522" lon="2.19809">
        <ele>2416.41</ele>
        <time>2016-06-30T10:50:15Z</time>
      </trkpt>
      <trkpt lat="42.42527" lon="2.19807">
        <ele>2415.93</ele>
        <time>2016-06-30T10:50:19Z</time>
      </trkpt>
      <trkpt lat="42.4253" lon="2.19801">
        <ele>2415.45</ele>
        <time>2016-06-30T10:50:23Z</time>
      </trkpt>
      <trkpt lat="42.42534" lon="2.19792">
        <ele>2414.97</ele>
        <time>2016-06-30T10:50:30Z</time>
      </trkpt>
      <trkpt lat="42.42536" lon="2.19788">
        <ele>2414.49</ele>
        <time>2016-06-30T10:50:33Z</time>
      </trkpt>
      <trkpt lat="42.42539" lon="2.19781">
        <ele>2414.01</ele>
        <time>2016-06-30T10:50:38Z</time>
      </trkpt>
      <trkpt lat="42.42541" lon="2.19776">
        <ele>2413.05</ele>
        <time>2016-06-30T10:50:43Z</time>
      </trkpt>
      <trkpt lat="42.4254" lon="2.1977">
        <ele>2412.09</ele>
        <time>2016-06-30T10:50:52Z</time>
      </trkpt>
      <trkpt lat="42.42539" lon="2.19768">
        <ele>2411.6</ele>
        <time>2016-06-30T10:50:55Z</time>
      </trkpt>
      <trkpt lat="42.4254" lon="2.19752">
        <ele>2410.64</ele>
        <time>2016-06-30T10:51:07Z</time>
      </trkpt>
      <trkpt lat="42.42542" lon="2.19746">
        <ele>2409.2</ele>
        <time>2016-06-30T10:51:13Z</time>
      </trkpt>
      <trkpt lat="42.42544" lon="2.19744">
        <ele>2408.72</ele>
        <time>2016-06-30T10:51:16Z</time>
      </trkpt>
      <trkpt lat="42.42545" lon="2.19737">
        <ele>2407.76</ele>
        <time>2016-06-30T10:51:23Z</time>
      </trkpt>
      <trkpt lat="42.42551" lon="2.19724">
        <ele>2406.8</ele>
        <time>2016-06-30T10:51:33Z</time>
      </trkpt>
      <trkpt lat="42.42555" lon="2.19713">
        <ele>2405.36</ele>
        <time>2016-06-30T10:51:42Z</time>
      </trkpt>
      <trkpt lat="42.4256" lon="2.1971">
        <ele>2404.88</ele>
        <time>2016-06-30T10:51:46Z</time>
      </trkpt>
      <trkpt lat="42.42561" lon="2.19708">
        <ele>2404.39</ele>
        <time>2016-06-30T10:51:48Z</time>
      </trkpt>
      <trkpt lat="42.42563" lon="2.19707">
        <ele>2404.39</ele>
        <time>2016-06-30T10:51:50Z</time>
      </trkpt>
      <trkpt lat="42.42568" lon="2.197">
        <ele>2403.43</ele>
        <time>2016-06-30T10:51:56Z</time>
      </trkpt>
      <trkpt lat="42.42573" lon="2.19694">
        <ele>2402.47</ele>
        <time>2016-06-30T10:52:02Z</time>
      </trkpt>
      <trkpt lat="42.42576" lon="2.19689">
        <ele>2401.99</ele>
        <time>2016-06-30T10:52:09Z</time>
      </trkpt>
      <trkpt lat="42.42571" lon="2.19686">
        <ele>2401.03</ele>
        <time>2016-06-30T10:52:17Z</time>
      </trkpt>
      <trkpt lat="42.42569" lon="2.19673">
        <ele>2400.07</ele>
        <time>2016-06-30T10:52:27Z</time>
      </trkpt>
      <trkpt lat="42.42571" lon="2.19667">
        <ele>2399.11</ele>
        <time>2016-06-30T10:52:31Z</time>
      </trkpt>
      <trkpt lat="42.42574" lon="2.19664">
        <ele>2399.11</ele>
        <time>2016-06-30T10:52:35Z</time>
      </trkpt>
      <trkpt lat="42.42576" lon="2.19655">
        <ele>2397.67</ele>
        <time>2016-06-30T10:52:46Z</time>
      </trkpt>
      <trkpt lat="42.42579" lon="2.19648">
        <ele>2395.74</ele>
        <time>2016-06-30T10:52:56Z</time>
      </trkpt>
      <trkpt lat="42.42578" lon="2.19641">
        <ele>2394.78</ele>
        <time>2016-06-30T10:53:05Z</time>
      </trkpt>
      <trkpt lat="42.42581" lon="2.19633">
        <ele>2394.3</ele>
        <time>2016-06-30T10:53:11Z</time>
      </trkpt>
      <trkpt lat="42.42583" lon="2.19631">
        <ele>2393.82</ele>
        <time>2016-06-30T10:53:14Z</time>
      </trkpt>
      <trkpt lat="42.42586" lon="2.19624">
        <ele>2392.38</ele>
        <time>2016-06-30T10:53:20Z</time>
      </trkpt>
      <trkpt lat="42.4259" lon="2.19621">
        <ele>2391.42</ele>
        <time>2016-06-30T10:53:25Z</time>
      </trkpt>
      <trkpt lat="42.42592" lon="2.19614">
        <ele>2390.94</ele>
        <time>2016-06-30T10:53:30Z</time>
      </trkpt>
      <trkpt lat="42.42595" lon="2.19611">
        <ele>2389.97</ele>
        <time>2016-06-30T10:53:34Z</time>
      </trkpt>
      <trkpt lat="42.42602" lon="2.19608">
        <ele>2389.01</ele>
        <time>2016-06-30T10:53:42Z</time>
      </trkpt>
      <trkpt lat="42.42613" lon="2.19603">
        <ele>2387.09</ele>
        <time>2016-06-30T10:53:54Z</time>
      </trkpt>
      <trkpt lat="42.42617" lon="2.19601">
        <ele>2386.61</ele>
        <time>2016-06-30T10:54:00Z</time>
      </trkpt>
      <trkpt lat="42.42629" lon="2.19599">
        <ele>2385.17</ele>
        <time>2016-06-30T10:54:13Z</time>
      </trkpt>
      <trkpt lat="42.42633" lon="2.19597">
        <ele>2384.69</ele>
        <time>2016-06-30T10:54:17Z</time>
      </trkpt>
      <trkpt lat="42.42634" lon="2.19595">
        <ele>2384.69</ele>
        <time>2016-06-30T10:54:19Z</time>
      </trkpt>
      <trkpt lat="42.42638" lon="2.19591">
        <ele>2383.73</ele>
        <time>2016-06-30T10:54:25Z</time>
      </trkpt>
      <trkpt lat="42.42651" lon="2.19585">
        <ele>2381.32</ele>
        <time>2016-06-30T10:54:38Z</time>
      </trkpt>
      <trkpt lat="42.42652" lon="2.19585">
        <ele>2381.8</ele>
        <time>2016-06-30T10:54:39Z</time>
      </trkpt>
      <trkpt lat="42.42664" lon="2.19585">
        <ele>2380.84</ele>
        <time>2016-06-30T10:54:50Z</time>
      </trkpt>
      <trkpt lat="42.42677" lon="2.19588">
        <ele>2380.36</ele>
        <time>2016-06-30T10:55:01Z</time>
      </trkpt>
      <trkpt lat="42.42682" lon="2.19591">
        <ele>2380.36</ele>
        <time>2016-06-30T10:55:06Z</time>
      </trkpt>
      <trkpt lat="42.42693" lon="2.19589">
        <ele>2379.4</ele>
        <time>2016-06-30T10:55:18Z</time>
      </trkpt>
      <trkpt lat="42.42693" lon="2.1959">
        <ele>2379.4</ele>
        <time>2016-06-30T10:55:28Z</time>
      </trkpt>
      <trkpt lat="42.42705" lon="2.19588">
        <ele>2378.44</ele>
        <time>2016-06-30T10:55:39Z</time>
      </trkpt>
      <trkpt lat="42.4271" lon="2.19588">
        <ele>2377.96</ele>
        <time>2016-06-30T10:55:43Z</time>
      </trkpt>
      <trkpt lat="42.42711" lon="2.19589">
        <ele>2377.48</ele>
        <time>2016-06-30T10:55:45Z</time>
      </trkpt>
      <trkpt lat="42.42713" lon="2.19587">
        <ele>2377</ele>
        <time>2016-06-30T10:55:48Z</time>
      </trkpt>
      <trkpt lat="42.42716" lon="2.19584">
        <ele>2376.52</ele>
        <time>2016-06-30T10:55:51Z</time>
      </trkpt>
      <trkpt lat="42.42723" lon="2.1958">
        <ele>2376.04</ele>
        <time>2016-06-30T10:55:58Z</time>
      </trkpt>
      <trkpt lat="42.4273" lon="2.19571">
        <ele>2374.11</ele>
        <time>2016-06-30T10:56:07Z</time>
      </trkpt>
      <trkpt lat="42.42736" lon="2.19568">
        <ele>2373.63</ele>
        <time>2016-06-30T10:56:12Z</time>
      </trkpt>
      <trkpt lat="42.4274" lon="2.19569">
        <ele>2372.19</ele>
        <time>2016-06-30T10:56:16Z</time>
      </trkpt>
      <trkpt lat="42.42743" lon="2.19566">
        <ele>2371.71</ele>
        <time>2016-06-30T10:56:20Z</time>
      </trkpt>
      <trkpt lat="42.42745" lon="2.19562">
        <ele>2371.23</ele>
        <time>2016-06-30T10:56:24Z</time>
      </trkpt>
      <trkpt lat="42.42746" lon="2.1956">
        <ele>2370.75</ele>
        <time>2016-06-30T10:56:25Z</time>
      </trkpt>
      <trkpt lat="42.42748" lon="2.19556">
        <ele>2370.27</ele>
        <time>2016-06-30T10:56:29Z</time>
      </trkpt>
      <trkpt lat="42.4275" lon="2.19554">
        <ele>2370.27</ele>
        <time>2016-06-30T10:56:31Z</time>
      </trkpt>
      <trkpt lat="42.42753" lon="2.19554">
        <ele>2369.79</ele>
        <time>2016-06-30T10:56:34Z</time>
      </trkpt>
      <trkpt lat="42.42755" lon="2.19551">
        <ele>2366.9</ele>
        <time>2016-06-30T10:56:38Z</time>
      </trkpt>
      <trkpt lat="42.42759" lon="2.19547">
        <ele>2362.1</ele>
        <time>2016-06-30T10:56:43Z</time>
      </trkpt>
      <trkpt lat="42.42759" lon="2.19546">
        <ele>2361.62</ele>
        <time>2016-06-30T10:56:44Z</time>
      </trkpt>
      <trkpt lat="42.4276" lon="2.19544">
        <ele>2360.65</ele>
        <time>2016-06-30T10:56:46Z</time>
      </trkpt>
      <trkpt lat="42.42763" lon="2.19542">
        <ele>2360.17</ele>
        <time>2016-06-30T10:56:56Z</time>
      </trkpt>
      <trkpt lat="42.42764" lon="2.19542">
        <ele>2360.17</ele>
        <time>2016-06-30T10:57:08Z</time>
      </trkpt>
      <trkpt lat="42.42764" lon="2.19542">
        <ele>2360.17</ele>
        <time>2016-06-30T10:57:20Z</time>
      </trkpt>
      <trkpt lat="42.42764" lon="2.19542">
        <ele>2359.69</ele>
        <time>2016-06-30T10:57:35Z</time>
      </trkpt>
      <trkpt lat="42.42763" lon="2.19543">
        <ele>2359.69</ele>
        <time>2016-06-30T10:57:50Z</time>
      </trkpt>
      <trkpt lat="42.42765" lon="2.1954">
        <ele>2359.69</ele>
        <time>2016-06-30T10:57:56Z</time>
      </trkpt>
      <trkpt lat="42.42769" lon="2.19532">
        <ele>2359.69</ele>
        <time>2016-06-30T10:58:02Z</time>
      </trkpt>
      <trkpt lat="42.4277" lon="2.19529">
        <ele>2359.21</ele>
        <time>2016-06-30T10:58:05Z</time>
      </trkpt>
      <trkpt lat="42.4277" lon="2.19527">
        <ele>2358.73</ele>
        <time>2016-06-30T10:58:07Z</time>
      </trkpt>
      <trkpt lat="42.4277" lon="2.19521">
        <ele>2358.25</ele>
        <time>2016-06-30T10:58:11Z</time>
      </trkpt>
      <trkpt lat="42.42773" lon="2.19519">
        <ele>2358.25</ele>
        <time>2016-06-30T10:58:15Z</time>
      </trkpt>
      <trkpt lat="42.42775" lon="2.19519">
        <ele>2357.29</ele>
        <time>2016-06-30T10:58:17Z</time>
      </trkpt>
      <trkpt lat="42.42778" lon="2.19512">
        <ele>2356.81</ele>
        <time>2016-06-30T10:58:27Z</time>
      </trkpt>
      <trkpt lat="42.42781" lon="2.1951">
        <ele>2356.33</ele>
        <time>2016-06-30T10:58:31Z</time>
      </trkpt>
      <trkpt lat="42.42784" lon="2.1951">
        <ele>2355.37</ele>
        <time>2016-06-30T10:58:39Z</time>
      </trkpt>
      <trkpt lat="42.42787" lon="2.19505">
        <ele>2354.41</ele>
        <time>2016-06-30T10:58:43Z</time>
      </trkpt>
      <trkpt lat="42.42798" lon="2.19511">
        <ele>2352.96</ele>
        <time>2016-06-30T10:58:54Z</time>
      </trkpt>
      <trkpt lat="42.42804" lon="2.19514">
        <ele>2351.52</ele>
        <time>2016-06-30T10:59:00Z</time>
      </trkpt>
      <trkpt lat="42.42807" lon="2.19515">
        <ele>2351.04</ele>
        <time>2016-06-30T10:59:03Z</time>
      </trkpt>
      <trkpt lat="42.42814" lon="2.19517">
        <ele>2348.16</ele>
        <time>2016-06-30T10:59:09Z</time>
      </trkpt>
      <trkpt lat="42.4283" lon="2.19521">
        <ele>2345.75</ele>
        <time>2016-06-30T10:59:20Z</time>
      </trkpt>
      <trkpt lat="42.42835" lon="2.19527">
        <ele>2345.75</ele>
        <time>2016-06-30T10:59:29Z</time>
      </trkpt>
      <trkpt lat="42.42837" lon="2.19534">
        <ele>2345.75</ele>
        <time>2016-06-30T10:59:34Z</time>
      </trkpt>
      <trkpt lat="42.42841" lon="2.19535">
        <ele>2345.75</ele>
        <time>2016-06-30T10:59:37Z</time>
      </trkpt>
      <trkpt lat="42.42849" lon="2.19537">
        <ele>2345.75</ele>
        <time>2016-06-30T10:59:43Z</time>
      </trkpt>
      <trkpt lat="42.42853" lon="2.19536">
        <ele>2345.27</ele>
        <time>2016-06-30T10:59:46Z</time>
      </trkpt>
      <trkpt lat="42.42859" lon="2.19539">
        <ele>2345.27</ele>
        <time>2016-06-30T10:59:52Z</time>
      </trkpt>
      <trkpt lat="42.42861" lon="2.19542">
        <ele>2345.27</ele>
        <time>2016-06-30T10:59:55Z</time>
      </trkpt>
      <trkpt lat="42.42867" lon="2.19546">
        <ele>2345.27</ele>
        <time>2016-06-30T11:00:03Z</time>
      </trkpt>
      <trkpt lat="42.42873" lon="2.19557">
        <ele>2343.83</ele>
        <time>2016-06-30T11:00:14Z</time>
      </trkpt>
      <trkpt lat="42.42873" lon="2.19564">
        <ele>2343.35</ele>
        <time>2016-06-30T11:00:19Z</time>
      </trkpt>
      <trkpt lat="42.42875" lon="2.1957">
        <ele>2342.87</ele>
        <time>2016-06-30T11:00:24Z</time>
      </trkpt>
      <trkpt lat="42.42877" lon="2.19574">
        <ele>2342.87</ele>
        <time>2016-06-30T11:00:28Z</time>
      </trkpt>
      <trkpt lat="42.4288" lon="2.1958">
        <ele>2342.87</ele>
        <time>2016-06-30T11:00:34Z</time>
      </trkpt>
      <trkpt lat="42.42883" lon="2.1958">
        <ele>2342.39</ele>
        <time>2016-06-30T11:00:37Z</time>
      </trkpt>
      <trkpt lat="42.42885" lon="2.19582">
        <ele>2342.39</ele>
        <time>2016-06-30T11:00:41Z</time>
      </trkpt>
      <trkpt lat="42.42891" lon="2.19586">
        <ele>2340.95</ele>
        <time>2016-06-30T11:00:49Z</time>
      </trkpt>
      <trkpt lat="42.42895" lon="2.19584">
        <ele>2340.47</ele>
        <time>2016-06-30T11:00:53Z</time>
      </trkpt>
      <trkpt lat="42.42903" lon="2.19588">
        <ele>2339.99</ele>
        <time>2016-06-30T11:00:59Z</time>
      </trkpt>
      <trkpt lat="42.42912" lon="2.19599">
        <ele>2338.54</ele>
        <time>2016-06-30T11:01:13Z</time>
      </trkpt>
      <trkpt lat="42.42914" lon="2.196">
        <ele>2339.02</ele>
        <time>2016-06-30T11:01:15Z</time>
      </trkpt>
      <trkpt lat="42.42917" lon="2.19602">
        <ele>2338.06</ele>
        <time>2016-06-30T11:01:19Z</time>
      </trkpt>
      <trkpt lat="42.4292" lon="2.19608">
        <ele>2337.1</ele>
        <time>2016-06-30T11:01:28Z</time>
      </trkpt>
      <trkpt lat="42.42924" lon="2.19606">
        <ele>2336.14</ele>
        <time>2016-06-30T11:01:33Z</time>
      </trkpt>
      <trkpt lat="42.42927" lon="2.19608">
        <ele>2332.3</ele>
        <time>2016-06-30T11:01:37Z</time>
      </trkpt>
      <trkpt lat="42.42928" lon="2.19611">
        <ele>2332.3</ele>
        <time>2016-06-30T11:01:39Z</time>
      </trkpt>
      <trkpt lat="42.42934" lon="2.19621">
        <ele>2330.85</ele>
        <time>2016-06-30T11:01:50Z</time>
      </trkpt>
      <trkpt lat="42.42935" lon="2.19621">
        <ele>2330.85</ele>
        <time>2016-06-30T11:01:52Z</time>
      </trkpt>
      <trkpt lat="42.4295" lon="2.19627">
        <ele>2328.93</ele>
        <time>2016-06-30T11:02:06Z</time>
      </trkpt>
      <trkpt lat="42.42963" lon="2.1963">
        <ele>2325.57</ele>
        <time>2016-06-30T11:02:18Z</time>
      </trkpt>
      <trkpt lat="42.42969" lon="2.19635">
        <ele>2322.68</ele>
        <time>2016-06-30T11:02:25Z</time>
      </trkpt>
      <trkpt lat="42.42971" lon="2.19636">
        <ele>2320.28</ele>
        <time>2016-06-30T11:02:28Z</time>
      </trkpt>
      <trkpt lat="42.42979" lon="2.19635">
        <ele>2318.84</ele>
        <time>2016-06-30T11:02:37Z</time>
      </trkpt>
      <trkpt lat="42.42987" lon="2.19639">
        <ele>2318.84</ele>
        <time>2016-06-30T11:02:47Z</time>
      </trkpt>
      <trkpt lat="42.42994" lon="2.19643">
        <ele>2317.4</ele>
        <time>2016-06-30T11:02:55Z</time>
      </trkpt>
      <trkpt lat="42.43002" lon="2.19651">
        <ele>2315.47</ele>
        <time>2016-06-30T11:03:07Z</time>
      </trkpt>
      <trkpt lat="42.43003" lon="2.19651">
        <ele>2314.99</ele>
        <time>2016-06-30T11:03:10Z</time>
      </trkpt>
      <trkpt lat="42.43003" lon="2.19649">
        <ele>2314.03</ele>
        <time>2016-06-30T11:03:16Z</time>
      </trkpt>
      <trkpt lat="42.43005" lon="2.19649">
        <ele>2313.55</ele>
        <time>2016-06-30T11:03:19Z</time>
      </trkpt>
      <trkpt lat="42.43015" lon="2.19645">
        <ele>2312.59</ele>
        <time>2016-06-30T11:03:28Z</time>
      </trkpt>
      <trkpt lat="42.43024" lon="2.1964">
        <ele>2311.63</ele>
        <time>2016-06-30T11:03:35Z</time>
      </trkpt>
      <trkpt lat="42.43043" lon="2.19641">
        <ele>2310.19</ele>
        <time>2016-06-30T11:03:50Z</time>
      </trkpt>
      <trkpt lat="42.43045" lon="2.19641">
        <ele>2310.19</ele>
        <time>2016-06-30T11:03:52Z</time>
      </trkpt>
      <trkpt lat="42.43048" lon="2.19645">
        <ele>2309.7</ele>
        <time>2016-06-30T11:03:56Z</time>
      </trkpt>
      <trkpt lat="42.43053" lon="2.1965">
        <ele>2309.22</ele>
        <time>2016-06-30T11:04:01Z</time>
      </trkpt>
      <trkpt lat="42.43067" lon="2.19653">
        <ele>2307.78</ele>
        <time>2016-06-30T11:04:12Z</time>
      </trkpt>
      <trkpt lat="42.43075" lon="2.19652">
        <ele>2307.78</ele>
        <time>2016-06-30T11:04:23Z</time>
      </trkpt>
      <trkpt lat="42.43084" lon="2.19656">
        <ele>2307.78</ele>
        <time>2016-06-30T11:04:30Z</time>
      </trkpt>
      <trkpt lat="42.43087" lon="2.19656">
        <ele>2307.78</ele>
        <time>2016-06-30T11:04:32Z</time>
      </trkpt>
      <trkpt lat="42.43096" lon="2.19658">
        <ele>2309.22</ele>
        <time>2016-06-30T11:04:40Z</time>
      </trkpt>
      <trkpt lat="42.43102" lon="2.19663">
        <ele>2309.22</ele>
        <time>2016-06-30T11:04:47Z</time>
      </trkpt>
      <trkpt lat="42.43109" lon="2.19665">
        <ele>2310.19</ele>
        <time>2016-06-30T11:04:58Z</time>
      </trkpt>
      <trkpt lat="42.43111" lon="2.19663">
        <ele>2310.19</ele>
        <time>2016-06-30T11:05:01Z</time>
      </trkpt>
      <trkpt lat="42.43109" lon="2.19676">
        <ele>2259.72</ele>
        <time>2016-06-30T12:01:47Z</time>
      </trkpt>
      <trkpt lat="42.43108" lon="2.19674">
        <ele>2259.72</ele>
        <time>2016-06-30T12:01:48Z</time>
      </trkpt>
      <trkpt lat="42.43111" lon="2.19677">
        <ele>2263.08</ele>
        <time>2016-06-30T12:01:53Z</time>
      </trkpt>
      <trkpt lat="42.43114" lon="2.19677">
        <ele>2265.96</ele>
        <time>2016-06-30T12:01:56Z</time>
      </trkpt>
      <trkpt lat="42.4312" lon="2.19679">
        <ele>2269.81</ele>
        <time>2016-06-30T12:02:00Z</time>
      </trkpt>
      <trkpt lat="42.43123" lon="2.19682">
        <ele>2272.69</ele>
        <time>2016-06-30T12:02:04Z</time>
      </trkpt>
      <trkpt lat="42.43129" lon="2.19683">
        <ele>2276.06</ele>
        <time>2016-06-30T12:02:09Z</time>
      </trkpt>
      <trkpt lat="42.43131" lon="2.19684">
        <ele>2277.02</ele>
        <time>2016-06-30T12:02:11Z</time>
      </trkpt>
      <trkpt lat="42.43134" lon="2.19684">
        <ele>2278.94</ele>
        <time>2016-06-30T12:02:15Z</time>
      </trkpt>
      <trkpt lat="42.43136" lon="2.19684">
        <ele>2280.38</ele>
        <time>2016-06-30T12:02:18Z</time>
      </trkpt>
      <trkpt lat="42.4314" lon="2.19683">
        <ele>2281.83</ele>
        <time>2016-06-30T12:02:22Z</time>
      </trkpt>
      <trkpt lat="42.43144" lon="2.19684">
        <ele>2283.27</ele>
        <time>2016-06-30T12:02:26Z</time>
      </trkpt>
      <trkpt lat="42.43148" lon="2.19685">
        <ele>2284.23</ele>
        <time>2016-06-30T12:02:29Z</time>
      </trkpt>
      <trkpt lat="42.43161" lon="2.19683">
        <ele>2288.08</ele>
        <time>2016-06-30T12:02:42Z</time>
      </trkpt>
      <trkpt lat="42.43163" lon="2.19683">
        <ele>2288.56</ele>
        <time>2016-06-30T12:02:46Z</time>
      </trkpt>
      <trkpt lat="42.43171" lon="2.1969">
        <ele>2289.04</ele>
        <time>2016-06-30T12:02:59Z</time>
      </trkpt>
      <trkpt lat="42.43177" lon="2.19689">
        <ele>2288.08</ele>
        <time>2016-06-30T12:03:10Z</time>
      </trkpt>
      <trkpt lat="42.43181" lon="2.19688">
        <ele>2286.63</ele>
        <time>2016-06-30T12:03:14Z</time>
      </trkpt>
      <trkpt lat="42.43187" lon="2.19683">
        <ele>2286.15</ele>
        <time>2016-06-30T12:03:27Z</time>
      </trkpt>
      <trkpt lat="42.43189" lon="2.19683">
        <ele>2286.15</ele>
        <time>2016-06-30T12:03:28Z</time>
      </trkpt>
      <trkpt lat="42.43195" lon="2.19681">
        <ele>2284.23</ele>
        <time>2016-06-30T12:03:39Z</time>
      </trkpt>
      <trkpt lat="42.43202" lon="2.19683">
        <ele>2283.27</ele>
        <time>2016-06-30T12:03:49Z</time>
      </trkpt>
      <trkpt lat="42.43209" lon="2.19682">
        <ele>2282.31</ele>
        <time>2016-06-30T12:03:59Z</time>
      </trkpt>
      <trkpt lat="42.4322" lon="2.19684">
        <ele>2280.38</ele>
        <time>2016-06-30T12:04:12Z</time>
      </trkpt>
      <trkpt lat="42.43228" lon="2.19686">
        <ele>2278.94</ele>
        <time>2016-06-30T12:04:23Z</time>
      </trkpt>
      <trkpt lat="42.43231" lon="2.19688">
        <ele>2277.98</ele>
        <time>2016-06-30T12:04:28Z</time>
      </trkpt>
      <trkpt lat="42.43239" lon="2.19689">
        <ele>2275.58</ele>
        <time>2016-06-30T12:04:38Z</time>
      </trkpt>
      <trkpt lat="42.4324" lon="2.19691">
        <ele>2275.58</ele>
        <time>2016-06-30T12:04:40Z</time>
      </trkpt>
      <trkpt lat="42.43244" lon="2.19693">
        <ele>2274.62</ele>
        <time>2016-06-30T12:04:43Z</time>
      </trkpt>
      <trkpt lat="42.43247" lon="2.19698">
        <ele>2274.14</ele>
        <time>2016-06-30T12:04:48Z</time>
      </trkpt>
      <trkpt lat="42.43254" lon="2.19707">
        <ele>2272.69</ele>
        <time>2016-06-30T12:04:56Z</time>
      </trkpt>
      <trkpt lat="42.43269" lon="2.19716">
        <ele>2270.77</ele>
        <time>2016-06-30T12:05:10Z</time>
      </trkpt>
      <trkpt lat="42.43273" lon="2.19719">
        <ele>2269.81</ele>
        <time>2016-06-30T12:05:15Z</time>
      </trkpt>
      <trkpt lat="42.43284" lon="2.19715">
        <ele>2269.33</ele>
        <time>2016-06-30T12:05:27Z</time>
      </trkpt>
      <trkpt lat="42.43299" lon="2.19721">
        <ele>2268.37</ele>
        <time>2016-06-30T12:05:42Z</time>
      </trkpt>
      <trkpt lat="42.43307" lon="2.1973">
        <ele>2267.89</ele>
        <time>2016-06-30T12:05:51Z</time>
      </trkpt>
      <trkpt lat="42.43309" lon="2.19731">
        <ele>2267.89</ele>
        <time>2016-06-30T12:05:53Z</time>
      </trkpt>
      <trkpt lat="42.43317" lon="2.19746">
        <ele>2266.45</ele>
        <time>2016-06-30T12:06:04Z</time>
      </trkpt>
      <trkpt lat="42.43319" lon="2.19747">
        <ele>2266.45</ele>
        <time>2016-06-30T12:06:06Z</time>
      </trkpt>
      <trkpt lat="42.43326" lon="2.1975">
        <ele>2265.96</ele>
        <time>2016-06-30T12:06:16Z</time>
      </trkpt>
      <trkpt lat="42.43329" lon="2.19751">
        <ele>2265.96</ele>
        <time>2016-06-30T12:06:20Z</time>
      </trkpt>
      <trkpt lat="42.43335" lon="2.19755">
        <ele>2265.96</ele>
        <time>2016-06-30T12:06:25Z</time>
      </trkpt>
      <trkpt lat="42.43337" lon="2.19759">
        <ele>2265.96</ele>
        <time>2016-06-30T12:06:28Z</time>
      </trkpt>
      <trkpt lat="42.43339" lon="2.1976">
        <ele>2265.96</ele>
        <time>2016-06-30T12:06:30Z</time>
      </trkpt>
      <trkpt lat="42.43346" lon="2.19765">
        <ele>2265</ele>
        <time>2016-06-30T12:06:37Z</time>
      </trkpt>
      <trkpt lat="42.43351" lon="2.19773">
        <ele>2265</ele>
        <time>2016-06-30T12:06:43Z</time>
      </trkpt>
      <trkpt lat="42.43358" lon="2.19781">
        <ele>2264.52</ele>
        <time>2016-06-30T12:06:54Z</time>
      </trkpt>
      <trkpt lat="42.43359" lon="2.19783">
        <ele>2264.52</ele>
        <time>2016-06-30T12:06:56Z</time>
      </trkpt>
      <trkpt lat="42.43363" lon="2.1979">
        <ele>2265</ele>
        <time>2016-06-30T12:07:03Z</time>
      </trkpt>
      <trkpt lat="42.43365" lon="2.19794">
        <ele>2265</ele>
        <time>2016-06-30T12:07:06Z</time>
      </trkpt>
      <trkpt lat="42.43365" lon="2.198">
        <ele>2265</ele>
        <time>2016-06-30T12:07:11Z</time>
      </trkpt>
      <trkpt lat="42.43367" lon="2.19807">
        <ele>2264.52</ele>
        <time>2016-06-30T12:07:16Z</time>
      </trkpt>
      <trkpt lat="42.43371" lon="2.19807">
        <ele>2264.52</ele>
        <time>2016-06-30T12:07:19Z</time>
      </trkpt>
      <trkpt lat="42.43375" lon="2.1981">
        <ele>2264.52</ele>
        <time>2016-06-30T12:07:23Z</time>
      </trkpt>
      <trkpt lat="42.43379" lon="2.19807">
        <ele>2264.52</ele>
        <time>2016-06-30T12:07:29Z</time>
      </trkpt>
      <trkpt lat="42.43383" lon="2.1981">
        <ele>2265.48</ele>
        <time>2016-06-30T12:07:41Z</time>
      </trkpt>
      <trkpt lat="42.43382" lon="2.19809">
        <ele>2266.45</ele>
        <time>2016-06-30T12:07:48Z</time>
      </trkpt>
      <trkpt lat="42.43382" lon="2.19809">
        <ele>2266.45</ele>
        <time>2016-06-30T12:07:57Z</time>
      </trkpt>
      <trkpt lat="42.43382" lon="2.19809">
        <ele>2266.45</ele>
        <time>2016-06-30T12:08:15Z</time>
      </trkpt>
      <trkpt lat="42.43381" lon="2.19809">
        <ele>2265.48</ele>
        <time>2016-06-30T12:08:30Z</time>
      </trkpt>
      <trkpt lat="42.43382" lon="2.19808">
        <ele>2265.48</ele>
        <time>2016-06-30T12:08:40Z</time>
      </trkpt>
      <trkpt lat="42.43383" lon="2.19808">
        <ele>2265.48</ele>
        <time>2016-06-30T12:08:57Z</time>
      </trkpt>
      <trkpt lat="42.43385" lon="2.19805">
        <ele>2265.48</ele>
        <time>2016-06-30T12:09:02Z</time>
      </trkpt>
      <trkpt lat="42.43385" lon="2.19803">
        <ele>2265.48</ele>
        <time>2016-06-30T12:09:03Z</time>
      </trkpt>
      <trkpt lat="42.43387" lon="2.198">
        <ele>2265.48</ele>
        <time>2016-06-30T12:09:14Z</time>
      </trkpt>
      <trkpt lat="42.43388" lon="2.19796">
        <ele>2266.45</ele>
        <time>2016-06-30T12:09:18Z</time>
      </trkpt>
      <trkpt lat="42.43388" lon="2.19799">
        <ele>2266.93</ele>
        <time>2016-06-30T12:09:33Z</time>
      </trkpt>
      <trkpt lat="42.43387" lon="2.198">
        <ele>2265.96</ele>
        <time>2016-06-30T12:09:55Z</time>
      </trkpt>
      <trkpt lat="42.43386" lon="2.19802">
        <ele>2265.96</ele>
        <time>2016-06-30T12:10:21Z</time>
      </trkpt>
      <trkpt lat="42.43387" lon="2.19802">
        <ele>2265.96</ele>
        <time>2016-06-30T12:10:50Z</time>
      </trkpt>
      <trkpt lat="42.43387" lon="2.198">
        <ele>2265.96</ele>
        <time>2016-06-30T12:11:16Z</time>
      </trkpt>
      <trkpt lat="42.43389" lon="2.19799">
        <ele>2265.96</ele>
        <time>2016-06-30T12:11:43Z</time>
      </trkpt>
      <trkpt lat="42.43389" lon="2.198">
        <ele>2265.96</ele>
        <time>2016-06-30T12:12:11Z</time>
      </trkpt>
      <trkpt lat="42.43389" lon="2.198">
        <ele>2265.96</ele>
        <time>2016-06-30T12:12:41Z</time>
      </trkpt>
      <trkpt lat="42.43389" lon="2.198">
        <ele>2265.96</ele>
        <time>2016-06-30T12:13:08Z</time>
      </trkpt>
      <trkpt lat="42.43389" lon="2.198">
        <ele>2265.96</ele>
        <time>2016-06-30T12:13:35Z</time>
      </trkpt>
      <trkpt lat="42.43385" lon="2.19799">
        <ele>2265.96</ele>
        <time>2016-06-30T12:14:04Z</time>
      </trkpt>
      <trkpt lat="42.43388" lon="2.198">
        <ele>2265.96</ele>
        <time>2016-06-30T12:14:30Z</time>
      </trkpt>
      <trkpt lat="42.43388" lon="2.198">
        <ele>2267.41</ele>
        <time>2016-06-30T12:14:35Z</time>
      </trkpt>
      <trkpt lat="42.43388" lon="2.19799">
        <ele>2267.41</ele>
        <time>2016-06-30T12:15:02Z</time>
      </trkpt>
      <trkpt lat="42.4339" lon="2.19798">
        <ele>2267.41</ele>
        <time>2016-06-30T12:15:30Z</time>
      </trkpt>
      <trkpt lat="42.43388" lon="2.19799">
        <ele>2267.89</ele>
        <time>2016-06-30T12:16:01Z</time>
      </trkpt>
      <trkpt lat="42.43386" lon="2.19798">
        <ele>2267.89</ele>
        <time>2016-06-30T12:16:18Z</time>
      </trkpt>
      <trkpt lat="42.43384" lon="2.198">
        <ele>2267.89</ele>
        <time>2016-06-30T12:16:21Z</time>
      </trkpt>
      <trkpt lat="42.43384" lon="2.19802">
        <ele>2267.89</ele>
        <time>2016-06-30T12:16:23Z</time>
      </trkpt>
      <trkpt lat="42.43382" lon="2.19804">
        <ele>2267.89</ele>
        <time>2016-06-30T12:16:25Z</time>
      </trkpt>
      <trkpt lat="42.43382" lon="2.1981">
        <ele>2267.89</ele>
        <time>2016-06-30T12:16:29Z</time>
      </trkpt>
      <trkpt lat="42.43383" lon="2.19813">
        <ele>2267.89</ele>
        <time>2016-06-30T12:16:33Z</time>
      </trkpt>
      <trkpt lat="42.43383" lon="2.19815">
        <ele>2267.89</ele>
        <time>2016-06-30T12:16:34Z</time>
      </trkpt>
      <trkpt lat="42.43385" lon="2.19816">
        <ele>2267.89</ele>
        <time>2016-06-30T12:16:36Z</time>
      </trkpt>
      <trkpt lat="42.43387" lon="2.19821">
        <ele>2267.89</ele>
        <time>2016-06-30T12:16:44Z</time>
      </trkpt>
      <trkpt lat="42.43385" lon="2.19818">
        <ele>2267.89</ele>
        <time>2016-06-30T12:16:46Z</time>
      </trkpt>
      <trkpt lat="42.43385" lon="2.19817">
        <ele>2267.89</ele>
        <time>2016-06-30T12:16:47Z</time>
      </trkpt>
      <trkpt lat="42.43386" lon="2.19816">
        <ele>2267.89</ele>
        <time>2016-06-30T12:16:48Z</time>
      </trkpt>
      <trkpt lat="42.43389" lon="2.19817">
        <ele>2267.89</ele>
        <time>2016-06-30T12:16:53Z</time>
      </trkpt>
      <trkpt lat="42.43389" lon="2.19815">
        <ele>2267.89</ele>
        <time>2016-06-30T12:16:56Z</time>
      </trkpt>
      <trkpt lat="42.43389" lon="2.19814">
        <ele>2267.89</ele>
        <time>2016-06-30T12:16:57Z</time>
      </trkpt>
      <trkpt lat="42.43388" lon="2.19809">
        <ele>2267.89</ele>
        <time>2016-06-30T12:17:01Z</time>
      </trkpt>
      <trkpt lat="42.43387" lon="2.19807">
        <ele>2267.89</ele>
        <time>2016-06-30T12:17:04Z</time>
      </trkpt>
      <trkpt lat="42.43388" lon="2.19803">
        <ele>2267.89</ele>
        <time>2016-06-30T12:17:07Z</time>
      </trkpt>
      <trkpt lat="42.43389" lon="2.19801">
        <ele>2267.89</ele>
        <time>2016-06-30T12:17:18Z</time>
      </trkpt>
      <trkpt lat="42.43389" lon="2.198">
        <ele>2267.89</ele>
        <time>2016-06-30T12:17:52Z</time>
      </trkpt>
      <trkpt lat="42.43389" lon="2.198">
        <ele>2267.89</ele>
        <time>2016-06-30T12:18:18Z</time>
      </trkpt>
      <trkpt lat="42.43389" lon="2.198">
        <ele>2267.89</ele>
        <time>2016-06-30T12:18:46Z</time>
      </trkpt>
      <trkpt lat="42.43389" lon="2.19799">
        <ele>2267.89</ele>
        <time>2016-06-30T12:19:09Z</time>
      </trkpt>
      <trkpt lat="42.43388" lon="2.19798">
        <ele>2267.89</ele>
        <time>2016-06-30T12:19:32Z</time>
      </trkpt>
      <trkpt lat="42.43389" lon="2.19798">
        <ele>2267.89</ele>
        <time>2016-06-30T12:19:54Z</time>
      </trkpt>
      <trkpt lat="42.43389" lon="2.19799">
        <ele>2267.89</ele>
        <time>2016-06-30T12:20:20Z</time>
      </trkpt>
      <trkpt lat="42.43388" lon="2.198">
        <ele>2267.89</ele>
        <time>2016-06-30T12:20:43Z</time>
      </trkpt>
      <trkpt lat="42.43388" lon="2.19807">
        <ele>2267.89</ele>
        <time>2016-06-30T12:20:48Z</time>
      </trkpt>
      <trkpt lat="42.43388" lon="2.19808">
        <ele>2267.89</ele>
        <time>2016-06-30T12:20:49Z</time>
      </trkpt>
      <trkpt lat="42.43387" lon="2.1981">
        <ele>2267.89</ele>
        <time>2016-06-30T12:20:50Z</time>
      </trkpt>
      <trkpt lat="42.4339" lon="2.19816">
        <ele>2267.89</ele>
        <time>2016-06-30T12:20:57Z</time>
      </trkpt>
      <trkpt lat="42.434" lon="2.19826">
        <ele>2267.89</ele>
        <time>2016-06-30T12:21:08Z</time>
      </trkpt>
      <trkpt lat="42.434" lon="2.19829">
        <ele>2267.89</ele>
        <time>2016-06-30T12:21:10Z</time>
      </trkpt>
      <trkpt lat="42.43402" lon="2.19832">
        <ele>2267.89</ele>
        <time>2016-06-30T12:21:12Z</time>
      </trkpt>
      <trkpt lat="42.43402" lon="2.19836">
        <ele>2267.89</ele>
        <time>2016-06-30T12:21:15Z</time>
      </trkpt>
      <trkpt lat="42.43404" lon="2.19843">
        <ele>2267.89</ele>
        <time>2016-06-30T12:21:21Z</time>
      </trkpt>
      <trkpt lat="42.43406" lon="2.19846">
        <ele>2266.93</ele>
        <time>2016-06-30T12:21:24Z</time>
      </trkpt>
      <trkpt lat="42.43406" lon="2.19847">
        <ele>2266.93</ele>
        <time>2016-06-30T12:21:25Z</time>
      </trkpt>
      <trkpt lat="42.43411" lon="2.19857">
        <ele>2266.93</ele>
        <time>2016-06-30T12:21:33Z</time>
      </trkpt>
      <trkpt lat="42.43411" lon="2.19859">
        <ele>2266.93</ele>
        <time>2016-06-30T12:21:34Z</time>
      </trkpt>
      <trkpt lat="42.43412" lon="2.1986">
        <ele>2266.93</ele>
        <time>2016-06-30T12:21:35Z</time>
      </trkpt>
      <trkpt lat="42.43412" lon="2.19866">
        <ele>2266.93</ele>
        <time>2016-06-30T12:21:39Z</time>
      </trkpt>
      <trkpt lat="42.43414" lon="2.19869">
        <ele>2266.93</ele>
        <time>2016-06-30T12:21:41Z</time>
      </trkpt>
      <trkpt lat="42.43414" lon="2.19872">
        <ele>2266.93</ele>
        <time>2016-06-30T12:21:43Z</time>
      </trkpt>
      <trkpt lat="42.43413" lon="2.19879">
        <ele>2266.93</ele>
        <time>2016-06-30T12:21:47Z</time>
      </trkpt>
      <trkpt lat="42.43414" lon="2.1988">
        <ele>2266.93</ele>
        <time>2016-06-30T12:21:49Z</time>
      </trkpt>
      <trkpt lat="42.43412" lon="2.19884">
        <ele>2266.93</ele>
        <time>2016-06-30T12:21:51Z</time>
      </trkpt>
      <trkpt lat="42.43413" lon="2.19889">
        <ele>2266.93</ele>
        <time>2016-06-30T12:21:55Z</time>
      </trkpt>
      <trkpt lat="42.43416" lon="2.19894">
        <ele>2266.93</ele>
        <time>2016-06-30T12:21:59Z</time>
      </trkpt>
      <trkpt lat="42.43416" lon="2.19896">
        <ele>2266.93</ele>
        <time>2016-06-30T12:22:00Z</time>
      </trkpt>
      <trkpt lat="42.43418" lon="2.199">
        <ele>2266.93</ele>
        <time>2016-06-30T12:22:04Z</time>
      </trkpt>
      <trkpt lat="42.43417" lon="2.19906">
        <ele>2266.93</ele>
        <time>2016-06-30T12:22:07Z</time>
      </trkpt>
      <trkpt lat="42.43419" lon="2.19907">
        <ele>2266.93</ele>
        <time>2016-06-30T12:22:09Z</time>
      </trkpt>
      <trkpt lat="42.4342" lon="2.19908">
        <ele>2266.93</ele>
        <time>2016-06-30T12:22:10Z</time>
      </trkpt>
      <trkpt lat="42.43427" lon="2.19922">
        <ele>2266.93</ele>
        <time>2016-06-30T12:22:20Z</time>
      </trkpt>
      <trkpt lat="42.4343" lon="2.1993">
        <ele>2266.93</ele>
        <time>2016-06-30T12:22:26Z</time>
      </trkpt>
      <trkpt lat="42.43433" lon="2.19938">
        <ele>2265.48</ele>
        <time>2016-06-30T12:22:35Z</time>
      </trkpt>
      <trkpt lat="42.43431" lon="2.19941">
        <ele>2265.48</ele>
        <time>2016-06-30T12:22:37Z</time>
      </trkpt>
      <trkpt lat="42.43431" lon="2.19943">
        <ele>2265.48</ele>
        <time>2016-06-30T12:22:38Z</time>
      </trkpt>
      <trkpt lat="42.43443" lon="2.19946">
        <ele>2265.48</ele>
        <time>2016-06-30T12:22:49Z</time>
      </trkpt>
      <trkpt lat="42.43453" lon="2.19949">
        <ele>2265.48</ele>
        <time>2016-06-30T12:22:57Z</time>
      </trkpt>
      <trkpt lat="42.43462" lon="2.19954">
        <ele>2265</ele>
        <time>2016-06-30T12:23:06Z</time>
      </trkpt>
      <trkpt lat="42.43464" lon="2.19954">
        <ele>2265</ele>
        <time>2016-06-30T12:23:08Z</time>
      </trkpt>
      <trkpt lat="42.43471" lon="2.19956">
        <ele>2265</ele>
        <time>2016-06-30T12:23:13Z</time>
      </trkpt>
      <trkpt lat="42.43473" lon="2.19961">
        <ele>2264.52</ele>
        <time>2016-06-30T12:23:19Z</time>
      </trkpt>
      <trkpt lat="42.43473" lon="2.19966">
        <ele>2264.52</ele>
        <time>2016-06-30T12:23:22Z</time>
      </trkpt>
      <trkpt lat="42.43472" lon="2.19977">
        <ele>2264.52</ele>
        <time>2016-06-30T12:23:30Z</time>
      </trkpt>
      <trkpt lat="42.4347" lon="2.19981">
        <ele>2264.52</ele>
        <time>2016-06-30T12:23:33Z</time>
      </trkpt>
      <trkpt lat="42.4347" lon="2.19995">
        <ele>2264.52</ele>
        <time>2016-06-30T12:23:43Z</time>
      </trkpt>
      <trkpt lat="42.43468" lon="2.19997">
        <ele>2264.52</ele>
        <time>2016-06-30T12:23:54Z</time>
      </trkpt>
      <trkpt lat="42.43468" lon="2.19996">
        <ele>2264.52</ele>
        <time>2016-06-30T12:24:11Z</time>
      </trkpt>
      <trkpt lat="42.43469" lon="2.19996">
        <ele>2264.52</ele>
        <time>2016-06-30T12:24:38Z</time>
      </trkpt>
      <trkpt lat="42.43469" lon="2.19995">
        <ele>2265</ele>
        <time>2016-06-30T12:25:05Z</time>
      </trkpt>
      <trkpt lat="42.4347" lon="2.19994">
        <ele>2265</ele>
        <time>2016-06-30T12:25:32Z</time>
      </trkpt>
      <trkpt lat="42.43471" lon="2.19994">
        <ele>2264.52</ele>
        <time>2016-06-30T12:25:55Z</time>
      </trkpt>
      <trkpt lat="42.4347" lon="2.19994">
        <ele>2264.52</ele>
        <time>2016-06-30T12:26:18Z</time>
      </trkpt>
      <trkpt lat="42.4347" lon="2.19995">
        <ele>2264.52</ele>
        <time>2016-06-30T12:26:40Z</time>
      </trkpt>
      <trkpt lat="42.43469" lon="2.19995">
        <ele>2264.52</ele>
        <time>2016-06-30T12:27:03Z</time>
      </trkpt>
      <trkpt lat="42.4347" lon="2.19995">
        <ele>2265</ele>
        <time>2016-06-30T12:27:24Z</time>
      </trkpt>
      <trkpt lat="42.4347" lon="2.19994">
        <ele>2264.52</ele>
        <time>2016-06-30T12:27:45Z</time>
      </trkpt>
      <trkpt lat="42.43469" lon="2.19994">
        <ele>2264.52</ele>
        <time>2016-06-30T12:28:07Z</time>
      </trkpt>
      <trkpt lat="42.43469" lon="2.19995">
        <ele>2264.52</ele>
        <time>2016-06-30T12:28:22Z</time>
      </trkpt>
      <trkpt lat="42.43468" lon="2.19994">
        <ele>2264.52</ele>
        <time>2016-06-30T12:28:46Z</time>
      </trkpt>
      <trkpt lat="42.43467" lon="2.19994">
        <ele>2264.52</ele>
        <time>2016-06-30T12:29:11Z</time>
      </trkpt>
      <trkpt lat="42.43468" lon="2.19995">
        <ele>2264.52</ele>
        <time>2016-06-30T12:29:39Z</time>
      </trkpt>
      <trkpt lat="42.43469" lon="2.19994">
        <ele>2264.52</ele>
        <time>2016-06-30T12:30:05Z</time>
      </trkpt>
      <trkpt lat="42.43469" lon="2.19995">
        <ele>2264.04</ele>
        <time>2016-06-30T12:30:35Z</time>
      </trkpt>
      <trkpt lat="42.43468" lon="2.19995">
        <ele>2264.04</ele>
        <time>2016-06-30T12:31:05Z</time>
      </trkpt>
      <trkpt lat="42.43468" lon="2.19995">
        <ele>2264.04</ele>
        <time>2016-06-30T12:31:31Z</time>
      </trkpt>
      <trkpt lat="42.43468" lon="2.19995">
        <ele>2264.52</ele>
        <time>2016-06-30T12:31:58Z</time>
      </trkpt>
      <trkpt lat="42.43468" lon="2.19995">
        <ele>2264.52</ele>
        <time>2016-06-30T12:32:26Z</time>
      </trkpt>
      <trkpt lat="42.43468" lon="2.19995">
        <ele>2264.52</ele>
        <time>2016-06-30T12:32:54Z</time>
      </trkpt>
      <trkpt lat="42.43468" lon="2.19995">
        <ele>2264.52</ele>
        <time>2016-06-30T12:33:19Z</time>
      </trkpt>
      <trkpt lat="42.43468" lon="2.19995">
        <ele>2264.52</ele>
        <time>2016-06-30T12:33:48Z</time>
      </trkpt>
      <trkpt lat="42.43468" lon="2.19995">
        <ele>2265</ele>
        <time>2016-06-30T12:34:13Z</time>
      </trkpt>
      <trkpt lat="42.43469" lon="2.19994">
        <ele>2265</ele>
        <time>2016-06-30T12:34:37Z</time>
      </trkpt>
      <trkpt lat="42.43468" lon="2.19995">
        <ele>2264.52</ele>
        <time>2016-06-30T12:35:07Z</time>
      </trkpt>
      <trkpt lat="42.43468" lon="2.19994">
        <ele>2264.52</ele>
        <time>2016-06-30T12:35:35Z</time>
      </trkpt>
      <trkpt lat="42.43468" lon="2.19995">
        <ele>2265</ele>
        <time>2016-06-30T12:36:01Z</time>
      </trkpt>
      <trkpt lat="42.43468" lon="2.19995">
        <ele>2265</ele>
        <time>2016-06-30T12:36:29Z</time>
      </trkpt>
      <trkpt lat="42.43468" lon="2.19995">
        <ele>2265</ele>
        <time>2016-06-30T12:36:52Z</time>
      </trkpt>
      <trkpt lat="42.43469" lon="2.19995">
        <ele>2265</ele>
        <time>2016-06-30T12:37:22Z</time>
      </trkpt>
      <trkpt lat="42.43468" lon="2.19995">
        <ele>2266.45</ele>
        <time>2016-06-30T12:37:47Z</time>
      </trkpt>
      <trkpt lat="42.43468" lon="2.19995">
        <ele>2266.45</ele>
        <time>2016-06-30T12:38:15Z</time>
      </trkpt>
      <trkpt lat="42.43468" lon="2.19995">
        <ele>2266.45</ele>
        <time>2016-06-30T12:38:47Z</time>
      </trkpt>
      <trkpt lat="42.43468" lon="2.19995">
        <ele>2266.45</ele>
        <time>2016-06-30T12:39:14Z</time>
      </trkpt>
      <trkpt lat="42.43468" lon="2.19995">
        <ele>2266.45</ele>
        <time>2016-06-30T12:39:38Z</time>
      </trkpt>
      <trkpt lat="42.43469" lon="2.19996">
        <ele>2266.93</ele>
        <time>2016-06-30T12:40:07Z</time>
      </trkpt>
      <trkpt lat="42.43468" lon="2.19996">
        <ele>2266.93</ele>
        <time>2016-06-30T12:40:37Z</time>
      </trkpt>
      <trkpt lat="42.43468" lon="2.19995">
        <ele>2267.41</ele>
        <time>2016-06-30T12:41:02Z</time>
      </trkpt>
      <trkpt lat="42.43468" lon="2.19995">
        <ele>2267.41</ele>
        <time>2016-06-30T12:41:33Z</time>
      </trkpt>
      <trkpt lat="42.43468" lon="2.19995">
        <ele>2267.41</ele>
        <time>2016-06-30T12:42:09Z</time>
      </trkpt>
      <trkpt lat="42.43469" lon="2.19996">
        <ele>2267.41</ele>
        <time>2016-06-30T12:42:44Z</time>
      </trkpt>
      <trkpt lat="42.43469" lon="2.19996">
        <ele>2268.37</ele>
        <time>2016-06-30T12:43:19Z</time>
      </trkpt>
      <trkpt lat="42.43469" lon="2.19996">
        <ele>2268.85</ele>
        <time>2016-06-30T12:43:46Z</time>
      </trkpt>
      <trkpt lat="42.4347" lon="2.19993">
        <ele>2269.33</ele>
        <time>2016-06-30T12:44:05Z</time>
      </trkpt>
      <trkpt lat="42.43471" lon="2.19989">
        <ele>2269.33</ele>
        <time>2016-06-30T12:44:09Z</time>
      </trkpt>
      <trkpt lat="42.43471" lon="2.19982">
        <ele>2269.33</ele>
        <time>2016-06-30T12:44:16Z</time>
      </trkpt>
      <trkpt lat="42.43472" lon="2.19971">
        <ele>2269.33</ele>
        <time>2016-06-30T12:44:27Z</time>
      </trkpt>
      <trkpt lat="42.43473" lon="2.19968">
        <ele>2269.33</ele>
        <time>2016-06-30T12:44:33Z</time>
      </trkpt>
      <trkpt lat="42.43473" lon="2.1996">
        <ele>2269.33</ele>
        <time>2016-06-30T12:44:41Z</time>
      </trkpt>
      <trkpt lat="42.43476" lon="2.1996">
        <ele>2269.33</ele>
        <time>2016-06-30T12:44:44Z</time>
      </trkpt>
      <trkpt lat="42.43478" lon="2.1996">
        <ele>2268.37</ele>
        <time>2016-06-30T12:44:46Z</time>
      </trkpt>
      <trkpt lat="42.4348" lon="2.19961">
        <ele>2268.37</ele>
        <time>2016-06-30T12:44:50Z</time>
      </trkpt>
      <trkpt lat="42.43483" lon="2.19961">
        <ele>2267.41</ele>
        <time>2016-06-30T12:44:55Z</time>
      </trkpt>
      <trkpt lat="42.4349" lon="2.19964">
        <ele>2266.93</ele>
        <time>2016-06-30T12:45:02Z</time>
      </trkpt>
      <trkpt lat="42.43492" lon="2.19964">
        <ele>2266.45</ele>
        <time>2016-06-30T12:45:04Z</time>
      </trkpt>
      <trkpt lat="42.43503" lon="2.19966">
        <ele>2265.96</ele>
        <time>2016-06-30T12:45:14Z</time>
      </trkpt>
      <trkpt lat="42.43504" lon="2.19967">
        <ele>2265.48</ele>
        <time>2016-06-30T12:45:16Z</time>
      </trkpt>
      <trkpt lat="42.43516" lon="2.19972">
        <ele>2265</ele>
        <time>2016-06-30T12:45:27Z</time>
      </trkpt>
      <trkpt lat="42.43518" lon="2.19974">
        <ele>2265</ele>
        <time>2016-06-30T12:45:29Z</time>
      </trkpt>
      <trkpt lat="42.4352" lon="2.19976">
        <ele>2265</ele>
        <time>2016-06-30T12:45:31Z</time>
      </trkpt>
      <trkpt lat="42.43534" lon="2.19985">
        <ele>2264.52</ele>
        <time>2016-06-30T12:45:45Z</time>
      </trkpt>
      <trkpt lat="42.43546" lon="2.19991">
        <ele>2264.52</ele>
        <time>2016-06-30T12:45:57Z</time>
      </trkpt>
      <trkpt lat="42.43556" lon="2.1999">
        <ele>2264.52</ele>
        <time>2016-06-30T12:46:07Z</time>
      </trkpt>
      <trkpt lat="42.43566" lon="2.19995">
        <ele>2266.45</ele>
        <time>2016-06-30T12:46:21Z</time>
      </trkpt>
      <trkpt lat="42.43569" lon="2.19992">
        <ele>2266.93</ele>
        <time>2016-06-30T12:46:28Z</time>
      </trkpt>
      <trkpt lat="42.43572" lon="2.19988">
        <ele>2266.93</ele>
        <time>2016-06-30T12:46:32Z</time>
      </trkpt>
      <trkpt lat="42.4358" lon="2.19988">
        <ele>2266.93</ele>
        <time>2016-06-30T12:46:41Z</time>
      </trkpt>
      <trkpt lat="42.43584" lon="2.19986">
        <ele>2266.93</ele>
        <time>2016-06-30T12:46:46Z</time>
      </trkpt>
      <trkpt lat="42.4359" lon="2.19985">
        <ele>2265.96</ele>
        <time>2016-06-30T12:46:56Z</time>
      </trkpt>
      <trkpt lat="42.43596" lon="2.19988">
        <ele>2263.56</ele>
        <time>2016-06-30T12:47:08Z</time>
      </trkpt>
      <trkpt lat="42.43595" lon="2.19988">
        <ele>2263.56</ele>
        <time>2016-06-30T12:47:09Z</time>
      </trkpt>
      <trkpt lat="42.43599" lon="2.19997">
        <ele>2262.12</ele>
        <time>2016-06-30T12:47:20Z</time>
      </trkpt>
      <trkpt lat="42.43601" lon="2.20002">
        <ele>2261.16</ele>
        <time>2016-06-30T12:47:27Z</time>
      </trkpt>
      <trkpt lat="42.43606" lon="2.20006">
        <ele>2260.2</ele>
        <time>2016-06-30T12:47:39Z</time>
      </trkpt>
      <trkpt lat="42.43609" lon="2.20006">
        <ele>2259.72</ele>
        <time>2016-06-30T12:47:43Z</time>
      </trkpt>
      <trkpt lat="42.43619" lon="2.20007">
        <ele>2259.24</ele>
        <time>2016-06-30T12:47:54Z</time>
      </trkpt>
      <trkpt lat="42.43619" lon="2.20007">
        <ele>2259.24</ele>
        <time>2016-06-30T12:47:55Z</time>
      </trkpt>
      <trkpt lat="42.43625" lon="2.20008">
        <ele>2258.75</ele>
        <time>2016-06-30T12:48:00Z</time>
      </trkpt>
      <trkpt lat="42.43636" lon="2.20006">
        <ele>2258.75</ele>
        <time>2016-06-30T12:48:11Z</time>
      </trkpt>
      <trkpt lat="42.43645" lon="2.20007">
        <ele>2258.27</ele>
        <time>2016-06-30T12:48:19Z</time>
      </trkpt>
      <trkpt lat="42.43659" lon="2.19999">
        <ele>2258.27</ele>
        <time>2016-06-30T12:48:31Z</time>
      </trkpt>
      <trkpt lat="42.43661" lon="2.19997">
        <ele>2258.27</ele>
        <time>2016-06-30T12:48:34Z</time>
      </trkpt>
      <trkpt lat="42.43666" lon="2.2">
        <ele>2257.79</ele>
        <time>2016-06-30T12:48:41Z</time>
      </trkpt>
      <trkpt lat="42.4367" lon="2.2">
        <ele>2257.79</ele>
        <time>2016-06-30T12:48:45Z</time>
      </trkpt>
      <trkpt lat="42.43677" lon="2.20002">
        <ele>2257.79</ele>
        <time>2016-06-30T12:48:52Z</time>
      </trkpt>
      <trkpt lat="42.43679" lon="2.20005">
        <ele>2257.79</ele>
        <time>2016-06-30T12:48:55Z</time>
      </trkpt>
      <trkpt lat="42.43683" lon="2.20005">
        <ele>2258.27</ele>
        <time>2016-06-30T12:48:59Z</time>
      </trkpt>
      <trkpt lat="42.43689" lon="2.19999">
        <ele>2258.27</ele>
        <time>2016-06-30T12:49:06Z</time>
      </trkpt>
      <trkpt lat="42.43694" lon="2.19992">
        <ele>2258.27</ele>
        <time>2016-06-30T12:49:12Z</time>
      </trkpt>
      <trkpt lat="42.43693" lon="2.19989">
        <ele>2258.27</ele>
        <time>2016-06-30T12:49:13Z</time>
      </trkpt>
      <trkpt lat="42.43695" lon="2.1999">
        <ele>2258.27</ele>
        <time>2016-06-30T12:49:14Z</time>
      </trkpt>
      <trkpt lat="42.43697" lon="2.19986">
        <ele>2258.27</ele>
        <time>2016-06-30T12:49:17Z</time>
      </trkpt>
      <trkpt lat="42.43699" lon="2.19984">
        <ele>2258.27</ele>
        <time>2016-06-30T12:49:19Z</time>
      </trkpt>
      <trkpt lat="42.437" lon="2.19983">
        <ele>2258.27</ele>
        <time>2016-06-30T12:49:21Z</time>
      </trkpt>
      <trkpt lat="42.43702" lon="2.19982">
        <ele>2258.27</ele>
        <time>2016-06-30T12:49:23Z</time>
      </trkpt>
      <trkpt lat="42.43707" lon="2.19972">
        <ele>2258.27</ele>
        <time>2016-06-30T12:49:32Z</time>
      </trkpt>
      <trkpt lat="42.43709" lon="2.19971">
        <ele>2258.27</ele>
        <time>2016-06-30T12:49:34Z</time>
      </trkpt>
      <trkpt lat="42.43712" lon="2.19962">
        <ele>2258.27</ele>
        <time>2016-06-30T12:49:41Z</time>
      </trkpt>
      <trkpt lat="42.43716" lon="2.19958">
        <ele>2258.27</ele>
        <time>2016-06-30T12:49:46Z</time>
      </trkpt>
      <trkpt lat="42.43726" lon="2.19953">
        <ele>2257.79</ele>
        <time>2016-06-30T12:49:57Z</time>
      </trkpt>
      <trkpt lat="42.43728" lon="2.19952">
        <ele>2257.79</ele>
        <time>2016-06-30T12:49:59Z</time>
      </trkpt>
      <trkpt lat="42.43733" lon="2.19952">
        <ele>2257.79</ele>
        <time>2016-06-30T12:50:03Z</time>
      </trkpt>
      <trkpt lat="42.43736" lon="2.1995">
        <ele>2257.79</ele>
        <time>2016-06-30T12:50:06Z</time>
      </trkpt>
      <trkpt lat="42.4374" lon="2.1995">
        <ele>2257.79</ele>
        <time>2016-06-30T12:50:10Z</time>
      </trkpt>
      <trkpt lat="42.43745" lon="2.19947">
        <ele>2257.79</ele>
        <time>2016-06-30T12:50:15Z</time>
      </trkpt>
      <trkpt lat="42.43761" lon="2.1994">
        <ele>2257.31</ele>
        <time>2016-06-30T12:50:30Z</time>
      </trkpt>
      <trkpt lat="42.43763" lon="2.1994">
        <ele>2257.31</ele>
        <time>2016-06-30T12:50:32Z</time>
      </trkpt>
      <trkpt lat="42.43765" lon="2.1994">
        <ele>2257.31</ele>
        <time>2016-06-30T12:50:34Z</time>
      </trkpt>
      <trkpt lat="42.43767" lon="2.19938">
        <ele>2258.27</ele>
        <time>2016-06-30T12:50:37Z</time>
      </trkpt>
      <trkpt lat="42.43773" lon="2.19937">
        <ele>2259.24</ele>
        <time>2016-06-30T12:50:43Z</time>
      </trkpt>
      <trkpt lat="42.43777" lon="2.19937">
        <ele>2259.24</ele>
        <time>2016-06-30T12:50:46Z</time>
      </trkpt>
      <trkpt lat="42.43787" lon="2.19946">
        <ele>2259.72</ele>
        <time>2016-06-30T12:50:57Z</time>
      </trkpt>
      <trkpt lat="42.43792" lon="2.19949">
        <ele>2259.72</ele>
        <time>2016-06-30T12:51:01Z</time>
      </trkpt>
      <trkpt lat="42.43803" lon="2.19958">
        <ele>2259.72</ele>
        <time>2016-06-30T12:51:12Z</time>
      </trkpt>
      <trkpt lat="42.4381" lon="2.19959">
        <ele>2258.75</ele>
        <time>2016-06-30T12:51:17Z</time>
      </trkpt>
      <trkpt lat="42.43814" lon="2.19958">
        <ele>2258.75</ele>
        <time>2016-06-30T12:51:20Z</time>
      </trkpt>
      <trkpt lat="42.43817" lon="2.1996">
        <ele>2257.79</ele>
        <time>2016-06-30T12:51:23Z</time>
      </trkpt>
      <trkpt lat="42.43823" lon="2.19965">
        <ele>2257.31</ele>
        <time>2016-06-30T12:51:29Z</time>
      </trkpt>
      <trkpt lat="42.43826" lon="2.19966">
        <ele>2257.31</ele>
        <time>2016-06-30T12:51:31Z</time>
      </trkpt>
      <trkpt lat="42.43828" lon="2.19966">
        <ele>2256.83</ele>
        <time>2016-06-30T12:51:33Z</time>
      </trkpt>
      <trkpt lat="42.43834" lon="2.19969">
        <ele>2256.35</ele>
        <time>2016-06-30T12:51:39Z</time>
      </trkpt>
      <trkpt lat="42.43837" lon="2.19969">
        <ele>2255.87</ele>
        <time>2016-06-30T12:51:42Z</time>
      </trkpt>
      <trkpt lat="42.43842" lon="2.19973">
        <ele>2254.91</ele>
        <time>2016-06-30T12:51:47Z</time>
      </trkpt>
      <trkpt lat="42.43845" lon="2.19978">
        <ele>2253.95</ele>
        <time>2016-06-30T12:51:51Z</time>
      </trkpt>
      <trkpt lat="42.43858" lon="2.19987">
        <ele>2252.03</ele>
        <time>2016-06-30T12:52:04Z</time>
      </trkpt>
      <trkpt lat="42.43864" lon="2.19995">
        <ele>2251.54</ele>
        <time>2016-06-30T12:52:14Z</time>
      </trkpt>
      <trkpt lat="42.43866" lon="2.19997">
        <ele>2251.54</ele>
        <time>2016-06-30T12:52:18Z</time>
      </trkpt>
      <trkpt lat="42.4387" lon="2.20004">
        <ele>2251.06</ele>
        <time>2016-06-30T12:52:26Z</time>
      </trkpt>
      <trkpt lat="42.43874" lon="2.20005">
        <ele>2251.06</ele>
        <time>2016-06-30T12:52:30Z</time>
      </trkpt>
      <trkpt lat="42.43875" lon="2.20008">
        <ele>2251.06</ele>
        <time>2016-06-30T12:52:33Z</time>
      </trkpt>
      <trkpt lat="42.4388" lon="2.20014">
        <ele>2250.58</ele>
        <time>2016-06-30T12:52:42Z</time>
      </trkpt>
      <trkpt lat="42.43888" lon="2.20021">
        <ele>2250.58</ele>
        <time>2016-06-30T12:52:53Z</time>
      </trkpt>
      <trkpt lat="42.43891" lon="2.20021">
        <ele>2250.58</ele>
        <time>2016-06-30T12:52:56Z</time>
      </trkpt>
      <trkpt lat="42.43897" lon="2.20019">
        <ele>2250.58</ele>
        <time>2016-06-30T12:53:02Z</time>
      </trkpt>
      <trkpt lat="42.43906" lon="2.20021">
        <ele>2250.58</ele>
        <time>2016-06-30T12:53:13Z</time>
      </trkpt>
      <trkpt lat="42.43913" lon="2.20024">
        <ele>2250.58</ele>
        <time>2016-06-30T12:53:24Z</time>
      </trkpt>
      <trkpt lat="42.43916" lon="2.20025">
        <ele>2250.58</ele>
        <time>2016-06-30T12:53:29Z</time>
      </trkpt>
      <trkpt lat="42.43921" lon="2.20019">
        <ele>2251.54</ele>
        <time>2016-06-30T12:53:35Z</time>
      </trkpt>
      <trkpt lat="42.43922" lon="2.20017">
        <ele>2251.54</ele>
        <time>2016-06-30T12:53:37Z</time>
      </trkpt>
      <trkpt lat="42.43924" lon="2.20015">
        <ele>2251.54</ele>
        <time>2016-06-30T12:53:40Z</time>
      </trkpt>
      <trkpt lat="42.43926" lon="2.20012">
        <ele>2251.54</ele>
        <time>2016-06-30T12:53:43Z</time>
      </trkpt>
      <trkpt lat="42.43933" lon="2.20001">
        <ele>2251.54</ele>
        <time>2016-06-30T12:53:53Z</time>
      </trkpt>
      <trkpt lat="42.43936" lon="2.19997">
        <ele>2251.54</ele>
        <time>2016-06-30T12:53:59Z</time>
      </trkpt>
      <trkpt lat="42.43938" lon="2.19993">
        <ele>2252.03</ele>
        <time>2016-06-30T12:54:03Z</time>
      </trkpt>
      <trkpt lat="42.43941" lon="2.19987">
        <ele>2250.58</ele>
        <time>2016-06-30T12:54:08Z</time>
      </trkpt>
      <trkpt lat="42.43942" lon="2.19986">
        <ele>2250.58</ele>
        <time>2016-06-30T12:54:09Z</time>
      </trkpt>
      <trkpt lat="42.43944" lon="2.19985">
        <ele>2250.58</ele>
        <time>2016-06-30T12:54:11Z</time>
      </trkpt>
      <trkpt lat="42.43945" lon="2.19983">
        <ele>2250.58</ele>
        <time>2016-06-30T12:54:13Z</time>
      </trkpt>
      <trkpt lat="42.43956" lon="2.19983">
        <ele>2250.58</ele>
        <time>2016-06-30T12:54:24Z</time>
      </trkpt>
      <trkpt lat="42.43962" lon="2.19984">
        <ele>2250.58</ele>
        <time>2016-06-30T12:54:29Z</time>
      </trkpt>
      <trkpt lat="42.43966" lon="2.19985">
        <ele>2250.58</ele>
        <time>2016-06-30T12:54:32Z</time>
      </trkpt>
      <trkpt lat="42.43976" lon="2.19986">
        <ele>2249.62</ele>
        <time>2016-06-30T12:54:43Z</time>
      </trkpt>
      <trkpt lat="42.43978" lon="2.19984">
        <ele>2248.66</ele>
        <time>2016-06-30T12:54:45Z</time>
      </trkpt>
      <trkpt lat="42.43981" lon="2.19981">
        <ele>2248.18</ele>
        <time>2016-06-30T12:54:49Z</time>
      </trkpt>
      <trkpt lat="42.43989" lon="2.19983">
        <ele>2247.7</ele>
        <time>2016-06-30T12:54:57Z</time>
      </trkpt>
      <trkpt lat="42.43995" lon="2.19981">
        <ele>2247.7</ele>
        <time>2016-06-30T12:55:05Z</time>
      </trkpt>
      <trkpt lat="42.43996" lon="2.19978">
        <ele>2248.18</ele>
        <time>2016-06-30T12:55:07Z</time>
      </trkpt>
      <trkpt lat="42.43997" lon="2.19975">
        <ele>2248.18</ele>
        <time>2016-06-30T12:55:09Z</time>
      </trkpt>
      <trkpt lat="42.43999" lon="2.19972">
        <ele>2247.22</ele>
        <time>2016-06-30T12:55:12Z</time>
      </trkpt>
      <trkpt lat="42.44" lon="2.19972">
        <ele>2247.22</ele>
        <time>2016-06-30T12:55:13Z</time>
      </trkpt>
      <trkpt lat="42.44005" lon="2.19973">
        <ele>2245.78</ele>
        <time>2016-06-30T12:55:20Z</time>
      </trkpt>
      <trkpt lat="42.44015" lon="2.19979">
        <ele>2243.37</ele>
        <time>2016-06-30T12:55:34Z</time>
      </trkpt>
      <trkpt lat="42.44017" lon="2.19977">
        <ele>2242.89</ele>
        <time>2016-06-30T12:55:37Z</time>
      </trkpt>
      <trkpt lat="42.4402" lon="2.19976">
        <ele>2242.41</ele>
        <time>2016-06-30T12:55:40Z</time>
      </trkpt>
      <trkpt lat="42.44027" lon="2.1997">
        <ele>2240.01</ele>
        <time>2016-06-30T12:55:49Z</time>
      </trkpt>
      <trkpt lat="42.44037" lon="2.19969">
        <ele>2236.16</ele>
        <time>2016-06-30T12:55:58Z</time>
      </trkpt>
      <trkpt lat="42.44048" lon="2.19965">
        <ele>2236.16</ele>
        <time>2016-06-30T12:56:09Z</time>
      </trkpt>
      <trkpt lat="42.44051" lon="2.19966">
        <ele>2236.16</ele>
        <time>2016-06-30T12:56:12Z</time>
      </trkpt>
      <trkpt lat="42.44054" lon="2.19967">
        <ele>2236.16</ele>
        <time>2016-06-30T12:56:19Z</time>
      </trkpt>
      <trkpt lat="42.44055" lon="2.19966">
        <ele>2236.16</ele>
        <time>2016-06-30T12:56:21Z</time>
      </trkpt>
      <trkpt lat="42.44059" lon="2.19967">
        <ele>2236.64</ele>
        <time>2016-06-30T12:56:25Z</time>
      </trkpt>
      <trkpt lat="42.4406" lon="2.19968">
        <ele>2236.64</ele>
        <time>2016-06-30T12:56:27Z</time>
      </trkpt>
      <trkpt lat="42.44073" lon="2.19963">
        <ele>2234.24</ele>
        <time>2016-06-30T12:56:40Z</time>
      </trkpt>
      <trkpt lat="42.44075" lon="2.19964">
        <ele>2234.24</ele>
        <time>2016-06-30T12:56:44Z</time>
      </trkpt>
      <trkpt lat="42.44082" lon="2.19967">
        <ele>2232.8</ele>
        <time>2016-06-30T12:56:53Z</time>
      </trkpt>
      <trkpt lat="42.44085" lon="2.19967">
        <ele>2232.8</ele>
        <time>2016-06-30T12:56:55Z</time>
      </trkpt>
      <trkpt lat="42.44095" lon="2.19962">
        <ele>2230.88</ele>
        <time>2016-06-30T12:57:05Z</time>
      </trkpt>
      <trkpt lat="42.44098" lon="2.19962">
        <ele>2230.88</ele>
        <time>2016-06-30T12:57:08Z</time>
      </trkpt>
      <trkpt lat="42.44108" lon="2.19958">
        <ele>2230.4</ele>
        <time>2016-06-30T12:57:18Z</time>
      </trkpt>
      <trkpt lat="42.44116" lon="2.19951">
        <ele>2229.43</ele>
        <time>2016-06-30T12:57:28Z</time>
      </trkpt>
      <trkpt lat="42.44118" lon="2.19951">
        <ele>2229.43</ele>
        <time>2016-06-30T12:57:31Z</time>
      </trkpt>
      <trkpt lat="42.44124" lon="2.19948">
        <ele>2228.95</ele>
        <time>2016-06-30T12:57:38Z</time>
      </trkpt>
      <trkpt lat="42.44129" lon="2.19944">
        <ele>2228.47</ele>
        <time>2016-06-30T12:57:44Z</time>
      </trkpt>
      <trkpt lat="42.44134" lon="2.19931">
        <ele>2227.51</ele>
        <time>2016-06-30T12:57:58Z</time>
      </trkpt>
      <trkpt lat="42.44134" lon="2.19929">
        <ele>2227.51</ele>
        <time>2016-06-30T12:58:00Z</time>
      </trkpt>
      <trkpt lat="42.44137" lon="2.19926">
        <ele>2227.03</ele>
        <time>2016-06-30T12:58:05Z</time>
      </trkpt>
      <trkpt lat="42.44147" lon="2.19922">
        <ele>2227.03</ele>
        <time>2016-06-30T12:58:17Z</time>
      </trkpt>
      <trkpt lat="42.44152" lon="2.19919">
        <ele>2227.03</ele>
        <time>2016-06-30T12:58:21Z</time>
      </trkpt>
      <trkpt lat="42.44154" lon="2.1992">
        <ele>2227.51</ele>
        <time>2016-06-30T12:58:24Z</time>
      </trkpt>
      <trkpt lat="42.44158" lon="2.19918">
        <ele>2227.51</ele>
        <time>2016-06-30T12:58:28Z</time>
      </trkpt>
      <trkpt lat="42.44159" lon="2.19916">
        <ele>2227.51</ele>
        <time>2016-06-30T12:58:30Z</time>
      </trkpt>
      <trkpt lat="42.44163" lon="2.1991">
        <ele>2228.47</ele>
        <time>2016-06-30T12:58:36Z</time>
      </trkpt>
      <trkpt lat="42.44176" lon="2.19901">
        <ele>2228.95</ele>
        <time>2016-06-30T12:58:50Z</time>
      </trkpt>
      <trkpt lat="42.44177" lon="2.19899">
        <ele>2228.95</ele>
        <time>2016-06-30T12:58:52Z</time>
      </trkpt>
      <trkpt lat="42.44184" lon="2.19896">
        <ele>2228.95</ele>
        <time>2016-06-30T12:59:03Z</time>
      </trkpt>
      <trkpt lat="42.44188" lon="2.19894">
        <ele>2228.95</ele>
        <time>2016-06-30T12:59:09Z</time>
      </trkpt>
      <trkpt lat="42.44191" lon="2.19891">
        <ele>2227.51</ele>
        <time>2016-06-30T12:59:15Z</time>
      </trkpt>
      <trkpt lat="42.44191" lon="2.19893">
        <ele>2227.51</ele>
        <time>2016-06-30T12:59:17Z</time>
      </trkpt>
      <trkpt lat="42.44196" lon="2.19889">
        <ele>2225.59</ele>
        <time>2016-06-30T12:59:24Z</time>
      </trkpt>
      <trkpt lat="42.44199" lon="2.19887">
        <ele>2224.15</ele>
        <time>2016-06-30T12:59:31Z</time>
      </trkpt>
      <trkpt lat="42.44201" lon="2.19892">
        <ele>2221.26</ele>
        <time>2016-06-30T12:59:36Z</time>
      </trkpt>
      <trkpt lat="42.44209" lon="2.19891">
        <ele>2219.82</ele>
        <time>2016-06-30T12:59:45Z</time>
      </trkpt>
      <trkpt lat="42.44219" lon="2.19892">
        <ele>2219.82</ele>
        <time>2016-06-30T12:59:58Z</time>
      </trkpt>
      <trkpt lat="42.44226" lon="2.19894">
        <ele>2218.86</ele>
        <time>2016-06-30T13:00:07Z</time>
      </trkpt>
      <trkpt lat="42.44228" lon="2.19905">
        <ele>2217.42</ele>
        <time>2016-06-30T13:00:18Z</time>
      </trkpt>
      <trkpt lat="42.44238" lon="2.1991">
        <ele>2216.46</ele>
        <time>2016-06-30T13:00:30Z</time>
      </trkpt>
      <trkpt lat="42.44243" lon="2.19908">
        <ele>2215.5</ele>
        <time>2016-06-30T13:00:41Z</time>
      </trkpt>
      <trkpt lat="42.44247" lon="2.19909">
        <ele>2214.53</ele>
        <time>2016-06-30T13:00:48Z</time>
      </trkpt>
      <trkpt lat="42.4425" lon="2.19906">
        <ele>2213.57</ele>
        <time>2016-06-30T13:00:55Z</time>
      </trkpt>
      <trkpt lat="42.44255" lon="2.19908">
        <ele>2209.73</ele>
        <time>2016-06-30T13:01:01Z</time>
      </trkpt>
      <trkpt lat="42.44268" lon="2.19907">
        <ele>2207.32</ele>
        <time>2016-06-30T13:01:14Z</time>
      </trkpt>
      <trkpt lat="42.44269" lon="2.19907">
        <ele>2207.32</ele>
        <time>2016-06-30T13:01:15Z</time>
      </trkpt>
      <trkpt lat="42.44281" lon="2.19902">
        <ele>2207.32</ele>
        <time>2016-06-30T13:01:26Z</time>
      </trkpt>
      <trkpt lat="42.44289" lon="2.19898">
        <ele>2206.36</ele>
        <time>2016-06-30T13:01:39Z</time>
      </trkpt>
      <trkpt lat="42.44298" lon="2.19893">
        <ele>2206.84</ele>
        <time>2016-06-30T13:01:50Z</time>
      </trkpt>
      <trkpt lat="42.44302" lon="2.19892">
        <ele>2206.84</ele>
        <time>2016-06-30T13:01:53Z</time>
      </trkpt>
      <trkpt lat="42.44306" lon="2.19889">
        <ele>2206.84</ele>
        <time>2016-06-30T13:01:57Z</time>
      </trkpt>
      <trkpt lat="42.44314" lon="2.19887">
        <ele>2206.36</ele>
        <time>2016-06-30T13:02:05Z</time>
      </trkpt>
      <trkpt lat="42.4433" lon="2.19884">
        <ele>2205.88</ele>
        <time>2016-06-30T13:02:18Z</time>
      </trkpt>
      <trkpt lat="42.44345" lon="2.1989">
        <ele>2205.88</ele>
        <time>2016-06-30T13:02:32Z</time>
      </trkpt>
      <trkpt lat="42.44354" lon="2.19895">
        <ele>2205.4</ele>
        <time>2016-06-30T13:02:41Z</time>
      </trkpt>
      <trkpt lat="42.44362" lon="2.19902">
        <ele>2205.4</ele>
        <time>2016-06-30T13:02:49Z</time>
      </trkpt>
      <trkpt lat="42.44366" lon="2.19904">
        <ele>2205.4</ele>
        <time>2016-06-30T13:02:53Z</time>
      </trkpt>
      <trkpt lat="42.44375" lon="2.1991">
        <ele>2205.88</ele>
        <time>2016-06-30T13:03:05Z</time>
      </trkpt>
      <trkpt lat="42.44381" lon="2.19914">
        <ele>2205.88</ele>
        <time>2016-06-30T13:03:12Z</time>
      </trkpt>
      <trkpt lat="42.44382" lon="2.19918">
        <ele>2205.88</ele>
        <time>2016-06-30T13:03:15Z</time>
      </trkpt>
      <trkpt lat="42.44393" lon="2.19924">
        <ele>2205.88</ele>
        <time>2016-06-30T13:03:27Z</time>
      </trkpt>
      <trkpt lat="42.44398" lon="2.19924">
        <ele>2205.4</ele>
        <time>2016-06-30T13:03:32Z</time>
      </trkpt>
      <trkpt lat="42.444" lon="2.19927">
        <ele>2204.92</ele>
        <time>2016-06-30T13:03:41Z</time>
      </trkpt>
      <trkpt lat="42.444" lon="2.19927">
        <ele>2204.92</ele>
        <time>2016-06-30T13:03:44Z</time>
      </trkpt>
      <trkpt lat="42.44401" lon="2.19926">
        <ele>2203.96</ele>
        <time>2016-06-30T13:04:00Z</time>
      </trkpt>
      <trkpt lat="42.44401" lon="2.19926">
        <ele>2203.48</ele>
        <time>2016-06-30T13:04:30Z</time>
      </trkpt>
      <trkpt lat="42.444" lon="2.19926">
        <ele>2203.48</ele>
        <time>2016-06-30T13:04:52Z</time>
      </trkpt>
      <trkpt lat="42.444" lon="2.19928">
        <ele>2204.92</ele>
        <time>2016-06-30T13:05:01Z</time>
      </trkpt>
      <trkpt lat="42.44406" lon="2.19927">
        <ele>2204.92</ele>
        <time>2016-06-30T13:05:13Z</time>
      </trkpt>
      <trkpt lat="42.44409" lon="2.19932">
        <ele>2204.92</ele>
        <time>2016-06-30T13:05:19Z</time>
      </trkpt>
      <trkpt lat="42.44413" lon="2.19932">
        <ele>2203.96</ele>
        <time>2016-06-30T13:05:23Z</time>
      </trkpt>
      <trkpt lat="42.44414" lon="2.1993">
        <ele>2203.48</ele>
        <time>2016-06-30T13:05:25Z</time>
      </trkpt>
      <trkpt lat="42.44425" lon="2.19935">
        <ele>2202.52</ele>
        <time>2016-06-30T13:05:35Z</time>
      </trkpt>
      <trkpt lat="42.44427" lon="2.19936">
        <ele>2201.56</ele>
        <time>2016-06-30T13:05:38Z</time>
      </trkpt>
      <trkpt lat="42.4443" lon="2.19936">
        <ele>2201.08</ele>
        <time>2016-06-30T13:05:41Z</time>
      </trkpt>
      <trkpt lat="42.44437" lon="2.19938">
        <ele>2200.11</ele>
        <time>2016-06-30T13:05:49Z</time>
      </trkpt>
      <trkpt lat="42.44439" lon="2.19942">
        <ele>2199.15</ele>
        <time>2016-06-30T13:05:53Z</time>
      </trkpt>
      <trkpt lat="42.44446" lon="2.19946">
        <ele>2197.71</ele>
        <time>2016-06-30T13:06:00Z</time>
      </trkpt>
      <trkpt lat="42.44449" lon="2.19942">
        <ele>2194.35</ele>
        <time>2016-06-30T13:06:06Z</time>
      </trkpt>
      <trkpt lat="42.44451" lon="2.19942">
        <ele>2192.9</ele>
        <time>2016-06-30T13:06:08Z</time>
      </trkpt>
      <trkpt lat="42.44454" lon="2.19943">
        <ele>2190.98</ele>
        <time>2016-06-30T13:06:12Z</time>
      </trkpt>
      <trkpt lat="42.44461" lon="2.19944">
        <ele>2190.5</ele>
        <time>2016-06-30T13:06:20Z</time>
      </trkpt>
      <trkpt lat="42.44463" lon="2.19942">
        <ele>2190.5</ele>
        <time>2016-06-30T13:06:22Z</time>
      </trkpt>
      <trkpt lat="42.44469" lon="2.19941">
        <ele>2190.02</ele>
        <time>2016-06-30T13:06:27Z</time>
      </trkpt>
      <trkpt lat="42.44476" lon="2.19943">
        <ele>2189.54</ele>
        <time>2016-06-30T13:06:33Z</time>
      </trkpt>
      <trkpt lat="42.44482" lon="2.19944">
        <ele>2189.06</ele>
        <time>2016-06-30T13:06:37Z</time>
      </trkpt>
      <trkpt lat="42.44484" lon="2.19945">
        <ele>2188.58</ele>
        <time>2016-06-30T13:06:39Z</time>
      </trkpt>
      <trkpt lat="42.44499" lon="2.19937">
        <ele>2187.62</ele>
        <time>2016-06-30T13:06:51Z</time>
      </trkpt>
      <trkpt lat="42.44509" lon="2.19944">
        <ele>2187.14</ele>
        <time>2016-06-30T13:07:01Z</time>
      </trkpt>
      <trkpt lat="42.44522" lon="2.19947">
        <ele>2186.18</ele>
        <time>2016-06-30T13:07:12Z</time>
      </trkpt>
      <trkpt lat="42.44528" lon="2.1995">
        <ele>2185.69</ele>
        <time>2016-06-30T13:07:17Z</time>
      </trkpt>
      <trkpt lat="42.4454" lon="2.19954">
        <ele>2185.21</ele>
        <time>2016-06-30T13:07:26Z</time>
      </trkpt>
      <trkpt lat="42.44556" lon="2.19949">
        <ele>2184.25</ele>
        <time>2016-06-30T13:07:40Z</time>
      </trkpt>
      <trkpt lat="42.44561" lon="2.19949">
        <ele>2184.25</ele>
        <time>2016-06-30T13:07:44Z</time>
      </trkpt>
      <trkpt lat="42.4457" lon="2.19944">
        <ele>2184.25</ele>
        <time>2016-06-30T13:07:52Z</time>
      </trkpt>
      <trkpt lat="42.44572" lon="2.19941">
        <ele>2184.73</ele>
        <time>2016-06-30T13:07:55Z</time>
      </trkpt>
      <trkpt lat="42.44577" lon="2.19941">
        <ele>2183.77</ele>
        <time>2016-06-30T13:07:59Z</time>
      </trkpt>
      <trkpt lat="42.44588" lon="2.19935">
        <ele>2183.29</ele>
        <time>2016-06-30T13:08:10Z</time>
      </trkpt>
      <trkpt lat="42.44593" lon="2.19938">
        <ele>2183.29</ele>
        <time>2016-06-30T13:08:16Z</time>
      </trkpt>
      <trkpt lat="42.44594" lon="2.19942">
        <ele>2183.77</ele>
        <time>2016-06-30T13:08:19Z</time>
      </trkpt>
      <trkpt lat="42.446" lon="2.19951">
        <ele>2183.77</ele>
        <time>2016-06-30T13:08:31Z</time>
      </trkpt>
      <trkpt lat="42.44602" lon="2.19952">
        <ele>2183.77</ele>
        <time>2016-06-30T13:08:32Z</time>
      </trkpt>
      <trkpt lat="42.44618" lon="2.19949">
        <ele>2183.77</ele>
        <time>2016-06-30T13:08:46Z</time>
      </trkpt>
      <trkpt lat="42.44619" lon="2.19951">
        <ele>2183.77</ele>
        <time>2016-06-30T13:08:48Z</time>
      </trkpt>
      <trkpt lat="42.44622" lon="2.19953">
        <ele>2182.81</ele>
        <time>2016-06-30T13:08:52Z</time>
      </trkpt>
      <trkpt lat="42.44628" lon="2.19959">
        <ele>2182.33</ele>
        <time>2016-06-30T13:09:04Z</time>
      </trkpt>
      <trkpt lat="42.44638" lon="2.19962">
        <ele>2181.85</ele>
        <time>2016-06-30T13:09:14Z</time>
      </trkpt>
      <trkpt lat="42.44647" lon="2.19967">
        <ele>2181.85</ele>
        <time>2016-06-30T13:09:24Z</time>
      </trkpt>
      <trkpt lat="42.44649" lon="2.19967">
        <ele>2181.85</ele>
        <time>2016-06-30T13:09:27Z</time>
      </trkpt>
      <trkpt lat="42.44652" lon="2.19966">
        <ele>2181.85</ele>
        <time>2016-06-30T13:09:30Z</time>
      </trkpt>
      <trkpt lat="42.44654" lon="2.19969">
        <ele>2181.85</ele>
        <time>2016-06-30T13:09:35Z</time>
      </trkpt>
      <trkpt lat="42.44656" lon="2.19972">
        <ele>2181.85</ele>
        <time>2016-06-30T13:09:37Z</time>
      </trkpt>
      <trkpt lat="42.44665" lon="2.19988">
        <ele>2181.37</ele>
        <time>2016-06-30T13:09:52Z</time>
      </trkpt>
      <trkpt lat="42.4467" lon="2.19995">
        <ele>2182.81</ele>
        <time>2016-06-30T13:09:58Z</time>
      </trkpt>
      <trkpt lat="42.44672" lon="2.19998">
        <ele>2182.33</ele>
        <time>2016-06-30T13:10:01Z</time>
      </trkpt>
      <trkpt lat="42.44677" lon="2.20002">
        <ele>2182.81</ele>
        <time>2016-06-30T13:10:06Z</time>
      </trkpt>
      <trkpt lat="42.44681" lon="2.20008">
        <ele>2182.81</ele>
        <time>2016-06-30T13:10:11Z</time>
      </trkpt>
      <trkpt lat="42.44689" lon="2.20018">
        <ele>2182.33</ele>
        <time>2016-06-30T13:10:21Z</time>
      </trkpt>
      <trkpt lat="42.44701" lon="2.20035">
        <ele>2182.81</ele>
        <time>2016-06-30T13:10:36Z</time>
      </trkpt>
      <trkpt lat="42.44706" lon="2.20042">
        <ele>2182.81</ele>
        <time>2016-06-30T13:10:42Z</time>
      </trkpt>
      <trkpt lat="42.44708" lon="2.20044">
        <ele>2182.81</ele>
        <time>2016-06-30T13:10:44Z</time>
      </trkpt>
      <trkpt lat="42.44711" lon="2.20045">
        <ele>2182.81</ele>
        <time>2016-06-30T13:10:46Z</time>
      </trkpt>
      <trkpt lat="42.44725" lon="2.20058">
        <ele>2182.81</ele>
        <time>2016-06-30T13:11:01Z</time>
      </trkpt>
      <trkpt lat="42.44728" lon="2.2006">
        <ele>2182.81</ele>
        <time>2016-06-30T13:11:05Z</time>
      </trkpt>
      <trkpt lat="42.44734" lon="2.20067">
        <ele>2181.37</ele>
        <time>2016-06-30T13:11:11Z</time>
      </trkpt>
      <trkpt lat="42.44738" lon="2.20073">
        <ele>2181.37</ele>
        <time>2016-06-30T13:11:16Z</time>
      </trkpt>
      <trkpt lat="42.4474" lon="2.20075">
        <ele>2181.37</ele>
        <time>2016-06-30T13:11:19Z</time>
      </trkpt>
      <trkpt lat="42.44746" lon="2.20087">
        <ele>2180.41</ele>
        <time>2016-06-30T13:11:29Z</time>
      </trkpt>
      <trkpt lat="42.44755" lon="2.20098">
        <ele>2180.41</ele>
        <time>2016-06-30T13:11:41Z</time>
      </trkpt>
      <trkpt lat="42.44764" lon="2.20106">
        <ele>2180.41</ele>
        <time>2016-06-30T13:11:51Z</time>
      </trkpt>
      <trkpt lat="42.44769" lon="2.20114">
        <ele>2179.93</ele>
        <time>2016-06-30T13:11:59Z</time>
      </trkpt>
      <trkpt lat="42.44773" lon="2.20115">
        <ele>2179.93</ele>
        <time>2016-06-30T13:12:03Z</time>
      </trkpt>
      <trkpt lat="42.4478" lon="2.20119">
        <ele>2179.93</ele>
        <time>2016-06-30T13:12:14Z</time>
      </trkpt>
      <trkpt lat="42.44781" lon="2.2012">
        <ele>2179.93</ele>
        <time>2016-06-30T13:12:15Z</time>
      </trkpt>
      <trkpt lat="42.44791" lon="2.20124">
        <ele>2182.33</ele>
        <time>2016-06-30T13:12:28Z</time>
      </trkpt>
      <trkpt lat="42.44795" lon="2.20123">
        <ele>2183.29</ele>
        <time>2016-06-30T13:12:39Z</time>
      </trkpt>
      <trkpt lat="42.448" lon="2.20122">
        <ele>2184.25</ele>
        <time>2016-06-30T13:12:51Z</time>
      </trkpt>
      <trkpt lat="42.44804" lon="2.20121">
        <ele>2185.21</ele>
        <time>2016-06-30T13:13:03Z</time>
      </trkpt>
      <trkpt lat="42.44814" lon="2.20121">
        <ele>2186.18</ele>
        <time>2016-06-30T13:13:14Z</time>
      </trkpt>
      <trkpt lat="42.44819" lon="2.2012">
        <ele>2186.66</ele>
        <time>2016-06-30T13:13:20Z</time>
      </trkpt>
      <trkpt lat="42.44827" lon="2.2012">
        <ele>2187.14</ele>
        <time>2016-06-30T13:13:32Z</time>
      </trkpt>
      <trkpt lat="42.44836" lon="2.20123">
        <ele>2187.62</ele>
        <time>2016-06-30T13:13:43Z</time>
      </trkpt>
      <trkpt lat="42.4484" lon="2.20123">
        <ele>2187.14</ele>
        <time>2016-06-30T13:13:47Z</time>
      </trkpt>
      <trkpt lat="42.4485" lon="2.2012">
        <ele>2187.14</ele>
        <time>2016-06-30T13:14:00Z</time>
      </trkpt>
      <trkpt lat="42.4486" lon="2.20122">
        <ele>2187.14</ele>
        <time>2016-06-30T13:14:11Z</time>
      </trkpt>
      <trkpt lat="42.44865" lon="2.20128">
        <ele>2187.14</ele>
        <time>2016-06-30T13:14:19Z</time>
      </trkpt>
      <trkpt lat="42.44868" lon="2.2013">
        <ele>2187.14</ele>
        <time>2016-06-30T13:14:22Z</time>
      </trkpt>
      <trkpt lat="42.4487" lon="2.20132">
        <ele>2187.14</ele>
        <time>2016-06-30T13:14:25Z</time>
      </trkpt>
      <trkpt lat="42.44872" lon="2.20134">
        <ele>2187.14</ele>
        <time>2016-06-30T13:14:27Z</time>
      </trkpt>
      <trkpt lat="42.44883" lon="2.20149">
        <ele>2187.14</ele>
        <time>2016-06-30T13:14:40Z</time>
      </trkpt>
      <trkpt lat="42.44894" lon="2.20166">
        <ele>2187.62</ele>
        <time>2016-06-30T13:14:54Z</time>
      </trkpt>
      <trkpt lat="42.44899" lon="2.20176">
        <ele>2187.62</ele>
        <time>2016-06-30T13:15:04Z</time>
      </trkpt>
      <trkpt lat="42.44899" lon="2.20188">
        <ele>2185.69</ele>
        <time>2016-06-30T13:15:17Z</time>
      </trkpt>
      <trkpt lat="42.44905" lon="2.20189">
        <ele>2183.77</ele>
        <time>2016-06-30T13:15:25Z</time>
      </trkpt>
      <trkpt lat="42.4491" lon="2.20199">
        <ele>2182.81</ele>
        <time>2016-06-30T13:15:34Z</time>
      </trkpt>
      <trkpt lat="42.44914" lon="2.20205">
        <ele>2180.89</ele>
        <time>2016-06-30T13:15:41Z</time>
      </trkpt>
      <trkpt lat="42.44918" lon="2.20209">
        <ele>2178.97</ele>
        <time>2016-06-30T13:15:45Z</time>
      </trkpt>
      <trkpt lat="42.44925" lon="2.20213">
        <ele>2175.12</ele>
        <time>2016-06-30T13:15:52Z</time>
      </trkpt>
      <trkpt lat="42.44929" lon="2.20215">
        <ele>2175.12</ele>
        <time>2016-06-30T13:15:55Z</time>
      </trkpt>
      <trkpt lat="42.44935" lon="2.20222">
        <ele>2175.12</ele>
        <time>2016-06-30T13:16:02Z</time>
      </trkpt>
      <trkpt lat="42.44953" lon="2.20238">
        <ele>2176.08</ele>
        <time>2016-06-30T13:16:19Z</time>
      </trkpt>
      <trkpt lat="42.44965" lon="2.20243">
        <ele>2176.08</ele>
        <time>2016-06-30T13:16:30Z</time>
      </trkpt>
      <trkpt lat="42.44969" lon="2.20242">
        <ele>2175.6</ele>
        <time>2016-06-30T13:16:34Z</time>
      </trkpt>
      <trkpt lat="42.44979" lon="2.20244">
        <ele>2175.6</ele>
        <time>2016-06-30T13:16:42Z</time>
      </trkpt>
      <trkpt lat="42.44992" lon="2.20252">
        <ele>2174.16</ele>
        <time>2016-06-30T13:16:54Z</time>
      </trkpt>
      <trkpt lat="42.44997" lon="2.20256">
        <ele>2174.16</ele>
        <time>2016-06-30T13:16:59Z</time>
      </trkpt>
      <trkpt lat="42.45001" lon="2.20259">
        <ele>2173.2</ele>
        <time>2016-06-30T13:17:03Z</time>
      </trkpt>
      <trkpt lat="42.45009" lon="2.20266">
        <ele>2170.79</ele>
        <time>2016-06-30T13:17:15Z</time>
      </trkpt>
      <trkpt lat="42.45011" lon="2.20267">
        <ele>2170.79</ele>
        <time>2016-06-30T13:17:17Z</time>
      </trkpt>
      <trkpt lat="42.45013" lon="2.20269">
        <ele>2170.31</ele>
        <time>2016-06-30T13:17:19Z</time>
      </trkpt>
      <trkpt lat="42.45017" lon="2.20274">
        <ele>2168.87</ele>
        <time>2016-06-30T13:17:24Z</time>
      </trkpt>
      <trkpt lat="42.45023" lon="2.20278">
        <ele>2165.03</ele>
        <time>2016-06-30T13:17:30Z</time>
      </trkpt>
      <trkpt lat="42.45025" lon="2.20278">
        <ele>2163.58</ele>
        <time>2016-06-30T13:17:34Z</time>
      </trkpt>
      <trkpt lat="42.45034" lon="2.20288">
        <ele>2163.58</ele>
        <time>2016-06-30T13:17:47Z</time>
      </trkpt>
      <trkpt lat="42.45035" lon="2.20287">
        <ele>2165.03</ele>
        <time>2016-06-30T13:18:08Z</time>
      </trkpt>
      <trkpt lat="42.45034" lon="2.2029">
        <ele>2164.55</ele>
        <time>2016-06-30T13:18:24Z</time>
      </trkpt>
      <trkpt lat="42.45033" lon="2.2029">
        <ele>2164.55</ele>
        <time>2016-06-30T13:18:44Z</time>
      </trkpt>
      <trkpt lat="42.45034" lon="2.20291">
        <ele>2164.55</ele>
        <time>2016-06-30T13:18:54Z</time>
      </trkpt>
      <trkpt lat="42.45035" lon="2.20289">
        <ele>2164.06</ele>
        <time>2016-06-30T13:19:02Z</time>
      </trkpt>
      <trkpt lat="42.45035" lon="2.2029">
        <ele>2163.1</ele>
        <time>2016-06-30T13:19:35Z</time>
      </trkpt>
      <trkpt lat="42.45035" lon="2.2029">
        <ele>2162.62</ele>
        <time>2016-06-30T13:20:12Z</time>
      </trkpt>
      <trkpt lat="42.45034" lon="2.2029">
        <ele>2162.14</ele>
        <time>2016-06-30T13:20:50Z</time>
      </trkpt>
      <trkpt lat="42.45033" lon="2.20291">
        <ele>2162.14</ele>
        <time>2016-06-30T13:21:26Z</time>
      </trkpt>
      <trkpt lat="42.45034" lon="2.2029">
        <ele>2161.66</ele>
        <time>2016-06-30T13:21:40Z</time>
      </trkpt>
      <trkpt lat="42.45033" lon="2.2029">
        <ele>2161.66</ele>
        <time>2016-06-30T13:21:50Z</time>
      </trkpt>
      <trkpt lat="42.45033" lon="2.20291">
        <ele>2161.66</ele>
        <time>2016-06-30T13:22:05Z</time>
      </trkpt>
      <trkpt lat="42.45044" lon="2.20295">
        <ele>2161.18</ele>
        <time>2016-06-30T13:22:17Z</time>
      </trkpt>
      <trkpt lat="42.45049" lon="2.20298">
        <ele>2160.22</ele>
        <time>2016-06-30T13:22:23Z</time>
      </trkpt>
      <trkpt lat="42.45052" lon="2.20302">
        <ele>2159.74</ele>
        <time>2016-06-30T13:22:27Z</time>
      </trkpt>
      <trkpt lat="42.45061" lon="2.20311">
        <ele>2156.86</ele>
        <time>2016-06-30T13:22:40Z</time>
      </trkpt>
      <trkpt lat="42.45064" lon="2.20312">
        <ele>2156.37</ele>
        <time>2016-06-30T13:22:43Z</time>
      </trkpt>
      <trkpt lat="42.45076" lon="2.20322">
        <ele>2153.97</ele>
        <time>2016-06-30T13:22:55Z</time>
      </trkpt>
      <trkpt lat="42.45081" lon="2.20326">
        <ele>2152.53</ele>
        <time>2016-06-30T13:22:59Z</time>
      </trkpt>
      <trkpt lat="42.45092" lon="2.20336">
        <ele>2150.13</ele>
        <time>2016-06-30T13:23:09Z</time>
      </trkpt>
      <trkpt lat="42.45099" lon="2.20342">
        <ele>2146.76</ele>
        <time>2016-06-30T13:23:15Z</time>
      </trkpt>
      <trkpt lat="42.45104" lon="2.20346">
        <ele>2146.28</ele>
        <time>2016-06-30T13:23:20Z</time>
      </trkpt>
      <trkpt lat="42.45114" lon="2.20354">
        <ele>2145.8</ele>
        <time>2016-06-30T13:23:28Z</time>
      </trkpt>
      <trkpt lat="42.45125" lon="2.20364">
        <ele>2144.84</ele>
        <time>2016-06-30T13:23:39Z</time>
      </trkpt>
      <trkpt lat="42.45132" lon="2.20374">
        <ele>2143.4</ele>
        <time>2016-06-30T13:23:47Z</time>
      </trkpt>
      <trkpt lat="42.45146" lon="2.20393">
        <ele>2140.51</ele>
        <time>2016-06-30T13:24:02Z</time>
      </trkpt>
      <trkpt lat="42.45152" lon="2.20397">
        <ele>2139.07</ele>
        <time>2016-06-30T13:24:08Z</time>
      </trkpt>
      <trkpt lat="42.45165" lon="2.20407">
        <ele>2137.15</ele>
        <time>2016-06-30T13:24:19Z</time>
      </trkpt>
      <trkpt lat="42.4518" lon="2.20419">
        <ele>2135.23</ele>
        <time>2016-06-30T13:24:32Z</time>
      </trkpt>
      <trkpt lat="42.45197" lon="2.20429">
        <ele>2132.82</ele>
        <time>2016-06-30T13:24:46Z</time>
      </trkpt>
      <trkpt lat="42.45217" lon="2.20435">
        <ele>2130.9</ele>
        <time>2016-06-30T13:25:03Z</time>
      </trkpt>
      <trkpt lat="42.45226" lon="2.20437">
        <ele>2129.94</ele>
        <time>2016-06-30T13:25:10Z</time>
      </trkpt>
      <trkpt lat="42.45231" lon="2.2044">
        <ele>2129.46</ele>
        <time>2016-06-30T13:25:14Z</time>
      </trkpt>
      <trkpt lat="42.45237" lon="2.20442">
        <ele>2128.98</ele>
        <time>2016-06-30T13:25:19Z</time>
      </trkpt>
      <trkpt lat="42.45242" lon="2.20445">
        <ele>2128.02</ele>
        <time>2016-06-30T13:25:23Z</time>
      </trkpt>
      <trkpt lat="42.45252" lon="2.2045">
        <ele>2127.05</ele>
        <time>2016-06-30T13:25:32Z</time>
      </trkpt>
      <trkpt lat="42.45257" lon="2.20453">
        <ele>2127.05</ele>
        <time>2016-06-30T13:25:36Z</time>
      </trkpt>
      <trkpt lat="42.45269" lon="2.20467">
        <ele>2126.09</ele>
        <time>2016-06-30T13:25:52Z</time>
      </trkpt>
      <trkpt lat="42.45276" lon="2.20473">
        <ele>2125.61</ele>
        <time>2016-06-30T13:26:04Z</time>
      </trkpt>
      <trkpt lat="42.45279" lon="2.20477">
        <ele>2125.61</ele>
        <time>2016-06-30T13:26:08Z</time>
      </trkpt>
      <trkpt lat="42.45282" lon="2.2049">
        <ele>2125.61</ele>
        <time>2016-06-30T13:26:18Z</time>
      </trkpt>
      <trkpt lat="42.45284" lon="2.20493">
        <ele>2125.61</ele>
        <time>2016-06-30T13:26:21Z</time>
      </trkpt>
      <trkpt lat="42.45286" lon="2.20505">
        <ele>2125.13</ele>
        <time>2016-06-30T13:26:32Z</time>
      </trkpt>
      <trkpt lat="42.45287" lon="2.20513">
        <ele>2126.09</ele>
        <time>2016-06-30T13:26:42Z</time>
      </trkpt>
      <trkpt lat="42.45288" lon="2.20524">
        <ele>2127.05</ele>
        <time>2016-06-30T13:26:53Z</time>
      </trkpt>
      <trkpt lat="42.45289" lon="2.20529">
        <ele>2127.05</ele>
        <time>2016-06-30T13:27:06Z</time>
      </trkpt>
      <trkpt lat="42.45289" lon="2.20529">
        <ele>2127.05</ele>
        <time>2016-06-30T13:27:07Z</time>
      </trkpt>
      <trkpt lat="42.45293" lon="2.20539">
        <ele>2127.05</ele>
        <time>2016-06-30T13:27:16Z</time>
      </trkpt>
      <trkpt lat="42.45294" lon="2.20548">
        <ele>2125.61</ele>
        <time>2016-06-30T13:27:23Z</time>
      </trkpt>
      <trkpt lat="42.45292" lon="2.20561">
        <ele>2125.61</ele>
        <time>2016-06-30T13:27:32Z</time>
      </trkpt>
      <trkpt lat="42.45294" lon="2.20571">
        <ele>2125.61</ele>
        <time>2016-06-30T13:27:39Z</time>
      </trkpt>
      <trkpt lat="42.45295" lon="2.20578">
        <ele>2125.61</ele>
        <time>2016-06-30T13:27:43Z</time>
      </trkpt>
      <trkpt lat="42.45299" lon="2.20591">
        <ele>2125.13</ele>
        <time>2016-06-30T13:27:53Z</time>
      </trkpt>
      <trkpt lat="42.453" lon="2.20601">
        <ele>2124.17</ele>
        <time>2016-06-30T13:28:01Z</time>
      </trkpt>
      <trkpt lat="42.45302" lon="2.20605">
        <ele>2124.17</ele>
        <time>2016-06-30T13:28:04Z</time>
      </trkpt>
      <trkpt lat="42.45302" lon="2.20622">
        <ele>2122.25</ele>
        <time>2016-06-30T13:28:14Z</time>
      </trkpt>
      <trkpt lat="42.45302" lon="2.20625">
        <ele>2122.25</ele>
        <time>2016-06-30T13:28:16Z</time>
      </trkpt>
      <trkpt lat="42.45309" lon="2.20634">
        <ele>2121.29</ele>
        <time>2016-06-30T13:28:28Z</time>
      </trkpt>
      <trkpt lat="42.45311" lon="2.20634">
        <ele>2120.81</ele>
        <time>2016-06-30T13:28:31Z</time>
      </trkpt>
      <trkpt lat="42.45316" lon="2.2063">
        <ele>2120.32</ele>
        <time>2016-06-30T13:28:38Z</time>
      </trkpt>
      <trkpt lat="42.45326" lon="2.20631">
        <ele>2118.88</ele>
        <time>2016-06-30T13:28:51Z</time>
      </trkpt>
      <trkpt lat="42.45327" lon="2.20629">
        <ele>2117.92</ele>
        <time>2016-06-30T13:29:16Z</time>
      </trkpt>
      <trkpt lat="42.45327" lon="2.20628">
        <ele>2117.44</ele>
        <time>2016-06-30T13:29:37Z</time>
      </trkpt>
      <trkpt lat="42.45332" lon="2.20623">
        <ele>2117.44</ele>
        <time>2016-06-30T13:29:49Z</time>
      </trkpt>
      <trkpt lat="42.45332" lon="2.20627">
        <ele>2116</ele>
        <time>2016-06-30T13:29:57Z</time>
      </trkpt>
      <trkpt lat="42.45334" lon="2.20631">
        <ele>2115.52</ele>
        <time>2016-06-30T13:30:01Z</time>
      </trkpt>
      <trkpt lat="42.45335" lon="2.20631">
        <ele>2115.04</ele>
        <time>2016-06-30T13:30:06Z</time>
      </trkpt>
      <trkpt lat="42.4534" lon="2.20624">
        <ele>2113.6</ele>
        <time>2016-06-30T13:30:17Z</time>
      </trkpt>
      <trkpt lat="42.45343" lon="2.20625">
        <ele>2112.15</ele>
        <time>2016-06-30T13:30:21Z</time>
      </trkpt>
      <trkpt lat="42.4535" lon="2.20626">
        <ele>2111.67</ele>
        <time>2016-06-30T13:30:27Z</time>
      </trkpt>
      <trkpt lat="42.45357" lon="2.20619">
        <ele>2110.71</ele>
        <time>2016-06-30T13:30:40Z</time>
      </trkpt>
      <trkpt lat="42.45363" lon="2.20621">
        <ele>2109.27</ele>
        <time>2016-06-30T13:30:50Z</time>
      </trkpt>
      <trkpt lat="42.45369" lon="2.20622">
        <ele>2108.31</ele>
        <time>2016-06-30T13:31:01Z</time>
      </trkpt>
      <trkpt lat="42.45371" lon="2.20622">
        <ele>2107.83</ele>
        <time>2016-06-30T13:31:03Z</time>
      </trkpt>
      <trkpt lat="42.45373" lon="2.20624">
        <ele>2107.35</ele>
        <time>2016-06-30T13:31:06Z</time>
      </trkpt>
      <trkpt lat="42.45376" lon="2.20625">
        <ele>2106.39</ele>
        <time>2016-06-30T13:31:12Z</time>
      </trkpt>
      <trkpt lat="42.45378" lon="2.20626">
        <ele>2105.91</ele>
        <time>2016-06-30T13:31:15Z</time>
      </trkpt>
      <trkpt lat="42.45383" lon="2.20625">
        <ele>2104.94</ele>
        <time>2016-06-30T13:31:21Z</time>
      </trkpt>
      <trkpt lat="42.45393" lon="2.20622">
        <ele>2103.98</ele>
        <time>2016-06-30T13:31:33Z</time>
      </trkpt>
      <trkpt lat="42.45396" lon="2.20618">
        <ele>2103.98</ele>
        <time>2016-06-30T13:31:43Z</time>
      </trkpt>
      <trkpt lat="42.45402" lon="2.20617">
        <ele>2103.98</ele>
        <time>2016-06-30T13:31:54Z</time>
      </trkpt>
      <trkpt lat="42.45408" lon="2.20615">
        <ele>2103.5</ele>
        <time>2016-06-30T13:31:59Z</time>
      </trkpt>
      <trkpt lat="42.45416" lon="2.20614">
        <ele>2103.02</ele>
        <time>2016-06-30T13:32:06Z</time>
      </trkpt>
      <trkpt lat="42.45428" lon="2.20629">
        <ele>2101.58</ele>
        <time>2016-06-30T13:32:20Z</time>
      </trkpt>
      <trkpt lat="42.45429" lon="2.2063">
        <ele>2101.58</ele>
        <time>2016-06-30T13:32:21Z</time>
      </trkpt>
      <trkpt lat="42.45432" lon="2.20643">
        <ele>2101.58</ele>
        <time>2016-06-30T13:32:36Z</time>
      </trkpt>
      <trkpt lat="42.45435" lon="2.20651">
        <ele>2102.54</ele>
        <time>2016-06-30T13:32:44Z</time>
      </trkpt>
      <trkpt lat="42.45436" lon="2.20661">
        <ele>2103.02</ele>
        <time>2016-06-30T13:32:52Z</time>
      </trkpt>
      <trkpt lat="42.4544" lon="2.20681">
        <ele>2103.5</ele>
        <time>2016-06-30T13:33:04Z</time>
      </trkpt>
      <trkpt lat="42.45442" lon="2.20688">
        <ele>2103.98</ele>
        <time>2016-06-30T13:33:09Z</time>
      </trkpt>
      <trkpt lat="42.45443" lon="2.2069">
        <ele>2103.98</ele>
        <time>2016-06-30T13:33:11Z</time>
      </trkpt>
      <trkpt lat="42.45446" lon="2.20695">
        <ele>2103.98</ele>
        <time>2016-06-30T13:33:15Z</time>
      </trkpt>
      <trkpt lat="42.45456" lon="2.20714">
        <ele>2104.46</ele>
        <time>2016-06-30T13:33:29Z</time>
      </trkpt>
      <trkpt lat="42.45456" lon="2.20716">
        <ele>2104.46</ele>
        <time>2016-06-30T13:33:30Z</time>
      </trkpt>
      <trkpt lat="42.45458" lon="2.20718">
        <ele>2104.46</ele>
        <time>2016-06-30T13:33:32Z</time>
      </trkpt>
      <trkpt lat="42.45464" lon="2.20739">
        <ele>2103.98</ele>
        <time>2016-06-30T13:33:47Z</time>
      </trkpt>
      <trkpt lat="42.45467" lon="2.20747">
        <ele>2102.54</ele>
        <time>2016-06-30T13:33:59Z</time>
      </trkpt>
      <trkpt lat="42.4547" lon="2.20754">
        <ele>2102.54</ele>
        <time>2016-06-30T13:34:13Z</time>
      </trkpt>
      <trkpt lat="42.45473" lon="2.20762">
        <ele>2102.06</ele>
        <time>2016-06-30T13:34:19Z</time>
      </trkpt>
      <trkpt lat="42.45479" lon="2.20766">
        <ele>2101.58</ele>
        <time>2016-06-30T13:34:25Z</time>
      </trkpt>
      <trkpt lat="42.45482" lon="2.20771">
        <ele>2101.58</ele>
        <time>2016-06-30T13:34:29Z</time>
      </trkpt>
      <trkpt lat="42.45489" lon="2.20781">
        <ele>2099.66</ele>
        <time>2016-06-30T13:34:39Z</time>
      </trkpt>
      <trkpt lat="42.45493" lon="2.20788">
        <ele>2098.7</ele>
        <time>2016-06-30T13:34:46Z</time>
      </trkpt>
      <trkpt lat="42.45497" lon="2.20794">
        <ele>2098.21</ele>
        <time>2016-06-30T13:34:51Z</time>
      </trkpt>
      <trkpt lat="42.45499" lon="2.20799">
        <ele>2097.73</ele>
        <time>2016-06-30T13:34:54Z</time>
      </trkpt>
      <trkpt lat="42.45503" lon="2.20804">
        <ele>2096.77</ele>
        <time>2016-06-30T13:34:59Z</time>
      </trkpt>
      <trkpt lat="42.45508" lon="2.20809">
        <ele>2096.29</ele>
        <time>2016-06-30T13:35:06Z</time>
      </trkpt>
      <trkpt lat="42.45513" lon="2.20806">
        <ele>2095.81</ele>
        <time>2016-06-30T13:35:13Z</time>
      </trkpt>
      <trkpt lat="42.45523" lon="2.20814">
        <ele>2095.81</ele>
        <time>2016-06-30T13:35:23Z</time>
      </trkpt>
      <trkpt lat="42.45525" lon="2.20815">
        <ele>2095.81</ele>
        <time>2016-06-30T13:35:25Z</time>
      </trkpt>
      <trkpt lat="42.45542" lon="2.20824">
        <ele>2095.81</ele>
        <time>2016-06-30T13:35:41Z</time>
      </trkpt>
      <trkpt lat="42.45543" lon="2.20826">
        <ele>2095.81</ele>
        <time>2016-06-30T13:35:43Z</time>
      </trkpt>
      <trkpt lat="42.45548" lon="2.20825">
        <ele>2095.33</ele>
        <time>2016-06-30T13:35:49Z</time>
      </trkpt>
      <trkpt lat="42.45554" lon="2.20827">
        <ele>2093.41</ele>
        <time>2016-06-30T13:35:58Z</time>
      </trkpt>
      <trkpt lat="42.45559" lon="2.20825">
        <ele>2090.04</ele>
        <time>2016-06-30T13:36:06Z</time>
      </trkpt>
      <trkpt lat="42.45563" lon="2.20826">
        <ele>2086.68</ele>
        <time>2016-06-30T13:36:11Z</time>
      </trkpt>
      <trkpt lat="42.45567" lon="2.20828">
        <ele>2085.24</ele>
        <time>2016-06-30T13:36:16Z</time>
      </trkpt>
      <trkpt lat="42.45569" lon="2.20831">
        <ele>2085.24</ele>
        <time>2016-06-30T13:36:20Z</time>
      </trkpt>
      <trkpt lat="42.45569" lon="2.20835">
        <ele>2084.76</ele>
        <time>2016-06-30T13:36:25Z</time>
      </trkpt>
      <trkpt lat="42.45569" lon="2.20843">
        <ele>2083.79</ele>
        <time>2016-06-30T13:36:30Z</time>
      </trkpt>
      <trkpt lat="42.45572" lon="2.2085">
        <ele>2082.83</ele>
        <time>2016-06-30T13:36:35Z</time>
      </trkpt>
      <trkpt lat="42.45575" lon="2.20863">
        <ele>2081.39</ele>
        <time>2016-06-30T13:36:43Z</time>
      </trkpt>
      <trkpt lat="42.45582" lon="2.2088">
        <ele>2079.47</ele>
        <time>2016-06-30T13:36:55Z</time>
      </trkpt>
      <trkpt lat="42.45583" lon="2.20887">
        <ele>2078.51</ele>
        <time>2016-06-30T13:36:59Z</time>
      </trkpt>
      <trkpt lat="42.45586" lon="2.20899">
        <ele>2078.03</ele>
        <time>2016-06-30T13:37:07Z</time>
      </trkpt>
      <trkpt lat="42.45587" lon="2.20913">
        <ele>2077.55</ele>
        <time>2016-06-30T13:37:18Z</time>
      </trkpt>
      <trkpt lat="42.45588" lon="2.2092">
        <ele>2077.55</ele>
        <time>2016-06-30T13:37:25Z</time>
      </trkpt>
      <trkpt lat="42.45586" lon="2.20932">
        <ele>2077.55</ele>
        <time>2016-06-30T13:37:36Z</time>
      </trkpt>
      <trkpt lat="42.45584" lon="2.20948">
        <ele>2077.55</ele>
        <time>2016-06-30T13:37:48Z</time>
      </trkpt>
      <trkpt lat="42.45585" lon="2.20958">
        <ele>2077.07</ele>
        <time>2016-06-30T13:37:57Z</time>
      </trkpt>
      <trkpt lat="42.45586" lon="2.20964">
        <ele>2077.07</ele>
        <time>2016-06-30T13:38:02Z</time>
      </trkpt>
      <trkpt lat="42.45588" lon="2.20979">
        <ele>2077.07</ele>
        <time>2016-06-30T13:38:16Z</time>
      </trkpt>
      <trkpt lat="42.45587" lon="2.20983">
        <ele>2076.59</ele>
        <time>2016-06-30T13:38:21Z</time>
      </trkpt>
      <trkpt lat="42.4558" lon="2.20988">
        <ele>2074.18</ele>
        <time>2016-06-30T13:38:35Z</time>
      </trkpt>
      <trkpt lat="42.45577" lon="2.20987">
        <ele>2073.22</ele>
        <time>2016-06-30T13:38:44Z</time>
      </trkpt>
      <trkpt lat="42.45576" lon="2.20994">
        <ele>2071.78</ele>
        <time>2016-06-30T13:38:50Z</time>
      </trkpt>
      <trkpt lat="42.45578" lon="2.20998">
        <ele>2070.34</ele>
        <time>2016-06-30T13:39:01Z</time>
      </trkpt>
      <trkpt lat="42.45584" lon="2.21001">
        <ele>2068.89</ele>
        <time>2016-06-30T13:39:13Z</time>
      </trkpt>
      <trkpt lat="42.45594" lon="2.21006">
        <ele>2066.97</ele>
        <time>2016-06-30T13:39:25Z</time>
      </trkpt>
      <trkpt lat="42.45596" lon="2.21009">
        <ele>2066.97</ele>
        <time>2016-06-30T13:39:27Z</time>
      </trkpt>
      <trkpt lat="42.45597" lon="2.21012">
        <ele>2066.49</ele>
        <time>2016-06-30T13:39:29Z</time>
      </trkpt>
      <trkpt lat="42.45609" lon="2.21023">
        <ele>2065.53</ele>
        <time>2016-06-30T13:39:43Z</time>
      </trkpt>
      <trkpt lat="42.45616" lon="2.21026">
        <ele>2065.05</ele>
        <time>2016-06-30T13:39:55Z</time>
      </trkpt>
      <trkpt lat="42.45622" lon="2.21032">
        <ele>2066.01</ele>
        <time>2016-06-30T13:40:06Z</time>
      </trkpt>
      <trkpt lat="42.45629" lon="2.21036">
        <ele>2066.01</ele>
        <time>2016-06-30T13:40:18Z</time>
      </trkpt>
      <trkpt lat="42.45635" lon="2.21042">
        <ele>2064.57</ele>
        <time>2016-06-30T13:40:27Z</time>
      </trkpt>
      <trkpt lat="42.45641" lon="2.2105">
        <ele>2063.61</ele>
        <time>2016-06-30T13:40:39Z</time>
      </trkpt>
      <trkpt lat="42.45644" lon="2.21055">
        <ele>2063.61</ele>
        <time>2016-06-30T13:40:45Z</time>
      </trkpt>
      <trkpt lat="42.45645" lon="2.2106">
        <ele>2063.61</ele>
        <time>2016-06-30T13:40:48Z</time>
      </trkpt>
      <trkpt lat="42.45646" lon="2.21064">
        <ele>2063.61</ele>
        <time>2016-06-30T13:40:51Z</time>
      </trkpt>
      <trkpt lat="42.45649" lon="2.21067">
        <ele>2063.61</ele>
        <time>2016-06-30T13:40:56Z</time>
      </trkpt>
      <trkpt lat="42.45652" lon="2.21082">
        <ele>2063.61</ele>
        <time>2016-06-30T13:41:07Z</time>
      </trkpt>
      <trkpt lat="42.4565" lon="2.21101">
        <ele>2063.61</ele>
        <time>2016-06-30T13:41:21Z</time>
      </trkpt>
      <trkpt lat="42.45654" lon="2.21118">
        <ele>2063.13</ele>
        <time>2016-06-30T13:41:33Z</time>
      </trkpt>
      <trkpt lat="42.45657" lon="2.21128">
        <ele>2061.2</ele>
        <time>2016-06-30T13:41:45Z</time>
      </trkpt>
      <trkpt lat="42.45667" lon="2.21141">
        <ele>2060.72</ele>
        <time>2016-06-30T13:41:57Z</time>
      </trkpt>
      <trkpt lat="42.45668" lon="2.21144">
        <ele>2060.72</ele>
        <time>2016-06-30T13:41:59Z</time>
      </trkpt>
      <trkpt lat="42.45676" lon="2.21151">
        <ele>2060.72</ele>
        <time>2016-06-30T13:42:05Z</time>
      </trkpt>
      <trkpt lat="42.45678" lon="2.21157">
        <ele>2060.72</ele>
        <time>2016-06-30T13:42:10Z</time>
      </trkpt>
      <trkpt lat="42.45679" lon="2.21172">
        <ele>2060.24</ele>
        <time>2016-06-30T13:42:21Z</time>
      </trkpt>
      <trkpt lat="42.45679" lon="2.21173">
        <ele>2060.24</ele>
        <time>2016-06-30T13:42:22Z</time>
      </trkpt>
      <trkpt lat="42.45681" lon="2.21178">
        <ele>2058.32</ele>
        <time>2016-06-30T13:42:32Z</time>
      </trkpt>
      <trkpt lat="42.45682" lon="2.21178">
        <ele>2058.32</ele>
        <time>2016-06-30T13:42:33Z</time>
      </trkpt>
      <trkpt lat="42.45684" lon="2.2118">
        <ele>2057.84</ele>
        <time>2016-06-30T13:42:36Z</time>
      </trkpt>
      <trkpt lat="42.45691" lon="2.2118">
        <ele>2056.88</ele>
        <time>2016-06-30T13:42:44Z</time>
      </trkpt>
      <trkpt lat="42.45697" lon="2.21182">
        <ele>2055.44</ele>
        <time>2016-06-30T13:42:50Z</time>
      </trkpt>
      <trkpt lat="42.45702" lon="2.21187">
        <ele>2054.47</ele>
        <time>2016-06-30T13:42:59Z</time>
      </trkpt>
      <trkpt lat="42.4571" lon="2.2119">
        <ele>2052.07</ele>
        <time>2016-06-30T13:43:11Z</time>
      </trkpt>
      <trkpt lat="42.45714" lon="2.21189">
        <ele>2051.59</ele>
        <time>2016-06-30T13:43:16Z</time>
      </trkpt>
      <trkpt lat="42.45724" lon="2.21186">
        <ele>2049.19</ele>
        <time>2016-06-30T13:43:29Z</time>
      </trkpt>
      <trkpt lat="42.45725" lon="2.21186">
        <ele>2049.19</ele>
        <time>2016-06-30T13:43:30Z</time>
      </trkpt>
      <trkpt lat="42.45727" lon="2.21187">
        <ele>2048.71</ele>
        <time>2016-06-30T13:43:33Z</time>
      </trkpt>
      <trkpt lat="42.45729" lon="2.21186">
        <ele>2048.71</ele>
        <time>2016-06-30T13:43:35Z</time>
      </trkpt>
      <trkpt lat="42.45731" lon="2.21186">
        <ele>2048.23</ele>
        <time>2016-06-30T13:43:37Z</time>
      </trkpt>
      <trkpt lat="42.45732" lon="2.21188">
        <ele>2048.23</ele>
        <time>2016-06-30T13:43:40Z</time>
      </trkpt>
      <trkpt lat="42.45735" lon="2.21187">
        <ele>2046.78</ele>
        <time>2016-06-30T13:43:44Z</time>
      </trkpt>
      <trkpt lat="42.45741" lon="2.21189">
        <ele>2043.42</ele>
        <time>2016-06-30T13:43:53Z</time>
      </trkpt>
      <trkpt lat="42.45743" lon="2.2119">
        <ele>2042.46</ele>
        <time>2016-06-30T13:43:57Z</time>
      </trkpt>
      <trkpt lat="42.45746" lon="2.21203">
        <ele>2041.02</ele>
        <time>2016-06-30T13:44:09Z</time>
      </trkpt>
      <trkpt lat="42.45745" lon="2.21206">
        <ele>2041.02</ele>
        <time>2016-06-30T13:44:12Z</time>
      </trkpt>
      <trkpt lat="42.45744" lon="2.21211">
        <ele>2040.54</ele>
        <time>2016-06-30T13:44:23Z</time>
      </trkpt>
      <trkpt lat="42.45746" lon="2.21211">
        <ele>2039.57</ele>
        <time>2016-06-30T13:44:26Z</time>
      </trkpt>
      <trkpt lat="42.4575" lon="2.21219">
        <ele>2038.13</ele>
        <time>2016-06-30T13:44:38Z</time>
      </trkpt>
      <trkpt lat="42.4575" lon="2.21227">
        <ele>2037.17</ele>
        <time>2016-06-30T13:44:51Z</time>
      </trkpt>
      <trkpt lat="42.45751" lon="2.21231">
        <ele>2036.21</ele>
        <time>2016-06-30T13:44:56Z</time>
      </trkpt>
      <trkpt lat="42.45755" lon="2.21236">
        <ele>2034.29</ele>
        <time>2016-06-30T13:45:08Z</time>
      </trkpt>
      <trkpt lat="42.45755" lon="2.21239">
        <ele>2032.84</ele>
        <time>2016-06-30T13:45:15Z</time>
      </trkpt>
      <trkpt lat="42.45756" lon="2.21244">
        <ele>2030.44</ele>
        <time>2016-06-30T13:45:26Z</time>
      </trkpt>
      <trkpt lat="42.45757" lon="2.21246">
        <ele>2027.08</ele>
        <time>2016-06-30T13:45:31Z</time>
      </trkpt>
      <trkpt lat="42.45759" lon="2.21252">
        <ele>2025.15</ele>
        <time>2016-06-30T13:45:42Z</time>
      </trkpt>
      <trkpt lat="42.4576" lon="2.21256">
        <ele>2024.67</ele>
        <time>2016-06-30T13:45:53Z</time>
      </trkpt>
      <trkpt lat="42.45756" lon="2.21264">
        <ele>2022.75</ele>
        <time>2016-06-30T13:46:02Z</time>
      </trkpt>
      <trkpt lat="42.45757" lon="2.21265">
        <ele>2022.27</ele>
        <time>2016-06-30T13:46:06Z</time>
      </trkpt>
      <trkpt lat="42.45756" lon="2.21274">
        <ele>2019.39</ele>
        <time>2016-06-30T13:46:18Z</time>
      </trkpt>
      <trkpt lat="42.45757" lon="2.21276">
        <ele>2018.43</ele>
        <time>2016-06-30T13:46:20Z</time>
      </trkpt>
      <trkpt lat="42.45761" lon="2.21279">
        <ele>2015.06</ele>
        <time>2016-06-30T13:46:24Z</time>
      </trkpt>
      <trkpt lat="42.45769" lon="2.21293">
        <ele>2013.14</ele>
        <time>2016-06-30T13:46:39Z</time>
      </trkpt>
      <trkpt lat="42.45771" lon="2.21296">
        <ele>2013.14</ele>
        <time>2016-06-30T13:46:43Z</time>
      </trkpt>
      <trkpt lat="42.45773" lon="2.21303">
        <ele>2011.7</ele>
        <time>2016-06-30T13:46:51Z</time>
      </trkpt>
      <trkpt lat="42.45772" lon="2.21309">
        <ele>2011.22</ele>
        <time>2016-06-30T13:46:57Z</time>
      </trkpt>
      <trkpt lat="42.45771" lon="2.21313">
        <ele>2009.77</ele>
        <time>2016-06-30T13:47:02Z</time>
      </trkpt>
      <trkpt lat="42.4577" lon="2.21317">
        <ele>2009.29</ele>
        <time>2016-06-30T13:47:06Z</time>
      </trkpt>
      <trkpt lat="42.45772" lon="2.21322">
        <ele>2008.33</ele>
        <time>2016-06-30T13:47:12Z</time>
      </trkpt>
      <trkpt lat="42.45773" lon="2.21325">
        <ele>2007.85</ele>
        <time>2016-06-30T13:47:15Z</time>
      </trkpt>
      <trkpt lat="42.45774" lon="2.2133">
        <ele>2005.45</ele>
        <time>2016-06-30T13:47:20Z</time>
      </trkpt>
      <trkpt lat="42.45776" lon="2.21338">
        <ele>2001.6</ele>
        <time>2016-06-30T13:47:27Z</time>
      </trkpt>
      <trkpt lat="42.45776" lon="2.2134">
        <ele>2001.6</ele>
        <time>2016-06-30T13:47:40Z</time>
      </trkpt>
      <trkpt lat="42.45777" lon="2.2134">
        <ele>2001.6</ele>
        <time>2016-06-30T13:48:03Z</time>
      </trkpt>
      <trkpt lat="42.45776" lon="2.2134">
        <ele>2002.56</ele>
        <time>2016-06-30T13:48:20Z</time>
      </trkpt>
      <trkpt lat="42.45777" lon="2.21343">
        <ele>2002.56</ele>
        <time>2016-06-30T13:48:42Z</time>
      </trkpt>
      <trkpt lat="42.45778" lon="2.21344">
        <ele>2002.56</ele>
        <time>2016-06-30T13:48:46Z</time>
      </trkpt>
      <trkpt lat="42.45785" lon="2.21354">
        <ele>2001.12</ele>
        <time>2016-06-30T13:48:58Z</time>
      </trkpt>
      <trkpt lat="42.4579" lon="2.21362">
        <ele>2000.16</ele>
        <time>2016-06-30T13:49:08Z</time>
      </trkpt>
      <trkpt lat="42.45792" lon="2.21363">
        <ele>1999.2</ele>
        <time>2016-06-30T13:49:13Z</time>
      </trkpt>
      <trkpt lat="42.45795" lon="2.21373">
        <ele>1996.8</ele>
        <time>2016-06-30T13:49:26Z</time>
      </trkpt>
      <trkpt lat="42.45795" lon="2.21377">
        <ele>1996.8</ele>
        <time>2016-06-30T13:49:29Z</time>
      </trkpt>
      <trkpt lat="42.45799" lon="2.21387">
        <ele>1995.35</ele>
        <time>2016-06-30T13:49:39Z</time>
      </trkpt>
      <trkpt lat="42.45804" lon="2.21397">
        <ele>1992.47</ele>
        <time>2016-06-30T13:49:52Z</time>
      </trkpt>
      <trkpt lat="42.45808" lon="2.21406">
        <ele>1990.07</ele>
        <time>2016-06-30T13:50:01Z</time>
      </trkpt>
      <trkpt lat="42.45811" lon="2.21415">
        <ele>1988.62</ele>
        <time>2016-06-30T13:50:10Z</time>
      </trkpt>
      <trkpt lat="42.45814" lon="2.21423">
        <ele>1986.7</ele>
        <time>2016-06-30T13:50:20Z</time>
      </trkpt>
      <trkpt lat="42.45816" lon="2.21432">
        <ele>1985.26</ele>
        <time>2016-06-30T13:50:30Z</time>
      </trkpt>
      <trkpt lat="42.45817" lon="2.21441">
        <ele>1982.86</ele>
        <time>2016-06-30T13:50:41Z</time>
      </trkpt>
      <trkpt lat="42.45821" lon="2.21447">
        <ele>1980.45</ele>
        <time>2016-06-30T13:50:53Z</time>
      </trkpt>
      <trkpt lat="42.45819" lon="2.21453">
        <ele>1978.53</ele>
        <time>2016-06-30T13:51:01Z</time>
      </trkpt>
      <trkpt lat="42.45817" lon="2.21461">
        <ele>1977.57</ele>
        <time>2016-06-30T13:51:07Z</time>
      </trkpt>
      <trkpt lat="42.4582" lon="2.21472">
        <ele>1975.17</ele>
        <time>2016-06-30T13:51:17Z</time>
      </trkpt>
      <trkpt lat="42.45819" lon="2.21473">
        <ele>1971.8</ele>
        <time>2016-06-30T13:51:24Z</time>
      </trkpt>
      <trkpt lat="42.45816" lon="2.21481">
        <ele>1971.32</ele>
        <time>2016-06-30T13:51:38Z</time>
      </trkpt>
      <trkpt lat="42.45817" lon="2.21484">
        <ele>1971.32</ele>
        <time>2016-06-30T13:51:40Z</time>
      </trkpt>
      <trkpt lat="42.45815" lon="2.21495">
        <ele>1969.4</ele>
        <time>2016-06-30T13:51:51Z</time>
      </trkpt>
      <trkpt lat="42.45816" lon="2.21505">
        <ele>1968.44</ele>
        <time>2016-06-30T13:52:00Z</time>
      </trkpt>
      <trkpt lat="42.45818" lon="2.21519">
        <ele>1966.03</ele>
        <time>2016-06-30T13:52:13Z</time>
      </trkpt>
      <trkpt lat="42.45821" lon="2.21527">
        <ele>1963.63</ele>
        <time>2016-06-30T13:52:24Z</time>
      </trkpt>
      <trkpt lat="42.45821" lon="2.21534">
        <ele>1962.19</ele>
        <time>2016-06-30T13:52:32Z</time>
      </trkpt>
      <trkpt lat="42.45825" lon="2.21547">
        <ele>1960.27</ele>
        <time>2016-06-30T13:52:42Z</time>
      </trkpt>
      <trkpt lat="42.45826" lon="2.2155">
        <ele>1959.78</ele>
        <time>2016-06-30T13:52:45Z</time>
      </trkpt>
      <trkpt lat="42.45829" lon="2.21558">
        <ele>1957.86</ele>
        <time>2016-06-30T13:52:55Z</time>
      </trkpt>
      <trkpt lat="42.4583" lon="2.21568">
        <ele>1954.98</ele>
        <time>2016-06-30T13:53:08Z</time>
      </trkpt>
      <trkpt lat="42.45831" lon="2.21572">
        <ele>1954.5</ele>
        <time>2016-06-30T13:53:13Z</time>
      </trkpt>
      <trkpt lat="42.45842" lon="2.21583">
        <ele>1952.09</ele>
        <time>2016-06-30T13:53:26Z</time>
      </trkpt>
      <trkpt lat="42.45846" lon="2.2159">
        <ele>1950.65</ele>
        <time>2016-06-30T13:53:37Z</time>
      </trkpt>
      <trkpt lat="42.45846" lon="2.21595">
        <ele>1950.65</ele>
        <time>2016-06-30T13:53:41Z</time>
      </trkpt>
      <trkpt lat="42.45847" lon="2.21599">
        <ele>1949.69</ele>
        <time>2016-06-30T13:53:44Z</time>
      </trkpt>
      <trkpt lat="42.45852" lon="2.21605">
        <ele>1948.25</ele>
        <time>2016-06-30T13:53:56Z</time>
      </trkpt>
      <trkpt lat="42.4585" lon="2.21617">
        <ele>1945.85</ele>
        <time>2016-06-30T13:54:07Z</time>
      </trkpt>
      <trkpt lat="42.45855" lon="2.2163">
        <ele>1943.92</ele>
        <time>2016-06-30T13:54:21Z</time>
      </trkpt>
      <trkpt lat="42.45857" lon="2.21631">
        <ele>1943.92</ele>
        <time>2016-06-30T13:54:23Z</time>
      </trkpt>
      <trkpt lat="42.45857" lon="2.21634">
        <ele>1943.92</ele>
        <time>2016-06-30T13:54:25Z</time>
      </trkpt>
      <trkpt lat="42.4586" lon="2.2164">
        <ele>1943.44</ele>
        <time>2016-06-30T13:54:29Z</time>
      </trkpt>
      <trkpt lat="42.45862" lon="2.21646">
        <ele>1943.44</ele>
        <time>2016-06-30T13:54:34Z</time>
      </trkpt>
      <trkpt lat="42.45863" lon="2.21647">
        <ele>1943.44</ele>
        <time>2016-06-30T13:54:36Z</time>
      </trkpt>
      <trkpt lat="42.45865" lon="2.21648">
        <ele>1942.96</ele>
        <time>2016-06-30T13:54:38Z</time>
      </trkpt>
      <trkpt lat="42.4587" lon="2.21656">
        <ele>1942.48</ele>
        <time>2016-06-30T13:54:49Z</time>
      </trkpt>
      <trkpt lat="42.45877" lon="2.21663">
        <ele>1940.56</ele>
        <time>2016-06-30T13:55:02Z</time>
      </trkpt>
      <trkpt lat="42.45883" lon="2.21674">
        <ele>1939.6</ele>
        <time>2016-06-30T13:55:13Z</time>
      </trkpt>
      <trkpt lat="42.45886" lon="2.21678">
        <ele>1938.16</ele>
        <time>2016-06-30T13:55:17Z</time>
      </trkpt>
      <trkpt lat="42.45896" lon="2.21685">
        <ele>1936.71</ele>
        <time>2016-06-30T13:55:28Z</time>
      </trkpt>
      <trkpt lat="42.45899" lon="2.2169">
        <ele>1936.23</ele>
        <time>2016-06-30T13:55:34Z</time>
      </trkpt>
      <trkpt lat="42.459" lon="2.21698">
        <ele>1934.31</ele>
        <time>2016-06-30T13:55:41Z</time>
      </trkpt>
      <trkpt lat="42.45903" lon="2.21697">
        <ele>1933.83</ele>
        <time>2016-06-30T13:55:44Z</time>
      </trkpt>
      <trkpt lat="42.4591" lon="2.21706">
        <ele>1932.39</ele>
        <time>2016-06-30T13:55:56Z</time>
      </trkpt>
      <trkpt lat="42.45919" lon="2.21711">
        <ele>1930.95</ele>
        <time>2016-06-30T13:56:08Z</time>
      </trkpt>
      <trkpt lat="42.45929" lon="2.21715">
        <ele>1929.98</ele>
        <time>2016-06-30T13:56:18Z</time>
      </trkpt>
      <trkpt lat="42.45932" lon="2.21718">
        <ele>1929.5</ele>
        <time>2016-06-30T13:56:25Z</time>
      </trkpt>
      <trkpt lat="42.45937" lon="2.21721">
        <ele>1927.58</ele>
        <time>2016-06-30T13:56:35Z</time>
      </trkpt>
      <trkpt lat="42.45939" lon="2.21721">
        <ele>1927.1</ele>
        <time>2016-06-30T13:56:41Z</time>
      </trkpt>
      <trkpt lat="42.45945" lon="2.21726">
        <ele>1926.14</ele>
        <time>2016-06-30T13:56:52Z</time>
      </trkpt>
      <trkpt lat="42.45951" lon="2.21723">
        <ele>1925.18</ele>
        <time>2016-06-30T13:57:02Z</time>
      </trkpt>
      <trkpt lat="42.45955" lon="2.21724">
        <ele>1925.18</ele>
        <time>2016-06-30T13:57:06Z</time>
      </trkpt>
      <trkpt lat="42.45968" lon="2.21729">
        <ele>1925.18</ele>
        <time>2016-06-30T13:57:19Z</time>
      </trkpt>
      <trkpt lat="42.45972" lon="2.21733">
        <ele>1924.22</ele>
        <time>2016-06-30T13:57:27Z</time>
      </trkpt>
      <trkpt lat="42.45973" lon="2.21735">
        <ele>1924.7</ele>
        <time>2016-06-30T13:57:29Z</time>
      </trkpt>
      <trkpt lat="42.45985" lon="2.21738">
        <ele>1922.77</ele>
        <time>2016-06-30T13:57:43Z</time>
      </trkpt>
      <trkpt lat="42.4599" lon="2.21736">
        <ele>1922.77</ele>
        <time>2016-06-30T13:57:48Z</time>
      </trkpt>
      <trkpt lat="42.45995" lon="2.21736">
        <ele>1922.77</ele>
        <time>2016-06-30T13:57:54Z</time>
      </trkpt>
      <trkpt lat="42.46" lon="2.21738">
        <ele>1922.77</ele>
        <time>2016-06-30T13:57:58Z</time>
      </trkpt>
      <trkpt lat="42.46012" lon="2.21744">
        <ele>1921.81</ele>
        <time>2016-06-30T13:58:10Z</time>
      </trkpt>
      <trkpt lat="42.46022" lon="2.21753">
        <ele>1920.37</ele>
        <time>2016-06-30T13:58:23Z</time>
      </trkpt>
      <trkpt lat="42.46024" lon="2.21755">
        <ele>1919.89</ele>
        <time>2016-06-30T13:58:26Z</time>
      </trkpt>
      <trkpt lat="42.46034" lon="2.21764">
        <ele>1918.45</ele>
        <time>2016-06-30T13:58:35Z</time>
      </trkpt>
      <trkpt lat="42.46038" lon="2.21766">
        <ele>1917.49</ele>
        <time>2016-06-30T13:58:39Z</time>
      </trkpt>
      <trkpt lat="42.46044" lon="2.21776">
        <ele>1915.08</ele>
        <time>2016-06-30T13:58:51Z</time>
      </trkpt>
      <trkpt lat="42.46048" lon="2.21779">
        <ele>1913.16</ele>
        <time>2016-06-30T13:59:01Z</time>
      </trkpt>
      <trkpt lat="42.46048" lon="2.21781">
        <ele>1912.68</ele>
        <time>2016-06-30T13:59:03Z</time>
      </trkpt>
      <trkpt lat="42.46051" lon="2.21785">
        <ele>1909.32</ele>
        <time>2016-06-30T13:59:08Z</time>
      </trkpt>
      <trkpt lat="42.46054" lon="2.21789">
        <ele>1906.43</ele>
        <time>2016-06-30T13:59:18Z</time>
      </trkpt>
      <trkpt lat="42.46054" lon="2.21795">
        <ele>1906.43</ele>
        <time>2016-06-30T13:59:24Z</time>
      </trkpt>
      <trkpt lat="42.46052" lon="2.21798">
        <ele>1905.47</ele>
        <time>2016-06-30T13:59:34Z</time>
      </trkpt>
      <trkpt lat="42.46052" lon="2.21799">
        <ele>1904.51</ele>
        <time>2016-06-30T13:59:48Z</time>
      </trkpt>
      <trkpt lat="42.46056" lon="2.2181">
        <ele>1903.55</ele>
        <time>2016-06-30T13:59:58Z</time>
      </trkpt>
      <trkpt lat="42.46059" lon="2.21816">
        <ele>1902.11</ele>
        <time>2016-06-30T14:00:04Z</time>
      </trkpt>
      <trkpt lat="42.46062" lon="2.21822">
        <ele>1902.11</ele>
        <time>2016-06-30T14:00:07Z</time>
      </trkpt>
      <trkpt lat="42.46063" lon="2.21831">
        <ele>1897.3</ele>
        <time>2016-06-30T14:00:12Z</time>
      </trkpt>
      <trkpt lat="42.46062" lon="2.21834">
        <ele>1896.34</ele>
        <time>2016-06-30T14:00:13Z</time>
      </trkpt>
      <trkpt lat="42.46059" lon="2.21842">
        <ele>1893.45</ele>
        <time>2016-06-30T14:00:18Z</time>
      </trkpt>
      <trkpt lat="42.46059" lon="2.21846">
        <ele>1893.45</ele>
        <time>2016-06-30T14:00:21Z</time>
      </trkpt>
      <trkpt lat="42.46061" lon="2.2186">
        <ele>1893.45</ele>
        <time>2016-06-30T14:00:33Z</time>
      </trkpt>
      <trkpt lat="42.46062" lon="2.21863">
        <ele>1893.45</ele>
        <time>2016-06-30T14:00:35Z</time>
      </trkpt>
      <trkpt lat="42.46069" lon="2.21872">
        <ele>1892.49</ele>
        <time>2016-06-30T14:00:43Z</time>
      </trkpt>
      <trkpt lat="42.46072" lon="2.21877">
        <ele>1892.01</ele>
        <time>2016-06-30T14:00:47Z</time>
      </trkpt>
      <trkpt lat="42.46079" lon="2.21885">
        <ele>1890.57</ele>
        <time>2016-06-30T14:00:56Z</time>
      </trkpt>
      <trkpt lat="42.46086" lon="2.21888">
        <ele>1890.09</ele>
        <time>2016-06-30T14:01:05Z</time>
      </trkpt>
      <trkpt lat="42.46089" lon="2.21888">
        <ele>1889.61</ele>
        <time>2016-06-30T14:01:08Z</time>
      </trkpt>
      <trkpt lat="42.46096" lon="2.21884">
        <ele>1889.13</ele>
        <time>2016-06-30T14:01:19Z</time>
      </trkpt>
      <trkpt lat="42.46107" lon="2.21883">
        <ele>1888.65</ele>
        <time>2016-06-30T14:01:31Z</time>
      </trkpt>
      <trkpt lat="42.4611" lon="2.21884">
        <ele>1888.65</ele>
        <time>2016-06-30T14:01:48Z</time>
      </trkpt>
      <trkpt lat="42.46113" lon="2.21888">
        <ele>1888.65</ele>
        <time>2016-06-30T14:01:53Z</time>
      </trkpt>
      <trkpt lat="42.46115" lon="2.21892">
        <ele>1888.65</ele>
        <time>2016-06-30T14:01:59Z</time>
      </trkpt>
      <trkpt lat="42.46123" lon="2.21894">
        <ele>1888.17</ele>
        <time>2016-06-30T14:02:11Z</time>
      </trkpt>
      <trkpt lat="42.46126" lon="2.21896">
        <ele>1888.17</ele>
        <time>2016-06-30T14:02:16Z</time>
      </trkpt>
      <trkpt lat="42.4613" lon="2.21909">
        <ele>1887.21</ele>
        <time>2016-06-30T14:02:27Z</time>
      </trkpt>
      <trkpt lat="42.46132" lon="2.21914">
        <ele>1886.72</ele>
        <time>2016-06-30T14:02:30Z</time>
      </trkpt>
      <trkpt lat="42.46134" lon="2.21929">
        <ele>1883.36</ele>
        <time>2016-06-30T14:02:38Z</time>
      </trkpt>
      <trkpt lat="42.46135" lon="2.2194">
        <ele>1880</ele>
        <time>2016-06-30T14:02:45Z</time>
      </trkpt>
      <trkpt lat="42.46135" lon="2.21948">
        <ele>1880.48</ele>
        <time>2016-06-30T14:02:49Z</time>
      </trkpt>
      <trkpt lat="42.46138" lon="2.2196">
        <ele>1880.48</ele>
        <time>2016-06-30T14:02:57Z</time>
      </trkpt>
      <trkpt lat="42.46138" lon="2.21974">
        <ele>1879.51</ele>
        <time>2016-06-30T14:03:07Z</time>
      </trkpt>
      <trkpt lat="42.46138" lon="2.21977">
        <ele>1879.51</ele>
        <time>2016-06-30T14:03:10Z</time>
      </trkpt>
      <trkpt lat="42.46139" lon="2.21986">
        <ele>1878.55</ele>
        <time>2016-06-30T14:03:17Z</time>
      </trkpt>
      <trkpt lat="42.46143" lon="2.21999">
        <ele>1877.11</ele>
        <time>2016-06-30T14:03:26Z</time>
      </trkpt>
      <trkpt lat="42.46146" lon="2.22003">
        <ele>1876.63</ele>
        <time>2016-06-30T14:03:30Z</time>
      </trkpt>
      <trkpt lat="42.46153" lon="2.22021">
        <ele>1875.67</ele>
        <time>2016-06-30T14:03:42Z</time>
      </trkpt>
      <trkpt lat="42.46157" lon="2.2203">
        <ele>1874.71</ele>
        <time>2016-06-30T14:03:48Z</time>
      </trkpt>
      <trkpt lat="42.46159" lon="2.22037">
        <ele>1874.71</ele>
        <time>2016-06-30T14:03:53Z</time>
      </trkpt>
      <trkpt lat="42.46164" lon="2.22043">
        <ele>1874.71</ele>
        <time>2016-06-30T14:03:58Z</time>
      </trkpt>
      <trkpt lat="42.4617" lon="2.22055">
        <ele>1874.23</ele>
        <time>2016-06-30T14:04:06Z</time>
      </trkpt>
      <trkpt lat="42.46175" lon="2.22064">
        <ele>1874.23</ele>
        <time>2016-06-30T14:04:13Z</time>
      </trkpt>
      <trkpt lat="42.46179" lon="2.2208">
        <ele>1872.79</ele>
        <time>2016-06-30T14:04:25Z</time>
      </trkpt>
      <trkpt lat="42.46181" lon="2.22086">
        <ele>1871.82</ele>
        <time>2016-06-30T14:04:32Z</time>
      </trkpt>
      <trkpt lat="42.46191" lon="2.22103">
        <ele>1869.9</ele>
        <time>2016-06-30T14:04:46Z</time>
      </trkpt>
      <trkpt lat="42.46195" lon="2.22108">
        <ele>1869.9</ele>
        <time>2016-06-30T14:04:52Z</time>
      </trkpt>
      <trkpt lat="42.46201" lon="2.22111">
        <ele>1868.46</ele>
        <time>2016-06-30T14:04:59Z</time>
      </trkpt>
      <trkpt lat="42.46214" lon="2.22118">
        <ele>1867.5</ele>
        <time>2016-06-30T14:05:13Z</time>
      </trkpt>
      <trkpt lat="42.46224" lon="2.22126">
        <ele>1866.54</ele>
        <time>2016-06-30T14:05:22Z</time>
      </trkpt>
      <trkpt lat="42.46228" lon="2.22127">
        <ele>1866.06</ele>
        <time>2016-06-30T14:05:26Z</time>
      </trkpt>
      <trkpt lat="42.46245" lon="2.22132">
        <ele>1864.13</ele>
        <time>2016-06-30T14:05:40Z</time>
      </trkpt>
      <trkpt lat="42.46249" lon="2.22133">
        <ele>1863.65</ele>
        <time>2016-06-30T14:05:43Z</time>
      </trkpt>
      <trkpt lat="42.46251" lon="2.22136">
        <ele>1863.17</ele>
        <time>2016-06-30T14:05:46Z</time>
      </trkpt>
      <trkpt lat="42.46262" lon="2.22143">
        <ele>1862.69</ele>
        <time>2016-06-30T14:05:56Z</time>
      </trkpt>
      <trkpt lat="42.46265" lon="2.22144">
        <ele>1862.69</ele>
        <time>2016-06-30T14:05:59Z</time>
      </trkpt>
      <trkpt lat="42.46269" lon="2.22147">
        <ele>1862.21</ele>
        <time>2016-06-30T14:06:03Z</time>
      </trkpt>
      <trkpt lat="42.4629" lon="2.22152">
        <ele>1860.77</ele>
        <time>2016-06-30T14:06:19Z</time>
      </trkpt>
      <trkpt lat="42.46295" lon="2.22156">
        <ele>1860.77</ele>
        <time>2016-06-30T14:06:23Z</time>
      </trkpt>
      <trkpt lat="42.463" lon="2.22155">
        <ele>1860.29</ele>
        <time>2016-06-30T14:06:29Z</time>
      </trkpt>
      <trkpt lat="42.46308" lon="2.22156">
        <ele>1860.29</ele>
        <time>2016-06-30T14:06:36Z</time>
      </trkpt>
      <trkpt lat="42.46323" lon="2.22163">
        <ele>1859.33</ele>
        <time>2016-06-30T14:06:49Z</time>
      </trkpt>
      <trkpt lat="42.46328" lon="2.22174">
        <ele>1857.89</ele>
        <time>2016-06-30T14:06:58Z</time>
      </trkpt>
      <trkpt lat="42.46336" lon="2.22181">
        <ele>1856.92</ele>
        <time>2016-06-30T14:07:06Z</time>
      </trkpt>
      <trkpt lat="42.46349" lon="2.22193">
        <ele>1854.52</ele>
        <time>2016-06-30T14:07:18Z</time>
      </trkpt>
      <trkpt lat="42.46358" lon="2.22207">
        <ele>1852.12</ele>
        <time>2016-06-30T14:07:29Z</time>
      </trkpt>
      <trkpt lat="42.46363" lon="2.22208">
        <ele>1851.64</ele>
        <time>2016-06-30T14:07:33Z</time>
      </trkpt>
      <trkpt lat="42.46375" lon="2.22221">
        <ele>1850.68</ele>
        <time>2016-06-30T14:07:45Z</time>
      </trkpt>
      <trkpt lat="42.46377" lon="2.22225">
        <ele>1850.19</ele>
        <time>2016-06-30T14:07:47Z</time>
      </trkpt>
      <trkpt lat="42.46382" lon="2.22233">
        <ele>1849.23</ele>
        <time>2016-06-30T14:07:52Z</time>
      </trkpt>
      <trkpt lat="42.46388" lon="2.22246">
        <ele>1848.27</ele>
        <time>2016-06-30T14:08:00Z</time>
      </trkpt>
      <trkpt lat="42.4639" lon="2.22253">
        <ele>1847.79</ele>
        <time>2016-06-30T14:08:04Z</time>
      </trkpt>
      <trkpt lat="42.46393" lon="2.22276">
        <ele>1845.87</ele>
        <time>2016-06-30T14:08:15Z</time>
      </trkpt>
      <trkpt lat="42.46398" lon="2.223">
        <ele>1844.43</ele>
        <time>2016-06-30T14:08:28Z</time>
      </trkpt>
      <trkpt lat="42.46401" lon="2.22307">
        <ele>1843.95</ele>
        <time>2016-06-30T14:08:33Z</time>
      </trkpt>
      <trkpt lat="42.46405" lon="2.22316">
        <ele>1842.98</ele>
        <time>2016-06-30T14:08:39Z</time>
      </trkpt>
      <trkpt lat="42.46409" lon="2.22321">
        <ele>1842.02</ele>
        <time>2016-06-30T14:08:43Z</time>
      </trkpt>
      <trkpt lat="42.46417" lon="2.22334">
        <ele>1841.06</ele>
        <time>2016-06-30T14:08:52Z</time>
      </trkpt>
      <trkpt lat="42.46419" lon="2.22336">
        <ele>1841.06</ele>
        <time>2016-06-30T14:08:53Z</time>
      </trkpt>
      <trkpt lat="42.46424" lon="2.22345">
        <ele>1840.58</ele>
        <time>2016-06-30T14:08:58Z</time>
      </trkpt>
      <trkpt lat="42.46425" lon="2.22346">
        <ele>1839.62</ele>
        <time>2016-06-30T14:08:59Z</time>
      </trkpt>
      <trkpt lat="42.46425" lon="2.22348">
        <ele>1839.62</ele>
        <time>2016-06-30T14:09:00Z</time>
      </trkpt>
      <trkpt lat="42.46425" lon="2.22349">
        <ele>1839.62</ele>
        <time>2016-06-30T14:09:01Z</time>
      </trkpt>
      <trkpt lat="42.46426" lon="2.22351">
        <ele>1839.62</ele>
        <time>2016-06-30T14:09:02Z</time>
      </trkpt>
      <trkpt lat="42.46426" lon="2.22352">
        <ele>1839.14</ele>
        <time>2016-06-30T14:09:03Z</time>
      </trkpt>
      <trkpt lat="42.46428" lon="2.22354">
        <ele>1839.14</ele>
        <time>2016-06-30T14:09:04Z</time>
      </trkpt>
      <trkpt lat="42.46429" lon="2.22356">
        <ele>1839.14</ele>
        <time>2016-06-30T14:09:05Z</time>
      </trkpt>
      <trkpt lat="42.4643" lon="2.22358">
        <ele>1839.14</ele>
        <time>2016-06-30T14:09:06Z</time>
      </trkpt>
      <trkpt lat="42.46431" lon="2.2236">
        <ele>1839.14</ele>
        <time>2016-06-30T14:09:07Z</time>
      </trkpt>
      <trkpt lat="42.46432" lon="2.22362">
        <ele>1839.14</ele>
        <time>2016-06-30T14:09:08Z</time>
      </trkpt>
      <trkpt lat="42.46433" lon="2.22364">
        <ele>1838.66</ele>
        <time>2016-06-30T14:09:09Z</time>
      </trkpt>
      <trkpt lat="42.46433" lon="2.22366">
        <ele>1838.66</ele>
        <time>2016-06-30T14:09:10Z</time>
      </trkpt>
      <trkpt lat="42.46434" lon="2.22367">
        <ele>1838.66</ele>
        <time>2016-06-30T14:09:11Z</time>
      </trkpt>
      <trkpt lat="42.46435" lon="2.22374">
        <ele>1838.66</ele>
        <time>2016-06-30T14:09:15Z</time>
      </trkpt>
      <trkpt lat="42.46435" lon="2.22376">
        <ele>1838.66</ele>
        <time>2016-06-30T14:09:16Z</time>
      </trkpt>
      <trkpt lat="42.46436" lon="2.2238">
        <ele>1838.18</ele>
        <time>2016-06-30T14:09:18Z</time>
      </trkpt>
      <trkpt lat="42.46435" lon="2.22381">
        <ele>1838.18</ele>
        <time>2016-06-30T14:09:19Z</time>
      </trkpt>
      <trkpt lat="42.46434" lon="2.22384">
        <ele>1838.18</ele>
        <time>2016-06-30T14:09:21Z</time>
      </trkpt>
      <trkpt lat="42.46435" lon="2.22384">
        <ele>1838.18</ele>
        <time>2016-06-30T14:09:22Z</time>
      </trkpt>
      <trkpt lat="42.46436" lon="2.22384">
        <ele>1837.7</ele>
        <time>2016-06-30T14:09:36Z</time>
      </trkpt>
      <trkpt lat="42.46436" lon="2.22383">
        <ele>1837.7</ele>
        <time>2016-06-30T14:09:51Z</time>
      </trkpt>
      <trkpt lat="42.46436" lon="2.22383">
        <ele>1837.22</ele>
        <time>2016-06-30T14:10:12Z</time>
      </trkpt>
      <trkpt lat="42.46436" lon="2.22382">
        <ele>1836.74</ele>
        <time>2016-06-30T14:10:34Z</time>
      </trkpt>
      <trkpt lat="42.46436" lon="2.22381">
        <ele>1836.26</ele>
        <time>2016-06-30T14:10:52Z</time>
      </trkpt>
      <trkpt lat="42.46436" lon="2.22382">
        <ele>1836.26</ele>
        <time>2016-06-30T14:11:17Z</time>
      </trkpt>
      <trkpt lat="42.46437" lon="2.2238">
        <ele>1835.29</ele>
        <time>2016-06-30T14:11:42Z</time>
      </trkpt>
      <trkpt lat="42.46439" lon="2.2238">
        <ele>1835.29</ele>
        <time>2016-06-30T14:11:58Z</time>
      </trkpt>
      <trkpt lat="42.46438" lon="2.2238">
        <ele>1835.29</ele>
        <time>2016-06-30T14:12:20Z</time>
      </trkpt>
      <trkpt lat="42.4644" lon="2.22379">
        <ele>1835.29</ele>
        <time>2016-06-30T14:12:39Z</time>
      </trkpt>
    </trkseg>
  </trk>
</gpx>